KFLSEBAS1 - CW7841 in Sebastian, Florida  

Real Time Weather Statistics from Sebastian Highlands





Enter city or zip for your forecast     


2005-2014 Daily Reports
Daily, Monthly and Yearly Statistics
Snark fixed the MoFo!


Find the Weather for any City,
State or Zipcode, or Country:  

Sebastian (Sebastian Highlands), FL 32958   2005-2014 Daily Reports
[Select Refresh to Update]
Updated Automatically by Ambient Software's Virtual Weather Station  V15.00

 


Sebastian (Sebastian Highlands), FL 32958    Prior Years 2005-2014 Daily Summary Report

Date		Wind	Hi	Lo	Wind	Hi	Lo	Wind	Hi	Lo	Hum	Hi	Lo	Hum	Hi	Lo	Temp	Hi	Lo	Temp	Hi	Lo	Raw	Hi	Lo	Tot	Hi	Lo
		Dir			Speed	Mph	Mph	Gust	Mph	Mph	In%	%	%	Out%	%	%	Inside	F	F	F	F	F	Barom	in	in	Rain	in	in
					Mph			Mph									F						Inches

1/28/2005	315	133	1	7	22	0							84	92	78				64.5	66.0	62.2	30.13	30.49	30.10	4.55	4.67	4.66
1/29/2005	315	243	18	4	18	0							77	86	62				65.7	73.7	61.6	30.07	30.17	29.96	4.53	4.67	4.67
1/30/2005	315	359	0	2	17	0							80	96	57				65.4	77.9	57.0	29.89	29.96	29.79	4.52	4.67	4.67
1/31/2005	315	359	0	3	15	0							84	95	66				58.4	68.0	48.2	30.00	30.07	29.92	4.52	4.67	4.67
2/1/2005	315	359	0	2	15	0							89	100	72				60.4	70.4	50.6	30.05	30.11	29.97	4.53	4.68	4.67
2/2/2005	315	338	0	1	6	0							96	100	88				61.9	67.5	55.9	30.05	30.10	29.90	4.81	4.90	4.68
2/3/2005	315	338	0	1	6	0							91	99	76				64.5	74.3	56.2	29.97	30.09	29.88	4.86	4.91	4.90
2/4/2005	315	359	0	5	20	0							82	96	66				56.7	64.7	49.5	29.99	30.09	29.89	4.79	4.94	4.91
2/5/2005	315	359	0	4	19	0							77	87	63				57.2	66.2	51.3	30.09	30.14	30.04	4.79	4.94	4.94
2/6/2005	315	359	0	3	18	0							78	92	60				62.7	73.2	53.5	30.12	30.18	30.06	4.79	4.94	4.94
2/7/2005	315	359	0	2	13	0							78	92	59				65.5	75.9	57.0	30.04	30.11	29.97	4.79	4.94	4.94
2/8/2005	315	359	0	1	12	0							88	99	70				64.0	75.0	55.7	29.99	30.06	29.92	4.79	4.94	4.94
2/9/2005	315	262	0	2	14	0							81	98	62				64.7	76.8	52.7	29.92	30.01	29.84	4.80	4.95	4.94
2/10/2005	315	358	175	4	22	0							73	94	42				63.9	77.5	52.4	29.85	29.99	29.74	4.80	4.95	4.95
2/11/2005	315	359	0	3	18	0							57	76	39				50.6	61.0	41.9	30.10	30.22	29.97	4.81	4.95	4.95
2/12/2005	315	338	0	3	22	0							70	92	37				54.4	66.0	38.8	30.14	30.49	30.03	4.72	4.66	4.66
2/13/2005	112	307	68	2	8	0							70	91	33				56.8	72.5	40.3	30.12	30.24	30.01	4.66	4.66	4.66
2/14/2005	135	236	73	3	20	0							75	94	50				65.2	80.5	51.9	30.05	30.14	29.95	4.66	4.66	4.66
2/15/2005	135	357	4	1	12	0							79	94	61				67.1	78.6	55.9	30.02	30.11	29.94	4.66	4.66	4.66
2/16/2005	248	329	156	2	15	0							74	94	50				69.1	84.4	55.3	29.90	30.00	29.78	4.66	4.66	4.66
2/17/2005	292	359	0	2	18	0							77	95	46				69.5	83.7	57.4	29.85	29.93	29.75	4.66	4.66	4.66
2/18/2005	0	359	0	4	18	0							65	83	49				62.1	68.9	56.2	30.03	30.15	29.91	4.66	4.66	4.66
2/19/2005	68	359	0	3	17	0							72	90	52				59.6	73.3	51.3	30.19	30.24	30.14	4.66	4.66	4.66
2/20/2005	0	193	50	4	21	0							69	83	52				68.0	78.2	59.0	30.16	30.24	30.07	4.66	4.66	4.66
2/21/2005	202	310	114	3	17	0							72	92	41				70.7	85.9	56.2	30.03	30.13	29.91	4.66	4.66	4.66
2/22/2005	225	359	34	2	13	0							78	94	52				71.3	86.0	60.6	29.97	30.05	29.88	4.66	4.66	4.66
2/23/2005	158	359	0	2	12	0							85	95	75				70.5	79.3	64.1	29.92	30.00	29.83	4.66	4.66	4.66
2/24/2005	202	310	162	3	20	0							76	95	49				71.0	85.7	62.0	29.81	29.90	29.70	4.66	4.66	4.66
2/25/2005	0	359	0	1	11	0							89	99	78				67.8	76.9	62.8	29.76	29.83	29.68	4.73	4.79	4.66
2/26/2005	112	359	0	4	18	0							89	99	71				69.4	78.1	62.9	29.82	29.87	29.76	4.81	4.82	4.79
2/27/2005	158	336	3	4	31	0							97	100	91				70.2	72.9	67.3	29.64	29.81	29.44	5.83	6.58	4.82
2/28/2005	270	354	17	6	23	0							76	93	58				71.1	81.6	62.6	29.62	29.73	29.52	6.58	6.58	6.58
3/1/2005	292	359	0	4	24	0							64	89	36				62.4	73.7	52.4	29.84	29.95	29.73	6.58	6.58	6.58
3/2/2005	315	359	0	3	13	0							58	82	33				55.1	64.6	46.2	30.01	30.12	29.91	6.58	6.58	6.58
3/3/2005	0	359	0	2	12	0							80	94	67				53.0	60.8	47.1	30.02	30.10	29.98	6.62	6.80	6.58
3/4/2005	0	359	0	3	16	0							82	97	64				59.4	69.4	53.1	29.98	30.04	29.91	6.92	6.93	6.80
3/5/2005	315	359	0	2	15	0							69	97	26				60.6	75.3	47.3	30.00	30.13	29.87	6.94	6.94	6.93
3/6/2005	315	359	0	2	13	0							67	96	26				62.5	74.8	52.5	30.02	30.11	29.95	6.94	6.94	6.94
3/7/2005	202	359	0	1	12	0							58	76	37				67.3	79.6	58.3	29.88	30.01	29.70	6.94	6.94	6.94
3/8/2005	292	359	13	7	30	0							68	93	33				68.0	78.3	56.4	29.66	29.82	29.58	6.94	6.94	6.94
3/9/2005	338	359	0	3	16	0							83	97	63				56.3	61.9	50.1	29.81	29.89	29.74	7.18	7.64	6.94
3/10/2005	315	359	0	3	17	0							72	97	46				55.2	66.5	45.9	29.86	29.95	29.78	7.64	7.64	7.64
3/11/2005	248	319	166	4	20	0							71	92	49				60.7	76.8	45.5	29.86	29.99	29.71	7.64	7.64	7.64
3/12/2005	270	359	0	3	19	0							53	92	21				64.1	77.9	52.3	29.90	30.02	29.81	7.64	7.64	7.64
3/13/2005	248	337	172	3	14	0							64	85	44				67.4	85.6	50.4	29.86	29.98	29.73	7.64	7.64	7.64
3/14/2005	225	359	0	2	25	0							81	97	52				70.5	88.5	59.5	29.79	29.88	29.71	7.66	7.69	7.64
3/15/2005	45	359	0	1	13	0							89	99	69				70.7	82.2	64.4	29.82	29.86	29.77	7.69	7.69	7.69
3/16/2005	225	359	0	5	23	0							81	99	57				77.7	89.8	70.0	29.66	29.83	29.55	7.69	7.69	7.69
3/17/2005	202	348	105	4	15	0							97	100	87				67.2	72.8	64.7	29.63	29.71	29.57	8.20	8.67	7.69
3/18/2005	315	359	0	3	15	0							82	100	54				61.4	70.2	54.2	29.81	29.95	29.65	8.71	8.72	8.67
3/19/2005	315	359	0	2	15	0							77	96	51				58.1	71.7	46.3	29.96	30.05	29.89	8.72	8.72	8.72
3/20/2005	45	359	0	1	15	0							79	99	49				61.9	74.5	49.1	29.96	30.07	29.88	8.72	8.72	8.72
3/21/2005	135	229	0	3	20	0							88	97	68				69.0	79.2	60.7	29.83	29.94	29.73	8.86	9.29	8.72
3/22/2005	180	302	72	4	22	0							92	100	73				74.9	86.8	67.3	29.77	29.84	29.65	9.31	9.37	9.29
3/23/2005	202	357	109	4	21	0							89	100	70				75.5	82.6	68.9	29.73	29.81	29.54	9.37	9.37	9.37
3/24/2005	135	359	0	2	11	0							76	100	48				72.0	81.2	65.8	29.83	29.90	29.75	9.37	9.37	9.37
3/25/2005	225	359	0	4	23	0							87	100	61				77.3	90.8	70.4	29.76	29.84	29.63	9.47	9.86	9.37
3/26/2005	180	359	0	4	16	0							89	100	68				75.3	89.1	69.6	29.75	29.79	29.69	9.98	10.23	9.86
3/27/2005	202	310	18	5	22	0							81	100	54				80.2	92.9	71.5	29.66	29.74	29.56	10.23	10.23	10.23
3/28/2005	270	345	130	8	25	0							79	95	45				72.9	81.3	61.7	29.60	29.73	29.53	10.36	10.44	10.23
3/29/2005	292	359	0	2	15	0							71	95	37				70.2	87.2	57.2	29.76	29.83	29.68	10.44	10.44	10.44
3/30/2005	112	359	0	2	13	0							73	91	49				69.2	83.4	53.6	29.84	29.93	29.77	10.44	10.44	10.44
3/31/2005	158	268	54	3	20	0							82	96	65				76.4	88.8	66.8	29.82	29.87	29.78	10.44	10.44	10.44
4/1/2005	135	248	64	4	22	0							78	96	57				77.8	89.8	67.6	29.74	29.85	29.64	10.44	10.44	10.44
4/2/2005	292	354	29	6	25	0							74	97	34				71.5	82.3	58.9	29.65	29.86	29.52	10.57	10.65	10.44
4/3/2005	315	359	0	3	19	0							54	85	28				64.7	80.9	50.4	29.95	30.06	29.86	10.65	10.65	10.65
4/4/2005	45	359	0	1	12	0							69	91	40				65.8	81.6	50.1	30.00	30.10	29.92	10.65	10.65	10.65
4/5/2005	112	197	1	3	19	0							75	95	50				70.2	84.1	56.7	30.00	30.06	29.96	10.65	10.65	10.65
4/6/2005	135	249	53	7	25	0							71	82	56				75.4	85.6	68.0	29.97	30.03	29.90	10.65	10.65	10.65
4/7/2005	158	359	0	6	31	0							78	94	61				76.1	88.5	66.7	29.80	29.93	29.63	10.74	11.59	10.65
4/8/2005	292	348	121	4	17	0							77	98	45				73.9	86.7	66.5	29.60	29.67	29.50	11.59	11.59	11.59
4/9/2005	45	359	0	3	14	0							78	96	57				69.8	80.8	59.9	29.68	29.77	29.61	11.59	11.59	11.59
4/10/2005	315	359	0	3	17	0							81	99	62				70.3	82.1	61.9	29.79	29.83	29.75	11.59	11.59	11.59
4/11/2005	112	146	21	4	13	0							67	80	53				73.6	84.5	66.6	29.79	29.84	29.72	11.59	11.59	11.59
4/12/2005	135	219	12	4	19	0							72	88	53				74.7	87.4	65.5	29.71	29.80	29.63	11.59	11.59	11.59
4/13/2005	292	351	33	5	21	0							67	95	34				75.5	88.4	64.7	29.58	29.66	29.51	11.60	11.60	11.59
4/14/2005	0	359	0	4	16	0							61	82	33				74.4	87.1	61.8	29.64	29.73	29.56	11.60	11.60	11.60
4/15/2005	0	359	0	4	23	0							73	86	54				65.5	75.3	55.2	29.83	29.96	29.73	11.60	11.60	11.60
4/16/2005	0	359	0	6	24	0							68	83	54				66.7	74.2	57.3	30.02	30.10	29.94	11.60	11.60	11.60
4/17/2005	0	359	0	5	21	0							80	96	65				64.7	76.1	54.3	30.06	30.11	30.00	11.60	11.60	11.60
4/18/2005	45	359	0	3	17	0							74	98	50				68.4	80.6	56.1	30.03	30.10	29.96	11.60	11.60	11.60
4/19/2005	68	135	24	2	6	0							66	86	47				70.5	81.4	59.8	29.99	30.06	29.92	11.60	11.60	11.60
4/20/2005	112	158	90	2	6	0							69	89	50				71.0	81.0	61.9	29.93	29.98	29.86	11.60	11.60	11.60
4/21/2005	112	315	0	2	7	0							76	94	56				71.2	82.2	60.5	29.83	29.92	29.75	11.60	11.60	11.60
4/22/2005	315	359	0	2	17	0							74	95	52				73.4	86.0	61.8	29.75	29.81	29.64	11.60	11.60	11.60
4/23/2005	248	351	148	3	21	0							68	90	34				74.9	92.0	60.9	29.63	29.73	29.47	11.61	11.65	11.60
4/24/2005	315	359	0	4	15	0							60	93	37				69.3	81.4	56.7	29.66	29.78	29.58	11.66	11.66	11.65
4/25/2005	68	359	0	3	16	0							65	86	37				63.1	78.5	48.4	29.81	29.89	29.74	11.66	11.66	11.66
4/26/2005	180	359	0	4	24	0							70	89	42				75.8	95.3	59.9	29.75	29.83	29.62	11.66	11.66	11.66
4/27/2005	225	359	0	4	22	0	13	22	0	33	39	26	83	97	59	80.0	87.4	75.4	74.9	88.5	67.3	29.77	29.84	29.71	12.23	12.32	11.66
4/28/2005	45	359	0	2	16	0	8	16	0	24	34	9	67	90	38	78.6	86.9	70.2	72.1	84.4	58.6	29.90	29.96	29.84	12.32	12.32	12.32
4/30/2005	158	237	73	5	26	0	14	26	1	33	46	25	75	89	57	80.5	90.2	74.2	77.7	91.4	66.6	29.85	59.46	28.73	12.32	12.32	12.32
5/1/2005	180	359	0	5	33	0	13	33	0	46	52	32	87	97	60	80.3	86.4	77.3	76.0	87.3	71.4	29.92	30.03	29.85	12.36	12.38	12.32
5/2/2005	22	359	0	3	19	0	9	19	0	41	46	30	88	100	68	81.8	88.5	77.0	75.9	83.9	69.1	29.91	29.96	29.85	12.38	12.38	12.38
5/3/2005	68	359	0	3	17	0	11	17	1	43	53	30	84	97	62	82.0	88.9	77.3	77.2	88.2	71.1	29.97	30.04	29.92	12.39	12.51	12.38
5/4/2005	112	359	0	4	27	0	12	27	0	52	59	46	94	99	82	79.4	83.2	75.9	74.0	82.0	69.3	30.02	30.10	29.97	13.02	13.97	12.51
5/5/2005	180	359	0	3	23	0	11	23	0	51	60	41	92	100	76	78.8	83.8	75.8	74.2	84.8	68.3	29.98	30.08	29.91	14.25	15.04	13.97
5/6/2005	338	359	0	3	16	0	9	16	0	42	49	30	87	100	65	77.2	82.7	73.6	69.9	79.5	63.1	30.00	30.09	29.94	15.05	15.05	15.04
5/7/2005	45	359	0	3	17	0	10	17	0	30	43	17	73	99	46	77.5	85.9	69.3	71.2	83.3	59.1	30.08	30.13	30.02	15.05	15.05	15.05
5/8/2005	135	359	0	2	14	0	7	14	0	21	31	10	61	86	36	79.6	88.4	71.5	75.2	88.5	61.9	30.04	30.10	29.96	15.05	15.05	15.05
5/9/2005	112	359	0	2	17	0	7	17	0	22	29	14	66	85	42	80.2	89.1	71.5	75.0	89.9	61.1	30.01	30.08	29.94	15.05	15.05	15.05
5/10/2005	112	359	0	2	17	0	8	17	0	24	31	14	67	89	42	81.5	89.9	73.5	77.1	91.6	63.9	29.99	30.05	29.92	15.05	15.05	15.05
5/11/2005	135	270	58	3	19	0	8	19	0	23	29	15	67	89	41	82.4	90.8	76.2	78.0	93.4	66.6	29.96	30.01	29.90	15.05	15.05	15.05
5/12/2005	68	359	0	2	16	0	7	16	0	26	33	20	72	91	53	82.5	90.2	74.6	76.9	88.0	65.3	30.04	30.08	30.00	15.05	15.05	15.05
5/13/2005	90	150	23	4	24	0	13	24	1	29	38	19	70	83	55	82.1	88.5	77.7	77.1	85.6	72.2	30.03	30.07	29.98	15.05	15.05	15.05
5/14/2005	90	167	30	5	20	0	15	20	2	31	38	25	72	80	57	82.3	88.5	77.0	77.6	87.4	71.5	29.96	30.04	29.88	15.05	15.05	15.05
5/15/2005	112	292	38	3	13	0	9	13	0	33	37	25	76	90	56	81.5	88.0	77.3	76.7	87.5	68.6	29.87	29.92	29.82	15.05	15.05	15.05
5/16/2005	112	180	24	2	16	0	8	16	0	32	37	24	77	93	54	81.9	90.2	75.1	76.4	88.7	65.7	29.85	29.89	29.79	15.05	15.05	15.05
5/17/2005	135	168	57	3	10	0	11	22	0	35	45	28	78	92	63	84.2	92.1	78.2	79.8	90.0	70.1	29.86	29.91	29.81	15.05	15.05	15.05
5/18/2005	45	112	45	5	7	2	14	20	7	40	49	30	78	89	65	83.3	90.0	78.5	79.2	86.7	74.0	29.87	29.91	29.83	15.05	15.05	15.05
5/19/2005	68	90	45	5	6	2	14	18	7	38	49	28	74	86	63	83.0	89.5	77.9	79.3	86.9	73.7	29.88	29.92	29.84	15.05	15.05	15.05
5/18/2005	68	112	29	5	12	0	14	20	5	40	49	30	78	89	65	83.3	90.0	78.5	79.1	86.7	74.0	29.87	29.91	29.83	15.05	15.05	15.05
5/19/2005	90	132	29	5	12	0	14	18	2	38	49	28	74	86	63	83.0	89.5	77.9	79.0	86.9	73.7	29.89	29.92	29.84	15.05	15.05	15.05
5/20/2005	112	359	1	3	16	0	9	16	0	31	38	22	73	90	54	84.3	91.2	78.2	79.8	91.6	69.1	29.82	29.89	29.73	15.05	15.05	15.05
5/21/2005	45	359	0	2	16	0	9	16	0	33	48	27	78	94	52	84.9	91.6	78.8	79.3	92.3	69.5	29.74	29.79	29.65	15.05	15.05	15.05
5/22/2005	45	359	0	4	15	0	11	16	0	37	47	27	80	91	61	84.6	91.2	80.5	78.9	88.0	73.8	29.78	29.83	29.75	15.12	15.16	15.05
5/23/2005	112	359	0	3	15	0	8	15	0	32	37	24	75	92	54	85.6	93.1	79.6	81.6	93.2	70.5	29.76	29.82	29.67	15.16	15.16	15.16
5/24/2005	292	333	185	4	18	0	11	18	1	31	39	23	74	94	53	87.0	94.5	80.1	83.3	97.5	70.6	29.65	29.72	29.55	15.16	15.16	15.16
5/25/2005	45	359	0	4	19	0	12	19	2	36	43	26	85	94	66	86.2	93.4	81.2	79.0	88.8	73.3	29.66	29.80	29.58	15.20	15.32	15.16
5/26/2005	45	137	1	4	15	0	13	15	1	34	39	28	75	85	64	81.4	84.7	78.7	76.2	81.7	72.3	29.84	29.90	29.79	15.32	15.32	15.32
5/27/2005	90	170	17	3	19	0	12	19	1	43	51	35	85	94	71	84.0	90.4	80.1	79.1	87.7	73.9	29.91	29.94	29.88	15.34	15.35	15.32
5/28/2005	248	359	0	2	13	0	7	13	0	36	55	20	78	100	45	86.9	94.9	80.9	84.2	99.3	73.4	29.88	29.94	29.81	15.35	15.35	15.35
5/29/2005	315	359	0	2	10	0	7	12	0	30	49	24	76	91	58	87.2	93.6	81.5	82.1	91.5	72.0	29.88	29.94	29.81	15.35	15.35	15.35
5/30/2005	315	331	11	3	19	0	9	19	0	38	49	29	81	96	60	87.8	94.9	82.3	84.4	95.3	74.6	29.83	29.89	29.75	15.35	15.35	15.35
5/31/2005	135	315	22	3	9	0	10	21	1	40	51	31	89	98	68	83.8	88.6	80.6	77.5	90.2	71.0	29.85	29.93	29.80	15.80	16.19	15.35
6/1/2005	135	359	0	3	24	0	9	24	0	49	57	45	96	100	86	81.4	82.9	79.9	75.5	79.7	70.9	29.87	29.96	29.79	17.05	17.70	16.19
6/2/2005	180	300	104	3	14	0	8	14	1	50	55	44	93	100	84	80.7	82.8	78.8	75.6	80.6	71.9	29.89	29.94	29.84	17.71	17.72	17.70
6/3/2005	112	359	0	1	25	0	6	25	0	48	53	45	97	100	84	81.0	85.1	79.3	75.5	84.2	71.5	29.90	29.94	29.86	17.79	18.44	17.72
6/4/2005	112	228	11	1	17	0	6	17	0	51	61	45	94	100	80	81.8	87.4	78.2	77.1	86.3	70.8	29.93	29.98	29.88	19.06	19.30	18.44
6/5/2005	112	320	4	1	13	0	5	13	0	48	56	40	92	100	71	84.1	90.3	80.6	79.0	90.6	73.5	29.93	29.96	29.89	19.32	19.38	19.30
6/6/2005	45	359	0	1	13	0	6	13	0	46	54	32	90	100	71	85.2	92.8	80.4	80.9	90.3	73.8	29.91	29.97	29.83	19.55	19.66	19.38
6/7/2005	135	254	27	2	20	0	7	20	0	42	47	33	85	99	65	86.7	94.4	81.7	83.3	93.9	75.2	29.84	29.90	29.78	19.66	19.66	19.66
6/8/2005	112	359	1	3	20	0	9	20	0	43	59	35	88	99	67	86.0	91.4	82.2	82.2	91.2	75.3	29.84	29.88	29.80	19.66	19.66	19.66
6/9/2005	112	214	29	6	26	0	15	26	0	50	58	42	88	100	72	86.0	90.6	82.6	82.7	91.5	77.3	29.86	29.89	29.82	19.66	19.67	19.66
6/10/2005	112	189	15	6	26	0	20	26	3	56	60	52	90	96	84	84.1	86.2	82.8	80.6	84.3	78.5	29.84	29.89	29.78	19.68	19.70	19.67
6/11/2005	135	289	35	8	28	0	19	28	4	59	68	48	93	100	73	84.5	90.2	81.6	80.9	91.3	75.3	29.81	29.85	29.77	21.68	22.75	19.70
6/12/2005	135	258	50	5	24	0	14	24	0	54	61	39	87	97	67	85.6	93.1	82.0	83.2	94.6	76.8	29.86	29.91	29.83	22.75	22.75	22.75
6/13/2005	112	200	13	3	16	0	10	16	0	45	58	31	83	99	62	87.5	94.8	81.8	83.9	94.5	76.1	29.85	29.90	29.78	22.75	22.75	22.75
6/14/2005	112	216	0	2	14	0	9	14	0	43	53	33	83	97	67	87.5	95.2	81.7	84.3	94.0	75.1	29.82	29.86	29.78	22.75	22.75	22.75
6/15/2005	135	359	0	2	19	0	8	19	0	39	50	33	81	100	59	87.6	96.7	81.4	85.2	100.5	74.1	29.80	29.86	29.72	22.76	22.92	22.75
6/16/2005	292	359	0	2	14	0	7	14	0	35	46	27	81	98	48	88.8	99.0	82.5	85.1	102.2	75.8	29.75	29.81	29.65	22.94	23.06	22.92
6/17/2005	248	359	0	2	16	0	9	16	0	35	48	26	83	100	51	87.9	97.1	81.8	83.8	99.9	73.8	29.72	29.77	29.66	23.07	23.13	23.06
6/18/2005	225	359	0	2	17	0	8	17	0	35	50	25	81	99	53	88.4	97.1	82.8	85.0	99.4	76.0	29.74	29.78	29.70	23.14	23.18	23.13
6/19/2005	45	359	0	2	17	0	7	17	0	34	43	26	83	98	54	87.1	96.3	81.7	82.7	95.4	73.8	29.80	29.89	29.75	23.23	23.47	23.18
6/20/2005	112	359	0	1	12	0	5	12	0	42	52	34	90	100	75	84.3	87.3	82.4	79.2	87.4	75.4	29.90	30.00	29.82	23.49	23.50	23.47
6/21/2005	112	359	0	2	15	0	7	15	0	40	45	34	87	100	65	84.0	90.1	80.5	79.1	93.1	73.2	29.99	30.05	29.95	23.50	23.53	23.50
6/22/2005	0	359	0	2	8	0	6	13	0	42	51	37	89	100	72	83.4	87.7	80.8	78.9	87.2	74.0	29.99	30.03	29.93	23.54	23.54	23.53
6/23/2005	90	135	0	2	8	0	9	17	2	46	53	42	89	99	75	82.7	87.6	80.9	78.0	86.1	75.0	29.95	29.97	29.92	23.54	23.55	23.54
6/24/2005	45	359	0	2	21	0	13	21	0	57	66	46	96	100	77	80.5	84.2	78.6	75.7	83.6	71.7	29.88	29.93	29.83	24.32	24.80	23.55
6/25/2005	135	359	6	2	16	0	7	16	0	47	56	35	87	100	63	84.3	92.3	77.9	81.4	95.3	71.0	29.81	29.85	29.76	24.81	24.81	24.80
6/26/2005	135	357	19	3	17	0	8	17	0	45	50	37	88	99	71	87.0	94.2	81.7	83.3	95.1	75.2	29.89	29.97	29.84	24.81	24.82	24.81
6/27/2005	135	229	32	2	27	0	9	27	0	45	56	34	90	100	67	87.3	95.1	82.9	82.7	95.6	76.3	29.97	30.01	29.94	24.90	25.01	24.82
6/28/2005	112	292	25	4	22	0	11	22	0	46	59	33	88	100	68	87.2	94.2	83.0	83.6	95.8	76.9	29.95	30.00	29.89	25.02	25.03	25.01
6/29/2005	135	298	90	2	21	0	7	21	0	42	46	36	90	100	71	85.9	91.6	82.2	81.7	94.0	75.5	29.94	29.98	29.89	25.13	25.14	25.03
6/30/2005	202	356	0	3	15	0	7	15	0	40	47	33	88	98	64	86.2	92.7	82.5	82.3	96.6	75.5	29.91	29.97	29.84	25.21	25.47	25.14
7/1/2005	225	359	0	2	15	0	8	15	0	40	54	30	87	100	59	86.9	95.7	81.8	82.9	99.8	74.7	29.84	29.91	29.76	25.48	25.48	25.47
7/2/2005	225	359	0	2	32	0	8	32	0	37	48	29	85	100	59	88.2	94.9	82.8	84.8	99.3	76.1	29.82	29.87	29.77	25.51	25.56	25.48
7/3/2005	225	313	71	3	22	0	9	22	0	34	48	23	80	99	50	90.3	101.4	83.9	87.2	105.1	76.9	29.90	29.97	29.84	25.56	25.56	25.56
7/4/2005	180	359	0	3	18	0	9	18	0	33	44	27	82	97	54	89.4	97.0	84.0	85.7	100.7	77.0	30.01	30.06	29.96	25.59	25.72	25.56
7/5/2005	135	332	2	2	15	0	7	15	0	34	43	23	82	100	55	89.7	96.6	83.6	86.8	100.3	75.8	29.99	30.04	29.93	25.72	25.72	25.72
7/6/2005	135	349	1	3	17	0	9	17	0	33	41	25	80	97	57	90.6	97.2	83.7	87.3	101.2	75.8	29.91	29.96	29.86	25.72	25.72	25.72
7/7/2005	112	251	36	4	18	0	10	18	0	33	42	26	80	97	57	90.5	96.9	85.0	87.6	100.3	77.8	29.89	29.92	29.83	25.72	25.72	25.72
7/8/2005	135	179	73	5	12	0	16	26	2	40	48	33	83	96	68	91.1	97.2	86.8	87.7	97.6	80.5	29.86	29.90	29.81	25.73	25.80	25.72
7/9/2005	112	252	32	9	37	0	23	37	4	49	57	39	87	96	70	88.6	94.1	84.5	85.1	95.6	76.2	29.82	29.86	29.76	25.87	26.25	25.80
7/10/2005	135	252	78	6	36	0	19	36	2	54	64	45	92	100	77	86.3	91.0	82.9	82.5	91.7	74.7	29.87	29.92	29.83	26.55	26.60	26.25
7/11/2005	135	359	0	3	16	0	9	16	0	46	56	33	87	100	66	88.4	95.1	84.1	85.5	97.1	77.9	29.93	29.98	29.88	26.64	26.70	26.60
7/12/2005	112	359	0	3	14	0	8	14	0	42	54	34	87	100	71	89.6	95.7	84.2	85.7	94.9	77.5	29.97	30.01	29.93	26.70	26.70	26.70
7/13/2005	135	245	5	3	16	0	8	16	0	39	47	29	84	99	63	89.8	96.5	85.3	86.4	97.9	78.8	29.92	29.98	29.86	26.70	26.70	26.70
7/14/2005	135	276	39	2	19	0	8	19	0	35	43	26	83	99	61	89.7	97.6	84.3	86.7	99.6	77.2	29.88	29.93	29.80	26.71	26.71	26.70
7/15/2005	112	295	18	3	21	0	9	21	0	36	45	27	83	97	63	90.4	98.1	84.2	86.2	98.9	77.1	29.92	29.98	29.88	26.71	26.72	26.71
7/16/2005	112	226	29	4	17	0	10	17	0	39	47	31	83	93	49	89.4	93.2	85.3	85.6	94.0	77.7	29.99	30.03	29.95	26.72	26.72	26.72
7/17/2005	112	170	16	3	18	0	11	18	0	45	52	35	86	96	70	89.5	93.5	86.4	85.8	94.1	80.6	29.99	30.03	29.94	26.72	26.72	26.72
7/18/2005	112	166	18	3	22	0	12	22	0	45	52	38	85	94	70	89.2	93.2	86.2	85.7	94.0	80.8	29.96	30.01	29.91	26.75	26.81	26.72
7/19/2005	112	180	11	5	18	0	11	18	0	44	52	35	84	97	66	89.8	94.1	86.3	86.6	95.8	80.4	29.94	29.99	29.90	26.81	26.81	26.81
7/20/2005	112	175	5	3	16	0	10	16	0	44	51	37	84	94	68	89.7	93.2	86.6	86.2	94.9	80.7	29.95	29.99	29.89	26.81	26.81	26.81
7/21/2005	68	359	1	2	15	0	8	15	0	45	57	38	87	98	72	89.4	93.6	85.6	85.3	94.3	77.8	29.95	29.99	29.89	26.81	26.81	26.81
7/22/2005	45	359	0	1	13	0	5	13	0	39	52	29	83	100	61	89.6	94.3	85.7	85.7	94.8	78.2	29.91	29.95	29.86	26.81	26.81	26.81
7/23/2005	292	359	0	2	14	0	7	14	0	35	53	24	78	97	49	90.5	97.2	86.1	88.1	102.5	79.1	29.89	29.95	29.82	26.81	26.81	26.81
7/24/2005	45	359	0	2	20	0	9	20	0	38	44	32	87	99	70	90.2	95.3	87.1	85.1	95.1	77.7	29.87	29.90	29.82	26.89	27.78	26.81
7/25/2005	45	359	0	2	17	0	8	17	0	39	51	33	86	100	70	88.5	93.2	84.6	83.7	93.1	76.4	29.87	29.91	29.83	27.78	27.79	27.78
7/26/2005	112	359	0	2	14	0	6	14	0	33	39	27	78	95	61	89.2	93.9	84.6	85.4	95.5	77.0	29.87	29.92	29.83	27.79	27.79	27.79
7/27/2005	112	242	29	2	14	0	7	14	0	36	44	31	79	91	60	89.7	94.8	85.2	86.7	97.1	77.5	29.85	29.90	29.79	27.79	27.79	27.79
7/28/2005	112	240	29	2	16	0	8	16	0	42	57	33	83	97	60	89.3	93.6	86.3	86.7	96.6	78.9	29.87	29.92	29.83	27.79	27.79	27.79
7/29/2005	180	359	0	2	21	0	10	21	0	39	51	32	81	95	60	89.6	93.7	85.6	86.7	97.9	78.5	29.93	29.99	29.90	27.79	27.79	27.79
7/30/2005	112	359	0	2	17	0	7	17	0	37	49	33	86	97	63	88.5	93.7	85.6	83.3	96.1	77.5	29.96	29.99	29.92	27.82	27.91	27.79
7/31/2005	180	359	0	1	14	0	5	14	0	40	48	34	90	100	68	87.3	92.2	84.0	82.6	94.3	76.7	29.94	29.97	29.89	27.92	27.94	27.91
8/1/2005	112	359	2	1	18	0	6	18	0	40	49	33	90	100	61	87.2	93.5	83.8	81.9	95.5	75.6	29.92	29.96	29.86	27.95	28.01	27.94
8/2/2005	112	359	0	1	16	0	5	16	0	44	57	36	92	100	78	86.1	89.4	82.8	81.0	88.6	75.0	29.88	29.93	29.82	28.02	28.04	28.01
8/3/2005	45	359	0	2	14	0	6	14	0	42	52	33	86	99	67	88.2	93.8	83.7	84.0	95.8	75.5	29.84	29.88	29.78	28.04	28.04	28.04
8/4/2005	45	359	0	3	18	0	8	18	0	39	44	32	83	97	67	89.7	94.2	85.6	85.6	97.2	77.6	29.88	29.94	29.83	28.04	28.04	28.04
8/5/2005	315	359	0	2	33	0	8	33	0	35	46	25	82	94	58	87.4	93.7	84.2	82.4	97.5	75.5	29.93	30.00	29.88	28.05	28.07	28.04
8/6/2005	68	359	0	2	19	0	7	19	0	32	45	25	81	100	63	88.0	93.4	82.9	82.9	93.2	74.0	29.92	29.97	29.85	28.07	28.07	28.07
8/7/2005	202	359	0	2	18	0	7	18	0	32	40	28	84	97	63	87.4	93.8	83.4	82.1	95.4	74.1	29.92	29.96	29.85	28.08	28.11	28.07
8/8/2005	112	338	19	2	16	0	7	16	0	39	53	33	86	100	65	86.4	91.9	82.8	82.7	94.7	74.2	29.91	29.96	29.86	28.11	28.11	28.11
8/9/2005	180	356	21	2	16	0	7	16	0	36	42	28	84	99	54	87.7	93.7	83.9	84.1	100.4	76.1	29.91	29.96	29.83	28.18	28.44	28.11
8/10/2005	180	310	68	2	14	0	7	17	0	41	54	34	85	99	68	87.2	92.0	83.5	83.7	93.6	75.8	29.92	29.96	29.86	28.44	28.44	28.44
8/11/2005	180	318	49	2	17	0	7	17	0	39	47	29	82	99	55	89.2	95.6	85.1	87.0	101.8	77.8	29.92	29.96	29.88	28.44	28.44	28.44
8/12/2005	112	327	17	2	17	0	7	17	0	36	47	29	81	97	59	89.9	95.3	85.5	87.3	100.8	77.8	29.92	29.97	29.87	28.44	28.44	28.44
8/13/2005	292	359	0	1	14	0	6	14	0	36	45	28	82	98	56	89.6	95.1	85.6	85.9	98.8	77.3	29.89	29.94	29.84	28.44	28.44	28.44
8/14/2005	112	359	0	3	17	0	7	17	0	35	43	28	82	96	63	89.4	93.7	86.2	85.1	98.2	78.1	29.91	29.97	29.85	28.44	28.44	28.44
8/15/2005	112	356	1	3	17	0	8	17	0	35	43	29	82	94	65	89.1	94.9	84.0	84.8	96.0	74.4	29.96	30.00	29.91	28.44	28.44	28.44
8/16/2005	112	336	3	2	17	0	8	17	0	35	43	27	81	95	61	90.9	95.9	86.4	87.4	97.1	78.4	29.93	29.98	29.86	28.44	28.44	28.44
8/17/2005	135	359	0	2	15	0	7	15	0	33	40	25	79	96	59	91.3	95.9	87.0	87.8	97.2	78.8	29.86	29.93	29.80	28.44	28.44	28.44
8/18/2005	112	359	1	3	18	0	8	18	0	33	39	24	79	100	58	91.4	96.3	86.9	88.0	98.2	78.3	29.87	29.92	29.83	28.44	28.44	28.44
8/19/2005	112	359	0	2	15	0	7	15	0	32	43	25	80	100	60	91.1	95.5	86.9	87.0	96.4	78.5	29.92	29.97	29.87	28.44	28.44	28.44
8/20/2005	68	359	0	2	18	0	7	18	0	36	50	30	82	98	64	90.7	95.4	86.8	86.8	95.5	78.0	29.93	29.99	29.89	28.44	28.44	28.44
8/21/2005	112	359	0	1	14	0	6	14	0	34	40	24	83	96	65	90.0	93.9	86.5	85.6	97.6	77.7	29.88	29.93	29.81	28.44	28.44	28.44
8/22/2005	112	341	5	3	19	0	7	19	0	34	45	29	81	97	62	89.8	95.2	85.8	86.0	96.3	77.1	29.80	29.85	29.73	28.44	28.44	28.44
8/23/2005	112	232	37	2	17	0	8	19	0	35	49	31	82	95	65	90.0	95.4	86.5	86.3	95.8	78.2	29.79	29.83	29.75	28.44	28.44	28.44
8/24/2005	45	357	1	5	23	0	12	23	0	40	50	32	83	96	67	89.5	94.1	86.7	86.3	93.9	79.2	29.79	29.83	29.75	28.49	28.52	28.44
8/25/2005	45	359	0	8	28	0	21	28	4	52	59	44	91	100	81	86.7	89.5	85.1	82.3	87.9	79.1	29.75	29.81	29.70	28.86	29.35	28.52
8/26/2005	112	180	50	6	27	0	19	27	2	50	62	38	87	99	72	86.8	90.8	83.4	84.2	92.5	77.2	29.73	29.78	29.68	29.46	29.49	29.35
8/27/2005	112	172	52	6	22	0	15	22	2	51	60	40	88	96	73	88.8	93.0	86.2	86.2	94.3	81.5	29.70	29.74	29.65	29.49	29.49	29.49
8/28/2005	135	316	53	2	18	0	10	18	0	48	55	38	89	97	69	88.0	92.2	86.3	84.3	95.3	80.3	29.71	29.76	29.65	29.65	29.84	29.49
8/29/2005	248	288	112	3	7	0	9	20	0	46	55	38	89	100	72	88.4	93.1	84.7	85.7	94.9	79.5	29.76	29.80	29.71	29.89	30.02	29.84
8/30/2005	180	359	0	3	15	0	8	15	0	43	50	31	86	100	59	89.3	96.1	85.1	86.4	100.3	78.6	29.78	29.83	29.71	30.03	30.03	30.02
8/31/2005	225	359	0	2	25	0	7	25	0	38	49	30	86	99	56	89.2	96.9	85.0	84.9	100.7	77.5	29.79	29.84	29.72	30.27	31.00	30.03
9/1/2005	315	359	0	2	15	0	6	15	0	38	49	33	89	100	67	87.8	93.7	83.8	82.9	95.8	75.7	29.83	29.89	29.77	31.00	31.00	31.00
9/2/2005	315	359	0	2	12	0	6	12	0	37	47	32	89	100	71	88.4	94.9	84.5	82.9	94.7	76.5	29.83	29.88	29.77	31.00	31.01	31.00
9/3/2005	45	359	0	3	21	0	11	21	0	40	48	36	89	100	72	87.0	92.3	84.0	81.7	91.3	76.0	29.82	29.86	29.78	31.02	31.08	31.01
9/4/2005	45	359	0	5	22	0	17	22	2	36	42	28	77	91	64	87.4	92.2	84.7	83.5	91.0	78.5	29.82	29.86	29.78	31.08	31.08	31.08
9/5/2005	45	359	0	4	23	0	15	23	0	43	51	37	88	98	75	85.2	87.1	83.2	80.4	87.0	76.2	29.85	29.90	29.81	31.12	31.16	31.08
9/6/2005	0	359	0	2	18	0	10	18	0	47	53	40	95	100	81	83.7	86.0	81.8	78.5	83.9	74.1	29.81	29.88	29.75	31.46	31.77	31.16
9/7/2005	292	359	0	4	16	0	11	16	0	52	58	48	98	100	84	83.4	86.2	81.9	78.5	85.6	75.2	29.74	29.79	29.69	32.03	32.21	31.77
9/8/2005	292	343	211	6	20	0	15	20	3	58	62	51	100	100	94	82.2	83.0	81.5	77.5	80.4	75.4	29.68	29.73	29.64	32.26	32.29	32.21
9/9/2005	270	359	0	5	22	0	14	22	1	53	60	45	92	100	75	83.9	89.4	80.6	80.1	90.3	74.5	29.73	29.82	29.67	32.36	32.52	32.29
9/10/2005	0	359	0	3	19	0	9	19	0	44	52	37	88	100	75	85.7	91.2	81.0	80.8	89.7	72.9	29.85	29.92	29.80	32.52	32.52	32.52
9/11/2005	0	359	0	2	15	0	9	15	0	39	47	30	85	100	57	86.7	91.8	82.5	81.4	89.9	74.2	29.92	29.98	29.88	32.52	32.52	32.52
9/12/2005	315	359	0	2	15	0	6	15	0	36	45	29	86	100	61	86.4	91.4	81.8	81.7	94.4	72.5	29.91	29.97	29.83	32.52	32.52	32.52
9/13/2005	292	351	155	3	16	0	8	16	0	31	41	18	75	97	44	87.6	93.4	82.6	83.7	95.1	73.5	29.84	29.90	29.78	32.52	32.52	32.52
9/14/2005	292	359	113	3	14	0	8	14	0	27	38	19	76	95	49	87.8	93.9	82.0	82.9	95.5	71.6	29.86	29.91	29.80	32.52	32.52	32.52
9/15/2005	112	359	0	3	12	0	6	12	0	29	36	21	80	95	58	87.8	92.6	83.2	82.9	93.4	73.0	29.91	29.96	29.86	32.52	32.52	32.52
9/16/2005	45	359	0	2	14	0	6	14	0	32	38	27	83	98	65	87.3	92.0	82.8	82.5	91.3	73.8	29.94	29.99	29.88	32.52	32.52	32.52
9/17/2005	45	359	0	2	12	0	6	12	0	31	42	24	82	96	62	87.4	92.0	82.4	81.5	90.5	71.7	29.91	29.95	29.85	32.52	32.52	32.52
9/18/2005	45	359	0	3	17	0	9	17	0	36	48	28	88	100	74	87.6	92.6	82.6	81.7	90.3	73.3	29.90	29.94	29.86	32.52	32.52	32.52
9/19/2005	45	359	0	6	27	0	17	27	3	41	48	32	85	100	69	87.3	91.9	85.0	83.2	90.4	78.3	29.93	29.98	29.89	32.74	33.26	32.52
9/20/2005	68	171	7	7	36	0	22	36	5	52	61	44	91	100	77	85.7	88.7	83.6	82.0	88.0	77.4	29.86	29.91	29.81	33.67	33.97	33.26
9/21/2005	112	218	29	4	26	0	15	26	0	55	60	48	95	100	87	84.9	87.4	83.1	81.0	86.6	76.7	29.85	29.88	29.81	34.30	34.57	33.97
9/22/2005	112	169	41	5	20	0	15	20	2	53	62	44	91	100	81	85.4	87.9	83.6	82.0	86.8	77.4	29.83	29.87	29.80	34.73	34.80	34.58
9/23/2005	112	215	43	5	17	0	12	17	0	47	55	39	88	95	74	86.4	90.7	84.2	83.1	90.9	79.3	29.85	29.91	29.79	34.80	34.80	34.80
9/24/2005	112	358	7	4	15	0	11	15	1	40	48	33	83	93	66	87.0	91.4	83.9	83.5	91.6	78.2	29.92	29.97	29.88	34.80	34.80	34.80
9/25/2005	90	151	16	4	17	0	12	17	0	38	45	31	80	89	68	86.5	90.4	83.8	82.7	90.2	78.2	29.94	29.99	29.89	34.80	34.80	34.80
9/26/2005	112	289	34	3	17	0	9	17	0	36	43	30	82	94	68	87.1	91.9	83.8	82.8	91.0	76.1	29.88	29.93	29.81	34.80	34.80	34.80
9/27/2005	135	315	1	1	11	0	5	11	0	39	54	32	89	98	65	85.2	89.6	82.3	79.8	92.8	72.8	29.84	29.89	29.80	34.82	34.85	34.80
9/28/2005	112	344	9	2	27	0	8	27	0	42	49	33	91	100	70	84.9	91.3	81.5	79.7	90.9	72.5	29.87	29.96	29.81	34.95	35.65	34.85
9/29/2005	112	359	0	2	14	0	6	14	0	41	50	35	90	100	75	84.7	90.1	80.3	79.9	89.1	71.8	29.86	29.92	29.78	35.66	35.66	35.65
9/30/2005	68	166	0	3	17	0	8	17	0	39	47	33	87	100	71	86.0	90.5	82.0	81.4	90.8	74.4	29.85	29.91	29.81	35.67	35.68	35.66
10/1/2005	68	143	6	6	21	0	16	21	1	44	53	38	85	95	76	86.2	90.0	83.7	82.9	88.9	79.1	29.90	29.95	29.86	35.72	35.83	35.68
10/2/2005	68	174	28	6	24	0	17	24	3	49	54	42	87	94	77	86.1	90.1	83.7	83.2	89.1	79.8	29.92	29.97	29.89	35.92	35.99	35.83
10/3/2005	68	359	0	6	24	0	17	24	1	48	55	38	87	98	73	85.2	89.3	82.3	81.7	88.7	76.8	29.89	29.94	29.84	36.05	36.18	35.99
10/4/2005	68	141	15	8	35	0	27	35	5	55	61	48	91	100	76	82.4	85.5	80.7	79.0	86.0	75.3	29.78	29.85	29.70	36.44	36.77	36.18
10/5/2005	180	330	30	4	22	0	12	23	0	54	64	41	91	100	70	84.2	89.4	80.9	81.9	92.2	75.4	29.63	29.70	29.57	36.80	36.81	36.77
10/6/2005	158	252	66	3	20	0	10	20	0	52	59	46	95	100	76	84.3	89.6	82.3	80.5	91.3	76.8	29.65	29.69	29.61	36.92	37.24	36.81
10/7/2005	158	249	78	2	15	0	7	15	0	57	63	50	99	100	89	82.7	84.6	81.3	78.9	84.8	75.9	29.58	29.63	29.50	37.47	37.83	37.24
10/8/2005	202	281	65	3	15	0	9	15	0	50	61	36	88	100	66	85.2	91.2	80.5	83.0	95.2	74.8	29.59	29.65	29.53	37.84	37.84	37.83
10/9/2005	112	359	0	2	12	0	6	12	0	45	52	41	90	100	70	86.1	90.5	82.5	82.5	92.5	75.9	29.64	29.69	29.60	37.84	37.84	37.84
10/10/2005	45	359	0	2	14	0	7	14	0	47	57	42	93	100	79	86.3	90.7	82.6	82.1	88.7	75.6	29.68	29.73	29.64	37.84	37.84	37.84
10/11/2005	45	359	0	1	15	0	7	15	0	46	54	37	92	100	79	86.1	90.7	82.2	81.9	89.2	75.6	29.69	29.73	29.64	37.85	37.85	37.84
10/12/2005	45	359	0	1	9	0	4	9	0	47	56	39	96	100	81	84.3	86.9	82.6	79.7	85.6	76.1	29.72	29.76	29.68	38.02	38.15	37.85
10/13/2005	315	359	0	1	12	0	6	12	0	45	51	39	94	100	75	84.8	89.9	81.4	80.4	88.9	74.7	29.74	29.79	29.69	38.29	39.08	38.15
10/14/2005	0	359	0	2	17	0	9	17	0	51	59	44	98	100	87	82.1	83.8	80.9	77.0	80.9	75.2	29.78	29.82	29.75	39.14	39.23	39.08
10/15/2005	45	359	0	4	17	0	12	17	1	37	51	29	77	90	66	83.0	87.0	79.8	79.7	86.0	75.7	29.77	29.82	29.73	39.23	39.23	39.23
10/16/2005	22	359	0	2	15	0	7	15	0	28	39	21	75	94	57	82.7	87.2	78.4	77.1	85.2	68.1	29.81	29.87	29.75	39.23	39.23	39.23
10/17/2005	45	359	0	1	11	0	5	11	0	28	35	23	81	94	65	81.8	86.7	77.5	75.6	85.1	67.3	29.83	29.87	29.78	39.23	39.23	39.23
10/18/2005	45	359	0	2	13	0	6	13	0	30	34	25	81	96	61	82.2	87.3	77.5	76.8	85.9	68.1	29.86	29.92	29.81	39.23	39.23	39.23
10/19/2005	68	165	3	3	19	0	11	19	0	44	56	29	89	98	77	82.9	85.8	81.5	79.1	85.1	74.4	29.88	29.92	29.85	39.25	39.28	39.23
10/20/2005	135	207	50	3	18	0	8	18	0	47	57	37	91	100	73	84.5	89.3	80.6	81.4	91.0	73.2	29.86	29.91	29.81	39.28	39.28	39.28
10/21/2005	135	283	56	2	16	0	7	16	0	46	54	39	94	100	81	83.5	86.4	81.3	79.4	86.9	75.5	29.82	29.86	29.77	39.33	39.36	39.28
10/22/2005	248	359	0	1	12	0	5	12	0	45	55	36	95	100	79	83.4	87.8	80.7	79.7	88.9	74.5	29.71	29.78	29.62	39.55	40.25	39.36
10/23/2005	112	335	17	4	18	0	9	18	0	51	66	36	94	100	79	84.3	88.7	81.4	81.4	90.1	75.7	29.62	29.70	29.54	40.26	40.26	40.25
10/24/2005	90	359	0	8	75	0	22	75	0	45	61	21	94	100	74	80.8	84.8	73.4	72.2	81.5	58.5	29.33	29.77	28.87	42.81	44.98	40.26
10/25/2005	315	359	0	4	18	0	13	18	0	19	29	11	70	85	54	70.2	74.0	66.3	59.4	69.1	52.3	29.93	30.06	29.78	44.98	44.98	44.98
10/26/2005	338	359	0	1	10	0	6	10	0	19	27	5	73	91	45	68.6	75.5	61.4	60.8	73.2	52.0	30.08	30.16	30.02	44.98	44.98	44.98
10/29/2005	0	359	0	6	21	0	15	21	2	23	37	17	68	81	59	77.6	80.2	74.4	73.4	78.2	68.7	30.15	30.21	30.12	44.98	44.98	44.98
10/30/2005	45	359	0	8	27	0	19	27	2	24	30	17	69	78	57	75.0	77.8	73.4	71.4	75.0	69.1	30.21	30.26	30.17	44.98	44.98	44.98
10/31/2005	68	155	14	4	19	0	12	19	0	25	33	18	70	86	54	77.7	82.6	74.3	74.5	81.3	70.6	30.12	30.20	30.05	44.98	44.98	44.98
11/1/2005	45	359	1	3	15	0	8	15	0	47	56	32	95	100	85	78.6	81.8	76.3	74.3	80.0	68.4	29.94	30.05	29.85	45.66	45.66	44.98
11/2/2005	0	359	0	4	16	0	10	16	0	42	50	29	90	100	76	77.5	82.4	73.7	71.7	79.0	64.9	30.00	30.11	29.86	45.74	45.74	45.66
11/3/2005	45	359	0	3	18	0	10	18	0	37	46	28	82	94	71	78.7	83.0	76.2	74.5	80.5	67.5	30.14	30.19	30.10	45.74	45.74	45.74
11/4/2005	45	359	0	2	17	0	7	17	0	37	43	31	87	100	70	78.6	83.6	74.3	73.7	82.1	65.7	30.09	30.14	30.04	45.74	45.74	45.74
11/5/2005	45	359	0	2	15	0	7	15	0	36	46	24	84	98	68	79.4	83.7	76.2	74.5	81.2	68.1	30.05	30.10	30.00	45.74	45.74	45.74
11/6/2005	45	359	0	2	15	0	7	15	0	41	53	32	91	100	76	79.7	83.9	76.7	75.0	82.6	69.2	30.05	30.10	30.01	45.74	45.74	45.74
11/7/2005	45	359	0	2	12	0	7	12	0	48	57	41	94	100	83	79.7	82.9	78.0	75.3	81.8	71.7	30.09	30.14	30.04	45.85	45.85	45.74
11/8/2005	45	359	0	2	15	0	6	15	0	44	57	33	91	100	73	79.8	84.6	75.7	75.1	82.4	68.2	30.08	30.13	30.01	45.86	45.86	45.85
11/9/2005	22	359	0	2	15	0	6	15	0	38	50	29	88	100	70	79.8	84.2	76.3	73.9	81.4	67.7	30.05	30.12	30.00	45.86	45.86	45.86
11/10/2005	315	359	0	1	12	0	4	12	0	33	42	23	85	100	56	78.8	85.4	73.8	72.5	84.5	63.0	29.98	30.07	29.88	45.87	45.87	45.86
11/11/2005	45	359	0	3	19	0	10	19	0	30	37	22	79	98	63	78.0	83.1	74.7	72.6	80.6	66.2	30.00	30.08	29.94	45.87	45.87	45.87
11/12/2005	90	142	23	4	20	0	11	20	0	28	33	22	74	87	67	77.1	80.6	74.5	72.6	79.3	66.4	30.11	30.18	30.05	45.87	45.87	45.87
11/13/2005	112	189	26	3	19	0	8	19	0	31	39	26	81	97	64	77.9	82.9	73.2	72.9	82.4	63.3	30.16	30.21	30.13	45.87	45.87	45.87
11/14/2005	112	358	0	4	22	0	13	22	0	39	49	29	85	94	72	79.8	83.7	76.6	75.8	82.5	70.7	30.13	30.18	30.07	45.95	45.95	45.87
11/15/2005	112	208	15	3	22	0	10	22	0	41	49	34	89	99	76	80.1	84.6	77.4	75.2	82.8	71.3	30.08	30.12	30.05	46.18	46.18	45.95
11/16/2005	45	357	0	1	11	0	4	11	0	41	51	31	90	100	70	79.8	85.7	75.6	74.8	85.2	67.9	30.05	30.13	29.98	46.19	46.19	46.18
11/17/2005	0	359	0	3	18	0	10	18	0	41	48	33	94	100	85	77.1	80.5	74.4	70.5	76.6	67.2	30.05	30.09	30.01	46.20	46.20	46.19
11/18/2005	45	359	0	4	18	0	11	18	0	43	50	36	91	100	74	76.3	81.8	72.3	71.1	80.3	62.3	30.03	30.07	29.97	46.30	46.30	46.20
11/19/2005	68	358	1	6	27	0	17	27	2	48	56	41	90	100	81	77.8	80.6	76.3	73.8	78.7	70.0	30.02	30.05	29.99	46.43	46.43	46.30
11/20/2005	112	327	0	4	21	0	13	21	0	59	66	48	99	100	94	77.1	79.3	75.5	72.7	77.4	70.6	29.98	30.05	29.88	47.41	47.41	46.43
11/21/2005	248	340	134	5	30	0	14	30	0	46	59	22	90	100	72	78.3	82.8	73.4	72.6	82.1	61.5	29.76	29.88	29.61	47.44	47.44	47.41
11/22/2005	270	352	179	7	27	0	15	27	0	19	23	14	72	88	52	70.7	74.3	67.5	61.4	69.6	54.3	29.84	29.94	29.73	47.44	47.44	47.44
11/23/2005	315	359	1	3	19	0	8	19	0	13	24	5	66	88	36	67.7	72.3	63.7	56.7	66.0	48.2	30.02	30.11	29.94	47.44	47.44	47.44
11/24/2005	225	322	163	3	20	0	9	20	0	23	35	13	80	96	58	70.4	78.4	63.2	64.4	79.5	50.9	29.98	30.07	29.86	47.44	47.44	47.44
11/25/2005	225	359	0	2	13	0	5	13	0	29	35	26	86	100	61	74.6	80.7	69.9	68.1	81.4	60.2	30.08	30.15	29.99	47.44	47.44	47.44
11/26/2005	45	153	4	2	14	0	6	14	0	29	34	24	82	98	66	74.9	80.5	69.1	68.7	78.4	57.8	30.12	30.20	30.05	47.44	47.44	47.44
11/27/2005	0	200	95	4	23	0	11	23	0	34	41	26	83	92	69	78.3	82.1	75.0	74.5	81.9	68.6	30.00	30.06	29.93	47.44	47.44	47.44
11/28/2005	135	192	85	4	22	0	11	22	0	42	47	34	89	97	79	79.2	82.0	76.8	75.3	81.9	70.2	29.93	29.98	29.87	47.45	47.45	47.44
11/29/2005	180	292	116	2	19	0	6	19	0	47	53	40	98	100	94	76.7	78.4	74.2	70.6	74.5	64.7	29.94	30.01	29.84	47.70	47.70	47.45
11/30/2005	0	359	0	1	14	0	6	14	0	39	52	26	88	100	74	74.2	76.6	71.9	66.5	71.9	60.1	29.97	30.03	29.92	47.75	47.75	47.70
12/1/2005	315	359	0	2	13	0	6	13	0	18	26	8	70	100	40	70.0	74.6	65.7	59.3	70.2	50.7	30.04	30.11	29.97	47.75	47.75	47.75
12/2/2005	315	359	0	2	13	0	5	13	0	13	21	1	71	90	36	67.0	71.7	63.0	56.5	66.7	49.1	30.14	30.21	30.09	47.75	47.75	47.75
12/3/2005	315	359	0	1	9	0	3	9	0	22	27	13	85	97	69	68.0	75.3	61.6	59.6	73.1	47.8	30.19	30.27	30.11	47.75	47.75	47.75
12/4/2005	135	331	31	1	15	0	4	15	0	28	38	24	85	100	66	71.2	78.1	65.0	64.7	77.6	53.0	30.13	30.22	30.07	47.76	47.76	47.75
12/5/2005	202	271	141	3	18	0	8	18	0	32	35	29	85	96	69	74.5	80.7	69.2	70.3	82.4	60.0	30.02	30.11	29.90	47.76	47.76	47.76
12/6/2005	0	359	0	5	27	0	12	27	0	36	45	28	89	100	73	73.3	75.4	71.6	67.7	70.0	66.0	30.07	30.19	29.93	47.76	47.76	47.76
12/7/2005	68	138	23	6	27	0	18	27	1	38	49	31	83	98	75	73.9	75.8	71.7	70.7	75.2	67.3	30.18	30.23	30.13	47.79	47.79	47.76
12/8/2005	112	200	36	7	33	0	18	33	2	60	67	49	99	100	92	73.4	74.7	71.9	69.3	72.2	66.5	30.19	30.27	30.12	48.88	48.88	47.79
12/9/2005	0	359	0	2	15	0	8	15	0	52	58	41	93	100	72	76.0	81.4	72.8	71.9	83.5	66.5	30.11	30.17	30.03	48.89	48.89	48.88
12/10/2005	0	359	0	1	11	0	6	11	0	45	49	39	91	98	78	76.3	81.0	73.4	70.7	79.3	65.6	30.04	30.11	29.97	48.89	48.89	48.89
12/11/2005	315	359	0	2	15	0	7	15	0	35	43	24	85	100	46	72.6	77.0	65.5	64.2	73.3	56.6	29.99	30.07	29.93	48.89	48.89	48.89
12/12/2005	315	359	0	2	16	0	6	16	0	23	36	12	74	100	38	66.5	71.9	62.0	57.0	67.5	46.9	30.08	30.17	30.02	48.90	48.90	48.89
12/13/2005	0	359	0	2	15	0	7	15	0	20	28	13	78	95	54	65.2	69.9	61.4	56.3	67.2	48.8	30.16	30.21	30.10	48.90	48.90	48.90
12/14/2005	315	359	0	2	20	0	6	20	0	26	31	21	81	97	61	67.6	74.5	60.6	61.4	74.5	48.1	30.15	30.25	30.03	48.90	48.90	48.90
12/15/2005	180	283	79	4	30	0	10	30	0	33	37	30	82	93	68	74.0	78.7	70.2	70.3	79.4	62.9	29.94	30.04	29.79	48.90	48.90	48.90
12/16/2005	0	359	0	3	16	0	11	16	1	34	46	27	87	96	75	71.9	74.6	69.5	65.5	69.9	62.0	30.03	30.16	29.88	48.90	48.90	48.90
12/17/2005	135	359	0	2	13	0	6	13	0	51	56	46	98	100	92	74.9	78.4	70.7	71.6	76.9	65.7	30.13	30.20	30.06	49.27	49.27	48.90
12/18/2005	0	359	0	2	13	0	7	13	0	51	55	47	99	100	91	75.2	78.0	72.5	69.6	76.6	64.9	30.13	30.19	30.06	49.27	49.27	49.27
12/19/2005	338	359	0	4	18	0	13	18	0	48	52	43	95	100	89	70.9	72.6	68.8	64.3	67.7	60.7	30.15	30.21	30.11	49.29	49.29	49.27
12/20/2005	0	359	0	3	13	0	9	13	0	45	50	40	94	100	86	69.1	71.3	67.7	62.3	67.2	59.0	30.14	30.21	30.09	49.30	49.30	49.29
12/21/2005	315	359	0	4	15	0	9	15	0	29	40	19	78	92	51	67.6	70.6	63.6	58.8	65.8	51.1	30.16	30.24	30.10	49.30	49.30	49.30
12/22/2005	315	359	0	4	18	0	11	18	0	26	31	23	84	93	70	64.1	69.3	58.9	55.2	66.6	45.6	30.24	30.31	30.18	49.30	49.30	49.30
12/23/2005	315	359	0	3	15	0	7	15	0	32	41	27	90	100	75	64.9	70.2	59.6	56.7	67.1	47.5	30.22	30.31	30.15	49.30	49.30	49.30
12/24/2005	135	358	1	2	21	0	7	21	0	34	41	29	87	100	67	69.3	75.0	63.3	64.1	76.4	52.7	30.06	30.17	29.95	49.30	49.30	49.30
12/25/2005	248	322	161	5	28	0	13	28	1	35	48	26	81	99	66	72.0	77.1	67.8	67.1	78.9	59.7	29.88	29.96	29.77	49.30	49.30	49.30
12/26/2005	292	339	213	4	24	0	11	24	0	24	31	17	76	91	52	67.9	72.3	64.4	59.0	67.9	51.1	30.05	30.19	29.93	49.30	49.30	49.30
12/27/2005	315	359	0	1	12	0	5	12	0	21	26	16	79	94	57	63.9	68.9	58.7	54.0	64.6	44.1	30.18	30.27	30.12	49.31	49.31	49.30
12/28/2005	225	308	76	2	19	0	5	19	0	20	32	6	73	97	52	65.3	73.5	58.0	58.6	73.3	44.7	30.05	30.20	29.89	49.31	49.31	49.31
12/29/2005	202	326	155	4	20	0	11	20	0	26	39	16	76	100	51	69.8	76.3	65.1	64.9	76.4	55.6	29.86	29.96	29.78	49.33	49.33	49.31
12/30/2005	45	359	0	1	11	0	4	11	0	22	27	18	80	95	57	67.4	72.0	62.8	59.2	69.7	51.0	30.03	30.10	29.95	49.33	49.33	49.33
12/31/2005	180	351	2	2	13	0	5	13	0	30	37	23	85	96	60	70.6	78.7	63.9	66.3	80.7	54.5	30.06	30.15	29.99	49.34	49.34	49.33

Date		Wind	Hi	Lo	Wind	Hi	Lo	Wind	Hi	Lo	Hum	Hi	Lo	Hum	Hi	Lo	Temp	Hi	Lo	Temp	Hi	Lo	Raw	Hi	Lo	Tot	Hi	Lo
		Dir			Speed	Mph	Mph	Gust	Mph	Mph	In%	%	%	Out%	%	%	Inside	F	F	F	F	F	Barom	in	in	Rain	in	in
					Mph			Mph									F						Inches

1/1/2006	158	265	3	2	10	0	5	10	0	35	43	31	88	96	70	74.0	80.2	67.7	69.7	82.7	57.9	30.08	30.16	30.03	0.00	0.00	0.00
1/2/2006	180	276	138	3	18	0	8	18	0	36	43	29	81	94	64	77.3	81.7	73.7	74.4	83.4	67.8	30.05	30.15	29.95	0.00	0.00	0.00
1/3/2006	225	320	183	5	22	0	11	22	0	36	49	22	82	99	54	76.4	82.0	72.2	71.3	82.8	59.5	29.96	30.02	29.85	0.01	0.01	0.00
1/4/2006	315	359	0	2	11	0	5	11	0	27	31	22	84	94	64	71.9	77.4	66.6	63.4	75.0	54.6	30.02	30.10	29.94	0.01	0.01	0.01
1/5/2006	315	359	0	2	14	0	6	14	0	27	32	21	81	100	50	70.1	76.4	64.3	62.8	76.4	52.5	29.91	30.03	29.80	0.01	0.01	0.01
1/6/2006	315	352	1	6	23	0	14	23	2	15	33	2	69	98	42	66.5	70.2	61.2	57.2	64.3	45.7	29.94	30.15	29.77	0.01	0.01	0.01
1/7/2006	315	359	0	2	18	0	7	18	0	11	15	2	73	90	46	60.6	67.1	55.6	48.6	60.6	39.7	30.27	30.38	30.14	0.02	0.02	0.01
1/8/2006	45	359	0	1	9	0	3	9	0	14	21	10	79	95	48	60.0	66.1	53.6	49.9	63.1	37.8	30.40	30.49	30.33	0.02	0.02	0.02
1/9/2006	0	359	0	1	14	0	4	14	0	30	42	18	91	100	77	64.8	72.1	58.0	58.0	69.8	45.3	30.41	30.50	30.34	0.02	0.02	0.02
1/10/2006	112	175	19	3	19	0	8	19	0	39	50	31	88	100	69	70.9	76.6	65.5	67.3	77.3	56.4	30.30	30.38	30.24	0.03	0.03	0.02
1/11/2006	112	189	47	2	16	0	5	16	0	38	47	31	88	100	69	72.7	79.0	66.5	68.1	79.9	57.1	30.15	30.24	30.07	0.03	0.03	0.03
1/12/2006	45	359	0	1	10	0	4	10	0	38	48	33	90	100	75	73.8	79.4	68.9	67.9	79.0	59.3	30.08	30.15	30.03	0.05	0.05	0.03
1/13/2006	225	280	102	2	16	0	6	16	0	39	47	34	90	100	73	74.7	79.4	69.7	70.6	81.0	59.7	29.96	30.08	29.80	0.05	0.05	0.05
1/14/2006	292	334	194	10	34	0	22	34	2	14	46	1	64	97	41	67.1	76.0	60.3	58.9	71.0	48.7	29.89	30.03	29.73	0.05	0.05	0.05
1/15/2006	315	359	0	3	17	0	8	17	0	9	18	2	65	88	51	60.9	66.1	55.5	50.9	61.1	40.2	30.15	30.25	30.03	0.05	0.05	0.05
1/16/2006	180	359	0	2	16	0	7	16	0	20	26	14	73	93	28	66.1	74.2	59.8	60.2	75.3	46.0	30.13	30.22	30.03	0.22	0.22	0.05
1/17/2006	180	236	117	5	26	0	12	26	0	31	39	25	84	98	63	71.9	77.4	66.2	68.7	79.9	58.0	30.03	30.10	29.94	0.22	0.22	0.22
1/18/2006	315	359	0	5	20	0	13	20	0	25	47	7	77	99	44	68.7	74.4	62.5	60.8	70.8	53.7	30.27	30.46	29.99	0.23	0.23	0.22
1/19/2006	45	359	0	4	17	0	11	17	0	29	42	16	82	95	71	67.4	73.0	60.9	62.5	71.4	48.1	30.38	30.44	30.30	0.23	0.23	0.23
1/20/2006	90	191	13	4	17	0	11	17	0	51	59	42	93	100	83	73.7	78.4	70.3	70.4	77.4	66.3	30.26	30.32	30.19	0.23	0.23	0.23
1/21/2006	112	194	47	4	18	0	10	18	0	48	55	36	91	100	77	76.2	81.3	72.2	72.7	81.0	66.6	30.23	30.29	30.18	0.24	0.24	0.23
1/22/2006	112	166	45	4	20	0	11	20	0	51	56	40	93	100	81	76.4	80.6	73.2	72.8	79.5	67.9	30.23	30.30	30.16	0.26	0.26	0.24
1/23/2006	135	201	91	5	23	0	13	23	0	49	57	34	90	99	74	77.3	81.2	75.1	73.9	80.6	68.3	30.10	30.17	30.04	0.26	0.26	0.26
1/24/2006	248	359	0	2	15	0	6	15	0	40	46	31	88	100	62	76.7	82.3	72.6	71.9	83.2	63.4	30.03	30.09	29.95	0.26	0.26	0.26
1/25/2006	0	359	0	3	17	0	9	17	0	24	41	9	74	99	46	72.2	75.6	67.7	63.7	68.6	57.8	30.14	30.24	30.04	0.26	0.26	0.26
1/26/2006	45	359	0	5	21	0	13	21	0	16	22	11	66	81	56	68.3	73.3	63.1	62.0	70.4	48.8	30.32	30.44	30.24	0.26	0.26	0.26
1/27/2006	45	118	6	6	22	0	16	22	2	19	22	16	66	74	57	68.8	71.7	66.6	64.5	69.1	61.0	30.45	30.52	30.41	0.27	0.27	0.26
1/28/2006	112	171	36	4	20	0	13	20	0	23	31	16	68	81	50	71.3	77.4	68.5	67.8	76.0	63.3	30.38	30.46	30.27	0.27	0.27	0.27
1/29/2006	180	258	109	4	21	0	10	21	0	31	39	20	79	98	52	73.6	78.6	69.7	70.3	80.3	62.5	30.15	30.27	30.03	0.27	0.27	0.27
1/30/2006	248	316	172	3	18	0	7	18	0	31	37	24	81	98	59	75.6	80.0	72.1	71.6	81.0	64.9	29.95	30.04	29.85	0.27	0.27	0.27
1/31/2006	0	359	0	4	22	0	9	22	0	20	37	9	74	94	46	71.5	73.8	65.4	62.6	67.8	49.5	29.99	30.12	29.86	0.27	0.27	0.27
2/1/2006	45	359	0	2	14	0	5	14	0	19	25	15	78	90	58	67.5	74.4	60.0	59.1	72.2	45.2	30.09	30.17	30.00	0.63	0.63	0.27
2/2/2006	158	246	104	4	19	0	11	19	0	33	40	25	87	98	68	73.6	78.9	68.9	70.1	81.5	59.9	29.93	30.05	29.85	0.88	0.88	0.63
2/3/2006	180	359	0	4	28	0	10	28	0	45	56	0	98	100	81	72.7	76.3	70.3	67.3	76.2	63.4	29.90	29.95	29.84	0.88	0.88	0.88
2/4/2006	180	342	96	5	20	0	13	24	1	47	56	27	95	100	79	69.4	70.6	65.1	62.4	66.2	52.5	29.86	30.02	29.76	0.88	0.88	0.88
2/5/2006	292	359	0	3	18	0	9	18	0	20	29	8	69	94	42	65.4	71.2	60.2	55.9	67.1	46.5	30.14	30.25	30.02	0.88	0.88	0.88
2/6/2006	45	358	0	1	11	0	5	11	0	20	26	16	78	94	53	64.7	70.7	58.1	56.1	68.2	44.2	30.26	30.35	30.19	0.88	0.88	0.88
2/7/2006	202	359	0	3	17	0	8	17	0	24	28	20	76	100	45	68.6	76.8	60.6	63.4	78.2	47.9	30.13	30.22	30.00	0.88	0.88	0.88
2/8/2006	315	359	0	3	18	0	9	18	0	17	27	5	70	89	37	67.3	71.9	62.5	57.6	67.2	47.8	30.16	30.24	30.09	0.88	0.88	0.88
2/9/2006	315	359	0	3	21	0	8	21	0	11	17	7	63	86	38	64.6	71.8	57.7	55.7	70.3	43.2	30.24	30.33	30.15	0.94	0.94	0.88
2/10/2006	112	347	10	2	18	0	6	18	0	16	23	10	76	92	48	65.9	72.0	59.9	58.3	71.3	46.7	30.25	30.38	30.15	0.97	0.97	0.94
2/11/2006	225	356	8	4	28	0	11	28	0	22	33	17	77	99	54	70.0	78.2	62.4	64.4	80.3	49.5	30.04	30.18	29.87	0.97	0.97	0.97
2/12/2006	315	359	0	6	26	0	15	26	0	11	30	2	69	96	48	62.8	70.1	57.0	50.8	60.1	41.4	30.16	30.34	29.98	0.97	0.97	0.97
2/13/2006	315	359	0	4	20	0	10	20	0	4	9	1	59	82	34	58.1	64.8	53.0	47.2	59.3	37.3	30.39	30.48	30.31	0.97	0.97	0.97
2/14/2006	315	359	0	2	13	0	5	13	0	10	15	3	74	92	49	58.4	64.8	51.0	48.8	61.0	35.5	30.49	30.59	30.40	0.97	0.97	0.97
2/15/2006	112	359	0	2	17	0	6	17	0	19	32	11	77	98	50	65.7	73.9	57.7	60.3	73.2	45.1	30.40	30.48	30.31	0.97	0.97	0.97
2/16/2006	68	359	0	2	21	0	7	21	0	30	39	23	89	100	72	70.1	75.5	64.8	64.4	75.0	54.6	30.29	30.35	30.23	0.97	0.97	0.97
1/3/2006	0	320	24	5	22	0	11	22	0	36	49	22	82	99	54	76.4	82.0	72.2	71.3	82.8	59.5	29.96	30.21	29.85	0.97	0.97	0.97
2/17/2006	0	320	17	5	22	0	11	22	0	36	49	22	82	99	54	76.4	82.0	72.2	71.3	82.8	59.5	29.96	30.21	29.85	0.97	0.97	0.97
1/3/2006	0	320	24	5	22	0	11	22	0	36	49	22	82	99	54	76.4	82.0	72.2	71.3	82.8	59.5	29.96	30.21	29.85	0.97	0.97	0.97
2/17/2006	0	320	17	5	22	0	11	22	0	36	49	22	82	99	54	76.4	82.0	72.2	71.3	82.8	59.5	29.96	30.21	29.85	0.97	0.97	0.97
12/3/2005	0	320	24	5	22	0	11	22	0	36	49	22	82	99	54	76.4	82.0	72.2	71.3	82.8	59.5	29.96	30.21	29.85	0.98	0.98	0.97
2/17/2006	45	320	17	4	22	0	10	22	0	36	49	22	84	99	54	75.9	82.0	71.7	70.5	82.8	59.5	30.01	30.25	29.85	0.98	0.98	0.98
2/18/2006	112	359	10	2	14	0	5	14	0	29	38	20	82	100	57	73.6	80.5	67.5	68.2	81.0	57.1	30.20	30.28	30.08	0.98	0.98	0.98
2/19/2006	0	359	0	2	13	0	6	13	0	31	37	26	89	97	76	72.5	76.3	68.5	65.2	73.1	57.8	30.22	30.27	30.18	0.98	0.98	0.98
2/20/2006	315	359	0	2	13	0	6	13	0	35	44	32	94	100	81	72.2	75.9	68.5	65.4	74.1	59.6	30.20	30.26	30.14	0.98	0.98	0.98
2/21/2006	45	356	0	2	13	0	6	13	0	41	48	35	95	100	73	73.9	78.4	69.8	68.7	80.7	61.3	30.13	30.20	30.08	0.98	0.98	0.98
2/22/2006	225	342	0	3	14	0	8	14	0	41	47	33	90	100	63	76.0	81.4	71.8	72.2	84.8	64.5	30.06	30.15	29.98	0.99	0.99	0.98
2/23/2006	248	359	0	4	17	0	9	17	0	37	46	26	83	100	58	77.8	84.1	73.4	74.5	86.6	65.8	30.03	30.10	29.94	0.99	0.99	0.99
2/24/2006	0	359	0	5	23	0	14	23	1	42	48	37	93	100	83	73.6	77.4	71.0	67.5	73.2	65.4	30.17	30.27	30.08	0.99	0.99	0.99
2/25/2006	135	255	31	5	27	0	14	27	0	45	51	39	91	100	82	73.9	77.0	71.1	70.5	75.4	66.7	30.11	30.27	29.96	0.99	0.99	0.99
2/26/2006	0	359	0	7	25	0	17	25	1	39	53	17	89	100	61	70.9	74.0	65.3	64.3	68.5	58.7	30.00	30.27	29.85	0.99	0.99	0.99
2/27/2006	0	359	0	3	17	0	9	20	0	18	26	10	69	88	49	68.1	73.4	63.6	61.4	69.7	53.6	30.28	30.35	30.25	0.99	0.99	0.99
2/28/2006	68	358	0	2	14	0	6	14	0	20	25	15	75	94	42	69.3	75.8	62.1	62.7	78.3	49.0	30.22	30.32	30.13	0.99	0.99	0.99
3/1/2006	270	359	0	2	13	0	5	13	0	24	28	20	80	100	47	71.6	78.4	65.1	65.5	80.7	53.7	30.14	30.24	30.04	0.99	0.99	0.99
3/2/2006	248	359	104	2	14	0	6	14	0	25	29	17	74	97	46	74.9	82.6	67.8	71.2	86.4	57.7	30.04	30.15	29.92	0.99	0.99	0.99
3/3/2006	292	359	0	3	18	0	7	18	0	27	35	20	83	100	60	75.8	81.2	71.2	70.0	83.6	61.9	29.98	30.04	29.92	0.99	0.99	0.99
3/4/2006	45	359	0	5	18	0	10	18	0	27	37	19	81	96	63	73.7	78.7	69.3	67.1	76.3	58.3	30.10	30.22	29.99	0.99	0.99	0.99
3/5/2006	0	359	0	3	14	0	9	14	0	22	28	14	75	89	55	72.0	77.0	67.9	65.7	73.7	57.7	30.23	30.28	30.18	0.99	0.99	0.99
3/6/2006	270	348	114	3	15	0	7	15	0	21	30	15	73	96	42	72.7	80.1	66.1	66.8	80.5	54.2	30.13	30.24	30.00	0.99	0.99	0.99
3/8/2006	0	170	38	2	16	0	8	16	0	15	20	11	67	77	53	71.8	75.8	69.1	65.9	72.7	62.3	30.17	30.20	30.13	0.99	0.99	0.99
3/9/2006	135	237	65	5	26	0	12	26	0	21	26	18	74	90	55	72.0	78.4	66.7	67.6	79.6	56.8	30.10	30.18	30.00	0.99	0.99	0.99
3/10/2006	135	219	70	6	25	0	13	25	0	30	38	23	80	95	60	75.5	81.0	70.3	72.3	81.9	63.2	30.08	30.14	30.03	0.99	0.99	0.99
3/11/2006	135	226	53	4	23	0	10	23	0	32	40	24	83	98	65	77.6	83.6	71.7	73.8	84.4	62.6	30.17	30.22	30.11	1.00	1.00	0.99
3/12/2006	112	202	36	5	21	0	12	21	0	34	44	23	82	100	58	78.3	83.7	74.3	74.8	84.6	68.5	30.16	30.23	30.07	1.00	1.00	1.00
3/13/2006	135	235	56	4	20	0	10	20	0	35	39	26	84	98	65	78.7	83.7	74.5	75.2	84.5	68.6	30.05	30.12	29.96	1.00	1.00	1.00
3/14/2006	248	340	40	2	17	0	8	17	0	29	40	18	75	97	49	80.1	86.1	75.0	77.3	89.7	67.9	29.97	30.03	29.88	1.00	1.00	1.00
3/15/2006	0	359	0	5	22	0	14	22	0	13	29	7	62	92	51	75.7	79.5	71.7	69.8	76.0	64.2	30.14	30.21	30.02	1.00	1.00	1.00
3/16/2006	112	230	17	3	19	0	9	19	0	17	21	12	67	83	51	75.0	80.4	70.4	70.2	80.7	61.8	30.16	30.24	30.08	1.00	1.00	1.00
3/17/2006	225	359	0	2	12	0	6	12	0	22	25	19	79	92	64	75.9	81.2	71.0	69.9	79.4	60.4	30.06	30.16	29.98	1.00	1.00	1.00
3/18/2006	0	359	0	3	18	0	9	18	0	25	31	16	81	99	55	75.7	81.5	71.2	68.7	78.5	61.0	30.02	30.08	29.97	1.00	1.00	1.00
3/19/2006	112	359	0	3	15	0	7	15	0	28	35	23	83	97	66	74.6	79.2	69.9	68.2	77.4	58.4	30.03	30.08	29.98	1.00	1.00	1.00
3/20/2006	135	267	61	4	23	0	11	23	0	29	33	24	79	94	61	78.3	83.8	73.6	74.6	84.1	65.7	29.94	30.02	29.85	1.00	1.00	1.00
3/21/2006	248	323	142	6	24	0	14	24	0	29	39	19	77	96	50	80.1	86.5	74.0	77.4	90.7	66.3	29.87	29.92	29.79	1.26	1.26	1.00
3/22/2006	22	359	0	4	16	0	11	16	0	26	40	17	78	100	62	77.8	80.4	73.8	71.3	75.6	66.5	29.97	30.06	29.85	1.26	1.26	1.26
3/23/2006	90	359	0	3	18	0	9	18	0	32	41	27	84	100	69	74.6	77.8	72.8	69.9	76.2	66.2	30.01	30.10	29.93	1.26	1.26	1.26
3/24/2006	315	359	0	4	19	0	10	19	0	26	39	9	78	100	38	74.8	81.3	70.3	67.4	78.6	55.4	29.94	30.05	29.87	1.26	1.26	1.26
3/25/2006	315	359	0	3	18	0	9	18	0	9	15	1	63	83	36	68.9	73.1	64.9	58.8	68.1	49.2	30.09	30.16	30.02	1.26	1.26	1.26
3/26/2006	338	359	0	3	16	0	10	16	0	5	11	1	58	81	24	68.4	77.7	62.2	59.7	75.7	47.8	30.17	30.25	30.08	1.26	1.26	1.26
3/27/2006	315	359	0	2	18	0	9	18	0	9	14	5	66	83	52	68.8	75.4	62.2	61.2	72.0	48.2	30.30	30.35	30.25	1.26	1.26	1.26
3/28/2006	112	185	16	3	18	0	8	18	0	12	19	6	63	87	43	71.9	78.9	65.5	67.1	78.6	52.9	30.30	30.38	30.22	1.26	1.26	1.26
3/29/2006	112	359	0	1	13	0	6	13	0	18	23	13	74	90	52	74.3	81.2	67.9	68.9	81.4	56.7	30.22	30.30	30.14	1.26	1.26	1.26
3/30/2006	112	358	0	3	20	0	9	20	0	22	28	14	76	96	53	75.9	81.5	70.2	70.9	81.4	59.3	30.21	30.26	30.16	1.26	1.26	1.26
3/31/2006	112	209	23	4	18	0	10	18	0	25	31	19	74	87	44	77.5	82.9	73.6	74.0	84.3	67.3	30.23	30.30	30.19	1.26	1.26	1.26
4/1/2006	112	331	1	2	16	0	6	16	0	22	27	17	77	94	58	78.3	84.3	72.1	73.0	83.9	60.8	30.16	30.24	30.08	1.26	1.26	1.26
4/2/2006	45	355	1	2	13	0	6	13	0	21	26	15	74	94	52	79.5	86.2	72.9	74.6	85.8	62.1	30.07	30.14	29.98	1.26	1.26	1.26
4/3/2006	112	359	0	2	14	0	5	14	0	21	27	17	76	95	56	80.3	86.9	74.0	75.3	87.7	63.4	30.01	30.09	29.93	1.26	1.26	1.26
4/4/2006	45	359	0	2	14	0	6	14	0	25	38	18	84	97	65	79.0	84.1	75.2	73.1	84.7	65.4	29.98	30.04	29.92	1.26	1.26	1.26
4/5/2006	315	359	0	2	17	0	7	17	0	24	32	14	79	100	54	78.3	83.3	72.8	72.0	81.4	60.6	29.95	30.01	29.88	1.26	1.26	1.26
4/6/2006	135	359	0	3	22	0	9	22	0	20	29	13	74	92	49	78.6	85.1	72.4	73.1	86.3	60.6	29.95	30.00	29.90	1.26	1.26	1.26
4/7/2006	180	263	33	4	23	0	10	23	0	21	26	16	74	92	51	80.2	86.4	74.5	76.8	89.0	66.0	29.95	30.01	29.89	1.74	1.74	1.26
4/8/2006	202	308	128	5	25	0	13	25	0	23	32	12	71	94	42	81.7	87.7	76.0	79.3	92.1	68.2	29.87	29.97	29.76	1.74	1.74	1.74
4/9/2006	22	359	0	4	26	0	14	26	0	29	35	17	86	99	76	79.5	82.4	75.2	73.4	78.5	67.9	29.88	29.99	29.80	1.77	1.77	1.74
4/10/2006	45	359	0	8	35	0	21	35	1	25	35	13	73	86	53	76.7	81.2	74.0	72.3	78.4	69.0	30.02	30.09	29.96	1.78	1.78	1.77
4/11/2006	45	359	0	8	28	0	20	28	1	23	33	13	72	91	54	76.8	82.2	73.3	72.6	79.2	68.6	30.12	30.19	30.07	1.78	1.78	1.78
4/12/2006	45	359	0	8	25	0	20	28	3	24	37	13	71	90	54	76.6	81.3	73.7	72.6	79.2	69.0	30.18	30.23	30.14	1.78	1.78	1.78
4/13/2006	45	359	0	7	23	0	17	23	1	21	31	13	69	82	56	76.8	81.5	74.0	72.8	79.4	69.0	30.13	30.19	30.06	1.78	1.78	1.78
4/14/2006	45	359	0	2	15	0	8	15	0	18	24	12	69	89	54	77.9	83.7	72.3	72.6	81.8	60.8	30.06	30.12	29.99	1.78	1.78	1.78
4/15/2006	112	359	0	2	17	0	6	17	0	18	27	12	73	95	50	79.5	87.8	71.9	73.9	90.3	59.2	29.98	30.07	29.89	1.78	1.78	1.78
4/16/2006	270	351	32	3	18	0	8	18	0	15	23	7	64	91	38	81.3	89.2	74.4	77.4	93.8	62.5	29.93	30.03	29.84	1.78	1.78	1.78
4/17/2006	292	338	177	5	20	0	11	20	0	14	24	5	65	93	33	82.1	89.9	75.8	78.4	93.8	64.7	29.85	29.94	29.74	1.78	1.78	1.78
4/18/2006	248	359	0	4	19	0	11	19	0	26	40	13	85	100	69	81.7	87.4	77.1	75.9	86.7	66.9	29.81	29.85	29.77	1.78	1.78	1.78
4/19/2006	112	224	32	4	17	0	9	17	0	29	41	20	80	94	53	83.5	89.0	79.1	80.0	89.2	72.9	29.86	29.90	29.80	1.78	1.78	1.78
4/20/2006	45	359	0	3	15	0	8	15	0	28	40	22	86	99	46	83.8	90.2	78.5	78.7	88.7	70.0	29.89	29.96	29.84	2.12	2.12	1.78
4/21/2006	112	237	32	4	19	0	10	19	0	30	39	21	84	99	60	84.8	91.0	80.4	81.1	92.7	74.1	29.96	30.01	29.91	2.13	2.13	2.12
4/22/2006	180	359	63	4	21	0	11	21	0	27	34	21	84	98	60	82.8	87.7	80.0	77.7	90.0	71.0	29.98	30.05	29.90	2.13	2.13	2.13
4/23/2006	135	347	56	2	17	0	8	17	0	29	38	24	86	100	63	82.0	88.1	77.1	77.3	88.9	67.4	29.97	30.04	29.91	2.13	2.13	2.13
4/24/2006	158	359	0	3	15	0	8	15	0	25	33	18	80	97	46	84.2	90.9	78.7	80.4	95.1	70.0	29.93	30.01	29.85	2.33	2.33	2.13
4/25/2006	180	358	0	4	17	0	9	17	0	25	29	20	79	97	49	84.7	89.8	80.2	80.3	93.4	71.5	29.90	29.96	29.83	2.33	2.33	2.33
4/26/2006	180	359	0	4	16	0	9	16	0	24	31	12	76	92	40	85.2	93.4	81.0	82.0	98.2	74.1	29.88	29.96	29.78	2.33	2.33	2.33
4/27/2006	248	359	0	5	22	0	11	22	0	21	33	8	74	100	39	84.8	92.0	80.3	80.5	93.8	72.6	29.81	29.88	29.72	2.33	2.33	2.33
4/28/2006	22	359	0	5	20	0	14	20	0	15	23	8	66	89	50	81.5	85.5	77.4	75.4	81.8	71.7	29.96	30.06	29.87	2.33	2.33	2.33
4/29/2006	45	359	0	8	27	0	19	27	0	12	23	8	60	83	48	79.0	83.8	76.3	74.3	82.1	70.2	30.07	30.13	30.01	2.33	2.33	2.33
4/30/2006	45	359	0	6	22	0	17	22	1	14	19	8	65	76	52	77.0	81.1	74.0	71.8	77.8	68.5	30.08	30.12	30.03	2.33	2.33	2.33
5/1/2006	22	359	0	5	20	0	13	20	0	16	21	10	67	77	54	78.5	84.1	74.2	72.9	81.7	67.7	30.05	30.09	30.02	2.33	2.33	2.33
5/2/2006	0	359	0	3	17	0	9	17	0	17	24	10	72	91	53	78.9	84.6	72.9	72.4	81.9	60.4	30.06	30.09	30.01	2.33	2.33	2.33
5/3/2006	45	359	0	2	16	0	6	16	0	11	20	1	65	100	33	80.7	87.8	72.9	74.9	88.0	59.8	30.04	30.12	29.95	2.33	2.33	2.33
5/4/2006	270	359	0	3	15	0	8	15	0	13	23	8	69	99	38	83.2	91.8	75.8	78.4	95.2	65.1	29.96	30.05	29.86	2.33	2.33	2.33
5/5/2006	292	359	0	2	14	0	7	14	0	15	20	9	71	93	39	83.8	90.3	76.9	77.9	93.2	64.7	29.89	29.98	29.80	2.33	2.33	2.33
5/6/2006	248	358	0	3	17	0	8	17	0	14	26	5	63	92	33	84.3	92.1	77.4	81.0	96.9	65.8	29.86	29.93	29.78	2.34	2.34	2.33
5/7/2006	135	359	0	3	21	0	9	21	0	17	25	10	72	90	48	85.3	91.1	79.6	80.9	93.7	68.1	29.89	29.96	29.81	2.36	2.36	2.34
5/8/2006	225	335	49	4	22	0	10	22	0	20	33	11	74	93	44	85.7	93.1	80.0	82.0	98.7	70.5	29.88	29.97	29.78	2.36	2.36	2.36
5/9/2006	68	358	2	2	15	0	7	15	0	26	33	19	87	99	56	83.5	88.1	81.0	77.3	91.7	71.8	29.85	29.95	29.80	2.36	2.36	2.36
5/10/2006	135	215	10	3	19	0	9	19	0	30	39	24	84	98	65	84.3	90.2	79.8	80.1	91.0	70.3	29.86	29.91	29.78	2.70	2.70	2.36
5/11/2006	248	359	0	3	22	0	8	22	0	26	35	17	81	100	50	85.1	89.5	81.4	81.6	94.3	73.3	29.79	29.86	29.70	2.70	2.70	2.70
5/12/2006	338	359	0	4	32	0	9	32	0	18	31	8	73	100	45	83.4	86.8	79.3	76.1	83.8	68.1	29.80	29.87	29.71	2.70	2.70	2.70
5/13/2006	315	359	0	2	15	0	7	15	0	12	19	8	68	86	43	81.2	86.4	75.0	73.7	86.8	61.5	29.89	29.95	29.84	3.35	3.35	2.70
5/14/2006	180	275	68	4	21	0	10	21	0	16	24	10	70	100	41	83.7	91.4	77.3	80.0	96.9	66.8	29.91	29.97	29.83	3.96	3.96	3.35
5/15/2006	180	355	7	3	18	0	9	18	0	20	33	13	80	95	49	83.6	89.6	79.1	77.8	93.4	67.4	29.90	29.98	29.80	3.96	3.96	3.96
5/16/2006	202	359	0	2	12	0	6	12	0	30	35	23	96	100	87	80.2	82.4	78.4	72.8	79.1	69.5	29.83	29.90	29.76	3.96	3.96	3.96
5/17/2006	338	359	0	3	17	0	8	17	0	22	31	0	80	100	54	80.3	84.5	76.4	73.3	81.2	66.2	29.75	29.84	29.71	3.96	3.96	3.96
5/18/2006	270	359	2	2	17	0	8	17	0	15	20	12	71	90	44	80.8	88.1	74.3	74.6	91.9	61.4	29.84	29.90	29.78	3.96	3.96	3.96
5/19/2006	292	359	0	3	15	0	8	15	0	15	21	10	70	92	47	82.7	90.4	76.0	77.7	93.4	63.5	29.91	29.96	29.85	3.96	3.96	3.96
5/20/2006	112	359	0	3	17	0	7	17	0	15	24	7	73	100	43	84.7	90.8	78.8	79.3	91.7	68.1	29.95	30.01	29.89	3.96	3.96	3.96
5/21/2006	135	337	33	3	20	0	8	20	0	16	21	7	73	95	45	86.3	93.1	79.9	81.8	94.7	69.1	29.93	29.99	29.86	3.96	3.96	3.96
5/22/2006	112	273	17	1	10	0	5	10	0	18	23	14	79	95	60	86.5	93.0	82.1	81.8	93.2	73.3	29.93	29.98	29.88	3.96	3.96	3.96
5/23/2006	45	359	0	0	8	0	3	8	0	20	26	17	83	94	63	85.5	90.7	82.6	80.7	91.9	74.9	29.95	30.01	29.91	3.96	3.96	3.96
5/24/2006	45	359	0	1	11	0	4	11	0	16	23	9	70	90	48	85.9	91.7	82.1	81.4	91.5	74.1	29.98	30.04	29.93	3.97	3.97	3.96
5/25/2006	180	359	0	2	18	0	6	18	0	16	25	12	75	88	56	86.0	90.7	81.7	81.0	91.4	72.3	29.95	30.02	29.87	3.97	3.97	3.97
5/26/2006	135	359	0	3	22	0	7	22	0	21	25	16	84	98	61	85.4	89.7	81.0	80.2	92.3	70.8	29.92	29.97	29.85	3.97	3.97	3.97
5/27/2006	202	359	0	2	17	0	6	17	0	24	37	19	85	95	71	85.3	91.5	81.1	79.6	90.4	71.1	29.92	29.97	29.87	3.97	3.97	3.97
5/28/2006	315	359	0	3	14	0	7	14	0	23	32	15	80	98	57	87.0	93.9	80.7	82.0	92.9	71.2	29.94	30.00	29.86	3.97	3.97	3.97
5/29/2006	45	359	0	3	20	0	9	20	0	27	36	16	86	97	74	86.9	91.8	83.2	80.8	89.4	74.3	29.92	29.97	29.87	3.97	3.97	3.97
5/30/2006	45	359	0	5	19	0	13	19	1	29	34	21	81	91	67	85.9	90.3	82.6	80.7	87.6	75.7	29.91	29.94	29.85	5.79	5.79	3.97
5/31/2006	45	359	0	4	21	0	13	21	0	29	38	22	82	91	66	86.4	91.7	82.3	81.7	91.2	75.7	29.89	29.92	29.86	5.80	5.80	5.79
6/1/2006	112	334	9	4	20	0	12	20	0	34	42	25	89	100	70	84.1	87.7	81.9	79.1	87.4	74.0	29.92	29.98	29.88	6.34	6.34	5.80
6/2/2006	135	233	36	3	21	0	9	21	0	31	36	25	88	100	68	85.1	90.8	81.2	80.7	90.4	72.1	29.89	29.94	29.80	6.56	6.56	6.34
6/3/2006	248	357	2	2	16	0	7	16	0	25	35	12	78	100	42	86.7	92.7	81.7	83.5	97.5	73.0	29.80	29.88	29.71	6.56	6.56	6.56
6/4/2006	248	359	0	2	26	0	8	26	0	22	28	17	84	96	55	86.3	91.0	82.5	79.4	94.8	71.0	29.77	29.82	29.70	6.56	6.56	6.56
6/5/2006	248	359	0	2	16	0	7	16	0	26	33	22	85	100	60	84.2	89.4	80.6	79.8	92.2	70.0	29.75	29.81	29.66	6.56	6.56	6.56
6/6/2006	45	359	0	3	16	0	8	16	0	24	31	17	80	99	65	85.7	89.3	82.4	80.3	88.0	72.3	29.77	29.87	29.70	6.56	6.56	6.56
6/7/2006	68	359	0	4	18	0	10	18	0	17	23	9	66	84	39	85.4	89.2	82.2	80.8	88.2	72.4	29.89	29.94	29.85	6.56	6.56	6.56
6/8/2006	112	190	23	4	19	0	10	19	0	21	26	17	74	88	55	87.1	91.5	83.8	83.4	92.8	76.4	29.87	29.92	29.80	6.56	6.56	6.56
6/9/2006	180	359	0	3	21	0	8	21	0	23	29	17	80	96	59	88.0	92.0	84.3	84.4	94.9	74.3	29.81	29.85	29.76	7.04	7.04	6.56
6/10/2006	202	331	73	4	19	0	9	19	0	24	33	17	79	94	58	88.3	91.4	84.9	84.9	96.4	75.8	29.83	29.88	29.80	7.32	7.32	7.04
6/11/2006	135	300	51	2	24	0	7	24	0	27	46	18	88	100	60	86.3	88.6	84.6	79.9	92.5	74.9	29.88	29.93	29.84	7.33	7.33	7.32
6/12/2006	135	359	0	3	29	0	8	29	0	37	47	30	95	100	79	85.0	86.8	84.2	79.3	83.8	75.1	29.87	29.91	29.82	7.33	7.33	7.33
6/13/2006	180	290	111	4	25	0	12	25	0	36	44	26	86	98	61	85.8	88.1	84.0	82.8	93.4	78.1	29.83	29.90	29.78	7.33	7.33	7.33
6/14/2006	180	340	141	4	22	0	9	22	0	29	39	20	82	99	58	87.6	91.5	84.0	84.9	96.5	75.6	29.90	29.95	29.87	7.33	7.33	7.33
6/15/2006	135	358	0	2	15	0	6	15	0	25	32	19	81	98	53	88.6	92.2	84.9	84.2	96.6	74.5	29.95	30.00	29.90	7.34	7.34	7.33
6/16/2006	45	359	0	3	17	0	8	17	0	30	39	21	89	97	73	88.6	91.8	86.1	83.1	92.5	76.8	29.95	29.98	29.91	8.64	8.64	7.34
6/17/2006	68	357	4	5	25	0	14	25	0	38	45	28	89	100	73	86.9	90.0	84.0	81.7	88.2	76.6	29.98	30.03	29.94	8.64	8.64	8.64
6/18/2006	112	210	5	4	17	0	11	17	0	43	48	37	95	100	77	84.1	86.0	82.5	78.3	88.5	74.2	29.99	30.03	29.94	8.64	8.64	8.64
6/19/2006	112	355	1	3	17	0	9	17	0	37	44	29	88	100	71	86.7	90.8	83.3	82.3	91.1	75.4	29.98	30.03	29.93	8.64	8.64	8.64
6/20/2006	45	359	0	2	16	0	7	16	0	33	36	29	89	100	73	88.2	92.1	84.4	82.7	89.7	74.8	29.96	30.00	29.91	8.64	8.64	8.64
6/21/2006	68	112	45	4	7	0	10	17	2	31	37	26	84	96	69	88.9	92.3	86.1	83.7	90.0	78.9	29.99	30.04	29.95	8.64	8.64	8.64
6/22/2006	45	359	0	4	18	0	11	18	1	31	36	26	85	94	73	88.7	92.4	86.0	83.2	90.2	78.7	30.00	30.05	29.95	8.64	8.64	8.64
6/23/2006	22	359	0	3	17	0	9	17	0	28	33	22	83	94	60	88.3	92.0	85.4	82.6	89.8	76.1	29.92	29.98	29.83	8.64	8.64	8.64
6/24/2006	0	359	0	3	7	1	7	7	1	33	33	33	94	94	94	87.2	87.2	87.1	79.4	79.8	79.4	29.86	29.86	29.86	8.77	8.77	8.64
6/23/2006	0	359	0	3	17	0	9	17	0	29	33	22	84	94	60	88.3	92.0	85.4	82.5	89.8	76.1	29.92	29.98	29.83	9.48	9.48	8.77
6/24/2006	45	359	0	2	12	0	8	13	0	35	42	29	88	97	73	86.8	90.0	84.1	82.2	89.2	77.7	29.83	29.88	29.78	10.64	10.64	9.48
6/25/2006	180	358	0	2	12	0	5	12	0	36	45	32	92	100	76	85.2	88.3	83.0	80.1	88.6	76.2	29.78	29.82	29.74	12.83	12.83	10.64
6/26/2006	180	359	0	2	25	0	6	25	0	36	43	25	93	100	70	83.0	87.9	80.1	78.3	90.8	73.1	29.81	29.91	29.76	12.86	12.86	12.83
6/27/2006	0	359	0	1	20	0	4	20	0	37	49	23	88	100	49	82.1	94.0	0.0	80.1	99.8	72.5	29.96	30.04	29.91	12.87	12.87	12.86
6/28/2006	135	343	22	2	17	0	6	17	0	35	46	30	89	100	72	86.0	94.1	80.1	81.8	92.8	73.5	30.04	30.09	29.98	12.87	12.87	12.87
6/29/2006	45	359	0	1	13	0	5	13	0	34	44	24	88	100	64	86.2	93.1	80.8	81.9	94.9	73.7	30.00	30.05	29.94	12.87	12.87	12.87
6/30/2006	45	359	0	2	14	0	6	14	0	34	41	27	88	99	72	87.0	93.4	81.7	82.2	90.5	73.9	29.99	30.02	29.94	13.05	13.05	12.87
7/1/2006	68	166	14	2	16	0	8	16	0	36	43	31	87	98	74	87.9	92.3	83.8	84.0	91.4	77.3	30.04	30.08	30.00	13.05	13.05	13.05
7/2/2006	112	359	0	1	17	0	7	17	0	44	50	38	95	100	84	84.7	87.3	82.0	80.6	85.5	75.9	30.08	30.13	30.04	13.05	13.05	13.05
7/3/2006	45	359	0	3	17	0	9	17	0	42	53	29	88	100	74	86.6	92.0	82.0	83.3	90.3	76.7	30.06	30.11	29.98	13.10	13.10	13.05
7/4/2006	112	358	1	1	9	0	2	9	0	34	40	25	84	100	70	87.4	92.2	83.6	82.9	89.4	76.7	29.98	30.04	29.90	13.21	13.21	13.10
7/5/2006	135	358	0	1	15	0	6	15	0	36	43	25	90	100	69	86.1	90.8	81.4	81.4	90.6	73.8	29.92	29.96	29.85	14.36	14.36	13.21
7/6/2006	180	291	118	3	22	0	10	22	0	35	43	23	87	97	60	86.0	92.5	82.7	82.6	98.6	76.7	29.96	30.02	29.91	14.57	14.57	14.36
7/7/2006	225	359	144	2	19	0	7	19	0	36	41	29	95	100	78	83.2	86.8	80.6	78.1	88.0	74.7	30.02	30.09	29.99	14.57	14.57	14.57
7/8/2006	45	359	0	0	10	0	3	10	0	40	48	33	93	100	76	82.9	87.2	79.5	78.6	89.3	73.1	30.03	30.08	29.98	14.57	14.57	14.57
7/9/2006	45	359	0	1	14	0	5	14	0	35	41	29	89	100	72	84.6	90.1	79.7	80.0	88.9	72.2	29.99	30.03	29.93	14.76	14.76	14.57
7/10/2006	112	354	0	2	17	0	7	17	0	35	44	28	86	98	68	86.1	91.3	81.5	82.3	92.1	74.5	29.98	30.03	29.95	14.81	14.81	14.76
7/11/2006	112	214	31	2	15	0	7	15	0	41	52	35	93	100	74	85.2	90.3	82.2	81.0	91.2	76.4	30.04	30.08	29.99	14.82	14.82	14.81
7/12/2006	112	220	57	4	22	0	12	22	0	44	51	37	92	100	79	84.8	88.6	82.2	81.6	88.0	75.8	30.05	30.10	30.02	14.82	14.82	14.82
7/13/2006	112	185	54	3	22	0	11	22	0	39	48	28	85	97	66	86.8	92.5	82.2	84.3	94.6	77.8	30.02	30.06	29.98	14.82	14.82	14.82
7/14/2006	112	197	42	3	19	0	9	19	0	34	44	20	83	100	64	88.1	94.1	83.2	85.6	95.6	76.7	30.01	30.05	29.97	14.82	14.82	14.82
7/15/2006	135	206	12	2	13	0	7	13	0	31	39	20	83	98	64	88.4	93.8	83.5	84.7	93.2	76.0	30.02	30.06	29.96	14.82	14.82	14.82
7/16/2006	112	359	0	1	13	0	4	13	0	27	33	18	82	99	59	88.2	94.2	82.6	84.1	96.1	74.0	29.96	30.02	29.87	14.82	14.82	14.82
7/17/2006	112	359	0	1	12	0	4	12	0	26	38	16	82	97	57	87.8	94.3	83.8	84.1	96.0	76.6	29.91	29.97	29.86	14.82	14.82	14.82
7/18/2006	68	359	0	1	13	0	4	13	0	29	35	21	86	100	67	87.6	92.7	83.4	83.7	92.3	76.5	29.92	29.96	29.87	14.82	14.82	14.82
7/19/2006	45	359	0	0	11	0	3	11	0	32	44	23	88	100	68	87.2	92.9	83.9	83.0	93.1	76.4	29.92	29.97	29.89	14.82	14.82	14.82
7/20/2006	135	244	55	2	17	0	7	17	0	32	37	24	86	100	68	86.7	91.6	83.2	82.9	92.6	76.0	29.97	30.00	29.93	14.83	14.83	14.82
7/21/2006	135	359	0	2	23	0	6	23	0	33	41	28	89	100	73	85.5	90.6	82.0	80.4	90.1	73.9	29.95	30.00	29.90	15.07	15.07	14.83
7/22/2006	180	298	81	1	16	0	6	16	0	34	44	27	91	100	71	84.2	88.9	81.5	80.2	93.0	74.3	29.89	29.93	29.83	15.08	15.08	15.07
7/23/2006	202	359	0	2	31	0	8	31	0	32	43	19	86	100	57	86.2	93.3	81.3	83.7	99.1	75.6	29.90	29.97	29.84	15.08	15.08	15.08
7/24/2006	135	359	0	1	17	0	6	17	0	31	42	23	87	100	64	86.9	93.2	82.2	83.1	95.6	74.9	29.97	30.02	29.92	15.08	15.08	15.08
7/25/2006	45	359	0	1	12	0	4	12	0	34	45	29	90	100	72	88.0	94.0	83.0	83.5	91.5	75.8	30.00	30.05	29.92	15.11	15.11	15.08
7/26/2006	112	344	3	1	13	0	4	13	0	32	39	20	86	100	60	89.4	95.1	84.4	85.3	94.5	77.3	29.96	30.01	29.91	15.11	15.11	15.11
7/27/2006	45	359	0	1	13	0	3	13	0	32	39	22	92	100	77	87.2	89.6	85.3	82.3	90.1	78.7	30.00	30.05	29.94	15.31	15.31	15.11
7/28/2006	112	195	30	2	16	0	7	16	0	37	47	26	90	100	70	87.4	92.4	84.1	83.4	91.2	77.7	30.06	30.11	30.02	15.31	15.31	15.31
7/29/2006	112	359	0	2	17	0	6	17	0	36	43	26	87	100	67	87.7	93.8	84.2	84.0	95.6	78.0	30.03	30.08	29.96	15.31	15.31	15.31
7/30/2006	135	341	0	1	14	0	5	14	0	33	41	24	86	100	65	88.3	95.1	83.3	85.1	96.1	76.0	29.94	30.03	29.86	15.31	15.31	15.31
7/31/2006	180	359	0	1	17	0	8	17	0	28	34	20	82	97	66	89.0	95.0	84.7	85.5	96.7	78.6	29.94	30.00	29.90	15.31	15.31	15.31
8/1/2006	45	358	0	1	13	0	5	13	0	33	44	25	87	98	75	88.4	93.5	84.6	84.0	92.0	77.3	29.99	30.05	29.94	15.31	15.31	15.31
8/2/2006	112	263	18	2	15	0	6	15	0	33	39	25	86	100	66	88.8	94.6	83.9	85.1	95.3	76.0	29.98	30.04	29.93	15.31	15.31	15.31
8/3/2006	112	359	0	1	15	0	5	15	0	28	35	17	80	100	57	89.2	95.2	84.1	86.2	97.0	77.0	29.96	30.02	29.89	15.31	15.31	15.31
8/4/2006	248	358	0	1	17	0	4	17	0	25	31	18	79	94	48	88.5	95.6	84.1	84.7	101.6	76.1	29.93	29.98	29.86	15.31	15.31	15.31
8/5/2006	112	359	0	2	14	0	6	14	0	28	37	22	83	96	63	88.2	94.2	83.2	84.2	93.6	75.1	29.92	29.95	29.87	15.31	15.31	15.31
8/6/2006	112	186	40	4	20	0	10	20	0	33	41	22	83	99	57	89.7	95.1	85.3	86.6	97.4	78.8	29.97	30.03	29.92	15.31	15.31	15.31
8/7/2006	112	166	15	2	17	0	10	17	0	34	42	23	84	97	63	89.7	94.3	86.3	86.3	93.8	81.2	30.02	30.07	29.98	15.31	15.31	15.31
8/8/2006	112	181	31	2	17	0	8	17	0	31	38	22	81	97	61	89.6	94.8	85.6	86.6	95.7	79.3	30.00	30.04	29.95	15.31	15.31	15.31
8/9/2006	45	359	0	2	16	0	6	16	0	32	39	20	85	97	67	88.2	93.3	83.6	83.4	92.5	74.3	29.98	30.03	29.91	15.31	15.31	15.31
8/10/2006	135	359	8	2	13	0	6	13	0	29	36	20	82	98	62	88.5	94.5	83.5	85.0	95.2	75.5	29.92	29.98	29.83	15.31	15.31	15.31
8/11/2006	180	358	0	2	14	0	7	14	0	25	32	14	79	100	48	89.6	96.7	84.3	87.0	103.4	77.1	29.83	29.89	29.76	15.31	15.31	15.31
8/12/2006	135	359	0	2	14	0	7	14	0	26	35	15	79	96	47	90.2	97.4	85.2	87.4	102.9	78.0	29.82	29.87	29.76	15.32	15.32	15.31
8/13/2006	45	359	0	2	13	0	6	13	0	29	35	21	87	98	62	88.9	92.6	85.5	84.2	93.9	78.3	29.87	29.91	29.82	15.32	15.32	15.32
8/14/2006	45	359	0	1	21	0	7	21	0	35	44	30	93	100	75	87.1	92.0	83.7	81.7	90.2	76.4	29.88	29.95	29.83	15.32	15.32	15.32
8/15/2006	45	359	0	2	17	0	6	17	0	34	42	27	88	100	66	88.1	93.2	83.9	83.3	91.3	76.3	29.86	29.90	29.82	15.32	15.32	15.32
8/16/2006	112	224	16	2	15	0	6	15	0	31	36	24	85	99	66	88.6	93.7	84.1	84.5	94.9	76.8	29.88	29.92	29.84	15.32	15.32	15.32
8/17/2006	135	340	47	1	16	0	7	16	0	29	35	21	82	95	59	88.6	94.2	84.9	84.8	97.4	77.6	29.90	29.95	29.86	15.44	15.44	15.32
8/18/2006	112	341	7	1	14	0	4	14	0	26	31	20	84	96	69	87.6	92.7	82.8	83.2	93.9	73.8	29.90	29.95	29.84	15.52	15.52	15.44
8/19/2006	135	359	0	1	14	0	4	14	0	27	32	17	89	100	68	86.9	90.9	83.9	81.9	92.0	75.4	29.87	29.93	29.83	15.52	15.52	15.52
8/20/2006	135	359	0	1	17	0	5	17	0	30	39	24	88	100	64	86.1	92.6	81.4	81.4	95.5	72.9	29.91	29.98	29.88	15.52	15.52	15.52
8/21/2006	135	185	51	2	18	0	7	18	0	31	37	26	87	100	67	86.9	92.9	82.4	82.8	94.8	74.0	29.98	30.04	29.94	15.52	15.52	15.52
8/22/2006	45	358	0	1	16	0	5	16	0	32	39	27	87	100	66	87.9	94.1	83.2	83.9	95.1	75.5	30.00	30.06	29.94	16.83	16.83	15.52
8/23/2006	180	359	0	1	11	0	4	11	0	29	35	24	85	100	62	87.4	93.1	83.5	83.0	94.4	75.8	29.93	29.99	29.85	18.07	18.07	16.83
8/24/2006	225	358	0	1	18	0	5	18	0	32	37	26	93	100	72	85.0	90.8	82.4	79.3	92.4	75.0	29.89	29.92	29.85	18.12	18.12	18.07
8/25/2006	225	359	0	2	25	0	6	25	0	35	44	23	94	100	67	84.4	92.0	81.2	80.0	97.2	74.4	29.90	29.93	29.83	18.13	18.13	18.12
8/26/2006	248	359	0	0	15	0	3	15	0	37	46	33	95	100	74	83.7	89.4	80.7	78.8	91.2	73.8	29.91	29.94	29.87	18.13	18.13	18.13
8/27/2006	158	358	1	1	8	0	4	17	0	36	42	29	89	100	68	84.8	91.3	80.7	81.5	93.8	73.1	29.90	29.95	29.84	18.14	18.14	18.13
8/28/2006	112	339	26	2	18	0	6	18	0	35	44	29	87	100	67	87.6	93.2	82.8	84.8	96.5	74.9	29.87	29.93	29.80	18.88	18.88	18.14
8/29/2006	112	335	0	2	20	0	7	20	0	33	39	29	87	100	70	88.2	92.3	84.5	84.5	95.1	77.0	29.82	29.87	29.77	19.17	19.17	18.88
8/30/2006	135	269	34	5	30	0	14	30	0	44	54	31	98	100	86	84.5	86.8	82.3	79.5	87.2	75.2	29.66	29.78	29.48	19.55	19.55	19.17
8/31/2006	225	331	145	3	26	0	11	26	0	43	52	37	96	100	75	83.7	87.9	81.6	80.0	93.1	74.6	29.75	29.83	29.67	19.87	19.87	19.55
9/1/2006	248	359	0	1	18	0	6	18	0	40	49	32	94	100	66	84.3	88.9	81.8	80.8	96.2	76.0	29.82	29.86	29.77	20.81	20.81	19.87
9/2/2006	248	359	0	1	16	0	6	16	0	38	43	31	92	100	65	84.3	90.2	81.0	80.5	95.8	74.2	29.86	29.91	29.81	20.82	20.82	20.81
9/3/2006	248	359	0	0	7	0	3	7	0	38	44	34	96	100	81	83.5	85.6	81.2	79.0	88.8	74.6	29.91	29.94	29.87	20.88	20.88	20.82
9/4/2006	112	359	0	1	13	0	4	13	0	36	44	32	90	100	75	84.3	88.3	80.6	80.1	89.8	72.9	29.93	29.99	29.88	20.89	20.89	20.88
9/5/2006	135	275	47	2	28	0	8	28	0	37	44	32	90	100	72	84.3	88.5	81.3	80.4	91.9	74.6	29.92	29.98	29.87	20.95	20.95	20.89
9/6/2006	180	359	0	1	15	0	6	15	0	38	47	32	90	100	64	85.8	91.3	81.6	82.6	95.1	75.0	29.87	29.92	29.81	20.95	20.95	20.95
9/7/2006	112	359	0	1	18	0	6	18	0	36	43	29	89	100	65	86.5	91.6	82.5	82.9	96.0	75.0	29.86	29.91	29.80	20.98	20.98	20.95
9/8/2006	45	359	0	1	14	0	4	14	0	39	46	34	93	100	74	86.2	90.5	82.9	82.0	92.9	75.4	29.88	29.93	29.83	20.99	20.99	20.98
9/9/2006	45	359	0	1	15	0	4	15	0	40	47	34	95	100	82	86.3	89.7	84.1	81.6	89.1	77.2	29.88	29.91	29.82	20.99	20.99	20.99
9/10/2006	45	359	0	1	16	0	4	16	0	40	49	35	93	100	79	85.7	90.2	82.0	80.9	89.3	74.0	29.87	29.91	29.82	21.03	21.03	20.99
9/11/2006	45	359	0	1	16	0	8	16	0	36	43	25	86	100	63	86.6	91.2	83.4	82.9	91.1	77.0	29.89	29.94	29.84	21.03	21.03	21.03
9/12/2006	68	151	1	2	16	0	10	16	0	34	43	24	81	94	64	86.1	89.7	83.6	83.1	90.7	79.4	29.92	29.97	29.86	21.57	21.57	21.03
9/13/2006	135	216	48	2	16	0	7	16	0	28	33	26	78	93	58	86.4	90.8	83.0	83.6	92.9	75.3	29.82	29.92	29.74	21.58	21.58	21.57
9/14/2006	248	359	0	1	20	0	4	20	0	31	39	25	91	100	65	85.9	89.4	83.6	81.4	95.7	76.2	29.80	29.87	29.74	21.58	21.58	21.58
9/15/2006	45	359	0	1	15	0	5	15	0	38	47	33	92	100	77	85.7	90.2	82.2	81.8	89.3	74.6	29.88	29.94	29.82	21.58	21.58	21.58
9/16/2006	68	149	0	2	18	0	9	18	0	35	44	24	84	99	66	86.8	90.2	84.1	83.4	90.2	78.5	29.92	29.96	29.88	21.58	21.58	21.58
9/17/2006	45	148	0	1	15	0	6	15	0	29	34	23	80	97	66	86.5	90.4	83.0	82.6	90.7	74.7	29.90	29.96	29.84	21.80	21.80	21.58
9/18/2006	135	254	40	1	15	0	5	15	0	26	31	21	79	97	58	86.5	91.0	82.4	82.9	93.8	73.2	29.89	29.94	29.84	21.80	21.80	21.80
9/19/2006	225	359	0	1	18	0	4	18	0	28	35	23	85	98	58	86.4	91.7	82.8	82.7	97.8	74.9	29.87	29.93	29.77	21.80	21.80	21.80
9/20/2006	45	359	8	1	13	0	6	13	0	34	44	27	91	100	67	84.9	89.6	81.6	80.5	92.3	73.7	29.82	29.87	29.75	21.80	21.80	21.80
9/21/2006	112	359	0	1	13	0	6	13	0	32	37	27	86	100	69	85.4	89.2	81.8	81.1	89.9	72.6	29.88	29.96	29.83	21.80	21.80	21.80
9/22/2006	112	178	21	1	11	0	7	11	0	26	31	19	76	92	57	86.1	90.6	82.8	82.9	92.3	75.9	29.96	30.01	29.91	21.82	21.82	21.80
9/23/2006	112	170	37	1	15	0	6	15	0	24	30	15	76	94	46	86.6	91.3	82.6	83.1	93.0	73.3	29.96	30.01	29.91	21.83	21.83	21.82
9/24/2006	135	253	50	1	16	0	6	16	0	31	35	24	88	100	71	86.8	90.4	84.0	83.4	93.6	76.4	29.90	29.95	29.83	22.73	22.73	21.83
9/25/2006	135	359	3	1	13	0	6	13	0	30	35	26	85	100	67	87.0	91.0	83.6	83.8	93.3	76.3	29.88	29.93	29.81	22.92	22.92	22.73
9/26/2006	180	359	0	1	18	0	5	18	0	27	33	18	84	100	52	86.9	91.2	83.5	83.3	98.0	75.5	29.87	29.92	29.80	22.93	22.93	22.92
9/27/2006	270	359	0	0	11	0	1	11	0	29	33	27	93	100	64	84.9	88.8	82.4	79.0	93.1	73.7	29.84	29.89	29.80	22.93	22.93	22.93
9/28/2006	315	347	83	1	13	0	4	13	0	22	30	14	78	100	49	83.6	87.5	79.8	78.1	88.7	68.5	29.84	29.90	29.79	22.93	22.93	22.93
9/29/2006	45	359	0	1	14	0	4	14	0	20	27	16	80	95	61	83.0	87.4	78.4	76.8	86.4	65.9	29.90	29.95	29.86	22.93	22.93	22.93
9/30/2006	45	359	0	1	12	0	4	12	0	25	32	20	84	98	69	84.3	89.2	80.0	79.3	88.2	70.5	29.94	29.99	29.90	22.93	22.93	22.93
10/1/2006	22	359	0	1	15	0	6	15	0	27	33	24	84	98	69	85.2	89.3	81.4	80.7	88.1	71.8	29.97	30.02	29.90	23.08	23.08	22.93
10/2/2006	45	124	5	3	17	0	11	17	0	27	31	25	78	86	66	85.5	89.5	82.6	82.4	89.3	77.8	30.02	30.07	29.98	23.09	23.09	23.08
10/3/2006	68	152	19	2	19	0	12	19	0	28	32	26	79	91	50	85.0	88.6	82.9	81.6	89.2	78.6	30.02	30.07	29.98	23.09	23.09	23.09
10/4/2006	45	355	4	4	23	0	15	23	0	25	31	17	75	84	64	83.6	86.7	81.5	80.4	85.7	77.1	29.98	30.04	29.94	23.09	23.09	23.09
10/5/2006	45	115	12	3	18	0	13	18	0	27	30	22	77	84	65	84.4	88.6	81.4	81.4	88.2	77.6	29.93	29.98	29.87	23.09	23.09	23.09
10/6/2006	45	359	0	1	14	0	6	14	0	24	28	19	78	96	64	84.4	88.6	80.8	79.8	87.5	70.8	29.93	29.97	29.88	23.09	23.09	23.09
10/7/2006	45	359	0	0	11	0	2	11	0	19	28	13	79	100	56	83.8	88.8	79.0	78.0	89.2	67.4	29.92	29.97	29.87	23.09	23.09	23.09
10/8/2006	22	359	0	1	16	0	5	16	0	22	30	17	84	95	63	83.4	87.0	80.0	77.6	89.3	70.0	29.91	29.97	29.86	23.09	23.09	23.09
10/9/2006	22	359	0	1	12	0	5	12	0	20	26	14	80	94	62	82.7	86.0	79.8	76.0	83.7	69.3	29.90	29.96	29.85	23.09	23.09	23.09
10/10/2006	45	359	0	1	13	0	3	13	0	17	23	14	80	98	61	81.1	85.4	77.3	74.1	83.3	65.9	29.88	29.95	29.80	23.09	23.09	23.09
10/11/2006	270	350	7	0	13	0	2	13	0	18	25	14	80	100	53	81.8	86.7	77.2	76.3	88.9	65.7	29.81	29.87	29.76	23.10	23.10	23.09
10/12/2006	248	357	0	0	12	0	3	12	0	23	31	16	85	97	59	83.5	87.9	79.5	79.2	92.3	70.2	29.78	29.85	29.71	23.10	23.10	23.10
10/13/2006	45	359	0	0	11	0	2	11	0	28	33	25	90	100	58	84.1	88.2	80.2	78.6	90.0	70.5	29.81	29.87	29.77	23.10	23.10	23.10
10/14/2006	22	359	0	2	18	0	8	18	0	23	30	14	84	100	59	81.6	83.8	79.2	75.3	81.0	72.6	29.92	30.01	29.81	23.10	23.10	23.10
10/15/2006	45	359	0	2	18	0	11	18	0	18	22	14	71	100	53	80.1	83.3	77.8	76.1	82.1	72.5	29.99	30.05	29.95	23.10	23.10	23.10
10/16/2006	112	176	37	3	16	0	11	16	0	18	20	15	70	77	56	80.7	84.1	78.2	77.5	84.5	73.1	29.99	30.06	29.93	23.10	23.10	23.10
10/17/2006	135	203	80	1	17	0	6	17	0	22	26	19	79	90	66	82.5	86.4	80.1	78.8	88.0	72.6	29.90	29.97	29.84	23.10	23.10	23.10
10/18/2006	112	339	22	0	9	0	3	9	0	25	31	21	84	97	52	83.5	88.8	79.5	80.0	92.1	71.1	29.84	29.90	29.78	23.10	23.10	23.10
10/19/2006	135	325	44	1	11	0	4	11	0	30	36	26	87	100	64	84.7	89.2	81.3	81.7	92.3	73.7	29.79	29.83	29.73	23.10	23.10	23.10
10/20/2006	112	336	10	1	10	0	3	10	0	30	33	27	86	100	63	85.1	88.8	81.3	81.3	93.2	72.9	29.76	29.81	29.71	23.10	23.10	23.10
10/21/2006	45	359	0	1	14	0	5	14	0	37	51	28	93	100	81	84.6	87.5	81.7	80.3	88.4	73.4	29.84	29.90	29.79	23.10	23.10	23.10
10/22/2006	112	358	1	1	13	0	4	13	0	35	43	26	87	100	53	84.8	89.7	81.2	81.4	93.8	72.8	29.88	29.94	29.82	23.10	23.10	23.10
10/23/2006	0	359	0	1	17	0	5	17	0	27	36	10	86	100	55	82.5	84.2	78.7	75.4	81.3	65.7	29.88	29.98	29.83	23.10	23.10	23.10
10/24/2006	338	359	0	3	19	0	11	19	0	6	11	1	64	75	54	74.1	78.7	70.9	62.2	71.0	52.8	30.07	30.14	29.97	23.10	23.10	23.10
10/25/2006	22	359	0	1	15	0	4	15	0	9	13	6	69	84	49	72.6	78.0	67.1	64.1	76.0	51.8	30.13	30.21	30.08	23.10	23.10	23.10
10/26/2006	68	358	0	1	13	0	6	13	0	19	27	11	80	94	63	75.7	81.0	71.2	70.3	81.0	59.1	30.11	30.16	30.06	23.53	23.53	23.10
10/27/2006	135	212	100	4	21	0	12	21	0	28	34	24	81	88	71	79.5	82.3	77.1	76.7	82.9	71.0	29.94	30.07	29.80	23.53	23.53	23.53
10/28/2006	180	359	148	3	19	0	12	19	0	29	41	19	87	100	66	79.3	81.5	76.2	73.1	78.2	63.0	29.77	29.94	29.70	23.53	23.53	23.53
10/29/2006	315	359	0	1	12	0	6	12	0	21	27	16	84	94	66	76.1	81.4	70.6	67.7	78.3	56.7	30.03	30.09	29.93	23.85	23.85	23.53
10/30/2006	45	358	1	1	15	0	7	15	0	25	32	21	83	100	64	77.9	82.7	73.3	72.8	82.4	62.1	30.03	30.09	29.98	24.94	24.94	23.85
10/31/2006	45	359	0	2	16	0	8	16	0	36	46	25	88	100	77	80.4	84.0	76.6	76.8	83.9	68.0	29.96	30.02	29.90	24.95	24.95	24.94
11/1/2006	315	359	0	1	19	0	6	19	0	40	51	30	92	100	74	82.1	87.4	78.5	78.3	89.6	72.6	29.89	29.96	29.82	24.97	24.97	24.95
11/2/2006	0	359	0	1	12	0	4	12	0	31	37	25	90	100	70	80.1	82.0	78.6	74.1	80.8	70.3	29.94	30.02	29.87	24.97	24.97	24.97
11/3/2006	45	359	0	4	30	0	14	30	0	33	39	28	92	100	76	78.7	82.2	76.5	73.4	81.8	68.4	30.04	30.14	29.96	24.97	24.97	24.97
11/4/2006	45	121	4	7	26	0	20	26	0	24	34	17	74	87	59	77.6	80.6	75.4	74.6	79.2	72.1	30.17	30.22	30.11	25.45	25.45	24.97
11/5/2006	68	138	30	4	27	0	17	27	0	23	27	20	74	100	66	77.9	80.9	75.6	74.9	80.5	71.7	30.16	30.22	30.10	25.47	25.47	25.45
11/6/2006	68	159	9	4	21	0	14	21	0	29	40	21	83	100	61	77.7	80.9	76.4	73.9	81.4	69.6	30.08	30.15	29.97	25.47	25.47	25.47
11/7/2006	180	272	75	2	17	0	7	17	0	38	41	35	95	100	81	77.7	80.0	76.0	73.8	80.1	69.0	29.83	29.97	29.71	25.47	25.47	25.47
11/8/2006	292	359	2	2	20	0	9	20	0	28	40	12	84	100	59	77.3	81.1	73.7	70.7	79.4	60.1	29.73	29.81	29.66	25.48	25.48	25.47
11/9/2006	315	359	0	1	13	0	4	13	0	17	24	10	77	100	41	75.1	81.0	70.5	66.4	79.9	57.4	29.86	29.96	29.80	25.48	25.48	25.48
11/10/2006	45	359	6	0	10	0	2	10	0	18	26	13	82	97	55	75.0	80.1	69.7	68.0	80.3	55.7	30.00	30.05	29.95	25.48	25.48	25.48
11/11/2006	112	331	18	0	10	0	2	10	0	23	29	19	85	99	64	77.4	81.2	73.4	72.7	84.7	64.1	30.01	30.10	29.95	25.48	25.48	25.48
11/12/2006	0	359	0	1	13	0	4	13	0	25	33	19	88	98	73	77.2	80.3	74.2	69.5	82.3	62.8	29.99	30.03	29.94	25.48	25.48	25.48
11/13/2006	45	359	0	0	10	0	3	10	0	18	28	15	81	95	60	73.7	77.5	69.6	64.8	76.8	55.2	29.98	30.05	29.91	25.48	25.48	25.48
11/14/2006	248	355	1	0	9	0	2	9	0	20	25	16	81	94	55	75.2	81.0	70.2	68.6	83.6	57.1	29.90	29.98	29.79	25.52	25.52	25.48
11/15/2006	158	228	93	3	22	0	10	22	0	29	39	20	88	100	68	78.3	83.6	73.2	74.4	85.6	63.1	29.79	29.86	29.70	25.52	25.52	25.52
11/16/2006	180	350	123	3	19	0	11	19	0	35	45	25	90	100	77	79.3	81.4	76.5	74.2	82.0	67.6	29.77	29.91	29.70	25.52	25.52	25.52
11/17/2006	338	359	0	1	12	0	5	12	0	18	25	12	76	86	60	74.4	76.6	70.8	64.7	71.0	55.8	29.97	30.03	29.91	25.52	25.52	25.52
11/18/2006	315	359	0	1	11	0	5	11	0	13	18	5	76	94	45	70.7	75.4	67.1	60.8	74.1	51.9	29.99	30.05	29.91	25.52	25.52	25.52
11/19/2006	315	359	0	0	11	0	4	11	0	10	17	6	70	93	37	69.8	76.1	64.7	59.8	73.9	49.2	30.02	30.09	29.95	25.52	25.52	25.52
11/20/2006	315	357	3	2	17	0	7	17	0	5	8	2	71	87	46	66.4	69.6	63.6	55.5	66.4	47.8	30.07	30.15	30.01	25.52	25.52	25.52
11/21/2006	315	359	0	3	19	0	10	19	0	6	11	3	74	89	48	63.5	68.4	59.3	52.3	66.3	42.2	30.12	30.19	30.02	25.52	25.52	25.52
11/22/2006	270	354	208	3	23	0	9	23	0	6	9	2	74	89	53	63.1	68.1	57.6	52.7	65.6	41.3	30.12	30.19	30.03	25.52	25.52	25.52
11/23/2006	0	359	0	2	14	0	7	14	0	15	21	7	80	91	56	65.1	70.3	57.8	57.8	68.1	48.9	30.16	30.23	30.08	25.52	25.52	25.52
11/24/2006	0	359	0	2	14	0	9	14	0	26	33	16	90	99	81	68.4	72.0	64.7	62.8	71.8	54.1	30.13	30.18	30.08	25.52	25.52	25.52
11/25/2006	45	359	0	2	19	0	6	19	0	33	40	29	90	100	64	71.6	76.3	67.9	68.0	77.6	60.0	30.13	30.18	30.09	25.68	25.68	25.52
11/26/2006	45	359	0	2	18	0	9	18	0	34	41	29	85	94	73	74.6	77.4	72.2	72.1	77.1	68.3	30.14	30.19	30.11	25.89	25.89	25.68
11/27/2006	45	359	0	2	20	0	9	20	0	39	44	33	91	100	79	75.9	79.6	72.5	72.4	80.1	63.6	30.14	30.19	30.09	25.98	25.98	25.89
11/28/2006	68	218	17	1	24	0	7	24	0	47	54	42	97	100	86	76.1	78.7	74.2	72.6	79.7	69.2	30.13	30.18	30.08	26.08	26.08	25.98
11/29/2006	112	184	37	3	21	0	10	21	0	50	55	43	95	100	82	77.3	81.4	74.7	74.6	81.8	70.3	30.13	30.18	30.08	26.08	26.08	26.08
11/30/2006	135	220	43	2	21	0	10	21	0	47	56	37	95	100	77	78.9	82.1	76.6	76.0	82.8	72.1	30.11	30.16	30.07	26.08	26.08	26.08
12/1/2006	158	232	92	2	19	0	9	19	0	45	49	41	92	100	73	79.6	82.8	76.8	77.1	86.5	71.3	30.07	30.14	30.01	26.08	26.08	26.08
12/2/2006	112	227	46	1	12	0	4	12	0	38	43	30	89	100	63	79.6	83.4	77.3	76.1	86.1	68.8	30.11	30.16	30.07	26.08	26.08	26.08
12/3/2006	135	194	43	1	13	0	3	13	0	36	46	33	90	100	75	78.8	82.6	75.4	74.5	84.4	66.8	30.13	30.20	30.08	26.08	26.08	26.08
12/4/2006	0	359	0	2	18	0	9	18	0	30	39	20	90	100	75	75.2	79.0	72.3	68.0	73.0	62.7	30.17	30.23	30.09	26.08	26.08	26.08
12/5/2006	45	359	0	3	19	0	11	19	0	24	32	16	80	95	66	72.7	76.2	70.7	66.9	75.7	61.2	30.24	30.29	30.18	26.08	26.08	26.08
12/6/2006	68	176	16	1	14	0	6	14	0	21	25	18	74	92	58	74.3	78.4	71.2	70.3	79.0	64.2	30.19	30.26	30.13	26.08	26.08	26.08
12/7/2006	0	359	0	1	14	0	5	14	0	26	34	19	85	100	69	74.4	78.1	71.3	67.6	77.8	60.7	30.12	30.19	30.07	26.08	26.08	26.08
12/8/2006	0	359	0	6	25	0	17	25	0	16	21	11	75	85	63	68.8	72.5	66.8	61.4	64.7	59.7	30.29	30.38	30.18	26.12	26.12	26.08
12/9/2006	45	106	0	6	22	0	17	22	0	15	23	11	66	76	50	68.9	72.2	66.4	65.7	70.8	61.9	30.39	30.44	30.36	26.12	26.12	26.12
12/10/2006	45	150	7	5	23	0	14	23	0	29	33	23	80	94	70	71.9	74.9	69.7	68.7	74.3	66.0	30.36	30.42	30.30	26.15	26.15	26.12
12/11/2006	68	150	0	4	18	0	12	18	0	31	38	23	80	90	65	73.9	76.9	72.3	71.1	76.9	68.0	30.31	30.37	30.27	26.16	26.16	26.15
12/12/2006	68	359	3	2	15	0	9	15	0	36	43	27	87	98	77	74.6	77.4	72.5	70.9	76.4	67.5	30.23	30.30	30.17	26.25	26.25	26.16
12/13/2006	135	195	7	2	14	0	7	14	0	37	42	33	85	95	74	76.6	79.1	74.7	73.4	79.8	70.2	30.15	30.21	30.06	26.25	26.25	26.25
12/14/2006	135	241	6	2	17	0	6	17	0	45	53	35	96	100	87	76.1	78.2	74.3	72.5	77.8	69.1	30.02	30.10	29.92	26.27	26.27	26.25
12/15/2006	45	359	0	1	14	0	4	14	0	43	47	39	95	100	78	76.1	78.4	74.5	70.9	79.3	66.3	29.95	30.04	29.90	26.28	26.28	26.27
12/16/2006	45	359	0	1	5	0	3	10	0	44	48	38	97	100	90	74.3	75.4	73.2	69.0	71.9	66.4	30.06	30.14	30.00	26.28	26.28	26.28
12/17/2006	68	135	22	1	5	0	5	14	0	45	56	36	92	100	77	76.4	80.1	73.8	73.3	80.1	69.1	30.14	30.20	30.11	26.28	26.28	26.28
12/18/2006	45	112	22	2	5	0	8	15	3	39	45	29	85	94	72	77.8	80.2	76.0	74.6	79.8	72.1	30.17	30.22	30.13	26.29	26.29	26.28
12/19/2006	45	68	0	2	5	0	9	16	0	32	38	23	81	93	69	77.3	79.7	75.5	73.6	77.9	70.6	30.15	30.19	30.11	26.29	26.29	26.29
12/20/2006	112	155	45	4	18	0	15	21	4	24	28	19	73	79	61	76.4	78.7	74.4	73.6	77.6	71.1	30.16	30.21	30.12	26.30	26.30	26.29
12/21/2006	135	182	50	5	25	0	16	25	0	24	31	19	72	84	58	77.9	81.1	75.3	75.3	81.6	71.4	30.16	30.22	30.11	26.41	26.41	26.30
12/22/2006	135	206	77	5	23	0	16	23	0	39	43	30	88	95	79	78.9	81.3	76.8	76.3	82.3	73.2	30.05	30.12	29.99	26.41	26.41	26.41
12/23/2006	180	359	0	1	12	0	6	12	0	40	45	37	92	100	74	79.1	82.1	77.4	75.5	83.2	72.3	30.01	30.07	29.96	26.66	26.66	26.41
12/24/2006	135	233	42	1	15	0	6	15	0	44	51	36	93	100	80	79.5	81.9	77.4	76.3	83.0	71.7	30.02	30.09	29.96	26.68	26.68	26.66
12/25/2006	180	318	106	4	26	0	13	26	0	45	52	36	92	99	79	79.2	82.1	75.8	75.3	82.8	68.7	29.89	29.97	29.77	26.68	26.68	26.68
12/26/2006	315	341	183	1	17	0	4	17	0	33	40	23	92	100	79	72.9	75.8	68.3	63.8	71.4	53.6	29.96	30.12	29.88	26.68	26.68	26.68
12/27/2006	315	359	0	1	14	0	7	14	0	19	24	14	85	95	71	66.4	69.0	62.4	54.3	63.4	44.7	30.22	30.32	30.11	27.08	27.08	26.68
12/28/2006	112	359	45	1	14	0	5	14	0	23	33	19	83	99	62	69.8	75.1	64.3	64.3	75.3	51.9	30.28	30.35	30.23	27.08	27.08	27.08
12/29/2006	68	287	19	0	14	0	4	14	0	38	47	25	93	100	82	74.6	78.3	72.4	71.1	78.1	65.5	30.29	30.35	30.25	27.08	27.08	27.08
12/30/2006	112	179	55	2	19	0	7	19	0	43	49	40	94	100	79	77.2	81.4	73.9	74.0	81.5	67.6	30.22	30.27	30.16	27.08	27.08	27.08
12/31/2006	135	194	22	4	22	0	13	22	0	42	49	33	90	99	77	78.2	80.9	76.2	75.3	81.4	72.3	30.16	30.22	30.10	27.08	27.08	27.08

Date		Wind	Hi	Lo	Wind	Hi	Lo	Wind	Hi	Lo	Hum	Hi	Lo	Hum	Hi	Lo	Temp	Hi	Lo	Temp	Hi	Lo	Raw	Hi	Lo	Tot	Hi	Lo
		Dir			Speed	Mph	Mph	Gust	Mph	Mph	In%	%	%	Out%	%	%	Inside	F	F	F	F	F	Barom	in	in	Rain	in	in
					Mph			Mph									F						Inches

1/1/2007	180	359	0	1	18	0	5	18	0	38	41	35	92	98	74	77.1	79.2	75.4	73.3	80.2	68.6	30.09	30.14	30.04	0.00	0.00	0.00
1/2/2007	0	359	0	1	11	0	5	11	0	40	47	37	95	100	84	75.2	76.3	73.8	70.2	74.3	66.2	30.17	30.23	30.11	0.00	0.00	0.00
1/3/2007	135	188	33	1	13	0	5	13	0	48	57	45	95	100	84	77.2	79.6	74.9	74.4	80.5	69.6	30.21	30.27	30.17	0.02	0.02	0.00
1/4/2007	135	204	81	1	17	0	5	17	0	43	47	39	91	98	76	78.2	80.6	76.2	75.0	81.0	71.0	30.13	30.21	30.06	0.02	0.02	0.02
1/5/2007	158	234	88	2	22	0	7	22	0	44	51	41	93	100	81	78.2	80.7	75.6	75.0	81.5	70.1	30.03	30.10	29.93	0.02	0.02	0.02
1/6/2007	112	294	50	1	13	0	4	13	0	40	49	33	90	100	62	79.6	84.3	75.9	76.3	87.4	69.5	30.06	30.13	30.00	0.03	0.03	0.02
1/7/2007	135	208	86	2	21	0	6	21	0	38	50	34	91	100	76	79.2	82.7	75.4	74.5	83.5	65.8	30.10	30.19	30.05	0.03	0.03	0.03
1/8/2007	248	359	0	2	16	0	8	16	0	36	47	26	88	100	60	79.1	82.9	76.1	75.1	85.1	67.2	30.02	30.08	29.92	0.06	0.06	0.03
1/9/2007	315	359	0	3	18	0	8	18	0	13	27	7	67	86	44	72.2	77.7	68.0	60.3	68.8	51.9	30.17	30.25	30.07	0.06	0.06	0.06
1/10/2007	315	359	0	3	16	0	11	16	0	13	18	7	74	83	63	67.4	70.7	64.1	59.1	67.7	50.1	30.32	30.38	30.24	0.06	0.06	0.06
1/11/2007	68	151	18	5	24	0	15	24	0	19	23	15	70	79	58	71.4	75.1	68.4	69.1	75.9	64.3	30.39	30.44	30.34	0.06	0.06	0.06
1/12/2007	90	162	24	4	20	0	13	20	0	21	28	16	71	84	55	74.5	78.0	72.0	72.2	78.8	67.9	30.37	30.43	30.32	0.06	0.06	0.06
1/13/2007	112	326	0	3	18	0	11	18	0	30	37	24	83	93	71	75.5	78.1	73.4	72.0	78.9	68.4	30.29	30.35	30.25	0.08	0.08	0.06
1/14/2007	112	188	35	2	20	0	10	20	0	32	42	22	84	100	66	75.6	78.7	73.6	71.7	78.5	65.3	30.24	30.31	30.19	0.09	0.09	0.08
1/15/2007	135	210	4	1	13	0	3	13	0	32	42	24	90	99	77	75.1	78.2	71.3	70.0	79.5	59.8	30.16	30.23	30.09	0.11	0.11	0.09
1/16/2007	112	327	21	0	11	0	2	11	0	40	47	37	94	100	73	76.5	80.4	72.5	72.6	83.7	64.3	30.13	30.21	30.06	0.12	0.12	0.11
1/17/2007	0	359	0	3	19	0	10	19	0	38	44	34	92	100	78	75.8	77.7	73.7	70.7	76.4	67.5	30.23	30.28	30.14	0.13	0.13	0.12
1/18/2007	22	359	0	1	15	0	6	15	0	40	47	35	95	100	68	75.6	80.5	72.7	70.1	81.7	64.2	30.23	30.29	30.16	0.15	0.15	0.13
1/19/2007	22	359	0	1	13	0	5	13	0	33	37	29	92	100	77	73.3	75.3	71.9	65.7	71.1	61.6	30.20	30.28	30.14	0.15	0.15	0.15
1/20/2007	0	359	0	1	15	0	6	15	0	25	31	15	84	100	59	70.9	72.8	69.2	63.3	69.0	57.4	30.21	30.27	30.16	0.15	0.15	0.15
1/21/2007	135	212	33	3	21	0	11	21	0	28	33	22	81	93	68	74.0	78.3	70.3	71.2	78.8	65.6	30.16	30.23	30.07	0.15	0.15	0.15
1/22/2007	180	359	0	3	20	0	9	20	0	34	43	30	86	97	67	77.5	81.5	74.2	75.2	85.6	68.3	29.99	30.11	29.88	0.17	0.17	0.15
1/23/2007	0	359	0	1	13	0	6	13	0	27	33	16	83	100	60	74.7	77.6	72.7	67.9	71.3	65.3	30.00	30.07	29.93	0.18	0.18	0.17
1/24/2007	0	359	0	2	13	0	7	13	0	24	33	19	83	100	68	71.9	72.7	69.8	65.5	68.6	61.1	30.04	30.11	30.00	0.22	0.22	0.18
1/25/2007	338	359	0	2	17	0	9	17	0	28	35	18	96	100	82	66.2	69.9	62.6	55.4	61.3	47.1	30.05	30.19	29.95	0.68	0.68	0.22
1/26/2007	315	359	0	2	15	0	7	15	0	20	28	15	82	94	70	64.4	69.9	59.3	56.1	67.7	45.0	30.21	30.28	30.17	0.68	0.68	0.68
1/27/2007	135	330	58	3	19	0	7	19	0	22	31	17	81	100	57	68.7	73.7	63.5	63.7	74.3	53.1	30.13	30.24	29.97	0.68	0.68	0.68
1/28/2007	292	359	0	4	23	0	13	23	0	25	43	10	81	100	56	72.0	76.2	67.7	66.2	73.4	53.9	29.94	30.12	29.86	0.70	0.70	0.68
1/29/2007	315	359	0	1	17	0	7	17	0	8	16	2	75	95	51	63.1	67.8	59.8	50.3	55.6	44.4	30.27	30.36	30.11	0.70	0.70	0.70
1/30/2007	315	359	0	0	9	0	2	9	0	8	14	5	68	88	35	61.5	65.4	57.2	52.9	64.9	42.3	30.30	30.41	30.21	0.70	0.70	0.70
1/31/2007	338	359	0	1	15	0	6	15	0	13	18	8	75	91	62	63.9	68.1	60.1	56.7	65.8	48.8	30.23	30.32	30.17	0.70	0.70	0.70
2/1/2007	180	240	22	4	24	0	12	24	0	28	40	17	85	97	64	70.3	75.6	64.7	68.9	81.1	56.5	29.99	30.18	29.81	0.70	0.70	0.70
2/2/2007	0	335	149	3	24	0	13	24	0	45	51	37	97	100	89	75.3	76.9	72.9	72.1	77.5	66.2	29.88	30.04	29.79	0.78	0.78	0.70
2/3/2007	0	322	322	0	0	0	0	0	0	37	37	37	91	91	91	72.8	72.8	72.8	66.4	66.4	66.4	30.04	30.05	30.04	0.78	0.78	0.78
2/3/2007	0	359	0	1	12	0	6	12	0	33	37	30	95	100	86	69.4	72.8	65.6	60.9	66.4	56.7	30.04	30.17	29.87	0.89	0.89	0.78
2/4/2007	0	359	0	2	16	0	9	16	0	34	39	30	93	100	83	66.9	70.4	65.3	60.6	66.0	56.0	30.13	30.20	30.06	0.98	0.98	0.89
2/5/2007	0	359	0	2	15	0	10	15	0	22	31	18	78	85	69	65.2	66.4	63.7	58.5	63.3	52.7	30.23	30.30	30.14	0.99	0.99	0.98
2/6/2007	338	359	0	2	15	0	8	15	0	20	25	17	80	89	71	65.0	69.2	61.9	57.3	65.8	52.2	30.25	30.34	30.19	0.99	0.99	0.99
2/7/2007	45	359	0	1	12	0	3	12	0	21	31	17	81	94	43	67.0	73.0	61.0	60.5	76.4	47.3	30.11	30.21	30.00	0.99	0.99	0.99
2/8/2007	45	359	0	1	15	0	4	15	0	17	21	8	78	95	43	68.0	72.8	63.4	60.9	72.5	51.2	30.03	30.10	29.95	0.99	0.99	0.99
2/9/2007	45	359	0	1	11	0	3	11	0	18	28	12	80	99	47	68.6	73.4	63.3	61.9	74.9	50.3	29.98	30.06	29.90	0.99	0.99	0.99
2/10/2007	315	359	0	1	14	0	4	14	0	21	28	18	81	94	46	70.4	76.7	64.9	64.5	80.3	53.1	29.96	30.03	29.89	0.99	0.99	0.99
2/11/2007	45	359	0	1	13	0	6	13	0	22	29	19	82	96	67	70.6	74.4	66.2	64.5	73.3	53.5	30.06	30.13	30.00	1.00	1.00	0.99
2/12/2007	112	169	0	1	11	0	4	11	0	35	44	28	94	100	81	70.6	71.5	69.9	66.2	68.1	63.9	30.01	30.09	29.92	1.29	1.29	1.00
2/13/2007	135	324	45	1	29	0	6	29	0	41	51	33	92	100	73	73.1	77.8	70.3	69.7	82.8	63.9	29.75	29.92	29.60	1.75	1.75	1.29
2/14/2007	270	326	186	3	24	0	9	24	0	32	46	14	82	100	47	74.7	79.9	71.7	71.0	82.3	60.1	29.67	29.78	29.60	1.75	1.75	1.75
2/15/2007	315	359	0	2	12	0	6	12	0	18	20	16	83	93	72	68.6	72.3	66.0	58.4	63.7	54.3	29.85	29.93	29.76	1.75	1.75	1.75
2/16/2007	315	359	0	5	23	0	11	23	0	10	16	3	70	90	45	64.1	67.1	60.4	54.0	63.6	43.5	29.97	30.08	29.88	1.75	1.75	1.75
2/17/2007	315	358	7	1	13	0	5	13	0	5	11	1	65	87	32	61.3	67.8	55.4	51.3	67.7	37.2	30.04	30.14	29.93	1.75	1.75	1.75
2/18/2007	315	359	1	3	26	0	11	26	0	6	15	1	72	100	44	61.2	66.3	58.1	51.9	62.0	44.5	30.05	30.24	29.92	1.78	1.78	1.75
2/19/2007	315	359	0	2	14	0	7	14	0	7	12	1	73	91	54	61.1	66.9	55.2	52.6	65.5	39.9	30.25	30.34	30.18	1.78	1.78	1.78
2/20/2007	112	359	0	1	14	0	5	14	0	17	25	11	82	97	61	65.5	71.8	59.1	60.3	73.2	46.7	30.12	30.24	30.00	1.78	1.78	1.78
2/21/2007	248	330	151	1	14	0	4	14	0	18	25	13	71	95	44	70.6	76.7	64.4	67.8	83.1	53.5	29.98	30.07	29.87	1.78	1.78	1.78
2/22/2007	315	359	0	2	15	0	5	15	0	17	23	13	74	97	51	72.7	77.7	67.9	67.7	79.9	57.8	29.93	30.00	29.85	1.78	1.78	1.78
2/23/2007	0	359	0	1	15	0	6	15	0	15	19	12	76	91	55	71.0	75.3	66.0	64.4	74.0	53.3	29.95	30.00	29.91	1.78	1.78	1.78
2/24/2007	112	191	38	2	18	0	9	18	0	16	20	13	71	84	53	72.5	75.8	68.5	68.5	77.1	63.0	29.98	30.04	29.94	1.78	1.78	1.78
2/25/2007	135	294	83	4	21	0	12	21	0	28	33	16	81	90	66	74.9	79.1	71.0	72.2	81.5	64.8	29.84	29.95	29.72	1.78	1.78	1.78
2/26/2007	0	306	148	2	16	0	8	16	0	32	39	28	83	97	69	76.8	79.9	73.7	75.0	83.0	68.3	29.76	29.84	29.69	1.78	1.78	1.78
2/26/2007	0	225	225	0	0	0	0	0	0	33	33	33	88	88	88	78.2	78.2	78.2	74.2	74.2	74.2	29.75	29.75	29.75	1.78	1.78	1.78
2/28/2007	248	94	94	0	0	0	0	0	0	32	33	32	96	96	96	77.1	77.2	76.9	69.4	69.7	69.2	29.77	29.77	29.77	1.78	1.78	1.78
2/27/2007	248	358	0	2	14	0	6	14	0	35	42	31	90	100	66	78.4	82.1	75.1	74.5	86.3	68.3	29.73	29.78	29.68	1.78	1.78	1.78
3/1/2007	248	199	90	5	25	0	16	25	0	36	42	29	87	94	71	77.5	80.9	74.7	75.0	82.8	70.5	29.75	29.84	29.66	1.78	1.78	1.78
3/1/2007	0	158	158	3	11	3	11	11	11	36	36	36	94	94	94	77.9	77.9	77.9	73.0	73.0	73.0	29.70	29.70	29.70	1.78	1.78	1.78
3/1/2007	0	180	158	3	11	3	11	11	11	36	36	35	94	95	94	77.9	77.9	77.8	72.9	73.0	72.8	29.69	29.70	29.68	1.78	1.78	1.78
3/1/2007	0	207	150	3	12	0	11	12	3	36	36	36	94	96	94	77.9	77.9	77.6	73.0	73.0	72.5	29.70	29.70	29.67	1.78	1.78	1.78
3/2/2007	0	225	225	1	5	1	5	5	5	27	27	27	86	86	86	80.4	80.4	80.4	75.9	75.9	75.9	29.69	29.69	29.69	1.78	1.78	1.78
3/3/2007	225	359	0	2	16	0	9	16	0	28	37	19	90	100	78	75.8	80.4	71.3	68.7	75.9	62.0	29.77	29.91	29.67	1.85	1.85	1.78
3/4/2007	0	359	0	1	15	0	7	15	0	17	25	9	75	96	44	71.9	75.2	69.4	64.2	71.7	56.7	29.95	30.03	29.88	1.85	1.85	1.85
3/5/2007	315	359	0	2	16	0	8	16	0	7	11	5	66	81	53	68.0	71.2	64.4	57.8	66.9	47.6	30.11	30.17	30.03	1.85	1.85	1.85
3/6/2007	0	359	0	1	17	0	6	17	0	11	17	7	74	89	42	67.7	73.1	62.1	60.0	71.7	47.1	30.17	30.25	30.12	1.85	1.85	1.85
3/7/2007	112	219	44	2	18	0	6	18	0	15	22	10	73	96	50	71.5	77.0	65.9	67.2	80.2	54.3	30.08	30.17	29.98	1.85	1.85	1.85
3/8/2007	45	359	0	2	17	0	7	17	0	19	26	16	77	91	49	73.9	78.2	69.1	68.8	78.1	57.7	29.96	30.04	29.89	1.85	1.85	1.85
3/9/2007	45	357	1	1	12	0	4	12	0	23	30	18	80	95	60	75.2	79.5	71.1	70.9	81.1	61.5	29.95	30.00	29.91	1.85	1.85	1.85
3/10/2007	22	359	0	2	15	0	6	15	0	24	33	16	86	100	62	75.4	79.2	71.9	69.7	80.1	62.1	29.96	30.01	29.90	1.85	1.85	1.85
3/11/2007	0	359	0	2	19	0	7	19	0	29	38	26	87	99	65	75.5	79.8	71.2	70.1	78.9	60.3	30.00	30.06	29.95	1.86	1.86	1.85
3/12/2007	68	151	12	2	15	0	7	15	0	24	32	17	78	97	55	76.0	80.3	72.3	72.1	82.4	63.5	30.06	30.11	30.01	1.86	1.86	1.86
3/13/2007	112	173	15	2	15	0	7	15	0	21	27	15	74	91	56	76.5	80.8	72.4	72.9	82.6	62.1	30.09	30.16	30.03	1.86	1.86	1.86
3/14/2007	135	190	75	4	20	0	11	20	0	22	26	18	74	87	57	76.4	78.8	73.9	73.4	81.3	67.4	30.02	30.09	29.94	1.86	1.86	1.86
3/15/2007	135	216	52	4	25	0	15	25	0	28	34	24	78	87	62	77.6	81.5	74.9	75.6	84.6	70.5	29.86	29.97	29.77	1.87	1.87	1.86
3/16/2007	180	316	128	4	31	0	12	31	0	31	36	27	88	100	59	77.0	81.1	74.3	72.5	87.6	65.1	29.70	29.82	29.60	2.01	2.01	1.87
3/17/2007	338	359	0	2	16	0	9	16	0	14	30	1	70	100	33	72.1	75.0	69.2	64.0	75.7	56.6	29.83	29.99	29.69	2.01	2.01	2.01
3/18/2007	0	359	0	2	17	0	9	17	0	6	10	1	66	87	44	69.0	73.0	65.0	60.1	69.6	50.3	30.07	30.20	29.99	2.01	2.01	2.01
3/19/2007	68	359	0	4	22	0	12	22	0	16	28	4	73	92	55	70.4	74.8	67.0	66.3	75.2	60.3	30.19	30.23	30.16	2.26	2.26	2.01
3/20/2007	90	359	0	3	16	0	10	16	0	31	42	20	85	100	65	72.1	76.1	69.5	68.1	76.4	62.0	30.20	30.26	30.14	2.89	2.89	2.26
3/21/2007	68	359	0	5	23	0	16	23	0	18	28	10	68	89	51	73.7	77.8	70.0	70.9	78.7	66.0	30.16	30.21	30.11	2.89	2.89	2.89
3/22/2007	68	359	0	4	22	0	14	22	0	30	37	25	81	98	66	75.5	80.5	71.5	72.8	80.8	65.5	30.06	30.13	29.98	2.95	2.95	2.89
3/23/2007	68	154	2	4	18	0	12	18	0	35	43	28	85	100	72	77.2	81.2	73.7	74.1	81.9	69.1	30.02	30.06	29.97	2.96	2.96	2.95
3/24/2007	45	359	0	4	21	0	11	21	0	29	35	22	80	93	63	77.5	81.7	74.3	74.1	81.7	68.5	30.06	30.11	30.03	2.96	2.96	2.96
3/25/2007	68	126	2	4	19	0	13	19	0	24	29	18	75	86	61	76.8	80.6	73.9	73.2	80.3	67.9	30.06	30.11	30.00	2.96	2.96	2.96
3/26/2007	90	148	25	3	23	0	12	23	0	28	32	23	77	88	64	77.7	82.0	74.1	75.0	83.3	69.9	30.03	30.08	29.98	2.96	2.96	2.96
3/27/2007	90	147	8	3	16	0	11	16	0	26	34	19	77	92	60	77.6	80.7	75.4	74.2	81.7	70.5	29.99	30.03	29.95	2.96	2.96	2.96
3/28/2007	68	343	6	2	18	0	9	18	0	21	25	17	72	84	58	78.0	82.4	74.6	74.6	83.3	67.2	29.95	29.99	29.90	2.96	2.96	2.96
3/29/2007	0	359	0	3	17	0	8	17	0	21	27	17	76	88	56	77.9	81.8	74.8	73.8	82.2	67.0	29.96	30.02	29.91	2.96	2.96	2.96
3/31/2007	112	191	50	4	21	0	12	21	0	20	27	13	70	83	54	76.5	79.8	73.5	73.5	83.4	67.5	29.98	30.04	29.94	3.25	3.25	2.96
4/1/2007	135	192	74	3	25	0	10	25	0	20	24	16	73	89	57	76.8	81.7	72.6	73.4	84.1	63.4	29.98	30.04	29.91	3.25	3.25	3.25
4/2/2007	135	288	35	2	18	0	8	18	0	22	29	16	75	93	55	78.5	83.9	73.3	75.3	87.8	62.9	29.97	30.03	29.90	3.25	3.25	3.25
4/3/2007	0	356	1	2	16	0	6	16	0	21	30	13	75	94	51	79.8	84.6	75.2	76.9	90.9	65.6	29.92	30.00	29.85	3.25	3.25	3.25
4/4/2007	45	359	0	2	15	0	6	15	0	21	28	15	77	96	52	80.1	84.8	75.6	76.1	86.0	66.9	29.79	29.89	29.68	3.25	3.25	3.25
4/5/2007	45	359	0	2	15	0	7	15	0	23	31	19	84	98	70	79.0	82.9	76.4	73.3	82.2	66.5	29.68	29.73	29.61	3.67	3.67	3.25
4/6/2007	315	359	0	1	16	0	7	16	0	19	28	1	76	100	33	75.3	80.5	71.3	68.8	81.0	60.1	29.66	29.75	29.57	3.81	3.81	3.67
4/7/2007	315	359	0	3	19	0	10	19	0	3	6	1	56	85	33	72.3	77.9	67.6	64.1	78.5	52.0	29.83	29.98	29.74	3.81	3.81	3.81
4/8/2007	315	359	0	2	15	0	8	15	0	1	4	1	58	81	37	70.6	75.5	65.5	62.0	73.6	49.9	30.00	30.08	29.95	3.81	3.81	3.81
4/9/2007	45	359	0	1	15	0	6	15	0	16	31	4	82	96	68	73.0	76.7	69.8	66.9	75.8	60.0	29.94	30.01	29.84	3.84	3.84	3.81
4/10/2007	0	359	0	1	11	0	4	11	0	29	34	25	93	100	74	75.9	79.0	73.6	70.9	82.9	67.0	29.78	29.87	29.69	4.31	4.31	3.84
4/11/2007	225	322	113	2	17	0	8	17	0	32	41	18	82	100	48	78.8	85.7	73.5	77.3	92.5	66.1	29.63	29.74	29.55	4.32	4.32	4.31
4/12/2007	248	359	0	1	15	0	6	15	0	28	32	23	82	100	56	81.3	88.5	76.7	79.0	94.7	68.9	29.72	29.80	29.66	4.33	4.33	4.32
4/13/2007	45	359	0	1	17	0	8	17	0	22	28	13	79	97	59	81.5	85.6	77.2	76.4	85.6	67.2	29.85	29.91	29.79	4.34	4.34	4.33
4/14/2007	135	227	78	6	23	0	13	23	0	30	39	26	84	100	60	81.9	86.9	77.8	79.5	90.5	69.7	29.76	29.86	29.66	4.34	4.34	4.34
4/15/2007	270	328	126	6	28	0	19	28	0	30	44	3	86	100	56	79.5	82.4	72.6	74.2	82.3	59.2	29.58	29.78	29.47	4.42	4.42	4.34
4/16/2007	315	359	0	4	21	0	14	21	0	3	10	1	54	82	27	72.0	78.4	66.0	63.3	78.5	48.5	29.84	29.95	29.74	4.42	4.42	4.42
4/17/2007	315	359	0	3	17	0	9	17	0	8	16	1	64	94	24	74.1	83.1	67.4	69.8	90.3	53.6	29.74	29.85	29.59	4.42	4.42	4.42
4/18/2007	270	336	135	2	17	0	7	17	0	8	18	1	63	100	26	76.4	82.9	69.8	72.2	91.1	55.1	29.57	29.65	29.45	4.42	4.42	4.42
4/19/2007	22	359	0	2	19	0	10	19	0	15	22	8	79	100	48	78.2	82.8	74.2	72.6	81.8	64.8	29.58	29.69	29.49	4.42	4.42	4.42
4/20/2007	45	359	0	3	21	0	11	21	0	18	26	9	75	92	38	77.8	83.3	73.8	73.2	87.4	63.2	29.75	29.85	29.69	4.42	4.42	4.42
4/21/2007	45	164	1	4	21	0	14	21	0	26	33	15	84	100	67	74.5	77.2	73.0	69.6	76.5	65.7	29.92	29.98	29.83	5.43	5.43	4.42
4/22/2007	68	142	5	5	20	0	15	20	2	13	18	6	64	76	49	75.7	80.2	72.3	72.6	80.3	67.7	30.02	30.09	29.95	5.43	5.43	5.43
4/23/2007	68	359	1	4	17	0	14	17	0	13	22	9	66	100	48	76.8	81.9	72.8	73.6	82.3	67.4	30.08	30.14	30.04	5.43	5.43	5.43
4/24/2007	112	175	32	3	18	0	9	18	0	21	27	17	78	94	56	78.9	83.7	74.4	75.3	86.5	64.2	30.02	30.08	29.94	5.43	5.43	5.43
4/25/2007	135	237	70	4	21	0	12	21	0	21	31	10	74	94	42	80.6	85.8	76.4	78.4	90.5	69.0	29.91	29.98	29.81	5.43	5.43	5.43
4/26/2007	135	243	75	4	23	0	12	23	0	22	29	14	76	93	53	81.2	85.9	77.2	78.9	90.7	69.3	29.85	29.92	29.78	5.43	5.43	5.43
4/27/2007	135	321	88	3	20	0	11	20	0	26	31	22	81	97	51	82.3	86.6	78.2	79.8	95.1	70.9	29.83	29.89	29.76	5.44	5.44	5.43
4/28/2007	45	358	1	1	13	0	6	13	0	23	32	4	80	100	32	81.8	86.1	78.8	78.2	90.6	71.8	29.85	29.90	29.78	5.44	5.44	5.44
4/29/2007	45	359	0	2	15	0	8	15	0	19	23	13	75	97	50	81.8	85.7	76.2	77.3	86.7	64.9	29.86	29.93	29.80	5.44	5.44	5.44
4/30/2007	112	359	0	2	16	0	8	16	0	18	33	8	75	96	46	81.0	85.3	76.7	76.5	87.5	65.9	29.86	29.91	29.81	5.44	5.44	5.44
5/1/2007	112	359	0	2	18	0	8	18	0	17	23	12	73	92	56	80.5	84.6	76.2	76.1	86.8	64.5	29.86	29.91	29.81	5.44	5.44	5.44
5/2/2007	45	359	0	2	17	0	7	17	0	26	35	18	86	98	73	81.4	85.9	76.2	76.8	85.9	65.2	29.80	29.86	29.73	5.44	5.44	5.44
5/3/2007	112	239	24	1	19	0	7	19	0	31	37	28	87	100	61	83.3	87.8	79.2	80.0	91.5	72.6	29.78	29.82	29.73	5.91	5.91	5.44
5/4/2007	112	283	29	2	16	0	6	16	0	30	35	25	86	99	63	83.7	87.8	79.7	79.8	89.7	71.2	29.78	29.83	29.72	5.92	5.92	5.91
5/5/2007	112	303	4	2	16	0	8	16	0	26	31	17	80	94	60	83.9	87.9	80.4	80.1	88.8	73.0	29.78	29.81	29.72	5.92	5.92	5.92
5/6/2007	45	359	0	1	26	0	6	26	0	27	33	22	87	100	56	83.0	87.9	79.5	77.5	90.1	70.2	29.75	29.80	29.66	6.47	6.47	5.92
5/7/2007	22	359	0	7	33	0	22	33	1	15	33	9	70	99	49	76.9	79.5	74.5	70.3	76.8	62.7	29.81	29.86	29.77	6.47	6.47	6.47
5/8/2007	315	359	0	3	19	0	11	19	0	13	16	9	73	83	55	76.1	79.8	71.2	68.9	79.1	58.5	29.70	29.80	29.63	6.47	6.47	6.47
5/9/2007	248	357	0	2	19	0	9	19	0	16	25	7	72	93	39	79.6	85.6	74.8	76.3	90.6	65.3	29.64	29.71	29.56	6.47	6.47	6.47
5/10/2007	248	359	0	3	22	0	11	22	0	17	27	13	76	96	53	81.3	85.5	76.7	76.9	89.2	66.8	29.61	29.66	29.56	6.47	6.47	6.47
5/11/2007	270	359	0	2	20	0	10	20	0	24	33	15	87	96	72	81.0	84.5	77.7	75.9	86.4	69.6	29.61	29.67	29.57	6.49	6.49	6.47
5/12/2007	45	359	0	1	14	0	6	14	0	28	35	24	86	99	65	82.1	86.5	78.1	78.0	88.1	70.1	29.68	29.72	29.64	6.49	6.49	6.49
5/13/2007	45	359	0	3	27	0	6	27	0	31	40	25	89	99	75	83.1	86.8	79.6	78.7	86.2	72.1	29.72	29.81	29.65	6.49	6.49	6.49
5/14/2007	68	359	0	4	27	0	16	27	0	34	39	27	88	99	77	80.9	84.1	78.2	76.6	83.3	72.2	29.85	29.96	29.75	6.65	6.65	6.49
5/15/2007	68	141	8	4	24	0	18	24	0	28	31	23	79	100	70	79.4	82.1	77.3	76.2	81.4	73.4	29.93	29.99	29.88	6.65	6.65	6.65
5/16/2007	112	167	26	2	21	0	12	21	0	27	33	18	77	89	60	81.8	85.7	78.6	79.0	87.4	73.6	29.81	29.89	29.73	6.65	6.65	6.65
5/17/2007	45	359	0	2	15	0	6	15	0	21	31	12	78	96	55	82.2	86.6	77.7	77.5	87.1	67.7	29.72	29.77	29.66	6.65	6.65	6.65
5/18/2007	45	359	0	2	15	0	7	15	0	24	32	20	82	96	66	82.8	86.5	78.9	78.1	87.5	68.9	29.70	29.77	29.67	6.67	6.67	6.65
5/20/2007	45	359	0	5	20	0	15	20	0	22	33	12	74	99	54	79.9	84.3	76.5	76.4	84.0	69.4	29.88	29.93	29.83	6.81	6.81	6.67
5/21/2007	68	155	6	3	19	0	11	19	0	15	19	12	66	77	53	80.5	84.6	77.0	76.9	86.0	69.6	29.87	29.91	29.84	6.81	6.81	6.81
5/22/2007	90	144	27	6	22	0	16	22	1	19	23	14	70	80	58	81.1	84.7	78.3	77.9	85.4	73.6	29.89	29.92	29.85	6.81	6.81	6.81
5/23/2007	68	147	18	6	24	0	20	24	1	20	28	15	70	82	57	81.0	84.9	78.1	78.1	84.9	73.9	29.92	29.97	29.88	6.81	6.81	6.81
5/24/2007	68	140	0	6	25	0	20	25	2	22	29	14	74	100	54	81.0	84.8	78.2	77.7	84.3	72.5	29.97	30.01	29.94	6.83	6.83	6.81
5/25/2007	68	147	20	5	23	0	18	23	0	19	23	13	71	81	59	80.3	83.7	77.2	77.1	83.4	72.8	29.95	30.00	29.91	6.84	6.84	6.83
5/26/2007	68	143	17	4	22	0	16	22	0	19	26	14	72	90	53	80.4	84.5	77.6	77.0	85.1	71.1	29.92	29.96	29.87	6.85	6.85	6.84
5/27/2007	68	168	25	3	20	0	14	20	0	22	33	13	76	96	61	80.7	84.4	78.0	77.3	85.4	72.1	29.91	29.95	29.87	6.90	6.90	6.85
5/28/2007	68	148	16	4	19	0	13	19	0	23	27	16	75	85	60	81.9	86.1	78.6	78.8	87.0	73.9	29.90	29.94	29.86	6.90	6.90	6.90
5/29/2007	68	147	20	4	20	0	14	20	0	24	28	19	75	84	60	82.2	85.6	79.4	79.1	87.0	75.0	29.89	29.93	29.85	6.90	6.90	6.90
5/30/2007	112	169	17	4	20	0	15	20	0	23	27	16	74	100	60	82.0	85.7	79.1	78.6	86.6	73.9	29.88	29.92	29.85	6.90	6.90	6.90
5/31/2007	112	160	39	4	20	0	15	20	0	23	27	19	75	84	57	82.0	85.3	79.2	79.0	87.0	74.3	29.85	29.89	29.80	6.90	6.90	6.90
6/1/2007	112	180	35	5	21	0	16	21	0	28	47	19	84	100	68	79.8	83.0	76.3	75.2	83.4	68.4	29.79	29.85	29.70	7.56	7.56	6.90
6/2/2007	180	333	39	8	34	0	24	34	1	44	59	24	87	100	60	81.5	88.0	76.6	80.2	92.1	71.9	29.50	29.71	29.37	10.41	10.41	7.56
6/3/2007	248	338	189	6	23	0	14	23	0	24	33	11	74	97	47	83.3	89.7	78.9	81.6	94.5	71.1	29.58	29.67	29.52	10.41	10.41	10.41
6/4/2007	248	322	175	3	16	0	10	16	0	23	33	14	74	99	47	85.1	90.0	80.7	83.4	97.3	73.3	29.68	29.73	29.62	10.41	10.41	10.41
6/5/2007	248	327	161	2	16	0	8	16	0	19	26	12	73	97	51	86.0	91.8	81.0	84.2	96.6	71.8	29.73	29.79	29.67	10.41	10.41	10.41
6/6/2007	225	346	95	1	17	0	7	17	0	22	27	18	86	98	70	85.5	88.4	81.5	80.6	90.3	72.8	29.79	29.88	29.73	10.95	10.95	10.41
6/7/2007	135	359	0	2	15	0	6	15	0	30	34	24	90	100	62	83.1	86.7	80.2	79.4	91.4	72.6	29.85	29.91	29.79	11.11	11.11	10.95
6/8/2007	112	359	0	0	16	0	3	16	0	31	40	27	93	100	76	82.2	84.0	80.8	77.2	84.5	72.7	29.87	29.93	29.83	11.23	11.23	11.11
6/9/2007	135	359	0	1	12	0	6	12	0	28	36	21	83	100	60	83.7	89.7	78.5	81.1	93.9	69.2	29.77	29.86	29.66	11.23	11.23	11.23
6/10/2007	225	358	3	2	18	0	8	18	0	26	33	18	80	97	53	85.8	92.3	80.9	84.1	100.0	73.3	29.67	29.72	29.59	11.23	11.23	11.23
6/11/2007	112	315	36	2	17	0	6	17	0	25	33	17	81	97	57	86.7	91.6	82.4	83.7	98.9	74.7	29.71	29.76	29.65	11.23	11.23	11.23
6/12/2007	45	359	0	1	26	0	6	26	0	28	33	19	89	99	75	85.3	89.1	83.1	80.7	89.6	75.3	29.70	29.73	29.64	11.50	11.50	11.23
6/13/2007	45	359	0	1	13	0	4	13	0	30	33	24	94	100	80	82.7	84.5	80.5	77.0	84.1	73.1	29.64	29.67	29.58	11.57	11.57	11.50
6/14/2007	45	359	0	2	18	0	8	18	0	29	39	20	85	100	64	82.6	87.2	78.5	78.2	87.5	69.2	29.66	29.72	29.62	11.58	11.58	11.57
6/15/2007	112	180	7	3	17	0	8	17	0	26	32	23	83	99	62	84.2	88.9	80.2	80.4	89.2	71.2	29.72	29.77	29.68	11.58	11.58	11.58
6/16/2007	45	359	0	3	23	0	10	23	0	33	41	27	88	99	73	85.5	88.8	82.8	82.0	89.2	77.2	29.76	29.84	29.70	11.58	11.58	11.58
6/17/2007	112	179	1	2	15	0	10	15	0	30	35	22	82	94	64	85.6	89.5	82.3	82.5	90.4	76.5	29.85	29.89	29.80	11.58	11.58	11.58
6/18/2007	112	196	23	2	17	0	9	17	0	31	38	25	86	100	74	86.2	89.7	83.1	83.1	90.9	77.4	29.87	29.91	29.83	11.58	11.58	11.58
6/19/2007	112	246	19	2	14	0	6	14	0	29	37	21	82	99	60	86.1	90.5	82.1	83.1	93.8	73.3	29.87	29.92	29.81	11.58	11.58	11.58
6/20/2007	135	359	0	1	15	0	6	15	0	23	27	17	78	94	47	86.7	91.3	83.0	84.3	98.2	75.4	29.78	29.85	29.67	11.59	11.59	11.58
6/21/2007	202	359	0	3	25	0	7	25	0	26	32	23	87	99	63	85.3	88.8	82.8	82.1	95.1	75.3	29.71	29.76	29.64	11.64	11.64	11.59
6/22/2007	248	359	0	3	16	0	10	16	0	30	35	23	86	99	48	85.6	90.9	81.7	82.6	97.9	74.0	29.71	29.77	29.65	11.64	11.64	11.64
6/23/2007	112	359	0	2	14	0	7	14	0	30	35	23	84	100	61	87.1	91.3	83.4	84.2	93.9	75.8	29.72	29.77	29.68	11.64	11.64	11.64
6/24/2007	112	359	0	2	13	0	7	13	0	26	33	20	81	100	53	87.6	92.3	83.3	84.9	96.0	75.2	29.79	29.86	29.73	11.64	11.64	11.64
6/25/2007	90	174	23	2	16	0	7	16	0	30	35	25	86	96	74	86.9	90.1	83.3	83.4	92.1	78.5	29.90	29.95	29.85	11.64	11.64	11.64
6/26/2007	68	156	4	4	19	0	12	19	0	32	39	26	83	95	65	86.4	90.0	83.5	83.8	91.2	78.4	29.93	29.97	29.88	11.64	11.64	11.64
6/27/2007	112	172	14	3	17	0	13	17	0	32	37	24	81	100	61	87.1	90.7	84.0	84.5	93.1	79.5	29.87	29.91	29.81	11.64	11.64	11.64
6/28/2007	112	209	37	2	22	0	12	22	0	35	44	27	90	100	78	84.4	86.2	82.7	80.1	87.5	76.6	29.83	29.87	29.78	12.02	12.02	11.64
6/29/2007	112	232	38	2	23	0	11	23	0	44	50	37	98	100	91	82.1	83.8	80.5	77.7	82.5	74.0	29.81	29.85	29.76	12.82	12.82	12.02
6/30/2007	45	359	0	2	15	0	6	15	0	41	51	33	90	100	73	85.3	90.2	81.2	83.0	91.8	75.1	29.75	29.82	29.68	12.82	12.82	12.82
7/1/2007	68	359	0	2	13	0	6	13	0	32	40	22	85	100	61	87.2	92.2	83.6	84.1	95.7	76.3	29.75	29.81	29.71	12.87	12.87	12.82
7/2/2007	45	359	0	1	22	0	5	22	0	30	39	21	90	100	66	85.9	91.1	82.0	81.2	93.9	73.5	29.80	29.84	29.73	12.91	12.91	12.87
7/3/2007	45	359	0	2	14	0	5	14	0	32	41	25	90	100	74	84.9	89.2	81.4	80.4	90.5	73.6	29.79	29.83	29.72	12.94	12.94	12.91
7/4/2007	45	316	1	1	16	0	5	16	0	31	37	28	91	100	68	84.6	89.8	81.4	80.1	92.3	73.6	29.77	29.81	29.72	13.80	13.80	12.94
7/5/2007	180	295	110	1	21	0	7	21	0	35	41	30	96	100	74	83.0	86.5	81.5	78.8	92.3	75.2	29.78	29.83	29.75	14.04	14.04	13.80
7/6/2007	202	327	92	1	13	0	7	13	0	40	51	34	95	100	72	83.8	88.1	81.5	80.3	94.1	76.1	29.81	29.83	29.77	14.54	14.54	14.04
7/7/2007	180	359	0	1	20	0	6	20	0	39	51	25	91	100	66	84.5	89.7	81.0	82.3	94.9	75.0	29.77	29.82	29.71	14.99	14.99	14.54
7/8/2007	180	358	1	1	23	0	6	23	0	33	41	25	85	100	56	86.0	91.5	82.1	84.3	100.2	75.3	29.75	29.80	29.71	14.99	14.99	14.99
7/9/2007	135	339	31	2	16	0	8	16	0	30	37	22	82	100	54	88.3	93.5	83.8	86.6	100.4	76.8	29.80	29.87	29.75	14.99	14.99	14.99
7/10/2007	135	256	60	2	16	0	7	16	0	31	37	24	89	98	67	87.8	90.5	85.5	84.8	96.4	79.3	29.86	29.91	29.82	15.30	15.30	14.99
7/11/2007	135	328	48	2	15	0	8	15	0	31	37	22	80	98	48	88.7	95.0	84.4	87.8	101.3	78.1	29.83	29.89	29.76	15.30	15.30	15.30
7/12/2007	180	359	0	1	17	0	8	17	0	29	38	19	82	96	57	89.2	93.1	85.8	86.7	99.2	79.3	29.79	29.83	29.74	15.30	15.30	15.30
7/13/2007	202	359	0	2	17	0	9	17	0	23	30	13	78	97	47	88.9	93.8	84.9	87.9	103.5	78.0	29.79	29.83	29.72	15.35	15.35	15.30
7/14/2007	112	333	13	2	27	0	7	27	0	25	34	19	86	98	58	87.5	92.4	84.5	83.8	98.2	77.1	29.77	29.81	29.71	15.38	15.38	15.35
7/15/2007	112	357	6	1	18	0	5	18	0	29	34	21	87	99	62	87.2	92.5	83.7	83.3	96.7	75.1	29.77	29.80	29.72	15.90	15.90	15.38
7/16/2007	112	323	31	2	16	0	5	16	0	30	34	26	87	100	63	86.6	91.8	82.1	83.4	95.5	73.6	29.80	29.87	29.76	15.90	15.90	15.90
7/17/2007	112	235	29	1	13	0	6	13	0	29	34	26	84	99	62	88.5	93.1	84.4	86.1	96.6	76.7	29.84	29.89	29.78	15.90	15.90	15.90
7/18/2007	135	312	40	2	15	0	6	15	0	29	33	25	83	100	55	89.4	94.1	85.7	87.1	98.8	78.5	29.85	29.89	29.78	15.90	15.90	15.90
7/19/2007	112	359	0	1	14	0	5	14	0	24	29	16	80	100	46	89.3	94.3	85.6	86.8	101.8	78.2	29.80	29.85	29.74	15.90	15.90	15.90
7/20/2007	112	359	0	1	12	0	5	12	0	23	29	18	78	97	46	89.6	95.6	85.6	87.7	101.8	78.2	29.73	29.79	29.64	15.90	15.90	15.90
7/21/2007	292	359	0	1	18	0	5	18	0	22	28	18	89	99	66	86.7	90.5	82.4	80.1	93.7	72.7	29.72	29.77	29.67	16.25	16.25	15.90
7/22/2007	45	359	0	1	16	0	6	16	0	28	35	24	88	100	68	84.6	89.1	80.7	80.2	89.4	72.1	29.74	29.78	29.70	16.26	16.26	16.25
7/23/2007	45	359	0	2	20	0	7	20	0	31	37	26	93	100	76	84.8	87.9	82.3	79.5	88.1	74.4	29.78	29.83	29.73	18.08	18.08	16.26
7/24/2007	112	262	11	1	23	0	4	23	0	35	40	31	94	100	73	84.2	88.6	81.4	79.7	93.6	73.8	29.79	29.83	29.74	18.38	18.38	18.08
7/25/2007	112	359	2	1	17	0	5	17	0	33	42	23	89	100	61	85.0	90.0	80.5	81.9	94.2	72.1	29.82	29.87	29.78	18.44	18.44	18.38
7/26/2007	45	359	2	1	13	0	5	13	0	33	39	28	89	100	68	86.5	90.4	82.4	83.5	92.1	75.0	29.84	29.89	29.76	18.45	18.45	18.44
7/27/2007	45	359	0	0	17	0	4	17	0	30	34	26	95	100	77	85.2	88.8	82.1	80.0	91.6	74.3	29.78	29.84	29.72	19.83	19.83	18.45
7/28/2007	112	359	0	1	17	0	3	17	0	30	43	21	88	100	62	84.5	90.2	80.3	80.8	94.5	72.5	29.70	29.75	29.63	19.84	19.84	19.83
7/29/2007	248	359	0	1	13	0	4	13	0	27	39	21	88	100	53	86.5	92.7	83.0	82.8	99.3	75.7	29.66	29.71	29.62	20.22	20.22	19.84
7/30/2007	225	328	157	1	24	0	6	24	0	26	33	19	85	100	56	86.6	91.2	83.0	84.2	98.6	75.8	29.68	29.73	29.61	20.22	20.22	20.22
7/31/2007	248	342	174	2	23	0	7	23	0	27	33	23	91	100	64	86.6	90.2	84.3	82.3	95.7	76.6	29.65	29.69	29.60	20.33	20.33	20.22
8/1/2007	180	359	0	1	14	0	3	14	0	31	40	28	97	100	81	84.2	87.1	82.4	79.2	91.8	75.0	29.66	29.70	29.62	20.61	20.61	20.33
8/2/2007	202	359	0	1	22	0	4	22	0	32	39	28	94	100	72	84.0	86.9	80.9	80.6	93.9	73.5	29.73	29.81	29.68	20.68	20.68	20.61
8/3/2007	112	326	0	1	19	0	4	19	0	32	38	24	91	100	63	86.1	91.3	82.8	83.3	98.1	76.5	29.80	29.84	29.76	20.95	20.95	20.68
8/4/2007	135	359	1	1	12	0	5	12	0	31	42	24	87	100	59	87.7	93.0	82.8	84.8	98.4	75.3	29.81	29.87	29.74	20.96	20.96	20.95
8/5/2007	45	359	0	1	13	0	6	13	0	30	37	24	87	100	65	88.3	91.7	85.2	85.4	95.9	77.8	29.78	29.83	29.72	20.96	20.96	20.96
8/6/2007	68	359	0	1	12	0	4	12	0	31	36	24	89	100	75	88.8	93.5	85.2	86.0	94.2	78.3	29.72	29.78	29.65	20.96	20.96	20.96
8/7/2007	112	359	0	1	11	0	4	11	0	27	33	20	81	100	55	89.6	94.4	85.2	87.3	99.5	77.5	29.70	29.73	29.64	20.96	20.96	20.96
8/8/2007	112	359	0	1	13	0	6	13	0	21	26	17	76	95	54	89.7	94.0	86.3	87.6	98.3	79.3	29.70	29.74	29.65	20.96	20.96	20.96
8/9/2007	112	221	21	2	15	0	6	15	0	24	33	17	82	100	55	89.5	94.0	86.3	86.8	96.3	78.7	29.71	29.76	29.66	20.96	20.96	20.96
8/10/2007	135	282	5	2	14	0	6	14	0	27	37	20	83	100	59	89.8	94.7	85.7	87.2	97.1	77.8	29.68	29.74	29.61	20.96	20.96	20.96
8/11/2007	135	317	42	1	17	0	8	17	0	25	35	13	81	99	55	90.1	94.7	86.4	88.2	99.6	79.0	29.69	29.77	29.63	20.96	20.96	20.96
8/12/2007	112	337	12	2	18	0	6	18	0	23	29	19	81	98	58	90.3	95.4	85.8	87.0	97.2	77.1	29.73	29.78	29.67	20.96	20.96	20.96
8/13/2007	112	359	1	1	14	0	5	14	0	20	26	14	81	98	58	90.1	94.1	86.2	86.2	95.6	77.3	29.69	29.74	29.63	20.96	20.96	20.96
8/14/2007	248	359	0	1	14	0	7	14	0	20	28	13	85	96	61	89.2	93.4	86.3	85.3	97.3	78.2	29.66	29.69	29.61	20.97	20.97	20.96
8/15/2007	112	353	20	2	14	0	6	14	0	25	32	19	87	100	68	88.4	93.0	84.2	83.8	94.3	75.0	29.71	29.77	29.67	20.97	20.97	20.97
8/16/2007	112	183	2	2	16	0	7	16	0	22	27	14	80	99	58	89.2	93.3	85.5	85.5	95.3	77.2	29.78	29.83	29.74	20.97	20.97	20.97
8/17/2007	112	359	0	2	16	0	6	16	0	19	24	14	77	97	57	88.3	92.1	84.1	84.0	93.2	73.5	29.80	29.85	29.75	20.97	20.97	20.97
8/18/2007	112	359	0	2	18	0	7	18	0	20	25	16	82	98	61	88.6	93.2	84.5	84.6	94.2	75.4	29.81	29.85	29.76	20.97	20.97	20.97
8/19/2007	90	213	9	2	18	0	11	18	0	31	39	25	86	100	66	88.8	93.5	85.4	85.8	93.9	77.4	29.82	29.85	29.79	21.05	21.05	20.97
8/20/2007	112	171	20	2	19	0	12	19	0	34	41	25	87	98	67	89.1	93.7	86.3	86.4	95.6	80.8	29.81	29.85	29.78	21.05	21.05	21.05
8/21/2007	112	178	18	2	17	0	11	17	0	32	39	21	84	97	63	89.1	93.3	86.0	86.3	95.8	80.6	29.82	29.85	29.78	21.05	21.05	21.05
8/22/2007	45	359	0	2	17	0	9	17	0	29	34	21	85	97	68	88.9	92.0	86.2	85.1	92.7	79.2	29.79	29.84	29.76	21.05	21.05	21.05
8/23/2007	0	359	0	1	14	0	7	14	0	30	34	24	91	100	78	87.6	91.4	85.6	83.1	90.4	79.5	29.75	29.81	29.69	21.05	21.05	21.05
8/24/2007	45	359	0	0	11	0	4	11	0	30	38	21	93	100	79	87.5	90.9	85.0	83.3	92.6	77.8	29.72	29.76	29.65	21.14	21.14	21.05
8/25/2007	112	312	28	1	17	0	5	17	0	26	37	18	87	100	65	87.6	92.1	83.6	83.9	96.1	75.8	29.72	29.76	29.66	21.14	21.14	21.14
8/26/2007	112	359	0	2	16	0	5	16	0	26	34	18	84	99	58	87.8	93.5	83.7	84.4	97.2	74.8	29.72	29.76	29.67	21.14	21.14	21.14
8/27/2007	112	350	1	2	16	0	7	16	0	26	36	18	86	100	66	89.2	93.9	85.2	86.0	95.4	77.3	29.76	29.82	29.73	21.14	21.14	21.14
8/28/2007	45	359	0	2	14	0	6	14	0	28	38	23	87	100	61	89.2	93.4	85.9	85.4	94.1	77.8	29.78	29.83	29.74	21.14	21.14	21.14
8/29/2007	22	359	0	3	17	0	8	17	0	28	35	21	86	100	70	89.1	92.9	85.7	85.2	92.9	78.2	29.77	29.82	29.70	21.14	21.14	21.14
8/30/2007	22	359	0	2	15	0	7	15	0	25	32	20	84	96	68	88.3	92.7	85.1	83.9	92.3	76.3	29.70	29.76	29.60	21.14	21.14	21.14
8/31/2007	112	359	0	1	22	0	6	22	0	22	27	16	86	100	49	87.9	93.1	85.0	83.7	100.7	76.9	29.65	29.70	29.60	21.81	21.81	21.14
9/1/2007	112	359	0	1	15	0	5	15	0	24	34	18	89	100	57	87.2	93.1	83.4	82.8	98.4	75.1	29.71	29.78	29.67	22.23	22.23	21.81
9/2/2007	112	359	0	1	13	0	4	13	0	24	31	18	87	100	57	87.0	92.7	82.9	83.0	95.0	74.2	29.78	29.83	29.73	22.29	22.29	22.23
9/3/2007	45	359	0	1	16	0	5	16	0	25	33	19	89	100	71	87.4	92.0	83.8	82.8	92.5	75.2	29.76	29.81	29.69	22.30	22.30	22.29
9/4/2007	22	359	0	2	17	0	8	17	0	26	33	17	89	100	73	87.8	92.0	84.3	83.2	91.6	76.5	29.68	29.73	29.62	22.30	22.30	22.30
9/5/2007	45	359	0	2	16	0	9	16	0	23	33	18	83	100	63	87.4	90.8	84.3	83.0	91.7	76.1	29.71	29.76	29.67	22.40	22.40	22.30
9/6/2007	68	149	2	3	20	0	14	20	0	27	33	20	81	94	63	87.5	91.2	85.2	84.5	91.5	80.4	29.79	29.85	29.74	22.40	22.40	22.40
9/7/2007	68	359	0	3	25	0	14	25	0	30	33	26	85	98	66	86.7	89.7	85.0	83.2	90.4	78.0	29.77	29.82	29.72	22.47	22.47	22.40
9/8/2007	68	359	1	2	15	0	11	15	0	30	39	23	84	100	64	86.7	90.6	83.5	83.8	92.9	76.8	29.71	29.76	29.65	22.76	22.76	22.47
9/9/2007	68	327	30	1	14	0	7	14	0	25	33	19	84	100	62	86.9	91.2	83.2	83.0	94.0	73.9	29.74	29.80	29.70	22.83	22.83	22.76
9/10/2007	112	335	28	1	13	0	3	13	0	23	30	20	89	100	65	85.7	89.6	83.3	81.1	93.4	75.6	29.81	29.84	29.76	22.87	22.87	22.83
9/11/2007	135	352	23	0	12	0	3	12	0	29	38	22	94	100	76	85.5	88.7	82.8	81.7	91.3	75.8	29.78	29.85	29.72	22.92	22.92	22.87
9/12/2007	180	316	2	1	11	0	3	11	0	29	37	19	90	100	73	86.8	89.8	84.0	83.3	93.1	76.6	29.77	29.82	29.72	22.92	22.92	22.92
9/13/2007	112	323	9	1	12	0	6	12	0	27	36	21	86	100	67	87.8	92.6	83.5	84.4	93.4	75.8	29.79	29.83	29.72	22.92	22.92	22.92
9/14/2007	112	355	0	1	13	0	5	13	0	25	35	19	84	99	64	88.4	92.8	84.3	84.6	94.7	76.0	29.77	29.82	29.70	22.92	22.92	22.92
9/15/2007	112	356	5	0	12	0	3	12	0	24	31	19	87	99	62	87.8	91.4	84.6	83.2	94.0	76.2	29.74	29.78	29.68	22.92	22.92	22.92
9/16/2007	68	358	0	1	13	0	4	13	0	25	33	20	87	100	65	87.9	91.4	84.6	84.0	92.9	76.7	29.73	29.78	29.68	22.92	22.92	22.92
9/17/2007	45	359	0	3	20	0	8	20	0	26	32	19	88	99	71	87.3	90.2	85.1	82.5	90.7	77.4	29.74	29.81	29.70	22.92	22.92	22.92
9/18/2007	45	359	0	3	26	0	12	26	0	32	37	26	92	100	74	84.1	87.3	81.3	78.1	87.5	54.3	29.73	29.78	29.68	23.82	23.82	22.92
9/19/2007	315	359	0	3	26	0	10	26	0	34	41	25	92	100	75	82.7	87.3	79.6	78.5	86.9	72.0	29.61	29.72	29.51	24.40	24.40	23.82
9/20/2007	135	270	16	5	22	0	13	22	0	33	37	27	87	100	60	85.1	90.1	81.3	82.7	93.2	74.6	29.57	29.63	29.53	24.40	24.40	24.40
9/21/2007	180	266	70	3	17	0	10	17	0	32	36	28	90	100	63	85.7	89.4	83.4	82.5	95.1	76.8	29.68	29.78	29.60	24.68	24.68	24.40
9/22/2007	112	359	1	2	17	0	7	17	0	33	43	25	92	100	72	85.1	89.5	81.9	81.3	93.5	75.2	29.77	29.85	29.70	24.73	24.73	24.68
9/23/2007	45	359	0	4	15	0	10	15	0	39	47	33	93	100	77	84.7	87.5	82.7	81.1	89.5	75.4	29.82	29.86	29.76	25.06	25.06	24.73
9/24/2007	45	359	0	6	21	0	14	21	2	39	46	30	90	100	74	84.8	89.1	82.4	81.9	89.3	75.5	29.79	29.84	29.73	25.26	25.26	25.06
9/25/2007	68	359	0	4	18	0	12	18	0	33	39	25	84	95	66	85.5	89.5	82.9	82.8	90.4	77.9	29.77	29.81	29.74	25.28	25.28	25.26
9/26/2007	112	359	0	1	18	0	6	18	0	31	35	28	92	100	78	83.6	84.9	82.1	78.3	84.4	74.0	29.74	29.78	29.68	26.41	26.41	25.28
9/27/2007	45	359	0	1	16	0	5	16	0	33	43	27	92	100	75	83.3	87.9	80.0	78.7	87.8	72.7	29.68	29.73	29.61	26.54	26.54	26.41
9/28/2007	45	359	0	3	15	0	8	15	0	31	34	26	88	100	68	84.9	89.6	81.0	80.9	89.3	73.5	29.72	29.78	29.68	26.54	26.54	26.54
9/29/2007	45	359	0	8	30	0	17	30	1	31	35	25	81	94	70	85.6	88.9	83.2	82.6	89.1	78.4	29.78	29.86	29.74	26.56	26.56	26.54
9/30/2007	45	359	0	9	30	1	25	30	4	21	28	14	70	80	56	82.8	85.3	81.2	80.4	85.3	77.9	29.84	29.90	29.81	26.56	26.56	26.56
10/1/2007	45	359	0	10	33	1	25	33	6	33	47	22	86	100	72	82.3	85.6	80.6	79.3	86.2	74.5	29.74	29.82	29.64	27.84	27.84	26.56
10/2/2007	112	359	0	6	28	0	16	28	0	50	58	40	95	100	80	82.7	87.2	79.3	80.6	89.0	73.4	29.62	29.65	29.57	30.49	30.49	27.84
10/3/2007	112	359	0	2	13	0	7	13	0	41	49	33	93	100	74	84.7	88.6	81.9	82.1	90.2	76.3	29.64	29.68	29.60	30.51	30.51	30.49
10/4/2007	45	359	0	4	19	0	10	19	0	40	47	34	92	100	77	85.9	89.6	83.1	82.8	90.0	77.2	29.66	29.70	29.61	30.52	30.52	30.51
10/5/2007	68	353	1	6	22	0	17	22	2	49	55	44	95	100	83	84.8	88.0	83.3	81.8	88.4	78.8	29.68	29.72	29.62	30.93	30.93	30.52
10/6/2007	68	357	2	6	24	0	17	24	1	47	55	36	91	100	74	85.0	88.8	82.0	82.7	89.8	76.0	29.68	29.74	29.63	31.16	31.16	30.93
10/7/2007	90	201	4	5	24	0	15	24	1	47	53	43	94	100	79	84.3	87.5	83.0	81.3	88.5	77.4	29.65	29.69	29.60	31.63	31.63	31.16
10/8/2007	68	356	1	6	22	0	16	22	3	39	51	31	84	100	69	84.3	87.8	81.9	81.6	88.2	76.6	29.68	29.71	29.64	32.07	32.07	31.63
10/9/2007	45	359	0	5	16	0	12	16	1	35	39	30	83	91	71	84.5	87.2	82.3	81.6	87.5	78.5	29.68	29.74	29.62	32.07	32.07	32.07
10/10/2007	112	359	0	1	12	0	6	12	0	32	39	24	85	100	68	85.2	89.3	81.8	81.5	89.8	74.3	29.61	29.67	29.55	32.07	32.07	32.07
10/11/2007	45	359	0	1	12	0	5	12	0	27	32	21	85	100	66	85.0	89.2	81.4	80.7	90.3	73.0	29.52	29.57	29.45	32.07	32.07	32.07
10/12/2007	45	359	0	3	14	0	8	14	0	24	33	15	82	100	63	84.2	87.9	81.6	79.6	87.2	73.2	29.58	29.65	29.52	32.26	32.26	32.07
10/13/2007	68	213	0	4	16	0	11	16	1	19	21	15	72	80	57	83.4	87.0	81.0	79.8	86.8	76.2	29.67	29.72	29.63	32.26	32.26	32.26
10/14/2007	45	359	0	8	21	0	16	21	3	18	23	12	70	78	58	82.4	85.5	80.4	79.1	84.4	76.6	29.74	29.79	29.69	32.26	32.26	32.26
10/15/2007	68	181	5	5	19	0	15	19	2	22	29	17	75	85	60	83.3	86.9	80.7	80.7	87.7	76.8	29.76	29.81	29.73	32.26	32.26	32.26
10/16/2007	90	195	0	5	19	0	13	19	1	28	33	24	82	89	67	84.0	87.2	81.7	80.9	87.8	77.0	29.74	29.77	29.69	32.26	32.26	32.26
10/17/2007	45	359	0	3	16	0	9	16	0	35	45	27	90	100	78	84.3	87.4	81.6	80.6	86.8	75.6	29.69	29.74	29.63	32.30	32.30	32.26
10/18/2007	202	359	0	3	19	0	8	19	0	31	37	26	91	100	59	84.8	89.4	81.7	81.5	95.7	75.4	29.67	29.72	29.60	32.32	32.32	32.30
10/19/2007	180	358	0	3	21	0	8	21	0	33	39	28	93	100	70	84.6	88.8	82.1	81.1	92.2	75.0	29.65	29.69	29.56	32.90	32.90	32.32
10/20/2007	0	359	0	2	12	0	7	12	0	37	43	32	99	100	88	81.6	83.2	80.7	76.3	81.3	74.4	29.72	29.82	29.64	33.07	33.07	32.90
10/21/2007	90	196	1	2	12	0	7	12	0	47	54	43	98	100	84	82.4	85.8	80.5	79.2	87.3	75.0	29.83	29.88	29.79	33.08	33.08	33.07
10/22/2007	112	188	11	4	14	0	9	14	0	43	51	33	91	100	75	85.1	89.4	82.0	82.5	90.1	76.5	29.82	29.87	29.75	33.09	33.09	33.08
10/23/2007	135	245	29	4	18	0	10	18	0	36	44	27	88	100	66	85.3	89.5	81.7	82.3	91.7	75.0	29.72	29.78	29.64	33.10	33.10	33.09
10/24/2007	180	359	0	2	14	0	8	14	0	30	35	25	88	100	65	84.4	88.4	81.5	80.6	92.0	74.3	29.60	29.68	29.49	33.48	33.48	33.10
10/25/2007	315	359	0	4	15	0	11	15	0	26	32	21	90	100	72	80.1	82.5	78.5	73.1	77.1	69.1	29.69	29.78	29.60	33.48	33.48	33.48
10/26/2007	315	359	0	2	10	0	7	10	0	36	49	28	97	100	87	79.6	82.4	77.5	75.2	82.5	70.1	29.78	29.83	29.72	33.64	33.64	33.48
10/27/2007	112	176	0	2	13	0	8	13	0	36	48	26	87	100	65	82.3	85.4	80.1	79.6	88.2	75.2	29.81	29.85	29.77	33.64	33.64	33.64
10/28/2007	45	359	0	6	19	0	14	19	0	34	43	28	85	99	74	83.0	86.5	80.6	80.0	85.9	75.0	29.82	29.86	29.78	33.78	33.78	33.64
10/29/2007	45	359	0	9	32	0	20	32	2	33	43	24	84	100	71	81.7	84.3	79.5	78.8	85.0	74.1	29.85	29.90	29.80	33.84	33.84	33.78
10/30/2007	45	359	0	12	34	2	26	34	6	45	50	42	93	100	85	79.8	81.3	78.8	77.1	79.6	74.8	29.83	29.88	29.79	34.19	34.19	33.84
10/31/2007	45	359	0	10	30	1	25	30	4	46	53	38	91	100	80	80.2	82.3	78.8	78.1	82.3	75.1	29.73	29.82	29.65	34.21	34.21	34.19
11/1/2007	45	359	0	7	23	0	18	23	3	51	57	45	96	100	85	80.8	83.7	79.3	77.9	83.8	74.6	29.55	29.65	29.47	34.46	34.46	34.21
11/2/2007	0	359	0	5	22	0	17	22	1	43	50	32	94	100	79	80.0	82.8	78.4	75.6	81.8	69.6	29.60	29.73	29.50	34.60	34.60	34.46
11/3/2007	0	359	0	4	16	0	10	16	0	20	32	4	78	98	35	76.8	79.2	74.5	69.1	76.4	61.9	29.81	29.90	29.74	34.60	34.60	34.60
11/4/2007	315	359	0	2	12	0	4	12	0	13	20	9	78	96	45	75.0	79.3	70.7	66.7	77.1	56.9	29.89	29.95	29.81	34.60	34.60	34.60
11/5/2007	315	359	0	3	14	0	8	14	0	13	19	11	78	94	58	75.0	79.4	70.3	67.8	78.3	56.7	29.89	29.96	29.83	34.61	34.61	34.60
11/6/2007	315	359	0	1	12	0	6	12	0	13	20	8	78	94	56	76.1	80.6	72.3	68.8	79.0	60.6	29.87	29.93	29.80	34.61	34.61	34.61
11/7/2007	315	359	0	3	17	0	9	17	0	12	18	9	81	99	67	73.9	76.8	70.7	65.1	74.3	57.7	29.88	29.93	29.82	34.61	34.61	34.61
11/8/2007	315	359	0	4	16	0	11	16	0	12	19	7	78	93	55	72.4	76.3	68.5	64.9	75.7	55.5	29.87	29.91	29.82	34.61	34.61	34.61
11/9/2007	315	359	0	3	16	0	8	16	0	15	23	13	84	97	63	73.0	76.7	69.5	65.2	74.8	57.4	29.89	29.95	29.84	34.61	34.61	34.61
11/10/2007	315	359	0	2	16	0	7	16	0	9	14	3	73	92	38	72.5	76.5	69.0	64.5	74.3	56.6	29.91	29.97	29.86	34.61	34.61	34.61
11/11/2007	45	359	0	4	16	0	10	16	0	13	23	8	78	97	60	73.2	77.6	69.4	67.3	77.5	57.8	29.99	30.05	29.93	34.61	34.61	34.61
11/12/2007	45	359	0	5	17	0	12	17	3	19	21	15	73	84	61	76.5	80.5	73.2	73.5	79.3	69.3	30.04	30.09	29.99	34.61	34.61	34.61
11/13/2007	45	359	0	3	15	0	8	15	0	22	27	19	81	95	66	77.6	81.0	74.3	73.0	80.7	64.8	29.93	30.00	29.86	34.61	34.61	34.61
11/14/2007	0	359	0	2	18	0	7	18	0	26	32	23	87	97	78	77.3	80.1	75.5	71.5	76.6	66.3	29.82	29.88	29.77	34.61	34.61	34.61
11/15/2007	270	359	0	3	22	0	8	22	0	19	28	1	78	100	48	77.4	82.6	73.1	71.5	83.7	61.4	29.76	29.83	29.64	34.62	34.62	34.61
11/16/2007	315	359	0	4	19	0	13	19	1	2	4	1	64	87	45	70.7	74.9	68.0	59.0	67.0	51.5	29.92	29.99	29.83	34.62	34.62	34.62
11/17/2007	315	359	0	2	13	0	6	13	0	9	17	4	80	95	58	70.4	75.7	65.4	62.9	75.5	51.8	29.99	30.07	29.94	34.62	34.62	34.62
11/18/2007	45	359	0	1	10	0	4	10	0	15	20	11	80	95	58	74.1	78.9	70.0	69.1	79.2	60.2	30.01	30.08	29.95	34.62	34.62	34.62
11/19/2007	45	359	0	4	16	0	9	16	0	19	23	14	77	90	64	76.1	78.9	74.7	72.5	77.9	67.6	30.00	30.05	29.95	34.62	34.62	34.62
11/20/2007	90	165	7	3	17	0	10	17	0	19	26	14	73	80	63	76.8	80.4	74.4	73.3	80.8	69.7	29.99	30.04	29.95	34.62	34.62	34.62
11/21/2007	135	228	48	3	18	0	8	18	0	14	17	9	75	91	54	76.8	80.7	73.2	71.8	81.2	62.9	29.99	30.06	29.94	34.62	34.62	34.62
11/22/2007	180	315	104	2	17	0	8	17	0	16	21	10	78	95	51	78.2	83.1	74.3	74.0	85.4	65.7	29.91	29.98	29.82	34.62	34.62	34.62
11/23/2007	0	359	0	3	17	0	10	17	0	22	31	17	90	98	77	76.2	78.7	73.3	69.4	76.6	65.7	29.89	29.98	29.84	34.62	34.62	34.62
11/24/2007	45	359	0	4	14	0	10	14	0	27	33	19	84	94	74	76.5	80.5	72.6	73.1	80.8	62.5	29.95	30.02	29.90	34.62	34.62	34.62
11/25/2007	135	204	29	3	17	0	8	17	0	34	41	26	94	100	82	78.0	81.5	74.7	73.6	81.2	65.9	29.94	29.99	29.88	34.85	34.85	34.62
11/26/2007	135	324	69	3	17	0	10	17	0	35	40	33	92	100	77	79.0	81.7	75.8	75.2	83.6	67.0	29.94	30.00	29.88	34.92	34.92	34.85
11/27/2007	180	359	0	2	12	0	7	12	0	33	35	31	90	100	73	79.9	83.1	77.4	76.0	84.6	71.1	29.94	30.01	29.89	34.92	34.92	34.92
11/28/2007	0	359	0	2	13	0	7	13	0	38	44	32	94	100	81	79.2	82.2	76.7	74.5	82.0	70.1	29.96	30.02	29.91	35.05	35.05	34.92
11/29/2007	135	315	9	2	14	0	5	14	0	33	39	29	92	100	74	79.4	83.1	76.1	74.7	84.1	68.0	29.93	29.99	29.86	35.05	35.05	35.05
11/30/2007	0	359	0	2	16	0	7	16	0	33	37	29	95	100	76	79.5	83.1	77.1	73.6	83.3	68.1	29.96	30.01	29.91	35.06	35.06	35.05
12/1/2007	45	359	0	3	15	0	9	15	0	36	44	30	93	100	83	77.4	79.8	75.5	72.5	79.8	66.5	30.01	30.06	29.98	35.07	35.07	35.06
12/2/2007	45	359	0	1	15	0	4	15	0	34	40	31	93	100	77	78.1	81.8	74.6	72.6	82.3	64.7	30.02	30.08	29.97	35.07	35.07	35.07
12/3/2007	270	327	109	3	16	0	7	16	0	27	37	19	85	100	62	79.1	82.9	75.8	74.1	83.3	67.5	29.88	29.97	29.79	35.08	35.08	35.07
12/4/2007	315	359	0	3	17	0	8	17	0	10	23	1	69	96	37	75.7	79.1	72.0	66.5	77.0	57.2	29.77	29.84	29.71	35.08	35.08	35.08
12/5/2007	315	346	141	2	15	0	6	15	0	8	15	4	77	97	43	72.5	77.5	68.0	63.0	75.1	52.8	29.74	29.82	29.65	35.09	35.09	35.08
12/6/2007	315	359	0	1	11	0	4	11	0	10	21	5	81	99	51	72.2	75.7	68.8	63.2	72.6	56.0	29.94	30.06	29.81	35.09	35.09	35.09
12/7/2007	45	359	0	1	11	0	4	11	0	17	29	9	85	100	69	73.5	78.6	68.1	67.0	78.0	55.8	30.08	30.14	30.03	35.09	35.09	35.09
12/8/2007	45	359	0	2	15	0	5	15	0	28	39	17	92	100	81	76.6	79.8	73.1	71.1	78.6	64.0	30.10	30.15	30.06	35.09	35.09	35.09
12/9/2007	68	355	3	2	15	0	7	15	0	30	36	25	87	98	75	77.6	80.1	75.2	73.1	79.5	67.2	30.08	30.13	30.03	35.09	35.09	35.09
12/10/2007	90	198	9	1	15	0	4	15	0	29	38	24	90	100	76	77.0	79.4	74.0	71.1	80.9	64.2	30.07	30.13	30.03	35.09	35.09	35.09
12/11/2007	90	186	11	3	16	0	10	16	0	33	37	29	86	94	73	78.4	81.8	76.5	75.0	81.1	71.4	30.05	30.12	30.00	35.09	35.09	35.09
12/12/2007	45	359	0	2	15	0	7	15	0	30	34	27	86	98	71	79.0	82.4	76.7	74.7	81.0	69.6	29.99	30.04	29.94	35.10	35.10	35.09
12/13/2007	112	359	0	2	15	0	7	15	0	34	39	31	91	100	74	78.7	81.4	75.8	73.9	82.7	66.9	29.93	29.99	29.86	35.33	35.33	35.10
12/14/2007	112	359	0	2	10	0	6	10	0	42	48	37	99	100	95	78.0	79.2	76.8	73.3	77.8	71.3	29.89	29.94	29.85	35.37	35.37	35.33
12/15/2007	135	247	50	3	18	0	9	18	0	41	52	34	93	100	76	79.1	83.1	76.1	75.1	83.6	70.2	29.79	29.88	29.67	35.38	35.38	35.37
12/16/2007	292	358	4	7	29	0	17	29	2	30	46	2	83	100	49	78.0	80.7	71.3	71.5	80.0	55.2	29.69	29.92	29.60	35.42	35.42	35.38
12/17/2007	315	359	0	4	16	0	11	16	1	6	11	2	77	87	68	66.9	71.4	63.7	52.8	59.7	45.7	30.07	30.18	29.92	35.42	35.42	35.42
12/18/2007	315	359	0	3	14	0	7	14	0	11	17	6	79	95	57	66.5	71.4	61.4	58.8	71.1	47.0	30.16	30.23	30.09	35.42	35.42	35.42
12/19/2007	45	359	0	2	11	0	5	11	0	18	23	14	81	96	64	71.8	76.3	67.8	65.9	75.2	57.2	30.06	30.13	29.98	35.42	35.42	35.42
12/20/2007	135	229	24	3	19	0	8	19	0	18	25	12	81	96	58	74.1	78.0	70.8	69.3	78.5	61.5	29.91	30.00	29.81	35.42	35.42	35.42
12/21/2007	315	359	0	5	21	0	13	21	0	21	30	11	80	97	53	75.5	79.8	72.9	70.1	78.6	61.1	29.74	29.81	29.67	35.42	35.42	35.42
12/22/2007	315	359	0	3	15	0	9	15	0	21	31	12	91	100	82	72.7	75.7	70.4	65.5	72.5	60.0	29.87	29.93	29.80	35.42	35.42	35.42
12/23/2007	112	358	0	1	11	0	4	11	0	31	38	25	92	100	76	76.0	80.3	72.7	71.3	80.3	65.8	29.91	29.98	29.85	35.45	35.45	35.42
12/24/2007	0	359	0	2	17	0	9	17	0	31	39	24	98	100	87	74.0	75.7	72.5	66.8	73.5	63.3	29.93	29.98	29.90	35.51	35.51	35.45
12/25/2007	315	359	0	1	10	0	5	10	0	35	40	31	98	100	88	73.9	76.7	72.0	68.1	75.9	63.7	29.86	29.93	29.78	35.61	35.61	35.51
12/26/2007	0	359	0	1	11	0	5	11	0	33	39	29	96	100	84	72.7	74.5	71.0	65.4	70.9	61.1	29.84	29.90	29.79	35.62	35.62	35.61
12/27/2007	45	359	0	2	10	0	5	10	0	38	49	29	95	100	83	73.8	78.2	68.6	68.4	77.8	58.9	29.92	29.96	29.88	35.62	35.62	35.62
12/28/2007	135	203	50	3	17	0	8	17	0	38	46	34	91	100	75	77.4	81.3	74.3	74.0	82.0	66.1	29.96	30.01	29.90	35.62	35.62	35.62
12/29/2007	135	248	25	2	13	0	7	13	0	36	45	32	90	100	74	78.6	82.3	75.2	74.5	83.2	67.0	29.93	29.99	29.87	35.63	35.63	35.62
12/30/2007	180	276	76	3	17	0	7	17	0	29	39	22	85	100	62	79.4	83.1	76.0	75.0	84.8	67.7	29.85	29.93	29.78	35.64	35.64	35.63
12/31/2007	0	322	23	2	10	0	6	10	0	31	38	23	89	100	73	79.0	81.9	76.5	74.6	82.3	69.1	29.86	29.93	29.83	35.64	35.64	35.64

Date		Wind	Hi	Lo	Wind	Hi	Lo	Wind	Hi	Lo	Hum	Hi	Lo	Hum	Hi	Lo	Temp	Hi	Lo	Temp	Hi	Lo	Raw	Hi	Lo	Tot	Hi	Lo
		Dir			Speed	Mph	Mph	Gust	Mph	Mph	In%	%	%	Out%	%	%	Inside	F	F	F	F	F	Barom	in	in	Rain	in	in
					Mph			Mph									F						Inches

1/1/2008	315	359	0	2	18	0	6	18	0	28	33	10	93	100	62	76.8	78.8	71.8	69.7	74.0	57.1	29.93	30.08	29.88	0.13	0.13	0.00
1/2/2008	315	359	0	6	23	0	17	23	2	2	10	1	44	66	23	64.6	71.8	57.9	49.2	57.2	38.3	30.25	30.46	30.07	0.13	0.13	0.13
1/3/2008	315	359	0	8	29	0	19	29	2	4	13	1	69	93	42	56.5	58.9	53.2	45.2	55.5	35.7	30.50	30.57	30.44	0.13	0.13	0.13
1/4/2008	315	359	0	4	18	0	11	18	0	18	30	9	90	100	71	61.6	66.1	57.9	55.2	65.4	46.7	30.45	30.53	30.35	0.16	0.18	0.13
1/5/2008	45	359	0	1	13	0	7	13	0	32	38	29	96	100	84	67.3	70.8	64.4	62.8	70.4	57.9	30.26	30.35	30.18	0.31	0.38	0.18
1/6/2008	45	357	0	1	17	0	5	17	0	31	41	27	92	100	77	69.8	72.7	66.3	64.2	74.0	56.4	30.16	30.23	30.10	0.38	0.38	0.38
1/7/2008	45	359	0	2	15	0	8	15	0	35	43	29	92	100	77	72.2	76.3	69.3	67.7	77.4	60.1	30.13	30.20	30.08	0.39	0.53	0.38
1/8/2008	112	199	0	2	13	0	5	13	0	31	39	23	87	100	66	73.2	78.0	68.1	68.4	78.9	58.7	30.08	30.15	30.00	0.55	0.55	0.53
1/9/2008	45	359	0	2	11	0	4	11	0	27	32	23	89	100	66	73.9	77.8	69.6	67.7	77.5	58.3	29.99	30.06	29.92	0.55	0.55	0.55
1/10/2008	135	315	0	2	16	0	6	16	0	27	36	19	87	100	65	75.6	79.6	72.1	70.3	79.9	62.5	29.90	29.99	29.82	0.55	0.55	0.55
1/11/2008	180	286	103	3	15	0	7	15	0	24	31	18	82	98	55	76.3	80.4	71.9	71.6	83.2	61.4	29.79	29.86	29.70	0.56	0.56	0.55
1/12/2008	180	299	87	3	17	0	9	17	0	25	35	14	81	94	56	78.1	82.0	74.6	74.3	83.7	66.0	29.77	29.83	29.70	0.56	0.56	0.56
1/13/2008	202	359	0	2	16	0	8	16	0	27	34	23	86	100	70	77.9	81.2	75.5	73.0	82.5	66.6	29.78	29.84	29.71	0.56	0.56	0.56
1/14/2008	315	359	0	4	15	0	8	15	0	11	24	1	69	96	41	72.1	76.2	65.5	63.2	68.5	53.7	29.95	30.05	29.83	0.56	0.56	0.56
1/15/2008	315	359	0	2	14	0	9	14	0	1	1	1	54	70	34	65.8	68.2	63.2	56.0	65.2	48.5	30.05	30.12	29.99	0.56	0.56	0.56
1/16/2008	112	358	0	5	22	0	14	22	0	10	24	1	72	89	59	68.1	72.2	63.3	63.5	73.0	50.7	29.99	30.07	29.89	0.56	0.56	0.56
1/17/2008	180	281	61	5	26	0	14	26	1	34	41	24	89	100	78	74.6	77.6	71.4	72.5	79.3	68.7	29.84	29.90	29.76	0.69	0.75	0.56
1/18/2008	0	359	0	2	11	0	7	11	0	33	37	29	97	100	90	74.3	75.7	72.7	68.6	71.5	66.0	29.91	29.96	29.85	0.75	0.75	0.75
1/19/2008	202	358	107	5	24	0	11	24	0	33	43	25	87	100	68	76.4	80.5	72.8	73.9	83.9	66.3	29.79	29.92	29.67	0.76	0.84	0.75
1/20/2008	0	359	0	8	26	0	20	26	3	13	30	3	83	100	67	67.8	76.9	63.8	57.6	69.7	53.3	30.11	30.30	29.74	0.90	0.91	0.84
1/21/2008	45	359	0	8	25	1	20	25	4	17	24	10	71	78	60	68.4	72.3	63.9	66.3	72.0	59.7	30.26	30.33	30.20	0.91	0.91	0.91
1/22/2008	112	333	11	4	19	0	12	19	0	34	46	24	89	100	77	73.4	77.3	70.3	70.6	78.3	66.3	30.08	30.20	29.95	1.24	1.48	0.91
1/23/2008	0	359	0	2	13	0	7	13	0	37	39	34	95	100	79	75.3	78.6	72.9	70.8	78.0	65.9	29.89	29.96	29.82	1.49	1.50	1.48
1/24/2008	0	359	0	2	18	0	7	18	0	34	39	27	93	100	76	74.2	77.1	71.6	67.8	78.2	62.8	29.90	30.03	29.83	1.51	1.58	1.50
1/25/2008	45	359	0	5	22	0	15	22	0	14	27	8	73	90	57	68.5	71.8	64.7	62.5	69.8	55.8	30.14	30.20	29.99	1.58	1.58	1.58
1/26/2008	45	359	0	2	12	0	5	12	0	18	22	13	79	90	57	70.7	74.3	67.0	65.3	74.4	55.3	30.06	30.16	29.95	1.58	1.58	1.58
1/27/2008	0	359	0	3	20	0	10	20	0	18	30	5	83	100	54	68.9	71.4	64.8	60.4	65.2	48.8	29.97	30.07	29.88	1.70	1.74	1.58
1/28/2008	315	359	0	2	16	0	7	16	0	10	15	5	79	87	59	65.1	70.1	60.1	55.7	66.8	45.4	30.07	30.15	30.00	1.75	1.75	1.74
1/29/2008	135	359	55	2	17	0	8	17	0	14	20	11	77	94	54	68.8	75.0	62.9	63.4	77.5	50.3	29.98	30.08	29.87	1.75	1.75	1.75
1/30/2008	180	303	96	4	16	0	9	16	1	17	21	13	73	89	52	73.3	78.8	67.9	70.4	83.1	60.3	29.92	29.97	29.83	1.75	1.75	1.75
1/31/2008	45	299	0	2	14	0	6	14	0	16	20	13	74	90	55	74.5	77.5	70.4	69.7	78.4	59.4	30.00	30.07	29.95	1.75	1.75	1.75
2/1/2008	180	359	0	4	18	0	9	18	0	16	20	13	71	91	53	76.3	80.1	71.8	73.0	83.6	63.5	29.98	30.05	29.90	1.75	1.75	1.75
2/2/2008	45	359	0	1	11	0	6	11	0	24	31	17	87	96	75	77.0	80.7	72.6	71.5	80.1	62.0	30.03	30.10	29.97	1.75	1.75	1.75
2/3/2008	112	309	0	2	13	0	5	13	0	24	31	21	85	97	67	77.5	81.4	73.5	72.5	81.7	63.8	30.02	30.10	29.96	1.75	1.75	1.75
2/4/2008	112	219	15	3	18	0	7	18	0	28	38	21	87	98	70	77.6	82.2	73.4	73.1	82.4	63.5	30.02	30.08	29.95	1.75	1.75	1.75
2/5/2008	135	230	17	4	22	0	10	22	0	30	36	24	86	100	67	77.8	81.6	74.2	73.9	82.9	65.5	29.99	30.07	29.91	1.76	1.76	1.75
2/6/2008	180	286	91	4	22	0	11	22	1	27	36	19	79	99	49	78.5	82.4	75.5	75.9	86.0	69.5	29.86	29.95	29.78	1.76	1.76	1.76
2/7/2008	202	290	124	4	16	0	11	16	0	25	36	15	80	100	58	79.2	83.3	75.3	75.9	86.7	68.7	29.81	29.89	29.73	1.76	1.76	1.76
2/8/2008	225	359	0	3	14	0	8	14	0	23	31	15	88	100	74	76.3	78.8	74.1	69.9	74.3	67.0	29.85	29.91	29.80	1.76	1.76	1.76
2/9/2008	22	359	0	1	14	0	5	14	0	24	32	20	88	100	75	74.8	77.4	72.3	68.9	77.8	63.1	29.90	30.00	29.86	1.76	1.76	1.76
2/10/2008	0	359	0	4	23	0	11	23	0	7	22	1	60	100	40	72.5	76.3	69.7	65.4	72.7	59.3	30.07	30.15	0.00	1.76	1.76	1.76
2/11/2008	45	359	0	5	19	0	11	19	0	3	8	1	61	80	41	70.9	75.8	66.3	65.1	76.0	53.4	30.11	30.18	30.04	1.76	1.76	1.76
2/12/2008	112	267	43	5	30	0	14	30	0	25	41	8	83	100	63	73.9	76.6	71.8	70.6	76.2	68.1	29.88	30.04	29.69	0.83	1.92	1.76
2/13/2008	202	339	104	6	21	0	14	21	2	33	40	14	91	100	72	73.9	76.2	70.7	68.9	76.7	57.9	29.69	29.91	29.55	2.01	2.03	1.92
2/14/2008	315	359	0	3	16	0	9	16	0	12	15	9	82	93	64	67.5	70.7	64.5	57.2	64.9	48.4	30.08	30.17	29.90	2.04	2.04	2.03
2/15/2008	45	359	0	2	14	0	5	14	0	16	24	13	82	98	57	69.4	74.4	64.3	63.6	75.3	52.9	30.12	30.20	30.04	2.04	2.04	2.04
2/16/2008	45	359	0	2	14	0	6	14	0	19	27	14	82	100	58	72.9	77.8	68.0	67.6	77.0	57.7	29.99	30.07	29.91	2.04	2.04	2.04
2/17/2008	135	231	49	5	22	0	11	22	0	27	37	17	83	98	71	75.9	82.8	70.5	72.5	82.6	60.8	29.85	29.94	29.75	2.04	2.04	2.04
2/18/2008	180	337	130	6	24	0	13	24	0	27	35	17	80	100	54	79.2	83.4	75.7	77.6	88.9	70.5	29.78	29.89	29.70	2.04	2.04	2.04
2/19/2008	315	359	0	4	18	0	10	18	0	8	18	1	67	83	48	74.7	79.3	70.7	66.3	70.9	57.9	30.02	30.10	29.88	2.04	2.04	2.04
2/20/2008	22	359	0	2	15	0	7	15	0	6	12	2	69	87	50	71.7	76.0	67.6	65.6	75.9	55.1	30.07	30.15	30.01	2.04	2.04	2.04
2/21/2008	112	212	51	3	18	0	8	18	0	24	36	11	88	100	68	75.0	78.6	71.9	71.2	81.8	63.7	29.96	30.03	29.87	2.07	2.16	2.04
2/22/2008	180	292	122	5	19	0	10	19	0	31	40	22	86	100	66	77.6	82.3	73.3	75.8	86.8	67.1	29.83	29.90	29.74	2.17	2.17	2.16
2/23/2008	225	319	164	5	25	0	12	25	0	24	33	18	84	100	52	79.4	83.6	76.0	76.6	89.4	68.7	29.83	29.90	29.74	2.17	2.17	2.17
2/24/2008	248	341	7	3	19	0	8	19	0	24	31	19	88	100	68	79.4	83.1	76.9	75.1	85.8	69.4	29.88	29.95	29.83	2.17	2.17	2.17
2/25/2008	292	359	0	2	11	0	6	11	0	21	26	18	87	100	67	77.7	80.6	74.8	71.7	79.2	65.6	29.85	29.92	29.78	2.18	2.18	2.17
2/26/2008	225	287	153	5	22	0	11	22	0	22	33	15	82	100	52	78.5	83.6	74.4	75.2	87.7	64.7	29.70	29.81	29.57	2.18	2.18	2.18
2/27/2008	315	359	0	5	20	0	13	20	0	9	26	1	66	96	30	74.1	79.9	67.7	63.3	74.1	50.3	29.80	30.06	29.56	2.18	2.18	2.18
2/28/2008	315	359	0	4	17	0	10	17	0	1	1	1	56	72	38	64.7	67.7	61.6	53.0	60.9	43.4	30.21	30.32	30.05	2.18	2.18	2.18
2/29/2008	45	359	0	3	17	0	9	17	0	3	10	1	67	94	46	67.6	73.3	61.4	61.8	72.5	47.5	30.26	30.32	30.19	2.18	2.18	2.18
3/1/2008	22	359	0	3	15	0	6	15	0	10	19	4	77	96	62	71.7	75.7	67.2	65.9	75.8	56.4	30.13	30.20	30.05	2.18	2.18	2.18
3/2/2008	68	359	0	3	16	0	7	16	0	12	25	6	77	97	52	72.7	77.7	68.2	67.4	78.6	56.4	30.05	30.09	30.00	2.18	2.18	2.18
3/3/2008	112	183	42	4	26	0	11	26	0	19	28	14	78	93	64	75.0	79.8	71.1	71.9	82.3	61.9	30.00	30.05	29.93	2.18	2.18	2.18
3/4/2008	112	135	112	5	26	0	12	26	0	20	27	14	79	92	65	75.2	79.6	71.2	72.3	81.6	62.0	29.99	30.05	29.93	2.18	2.18	2.18
3/3/2008	135	183	42	4	26	0	11	26	0	19	33	14	78	94	64	75.0	79.8	71.1	71.9	82.3	61.9	30.00	30.05	29.92	2.18	2.18	2.18
3/4/2008	135	253	80	5	26	0	12	26	0	21	37	14	80	100	57	75.6	80.9	71.2	72.6	85.7	62.0	29.96	30.05	29.72	2.18	2.18	2.18
3/5/2008	292	357	9	3	15	0	9	15	0	25	29	21	88	100	61	77.3	80.9	75.4	72.9	84.9	67.5	29.80	29.88	29.73	2.19	2.25	2.18
3/6/2008	45	359	0	2	11	0	6	11	0	25	41	20	91	100	69	74.7	77.4	72.3	68.4	77.4	61.5	29.86	29.93	29.79	2.38	2.98	2.25
3/7/2008	180	253	29	7	28	0	17	28	1	36	47	25	85	100	63	78.0	82.5	73.5	77.5	87.3	68.4	29.70	29.83	29.60	2.99	2.99	2.98
3/8/2008	292	333	152	8	31	0	17	31	0	15	35	1	67	100	32	75.2	79.8	68.3	67.1	76.7	51.2	29.87	30.16	29.62	3.21	3.25	2.99
3/9/2008	0	359	0	5	22	0	12	22	0	5	14	1	74	86	61	67.3	70.9	63.4	57.7	67.3	47.1	30.19	30.24	30.15	3.25	3.25	3.25
3/10/2008	45	115	4	5	16	0	12	16	0	10	13	6	67	80	53	70.9	75.5	67.6	67.7	74.5	63.1	30.15	30.23	30.06	3.25	3.25	3.25
3/11/2008	135	276	1	2	18	0	7	18	0	17	21	11	81	98	59	74.0	77.0	70.6	70.1	80.0	62.4	29.95	30.08	29.82	3.25	3.25	3.25
3/12/2008	45	359	0	3	15	0	8	15	0	23	30	19	91	100	75	74.9	77.5	73.1	69.6	78.3	63.3	29.80	29.84	29.75	3.26	3.26	3.25
3/13/2008	292	359	0	3	15	0	8	15	0	13	21	4	78	100	48	73.0	77.0	68.9	66.2	76.0	56.2	29.87	29.94	29.83	3.26	3.26	3.26
3/14/2008	248	358	0	2	17	0	6	17	0	9	17	3	70	97	27	73.7	78.5	68.7	69.0	83.2	56.7	29.81	29.88	29.73	3.27	3.30	3.26
3/15/2008	225	288	144	7	22	0	14	22	1	15	28	6	72	90	49	77.2	84.2	71.6	75.7	90.4	63.6	29.72	29.79	29.62	3.32	3.32	3.30
3/16/2008	248	359	0	6	17	0	13	17	2	24	33	11	86	100	50	79.8	84.3	76.4	75.9	90.7	69.8	29.83	30.01	29.72	3.32	3.32	3.32
3/17/2008	68	140	5	7	22	0	16	22	3	17	24	8	73	90	54	76.3	80.1	73.3	72.9	80.9	68.2	30.09	30.15	30.01	3.32	3.32	3.32
3/18/2008	112	189	50	8	25	0	18	25	3	15	20	12	70	83	55	75.4	78.4	73.5	72.5	79.3	69.2	30.05	30.12	29.98	3.32	3.32	3.32
3/19/2008	180	251	104	7	29	0	16	29	2	18	23	11	70	87	45	78.6	84.4	74.1	77.6	89.8	68.9	29.86	29.98	29.74	3.32	3.32	3.32
3/20/2008	22	359	0	6	22	0	16	22	1	20	32	8	89	100	73	76.3	79.8	71.1	69.6	76.5	61.9	29.86	30.06	29.74	3.35	3.37	3.32
3/21/2008	45	359	0	5	20	0	14	20	0	10	19	4	65	90	48	73.9	78.8	70.2	70.6	79.8	63.2	30.02	30.08	29.95	3.37	3.37	3.37
3/22/2008	135	358	12	1	9	0	3	9	0	15	25	6	85	100	65	74.5	77.3	71.4	68.4	77.5	60.0	29.88	29.97	29.79	3.39	3.47	3.37
3/23/2008	0	359	0	3	15	0	7	15	0	26	33	23	92	100	77	75.0	78.4	72.8	69.9	77.3	65.0	29.80	29.84	29.75	3.48	3.48	3.47
3/24/2008	0	359	0	4	21	0	12	21	0	16	29	2	81	100	58	73.6	75.4	70.1	65.8	72.9	56.4	29.90	30.07	29.80	3.48	3.48	3.48
3/25/2008	315	359	0	5	21	0	12	21	0	1	3	1	57	67	43	68.5	72.4	64.6	60.0	70.0	48.7	30.18	30.25	30.07	3.48	3.48	3.48
3/26/2008	315	359	0	2	13	0	6	13	0	5	12	1	71	91	47	71.2	76.9	66.2	64.9	77.8	53.0	30.18	30.26	30.10	3.48	3.48	3.48
3/27/2008	112	192	0	3	17	0	6	17	0	7	13	2	70	94	46	74.5	80.3	69.1	69.7	82.2	57.5	30.02	30.11	29.93	3.48	3.48	3.48
3/28/2008	45	359	1	2	15	0	6	15	0	10	18	6	76	97	50	76.1	81.1	70.6	71.0	81.8	59.0	29.93	29.98	29.86	3.48	3.48	3.48
3/29/2008	45	359	0	3	15	0	8	15	0	15	26	10	82	98	61	77.0	82.1	72.9	71.9	81.5	62.7	29.94	29.99	29.90	3.48	3.48	3.48
3/30/2008	45	359	0	3	15	0	8	15	0	21	25	16	83	99	61	78.7	83.8	75.1	74.4	83.5	67.3	29.95	30.00	29.91	3.48	3.48	3.48
3/31/2008	112	359	0	5	23	0	13	23	0	24	33	17	85	100	60	78.8	83.4	75.2	75.3	85.4	66.8	29.98	30.04	29.94	3.54	3.59	3.48
4/1/2008	112	320	63	5	24	0	13	24	0	31	36	27	88	99	71	79.0	82.1	76.9	75.9	84.6	71.0	29.96	30.02	29.90	3.59	3.59	3.59
4/2/2008	112	359	0	3	17	0	7	17	0	31	40	24	88	100	66	79.4	84.9	75.4	76.3	88.3	67.5	29.97	30.02	29.91	3.59	3.59	3.59
4/3/2008	135	242	37	3	22	0	10	22	0	31	37	27	92	100	75	79.6	82.2	77.7	76.1	84.1	70.6	29.96	30.01	29.88	3.82	4.07	3.59
4/4/2008	135	217	69	5	23	0	14	23	0	26	33	15	79	98	57	80.8	85.7	76.9	78.6	88.8	70.6	29.88	29.97	29.78	4.07	4.07	4.07
4/5/2008	180	243	95	4	24	0	12	24	0	27	32	22	85	99	59	81.0	84.7	77.7	78.3	90.1	70.7	29.79	29.87	29.70	4.07	4.08	4.07
4/6/2008	112	359	0	3	23	0	10	23	0	27	36	22	89	100	51	79.4	84.6	76.2	75.0	92.0	66.9	29.77	29.84	29.67	4.68	6.39	4.08
4/7/2008	0	359	0	4	22	0	9	22	0	30	36	24	93	100	70	77.6	82.1	74.2	72.5	82.7	66.0	29.74	29.80	29.68	6.66	6.67	6.39
4/8/2008	0	359	0	4	17	0	10	17	0	31	37	28	93	100	74	78.3	81.5	75.6	73.5	81.2	67.8	29.80	29.86	29.75	6.67	6.67	6.67
4/9/2008	45	356	0	5	19	0	13	19	2	26	34	15	80	100	61	78.8	83.3	75.8	75.7	83.1	71.3	29.87	29.92	29.83	6.67	6.67	6.67
4/10/2008	45	359	0	4	15	0	10	15	0	22	30	13	79	93	63	79.5	83.8	76.3	75.8	83.5	70.0	29.85	29.90	29.81	6.67	6.67	6.67
4/11/2008	112	353	1	3	15	0	7	15	0	16	22	12	75	94	47	80.4	85.8	75.1	76.2	88.3	63.9	29.80	29.86	29.74	6.67	6.67	6.67
4/12/2008	180	289	31	3	16	0	7	16	0	18	29	11	76	100	41	82.6	89.0	76.9	80.2	95.8	67.7	29.75	29.81	29.66	6.67	6.67	6.67
4/13/2008	22	359	0	3	20	0	7	20	0	11	23	4	78	100	52	79.3	83.4	74.9	71.4	81.7	60.7	29.78	29.86	29.72	6.68	6.69	6.67
4/14/2008	292	359	2	4	18	0	9	18	0	3	10	1	62	89	36	75.0	80.5	70.1	67.2	82.3	54.9	29.82	29.90	29.72	6.69	6.69	6.69
4/15/2008	315	359	0	6	22	0	14	22	1	1	1	1	50	100	26	71.0	75.6	67.1	60.8	74.5	49.8	29.93	30.00	29.87	6.69	6.69	6.69
4/16/2008	315	359	0	6	26	0	16	26	2	1	3	1	58	66	46	69.9	74.5	65.5	62.1	72.7	52.0	30.01	30.06	29.96	6.69	6.69	6.69
4/17/2008	45	359	0	4	16	0	9	16	0	2	8	1	61	84	42	72.5	78.6	67.0	67.0	79.3	54.1	30.03	30.07	29.99	6.69	6.69	6.69
4/18/2008	112	190	10	3	14	0	7	14	0	3	8	1	64	88	44	75.6	80.8	71.1	71.3	84.4	60.5	29.99	30.06	29.93	6.69	6.69	6.69
4/19/2008	135	288	14	2	17	0	7	17	0	3	9	1	63	90	36	77.4	83.1	71.7	73.4	86.1	59.0	29.89	29.97	29.80	6.69	6.69	6.69
4/20/2008	202	359	0	2	15	0	7	15	0	10	17	3	76	89	48	78.8	83.6	74.3	75.3	91.0	65.3	29.79	29.86	29.71	6.69	6.70	6.69
4/21/2008	270	359	0	3	14	0	7	14	0	5	12	1	61	86	30	79.0	85.8	73.2	74.9	91.8	60.3	29.74	29.82	29.66	6.70	6.70	6.70
4/22/2008	0	359	0	4	16	0	9	16	0	5	11	1	67	94	33	79.7	83.4	76.8	74.5	83.6	68.9	29.73	29.80	29.68	6.70	6.70	6.70
4/23/2008	0	359	0	4	23	0	12	23	0	8	15	2	79	96	57	77.7	82.1	73.6	71.1	80.0	61.0	29.77	29.82	29.73	6.70	6.70	6.70
4/24/2008	45	359	0	5	19	0	11	19	0	17	27	11	83	100	62	78.7	83.3	74.3	74.4	84.0	65.2	29.85	29.90	29.80	6.72	6.73	6.70
4/25/2008	90	152	13	5	20	0	11	20	0	16	23	6	74	89	50	79.4	83.4	76.6	76.2	85.1	71.2	29.89	29.92	29.85	6.73	6.73	6.73
4/26/2008	112	164	4	4	16	0	9	16	0	11	15	6	68	100	50	80.1	84.8	75.9	75.5	87.0	66.5	29.89	29.94	29.85	6.73	6.73	6.73
4/27/2008	112	199	37	5	20	0	11	20	0	10	17	4	63	83	46	80.5	85.0	76.6	75.5	83.2	65.1	29.86	29.91	29.80	6.73	6.73	6.73
4/28/2008	180	293	99	4	19	0	11	19	0	10	17	3	62	80	34	81.8	87.6	77.0	78.4	90.3	67.0	29.78	29.87	29.66	6.73	6.73	6.73
4/29/2008	22	359	0	4	18	0	10	18	0	7	15	1	68	88	47	79.9	83.1	76.9	72.2	75.8	65.4	29.79	29.86	29.71	6.73	6.73	6.73
4/30/2008	22	359	0	4	17	0	9	17	0	3	8	1	61	84	37	76.9	81.3	72.9	68.7	76.1	57.5	29.89	29.94	29.83	6.73	6.73	6.73
5/1/2008	90	152	13	5	19	0	13	19	0	6	10	2	58	66	49	77.5	81.6	74.2	72.8	78.6	68.1	29.93	29.98	29.90	6.73	6.73	6.73
5/2/2008	112	182	19	5	19	0	14	19	0	7	12	3	58	69	49	78.7	83.3	75.1	74.4	80.6	69.4	29.90	29.94	29.85	6.73	6.73	6.73
5/3/2008	135	240	40	5	25	0	12	25	0	15	20	11	69	86	52	80.2	84.8	77.2	76.0	83.7	70.6	29.84	29.91	29.77	6.74	6.75	6.73
5/4/2008	112	351	9	4	15	0	8	15	0	13	18	9	68	86	43	81.3	86.7	76.8	76.2	87.1	65.3	29.82	29.88	29.74	6.76	6.78	6.75
5/5/2008	112	359	0	3	14	0	8	14	0	16	21	11	73	88	53	82.5	87.2	78.5	76.6	84.2	68.9	29.78	29.85	29.70	6.78	6.78	6.78
5/6/2008	45	359	0	3	14	0	8	14	0	13	25	8	70	87	45	81.7	86.5	77.2	74.2	82.5	63.4	29.76	29.80	29.71	6.78	6.78	6.78
5/7/2008	112	359	0	4	16	0	10	16	0	19	27	14	71	87	54	82.5	86.9	78.4	77.3	84.7	67.4	29.77	29.83	29.72	6.78	6.78	6.78
5/8/2008	135	269	82	5	24	0	11	24	0	17	21	14	71	87	43	83.1	87.8	79.0	78.6	88.9	68.4	29.74	29.80	29.66	6.78	6.79	6.78
5/9/2008	202	354	125	4	18	0	11	18	0	18	27	5	69	90	40	83.9	88.8	80.2	81.2	92.2	72.3	29.69	29.75	29.62	6.79	6.79	6.79
5/10/2008	248	353	3	4	17	0	10	17	0	10	21	2	63	91	38	85.9	91.5	80.8	82.5	95.4	70.9	29.67	29.75	29.59	6.79	6.79	6.79
5/11/2008	248	319	165	7	26	0	15	26	2	10	21	2	66	90	38	86.6	90.9	82.3	82.4	94.7	71.6	29.61	29.69	29.50	6.79	6.79	6.79
5/12/2008	292	359	0	6	23	0	17	23	3	8	20	1	50	83	14	85.9	90.0	82.9	81.0	90.5	68.5	29.59	29.70	29.52	6.79	6.79	6.79
5/13/2008	45	359	0	4	18	0	12	18	0	2	5	1	57	77	37	81.9	86.2	78.0	72.9	81.1	62.6	29.79	29.91	29.70	6.79	6.79	6.79
5/14/2008	68	183	8	5	18	0	14	18	0	3	5	1	56	64	46	80.0	84.1	76.2	74.2	80.5	69.7	29.90	29.97	29.85	6.79	6.79	6.79
5/15/2008	135	213	47	6	18	0	12	18	0	6	10	2	61	72	48	81.4	86.1	77.2	76.0	84.2	68.6	29.86	29.92	29.80	6.79	6.79	6.79
5/16/2008	180	357	21	4	18	0	10	18	0	7	13	1	60	82	36	83.3	89.3	78.0	79.8	92.5	66.7	29.76	29.84	29.67	6.79	6.79	6.79
5/17/2008	248	359	1	3	17	0	10	17	0	11	20	2	73	86	46	85.0	89.4	81.1	79.9	94.0	71.0	29.68	29.75	29.61	6.79	6.79	6.79
5/18/2008	248	320	159	4	20	0	11	20	0	12	19	4	68	90	44	85.5	90.3	81.9	82.2	93.8	73.7	29.63	29.70	29.54	6.79	6.79	6.79
5/19/2008	248	321	128	4	17	0	12	17	1	16	25	5	76	89	60	84.8	87.9	82.5	79.3	85.8	74.6	29.67	29.72	29.62	6.80	6.82	6.79
5/20/2008	225	322	153	6	21	0	13	21	0	19	27	13	76	91	59	83.9	86.3	81.6	79.0	87.1	73.9	29.64	29.70	29.56	6.83	6.84	6.82
5/21/2008	248	315	166	6	25	0	15	25	2	19	31	9	69	91	42	84.9	90.0	80.7	82.6	94.5	73.1	29.57	29.63	29.49	6.84	6.84	6.84
5/22/2008	225	359	0	3	15	0	9	15	0	20	28	11	81	91	62	84.5	88.0	82.5	78.3	87.4	73.9	29.66	29.74	29.59	6.84	6.87	6.84
5/23/2008	180	359	0	2	19	0	8	19	0	22	28	13	79	92	46	84.5	90.4	81.2	80.0	93.1	73.5	29.73	29.77	29.66	6.89	6.92	6.87
5/24/2008	248	359	0	2	16	0	6	16	0	20	24	16	80	91	49	84.0	88.6	81.4	78.1	92.8	72.6	29.70	29.76	29.61	7.29	8.01	6.92
5/25/2008	45	359	0	5	22	0	13	22	0	18	30	9	74	93	56	83.0	86.8	80.0	77.0	83.1	71.0	29.76	29.84	29.69	8.02	8.02	8.01
5/26/2008	68	359	0	6	19	0	15	19	1	7	12	2	56	67	44	81.5	85.6	78.4	76.8	80.9	73.5	29.82	29.89	29.77	8.02	8.02	8.02
5/27/2008	45	359	0	5	18	0	14	18	2	10	17	6	62	77	47	81.8	85.4	78.6	77.0	82.2	72.5	29.82	29.85	29.78	8.02	8.04	8.02
5/28/2008	112	160	6	4	17	0	11	17	0	13	18	4	63	79	52	83.1	87.5	79.4	78.2	84.3	71.3	29.84	29.89	29.81	8.04	8.04	8.04
5/29/2008	45	359	0	4	18	0	9	18	0	14	22	7	73	87	53	83.3	87.9	78.7	76.5	83.5	66.4	29.86	29.90	29.81	8.04	8.04	8.04
5/30/2008	68	154	4	5	20	0	13	20	3	19	25	12	69	78	57	84.0	87.9	81.0	79.5	84.0	75.2	29.87	29.92	29.82	8.04	8.04	8.04
5/31/2008	112	353	0	4	18	0	12	18	0	27	32	17	74	85	60	85.1	90.4	82.1	81.7	88.3	76.6	29.84	29.89	29.76	8.04	8.04	8.04
6/1/2008	112	358	3	3	17	0	9	17	0	21	29	14	74	88	57	86.2	91.1	81.9	81.5	89.0	72.7	29.80	29.85	29.72	8.04	8.04	8.04
6/2/2008	180	359	0	2	16	0	8	16	0	19	27	11	76	87	52	86.1	91.4	83.2	80.0	92.3	73.1	29.76	29.81	29.67	8.07	8.14	8.04
6/3/2008	112	359	0	2	16	0	8	16	0	17	27	13	73	88	54	85.4	91.3	80.1	79.7	89.3	68.5	29.76	29.81	29.68	8.15	8.15	8.14
6/4/2008	112	271	15	4	18	0	11	18	0	18	24	13	71	84	54	86.9	91.4	83.0	82.1	90.0	74.7	29.76	29.81	29.72	8.15	8.15	8.15
6/5/2008	112	212	32	5	18	0	11	18	0	20	27	15	73	88	55	87.5	92.3	83.3	82.8	90.3	74.1	29.83	29.88	29.78	8.15	8.15	8.15
6/6/2008	112	196	33	5	19	0	14	19	1	24	29	16	72	86	56	87.5	91.7	84.1	83.2	89.7	78.4	29.89	29.94	29.84	8.15	8.15	8.15
6/7/2008	112	359	2	5	17	0	12	17	0	22	26	15	71	82	59	86.3	89.8	83.7	81.7	86.3	77.3	29.91	29.95	29.86	8.15	8.15	8.15
6/8/2008	112	175	0	3	15	0	10	15	0	22	27	18	72	81	60	86.1	90.1	83.3	81.6	87.0	77.2	29.85	29.91	29.78	8.15	8.15	8.15
6/9/2008	112	359	1	3	16	0	9	16	0	22	28	18	74	85	59	86.5	90.6	83.6	81.9	89.0	76.6	29.80	29.84	29.75	8.15	8.15	8.15
6/10/2008	112	359	0	2	15	0	8	15	0	20	27	16	76	89	60	86.0	89.6	83.1	80.1	86.7	73.2	29.80	29.85	29.75	8.16	8.24	8.15
6/11/2008	45	359	0	2	16	0	7	16	0	19	28	10	75	89	54	85.2	90.3	81.0	79.1	88.4	70.2	29.80	29.85	29.74	8.24	8.24	8.24
6/12/2008	112	207	2	3	18	0	7	18	0	19	31	12	75	89	55	86.6	90.6	83.2	81.2	89.7	74.7	29.84	29.88	29.80	8.24	8.24	8.24
6/13/2008	112	299	23	3	21	0	9	21	0	19	29	13	74	88	57	86.1	89.8	82.4	80.2	88.1	73.2	29.86	29.91	29.81	8.27	8.29	8.24
6/14/2008	45	359	0	3	15	0	8	15	0	19	24	13	71	87	59	86.5	90.5	83.0	81.2	87.3	73.1	29.79	29.86	29.71	8.29	8.29	8.29
6/15/2008	112	354	3	2	14	0	7	14	0	16	24	12	75	89	58	86.1	89.4	82.7	80.2	88.2	72.3	29.71	29.75	29.64	8.29	8.29	8.29
6/16/2008	225	359	0	3	21	0	9	21	0	16	21	12	73	86	52	86.1	90.0	82.7	80.8	91.5	72.2	29.71	29.76	29.65	8.29	8.29	8.29
6/17/2008	248	359	0	3	18	0	9	18	0	16	23	9	72	90	40	86.1	91.6	82.6	81.3	95.6	73.5	29.70	29.77	29.61	8.51	9.71	8.29
6/18/2008	225	359	0	3	32	0	11	32	0	18	27	12	81	91	49	84.8	89.5	81.8	78.0	93.2	71.6	29.64	29.69	29.58	9.79	10.07	9.71
6/19/2008	225	358	0	4	16	0	10	16	0	23	30	18	80	91	50	84.0	89.9	80.1	78.8	90.5	71.0	29.68	29.75	29.62	10.07	10.07	10.07
6/20/2008	180	359	0	3	17	0	8	17	0	21	30	14	76	89	60	85.8	89.9	82.0	80.4	89.0	72.9	29.78	29.85	29.72	10.07	10.07	10.07
6/21/2008	202	359	0	2	24	0	7	24	0	20	28	14	82	89	59	84.2	88.0	81.8	77.5	89.4	71.4	29.85	29.89	29.80	10.10	10.17	10.07
6/22/2008	180	359	0	2	25	0	7	25	0	20	28	14	77	91	49	84.1	89.6	79.8	77.9	90.9	69.6	29.82	29.86	29.75	10.18	10.20	10.17
6/23/2008	202	359	0	3	19	0	10	19	0	21	30	14	77	88	55	84.6	89.2	81.0	79.1	90.3	72.1	29.85	29.95	29.80	10.22	10.27	10.20
6/24/2008	112	294	5	2	14	0	6	14	0	21	27	16	74	88	57	85.5	90.6	81.3	80.8	89.7	71.3	29.96	30.00	29.92	10.27	10.27	10.27
6/25/2008	112	359	0	3	14	0	8	14	0	26	33	18	79	89	59	86.9	90.8	83.8	81.9	90.8	72.5	29.97	30.01	29.92	10.27	10.28	10.27
6/26/2008	45	359	0	2	18	0	8	18	0	26	34	19	84	91	68	82.9	85.5	80.3	76.1	84.8	71.3	29.93	29.99	29.86	11.03	11.80	10.28
6/27/2008	45	359	0	2	13	0	6	13	0	27	36	20	81	91	68	83.2	88.6	79.1	78.8	87.4	70.3	29.90	29.94	29.84	11.81	11.82	11.80
6/28/2008	112	359	0	2	15	0	7	15	0	25	33	16	78	91	58	85.8	90.7	82.5	81.4	90.6	74.4	29.90	29.97	29.85	11.82	11.88	11.82
6/29/2008	135	308	8	1	14	0	6	14	0	23	33	17	79	90	61	85.0	90.0	81.8	80.4	90.6	73.9	29.91	29.95	29.85	11.88	11.88	11.88
6/30/2008	112	359	0	2	19	0	8	19	0	20	26	13	76	91	47	86.0	92.1	82.1	81.0	93.8	73.2	29.86	29.92	29.74	11.91	12.13	11.88
7/1/2008	180	297	15	1	17	0	7	17	0	22	29	18	83	92	58	83.4	88.8	80.6	76.4	88.1	71.6	29.83	29.89	29.78	12.29	12.64	12.13
7/2/2008	45	342	1	1	16	0	5	16	0	24	33	20	85	92	65	81.7	87.0	78.6	75.1	86.5	69.2	29.86	29.91	29.83	12.66	12.69	12.64
7/3/2008	45	359	0	2	15	0	5	15	0	25	36	19	85	92	65	82.1	85.8	79.4	75.9	85.1	71.1	29.89	29.93	29.86	12.82	13.03	12.69
7/4/2008	45	359	0	1	18	0	6	18	0	24	32	16	79	93	61	83.3	88.3	79.2	78.4	88.2	71.5	29.88	29.93	29.80	13.03	13.03	13.03
7/5/2008	45	359	0	3	18	0	8	18	0	20	28	13	74	89	53	85.8	91.2	81.2	80.5	89.3	72.0	29.84	29.89	29.77	13.03	13.03	13.03
7/6/2008	112	353	3	2	16	0	7	16	0	19	29	13	76	88	63	86.0	89.6	82.2	80.1	87.8	72.4	29.84	29.88	29.80	13.03	13.03	13.03
7/7/2008	112	332	0	2	23	0	6	23	0	22	33	15	78	90	60	85.5	89.0	82.1	79.7	89.5	73.0	29.87	29.91	29.82	13.03	13.03	13.03
7/8/2008	135	314	36	2	20	0	8	20	0	28	35	21	82	91	66	85.4	88.5	83.6	80.8	89.8	76.5	29.87	29.91	29.83	13.04	13.04	13.03
7/9/2008	112	359	0	2	15	0	7	15	0	27	37	21	78	91	55	86.6	91.4	82.3	82.3	91.5	74.4	29.87	29.92	29.82	13.05	13.05	13.04
7/10/2008	112	220	27	2	14	0	7	14	0	20	28	11	72	89	48	87.9	93.2	84.0	83.6	92.8	75.2	29.88	29.93	29.83	13.05	13.05	13.05
7/11/2008	112	324	8	2	15	0	7	15	0	16	28	8	72	88	56	88.4	93.5	84.1	83.2	92.0	74.5	29.88	29.92	29.83	13.05	13.05	13.05
7/12/2008	248	359	0	2	16	0	7	16	0	15	21	7	81	91	58	85.5	88.5	82.0	78.0	89.4	72.4	29.85	29.88	29.80	13.24	13.55	13.05
7/13/2008	202	330	100	3	17	0	9	17	0	22	33	17	81	91	60	83.4	87.6	80.0	77.1	89.2	70.7	29.73	29.80	29.65	13.62	13.72	13.55
7/14/2008	225	359	0	4	19	0	10	19	0	24	32	17	79	91	53	84.7	90.0	81.4	80.1	92.3	74.3	29.65	29.71	29.59	13.74	13.77	13.72
7/15/2008	225	310	12	2	17	0	7	17	0	26	30	19	86	92	67	83.4	85.7	81.3	77.5	85.9	74.4	29.73	29.81	29.66	14.00	14.32	13.77
7/16/2008	180	281	5	3	20	0	9	20	0	29	33	25	87	93	64	81.7	84.8	80.4	76.2	87.9	73.1	29.79	29.83	29.75	14.46	14.77	14.32
7/17/2008	225	327	7	3	18	0	10	18	0	28	36	19	81	93	52	83.0	88.6	79.4	79.1	93.1	73.5	29.78	29.82	29.73	14.93	15.09	14.77
7/18/2008	180	359	0	3	18	0	7	18	0	21	31	10	72	91	46	86.0	92.0	81.4	83.7	95.5	74.8	29.76	29.82	29.71	15.09	15.09	15.09
7/19/2008	135	359	0	2	16	0	7	16	0	18	28	11	73	88	53	88.6	93.9	84.4	84.0	93.1	76.4	29.79	29.84	29.75	15.09	15.09	15.09
7/20/2008	135	278	10	3	15	0	8	15	0	15	24	8	69	85	46	89.0	94.2	84.8	84.4	93.6	76.1	29.82	29.87	29.76	15.09	15.09	15.09
7/21/2008	180	359	0	2	14	0	8	14	0	15	21	9	74	89	53	88.0	92.5	84.9	82.6	93.6	76.4	29.79	29.82	29.74	15.10	15.12	15.09
7/22/2008	225	359	0	1	31	0	6	31	0	17	26	12	83	90	57	85.2	89.7	83.0	77.9	92.0	72.9	29.81	29.88	29.76	15.89	16.97	15.12
7/23/2008	45	359	0	1	15	0	6	15	0	18	26	9	78	91	56	84.8	90.5	80.7	78.6	89.4	71.3	29.82	29.87	29.74	16.97	16.97	16.97
7/24/2008	45	359	0	1	10	0	5	10	0	12	17	8	73	87	51	85.5	90.1	82.0	79.3	88.1	72.4	29.82	29.86	29.78	16.97	16.97	16.97
7/25/2008	112	359	0	2	15	0	6	15	0	15	24	7	75	88	61	87.2	92.4	82.5	81.5	89.1	72.9	29.85	29.91	29.80	16.97	16.97	16.97
7/26/2008	112	327	2	2	17	0	7	17	0	13	21	8	72	88	52	88.6	93.8	84.1	83.3	91.5	75.2	29.80	29.86	29.71	16.97	16.97	16.97
7/27/2008	180	318	13	2	18	0	7	18	0	11	18	7	74	86	53	87.6	90.6	84.4	81.8	93.0	75.3	29.73	29.77	29.66	17.01	17.07	16.97
7/28/2008	180	359	0	2	17	0	7	17	0	14	25	8	76	87	54	86.7	91.1	83.4	80.7	92.9	74.7	29.74	29.80	29.67	17.07	17.08	17.07
7/29/2008	180	359	0	3	18	0	8	18	0	17	25	11	78	90	54	86.5	92.1	83.2	80.8	92.5	74.3	29.78	29.82	29.72	17.23	17.77	17.08
7/30/2008	202	359	0	3	20	0	8	20	0	16	27	8	77	90	48	86.2	92.3	82.4	80.9	94.6	73.6	29.78	29.83	29.70	18.03	18.98	17.77
7/31/2008	202	359	0	2	18	0	8	18	0	15	25	9	76	90	46	86.4	91.8	82.3	80.2	94.9	73.5	29.74	29.79	29.70	18.99	18.99	18.98
8/1/2008	292	352	5	2	24	0	8	24	0	11	21	2	70	87	42	87.4	93.0	82.7	82.4	94.8	74.1	29.73	29.78	29.69	18.99	18.99	18.99
8/2/2008	112	338	5	1	19	0	5	19	0	12	17	5	76	88	50	87.2	92.6	84.1	79.9	93.4	73.5	29.73	29.78	29.68	19.09	19.29	18.99
8/3/2008	135	345	0	2	14	0	6	14	0	16	27	9	76	91	45	86.6	92.2	82.4	81.1	94.4	73.1	29.74	29.78	29.71	19.30	19.33	19.29
8/4/2008	112	359	0	2	15	0	6	15	0	18	29	10	76	88	63	86.9	90.5	83.2	81.4	89.5	73.3	29.79	29.85	29.75	19.33	19.33	19.33
8/5/2008	45	359	0	2	13	0	6	13	0	18	31	10	76	88	59	87.7	92.3	83.2	82.1	91.1	73.7	29.82	29.85	29.79	19.33	19.33	19.33
8/6/2008	45	359	1	2	14	0	7	14	0	16	28	9	76	89	61	88.8	93.4	84.5	83.3	90.4	76.1	29.79	29.84	29.73	19.33	19.33	19.33
8/7/2008	225	343	13	4	15	0	9	15	0	16	26	5	73	89	54	89.4	94.5	85.2	84.5	94.3	77.1	29.71	29.77	29.60	19.33	19.33	19.33
8/8/2008	225	354	150	2	30	0	8	30	0	12	22	6	77	86	54	87.2	91.2	84.7	80.3	94.7	74.8	29.64	29.70	29.60	19.40	19.51	19.33
8/9/2008	225	359	0	3	25	0	10	25	0	16	25	10	76	88	54	86.3	90.8	83.3	81.2	91.1	75.3	29.64	29.68	29.60	19.52	19.54	19.51
8/10/2008	225	359	0	3	16	0	8	16	0	15	24	10	75	89	52	87.6	92.0	84.0	81.9	92.8	75.7	29.66	29.72	29.61	19.54	19.54	19.54
8/11/2008	270	358	0	3	16	0	8	16	0	13	20	7	71	88	42	87.6	93.8	83.3	82.5	93.9	73.6	29.67	29.72	29.61	19.54	19.54	19.54
8/12/2008	225	359	0	2	14	0	8	14	0	12	21	6	76	88	48	87.3	92.7	83.8	80.5	93.6	73.8	29.65	29.69	29.59	19.55	19.56	19.54
8/13/2008	225	312	157	4	20	0	11	20	0	13	23	6	72	89	48	86.8	91.3	82.8	82.5	93.8	73.3	29.65	29.70	29.60	19.57	19.57	19.56
8/14/2008	248	359	112	4	19	0	11	19	1	13	24	5	71	87	47	88.6	93.0	85.1	84.2	92.3	77.4	29.70	29.79	29.64	19.57	19.57	19.57
8/15/2008	180	339	143	2	27	0	8	27	0	12	21	5	76	85	53	86.8	90.1	84.7	80.5	93.8	75.9	29.78	29.83	29.72	19.58	19.59	19.57
8/16/2008	45	359	0	2	17	0	6	17	0	15	24	10	75	87	58	86.6	90.7	82.9	80.5	89.0	74.2	29.77	29.83	29.70	19.59	19.59	19.59
8/17/2008	45	359	0	2	15	0	7	15	0	16	23	10	77	90	61	87.3	91.2	83.4	81.2	87.9	74.0	29.71	29.76	29.64	19.59	19.59	19.59
8/18/2008	45	359	0	2	17	0	8	17	0	21	32	11	83	89	71	85.3	87.5	83.1	78.8	83.4	75.8	29.67	29.71	29.64	19.68	19.81	19.59
8/19/2008	112	331	3	10	41	0	28	41	2	45	57	32	89	93	82	80.6	83.1	79.1	76.3	79.1	74.4	29.49	29.67	29.16	21.93	24.87	19.81
8/20/2008	225	305	18	13	34	0	27	34	4	50	54	48	91	93	87	79.9	80.8	79.1	76.3	78.7	74.7	29.40	29.51	29.13	27.07	28.34	24.87
8/21/2008	202	284	104	9	26	0	22	26	4	51	53	46	89	92	77	81.2	82.8	80.3	78.4	86.3	76.3	29.51	29.57	29.46	28.69	29.16	28.34
8/22/2008	180	262	95	7	27	0	20	27	4	45	53	37	83	90	66	83.0	85.6	81.3	80.4	89.0	75.6	29.63	29.74	29.56	29.22	29.44	29.16
8/23/2008	135	316	48	4	22	0	11	22	0	42	53	28	81	90	65	84.0	88.3	81.3	80.5	90.0	75.1	29.72	29.76	29.69	29.44	29.44	29.44
8/24/2008	112	235	21	2	14	0	5	14	0	34	47	26	80	91	63	85.0	89.1	81.3	81.1	89.7	74.3	29.70	29.75	29.65	29.44	29.44	29.44
8/25/2008	112	318	8	2	14	0	5	14	0	31	39	26	83	91	63	85.4	89.8	83.0	80.4	89.2	75.4	29.68	29.72	29.63	29.48	29.57	29.44
8/26/2008	180	358	0	2	16	0	7	16	0	31	39	21	80	92	62	85.9	90.2	82.1	82.2	90.2	74.7	29.66	29.70	29.61	29.58	29.58	29.57
8/27/2008	180	295	24	3	15	0	8	15	0	29	39	21	78	89	58	87.3	91.3	83.7	83.1	93.3	77.0	29.66	29.70	29.60	29.58	29.59	29.58
8/28/2008	112	349	2	2	16	0	6	16	0	26	33	20	78	89	62	87.3	91.0	84.2	82.8	90.8	76.2	29.62	29.67	29.57	29.61	29.64	29.59
8/29/2008	45	359	0	3	17	0	8	17	0	27	34	21	76	89	61	87.6	91.3	84.1	82.8	88.5	75.9	29.62	29.68	29.58	29.64	29.64	29.64
8/30/2008	90	213	0	5	23	0	14	23	0	35	41	30	79	90	67	87.4	90.2	84.7	83.2	89.9	75.8	29.61	29.66	29.57	29.67	30.03	29.64
8/31/2008	112	185	13	6	20	0	16	20	2	40	45	33	81	89	73	85.7	87.6	84.3	82.3	86.0	78.2	29.63	29.69	29.58	30.06	30.07	30.03
9/1/2008	45	359	0	6	16	0	13	16	1	39	45	33	78	85	69	87.0	90.7	84.1	83.4	88.5	80.1	29.66	29.71	29.61	30.07	30.07	30.07
9/2/2008	45	358	0	6	18	0	14	18	2	37	44	30	77	88	65	87.3	90.7	84.4	83.4	88.1	78.7	29.63	29.68	29.59	30.12	30.14	30.07
9/3/2008	45	359	0	4	18	0	11	18	1	34	40	26	76	83	62	87.1	90.3	84.7	83.0	87.3	80.5	29.61	29.66	29.57	30.15	30.15	30.14
9/4/2008	45	359	0	6	22	0	16	22	2	27	33	20	71	81	59	85.8	88.2	83.8	81.9	86.2	78.9	29.56	29.62	29.42	30.15	30.17	30.15
9/5/2008	315	359	0	6	26	0	17	26	2	34	39	28	84	91	74	83.2	84.5	81.9	78.2	83.5	75.2	29.41	29.63	29.27	30.98	31.16	30.17
9/6/2008	225	359	0	3	13	0	8	13	0	28	43	18	74	88	53	85.3	90.2	80.9	80.9	92.2	72.1	29.69	29.76	29.63	31.16	31.16	31.16
9/7/2008	45	359	0	3	14	0	7	14	0	24	33	17	76	89	58	86.2	89.6	82.4	80.4	86.8	73.2	29.76	29.81	29.73	31.16	31.16	31.16
9/8/2008	68	350	2	6	19	0	15	19	2	34	41	28	77	87	65	87.4	90.4	84.9	83.7	88.5	79.8	29.73	29.78	29.68	31.16	31.20	31.16
9/9/2008	90	183	12	7	23	0	18	23	4	37	42	33	78	86	68	86.7	89.5	84.5	83.4	88.5	79.5	29.68	29.73	29.63	31.24	31.25	31.20
9/10/2008	112	200	36	7	23	0	19	23	3	42	47	37	80	87	71	86.5	88.3	85.2	83.4	88.1	81.2	29.69	29.76	29.64	31.26	31.28	31.25
9/11/2008	112	212	48	5	25	0	17	25	1	40	47	29	78	86	65	87.3	90.7	84.9	84.4	90.5	81.4	29.77	29.83	29.72	31.29	31.29	31.28
9/12/2008	112	191	20	4	16	0	13	16	0	34	39	23	75	84	61	87.3	90.5	84.8	83.6	89.1	80.2	29.79	29.84	29.73	31.29	31.29	31.29
9/13/2008	112	359	12	4	16	0	11	16	1	30	35	23	74	81	62	87.7	91.1	84.7	83.3	89.0	79.3	29.75	29.79	29.70	31.29	31.29	31.29
9/14/2008	112	222	9	3	14	0	9	14	0	26	33	19	74	85	58	88.0	91.6	84.8	83.2	89.6	78.4	29.72	29.76	29.68	31.29	31.29	31.29
9/15/2008	45	359	0	2	14	0	7	14	0	21	31	17	75	89	60	87.0	90.5	83.4	80.8	87.4	73.0	29.73	29.78	29.68	31.29	31.29	31.29
9/16/2008	45	356	0	2	13	0	6	13	0	20	30	15	75	89	48	87.1	90.7	83.6	81.2	88.5	74.5	29.75	29.79	29.69	31.29	31.29	31.29
9/17/2008	45	359	0	2	15	0	7	15	0	22	31	19	75	88	63	87.3	90.7	84.0	81.5	87.0	74.7	29.73	29.78	29.69	31.29	31.29	31.29
9/18/2008	45	359	0	3	20	0	10	20	0	22	33	16	76	89	61	86.2	89.0	83.5	80.5	85.9	75.1	29.74	29.78	29.69	31.29	31.29	31.29
9/19/2008	45	359	0	6	20	0	14	20	0	24	31	14	71	89	60	85.3	88.0	82.4	80.5	85.6	73.9	29.76	29.80	29.72	31.30	31.41	31.29
9/20/2008	45	359	0	2	14	0	6	14	0	23	34	16	78	91	63	85.8	90.1	81.7	79.8	86.7	72.9	29.74	29.78	29.69	31.42	31.42	31.41
9/21/2008	45	359	0	2	13	0	7	13	0	23	33	15	77	90	63	86.6	90.6	82.9	80.8	88.5	74.1	29.78	29.83	29.74	31.49	31.53	31.42
9/22/2008	45	359	0	3	15	0	8	15	0	25	33	19	78	89	66	86.9	90.0	84.2	81.5	87.4	76.2	29.80	29.83	29.75	31.53	31.53	31.53
9/23/2008	22	359	0	4	25	0	14	25	0	28	33	20	79	90	64	85.4	88.3	83.2	79.8	85.8	74.1	29.75	29.81	29.69	31.62	32.06	31.53
9/24/2008	22	359	0	8	26	0	23	26	2	30	36	22	73	91	63	83.4	85.6	81.0	79.7	84.7	72.5	29.69	29.73	29.64	32.23	32.32	32.06
9/25/2008	0	359	0	5	21	0	13	21	2	19	23	12	67	77	57	83.0	85.7	80.6	77.5	80.9	73.5	29.65	29.70	29.59	32.32	32.32	32.32
9/26/2008	112	357	0	1	12	0	6	12	0	14	23	6	69	89	35	83.5	88.7	78.9	77.0	88.2	67.2	29.66	29.72	29.61	32.32	32.32	32.32
9/27/2008	112	251	21	1	13	0	5	13	0	14	21	10	75	88	58	84.0	86.8	80.9	77.9	86.6	70.2	29.70	29.76	29.67	32.32	32.32	32.32
9/28/2008	135	359	0	1	10	0	5	10	0	21	27	13	80	87	63	84.1	85.9	82.4	78.5	84.1	74.2	29.74	29.77	29.70	32.33	32.34	32.32
9/29/2008	45	359	0	2	15	0	7	15	0	28	35	22	83	92	68	83.8	86.6	81.3	78.6	84.2	74.1	29.72	29.76	29.66	32.41	32.42	32.34
9/30/2008	270	359	0	1	14	0	5	14	0	26	30	22	87	92	72	81.8	83.9	79.7	75.5	81.4	70.9	29.68	29.73	29.64	32.55	32.79	32.42
10/1/2008	292	359	0	1	12	0	6	12	0	25	35	16	78	92	50	82.0	87.2	77.8	76.8	88.9	67.8	29.61	29.68	29.53	32.80	32.80	32.79
10/2/2008	45	359	0	1	12	0	5	12	0	13	23	6	69	87	48	82.5	85.9	78.9	75.2	84.5	66.9	29.64	29.70	29.59	32.80	32.80	32.80
10/3/2008	45	358	0	3	17	0	7	17	0	14	22	7	71	87	57	82.4	85.7	78.8	76.8	84.3	68.5	29.75	29.83	29.69	32.80	32.80	32.80
10/4/2008	45	359	0	6	20	0	15	20	0	20	25	16	66	70	60	82.7	84.8	81.6	79.7	83.5	78.1	29.84	29.89	29.80	32.80	32.80	32.80
10/5/2008	45	358	0	4	18	0	12	18	0	31	39	19	77	89	64	82.9	84.8	81.7	79.7	83.7	75.8	29.84	29.89	29.79	32.83	32.87	32.80
10/6/2008	45	359	0	3	18	0	11	18	0	38	48	33	83	91	72	83.1	86.4	81.0	79.2	86.4	72.9	29.82	29.86	29.78	33.09	33.13	32.87
10/7/2008	68	167	0	4	18	0	12	18	1	39	42	35	81	89	74	81.8	83.0	81.0	78.1	80.8	75.4	29.83	29.88	29.79	33.28	33.45	33.13
10/8/2008	112	250	9	2	17	0	11	17	0	42	50	37	85	91	76	81.6	83.2	79.9	78.2	83.3	74.4	29.76	29.83	29.69	33.82	34.38	33.45
10/9/2008	180	359	0	2	17	0	8	17	0	37	46	29	86	92	67	82.1	85.6	80.1	78.2	87.9	73.9	29.69	29.75	29.62	34.47	34.69	34.38
10/10/2008	112	359	0	3	15	0	8	15	0	36	47	27	82	92	64	83.0	86.6	80.0	79.5	88.5	73.1	29.70	29.75	29.66	34.69	34.69	34.69
10/11/2008	45	359	0	3	14	0	8	14	0	34	42	30	81	90	68	84.0	88.0	81.1	79.4	85.0	73.9	29.72	29.77	29.68	34.69	34.69	34.69
10/12/2008	112	197	3	5	27	0	13	27	0	34	45	28	80	88	68	84.0	87.0	81.9	79.8	85.9	75.3	29.79	29.86	29.72	34.74	34.79	34.69
10/13/2008	68	358	1	9	26	0	21	26	3	36	40	32	76	88	68	83.8	86.7	81.6	80.5	85.2	76.7	29.84	29.87	29.80	35.12	35.20	34.79
10/14/2008	45	359	0	7	22	0	20	22	6	27	38	15	68	85	55	82.9	85.6	81.0	79.9	84.1	76.1	29.84	29.90	29.80	35.23	35.26	35.20
10/15/2008	45	359	0	7	24	0	18	24	3	20	27	13	63	70	58	82.2	85.1	80.2	79.3	83.9	76.4	29.84	29.89	29.81	35.26	35.26	35.26
10/16/2008	45	359	0	5	16	0	13	16	0	16	20	14	63	69	55	82.3	85.5	79.9	78.7	83.2	76.0	29.86	29.91	29.81	35.26	35.26	35.26
10/17/2008	45	359	0	2	11	0	5	11	0	18	25	12	72	88	56	83.0	86.6	79.7	77.4	84.1	71.9	29.83	29.88	29.77	35.27	35.28	35.26
10/18/2008	248	359	0	2	19	0	6	19	0	13	22	8	71	88	48	83.0	86.6	79.3	77.1	86.6	68.9	29.74	29.81	29.66	35.28	35.28	35.28
10/19/2008	22	359	0	6	20	0	17	20	3	7	12	3	59	73	44	80.3	82.9	77.7	74.7	79.5	71.1	29.83	29.91	29.75	35.28	35.28	35.28
10/20/2008	45	359	0	6	19	0	16	19	1	11	16	5	60	67	53	80.0	82.6	78.3	76.2	80.9	73.1	29.93	29.99	29.88	35.28	35.28	35.28
10/21/2008	45	359	0	2	15	0	7	15	0	5	12	1	60	84	42	79.7	83.0	76.1	73.6	81.4	63.3	29.92	29.98	29.87	35.28	35.28	35.28
10/22/2008	45	359	0	6	20	0	14	20	0	16	20	7	66	71	60	80.9	83.4	79.2	77.5	81.6	75.0	29.88	29.92	29.85	35.28	35.28	35.28
10/23/2008	90	281	4	6	24	0	19	24	3	19	26	14	65	80	58	80.5	82.7	79.1	77.8	82.2	75.8	29.91	29.96	29.88	35.29	35.30	35.28
10/24/2008	135	232	2	6	22	0	18	22	3	35	40	25	83	90	73	79.9	81.8	78.6	75.9	81.1	72.4	29.81	29.92	29.73	35.58	35.86	35.30
10/25/2008	202	359	0	3	17	0	8	17	0	35	41	31	86	91	69	81.4	83.8	79.6	77.4	85.2	72.8	29.72	29.77	29.65	35.89	35.94	35.86
10/26/2008	0	359	0	3	17	0	10	17	0	20	31	10	74	100	54	79.0	80.7	77.1	71.4	76.0	64.0	29.79	29.87	29.73	36.00	36.01	35.94
10/27/2008	315	359	0	2	12	0	6	12	0	8	14	1	64	87	33	77.3	82.0	72.8	67.8	79.5	57.6	29.87	29.95	29.77	36.02	36.02	36.01
10/28/2008	315	359	0	6	20	0	15	20	0	1	4	1	42	78	21	72.2	77.1	68.7	58.5	67.7	50.8	30.03	30.14	29.91	36.02	36.02	36.02
10/29/2008	315	359	0	3	14	0	9	14	0	1	1	1	57	69	40	68.7	72.7	64.4	56.4	67.8	46.5	30.14	30.22	30.08	36.02	36.02	36.02
10/30/2008	315	359	0	3	14	0	8	14	0	3	9	1	62	77	49	70.0	75.4	64.6	62.0	74.0	48.7	30.20	30.26	30.16	36.02	36.02	36.02
10/31/2008	45	359	0	7	22	0	16	22	2	7	11	2	57	71	43	75.3	78.5	72.8	72.6	77.4	68.1	30.17	30.24	30.11	36.02	36.02	36.02
11/1/2008	0	359	0	2	22	0	10	22	0	17	25	10	81	90	64	74.5	77.0	72.9	67.8	74.7	64.2	30.05	30.12	29.98	36.50	36.65	36.02
11/2/2008	0	359	0	2	15	0	9	15	0	24	32	17	86	91	72	74.0	76.8	71.9	67.9	74.4	64.3	29.96	30.02	29.90	36.84	36.94	36.65
11/3/2008	0	359	0	4	18	0	10	18	0	30	40	23	83	92	70	75.6	79.4	72.1	71.3	77.4	65.7	29.88	29.93	29.81	36.96	36.96	36.94
11/4/2008	315	359	0	3	14	0	11	14	1	26	32	18	80	87	69	75.9	77.7	74.4	69.7	75.0	65.6	29.82	29.86	29.76	36.96	36.96	36.96
11/5/2008	315	359	0	3	14	0	9	14	0	16	20	14	76	89	62	74.1	76.5	71.3	65.3	70.9	58.4	29.84	29.90	29.79	36.96	36.96	36.96
11/6/2008	315	359	0	1	10	0	6	10	0	19	31	13	80	90	67	73.9	77.4	69.9	66.0	74.4	57.6	29.86	29.92	29.82	36.97	36.97	36.96
11/7/2008	45	359	0	1	11	0	5	11	0	25	35	18	81	92	65	76.3	80.3	72.7	70.3	79.0	63.1	29.81	29.87	29.74	36.98	36.98	36.97
11/8/2008	112	345	1	1	10	0	3	10	0	18	27	13	76	89	50	76.8	81.5	72.3	69.5	82.5	60.6	29.74	29.81	29.66	36.99	36.99	36.98
11/9/2008	315	359	0	3	15	0	7	15	0	6	13	1	64	87	36	74.5	76.4	71.8	65.2	72.8	55.6	29.81	29.87	29.73	36.99	36.99	36.99
11/10/2008	315	359	0	4	15	0	10	15	0	8	18	1	69	82	53	72.8	76.8	68.3	65.5	75.2	54.0	29.89	29.95	29.84	36.99	36.99	36.99
11/11/2008	45	359	0	5	17	0	14	17	2	22	34	13	69	81	61	76.3	79.8	73.3	73.7	78.4	69.7	29.89	29.96	29.84	36.99	36.99	36.99
11/12/2008	112	197	1	6	20	0	14	20	3	37	45	31	80	88	70	79.8	83.3	77.4	77.2	82.9	74.2	29.81	29.86	29.75	36.99	37.00	36.99
11/13/2008	135	234	63	4	20	0	12	20	0	36	45	29	80	100	64	81.1	84.7	78.4	78.0	84.9	73.6	29.78	29.84	29.72	37.00	37.00	37.00
11/14/2008	135	215	48	4	20	0	9	20	0	33	42	28	81	91	65	81.2	84.7	78.2	77.0	84.9	70.7	29.75	29.82	29.69	37.01	37.01	37.00
11/15/2008	248	332	145	4	19	0	11	19	0	26	36	15	77	91	52	81.4	84.8	78.1	76.7	85.6	68.9	29.67	29.73	29.57	37.01	37.01	37.01
11/16/2008	315	359	0	4	19	0	13	19	0	2	16	1	58	80	36	73.0	79.8	67.7	58.5	69.1	49.1	29.94	30.07	29.71	37.01	37.01	37.01
11/17/2008	292	359	0	3	15	0	8	15	0	1	5	1	64	79	49	68.0	71.3	64.2	56.0	67.5	46.9	30.08	30.16	30.00	37.01	37.01	37.01
11/18/2008	315	359	0	4	22	0	12	22	0	1	2	1	58	78	38	67.3	72.5	63.6	57.5	70.0	47.3	30.07	30.14	29.99	37.01	37.01	37.01
11/19/2008	315	359	0	4	19	0	12	19	0	1	2	1	63	78	52	65.0	68.1	61.3	53.3	64.1	43.9	30.14	30.20	30.09	37.01	37.01	37.01
11/20/2008	315	359	0	1	11	0	5	11	0	1	1	1	63	83	28	65.5	70.1	60.6	54.3	67.6	43.7	30.07	30.17	29.97	37.01	37.01	37.01
11/21/2008	0	359	0	5	22	0	12	22	0	4	14	1	69	87	48	66.1	71.9	62.3	58.2	74.9	48.2	30.12	30.30	30.02	37.01	37.01	37.01
11/22/2008	45	359	0	6	21	0	15	21	0	2	7	1	59	84	46	66.0	69.5	62.1	60.7	68.2	47.5	30.30	30.36	30.26	37.01	37.01	37.01
11/23/2008	0	359	0	4	20	0	10	20	0	7	14	1	69	81	52	68.1	71.5	65.3	61.8	70.0	54.0	30.24	30.31	30.18	37.01	37.01	37.01
11/25/2008	0	358	1	2	14	0	6	14	0	11	18	6	69	86	49	73.0	76.1	67.0	67.6	76.2	54.9	29.95	30.04	29.89	37.01	37.01	37.01
11/26/2008	315	359	0	2	14	0	6	14	0	3	9	1	66	88	38	68.6	71.2	64.9	57.2	67.5	46.9	30.03	30.09	29.97	37.02	37.02	37.01
11/27/2008	315	359	0	1	10	0	3	10	0	1	5	1	66	86	35	65.5	69.8	60.5	53.9	67.9	42.4	30.07	30.16	30.00	37.03	37.03	37.02
11/28/2008	112	359	0	1	10	0	3	10	0	2	7	1	63	86	28	66.5	72.3	60.6	58.1	73.6	45.2	29.98	30.08	29.87	37.03	37.03	37.03
11/29/2008	202	278	113	3	19	0	7	19	0	4	12	1	66	86	39	69.9	75.5	64.0	64.5	77.5	52.0	29.82	29.92	29.70	37.03	37.03	37.03
11/30/2008	180	341	129	5	36	0	14	36	0	20	33	3	82	91	69	72.7	76.8	69.3	67.6	78.7	59.3	29.59	29.72	29.42	37.14	37.30	37.03
12/1/2008	270	359	0	2	15	0	6	15	0	17	22	11	78	89	63	71.3	72.8	69.6	63.5	66.7	58.8	29.86	30.01	29.68	37.30	37.30	37.30
12/2/2008	315	359	0	2	21	0	8	21	0	7	15	1	67	88	36	68.0	70.5	63.4	56.5	63.2	44.8	30.12	30.24	29.97	37.31	37.32	37.30
12/3/2008	315	359	0	3	13	0	7	13	0	4	14	1	64	77	46	65.0	69.7	59.4	57.1	70.0	42.5	30.21	30.29	30.13	37.32	37.32	37.32
12/4/2008	112	359	0	1	8	0	3	8	0	9	14	4	70	83	50	70.7	74.3	67.6	65.4	75.8	57.8	30.10	30.15	30.03	37.32	37.32	37.32
12/5/2008	22	359	0	1	12	0	4	12	0	12	21	6	76	100	56	70.9	75.2	66.3	63.5	73.9	53.3	30.04	30.11	29.96	37.32	37.32	37.32
12/6/2008	248	359	0	3	18	0	6	18	0	10	23	5	71	94	43	72.3	77.2	67.3	65.8	78.9	55.0	29.92	30.02	29.82	37.32	37.32	37.32
12/7/2008	0	359	0	4	17	0	9	17	0	5	10	1	67	100	42	69.3	72.3	65.6	60.0	64.4	52.7	29.99	30.13	29.87	37.33	37.33	37.32
12/8/2008	315	339	3	3	15	0	7	15	0	4	10	1	62	77	46	68.1	73.1	61.9	61.8	74.2	47.0	30.11	30.19	30.06	37.33	37.33	37.33
12/9/2008	135	205	65	6	23	0	15	23	2	25	34	9	75	86	64	74.5	78.4	71.1	71.9	78.3	66.8	30.02	30.09	29.95	37.33	37.33	37.33
12/10/2008	135	212	99	4	24	0	12	24	0	34	46	31	81	91	64	76.5	80.3	72.9	74.0	81.4	68.5	29.89	29.96	29.80	37.35	37.35	37.33
12/11/2008	158	309	105	6	22	0	14	22	1	33	39	26	85	90	78	75.0	76.9	71.3	69.6	75.4	63.0	29.71	29.80	29.62	37.45	37.60	37.35
12/12/2008	315	359	0	4	19	0	10	19	0	18	27	6	74	85	58	70.0	71.7	66.2	59.7	64.4	48.5	29.88	30.06	29.72	37.60	37.60	37.60
12/13/2008	315	359	0	5	21	0	12	21	0	8	16	2	65	77	51	65.7	69.3	61.7	58.8	67.8	45.9	30.12	30.19	30.05	37.60	37.60	37.60
12/14/2008	112	171	31	5	20	0	14	20	1	20	29	9	66	75	50	72.5	76.1	69.1	70.9	77.4	66.4	30.11	30.18	30.07	37.60	37.60	37.60
12/15/2008	112	186	17	3	16	0	9	16	0	27	31	22	73	86	57	75.3	78.4	72.6	72.3	78.8	68.1	30.11	30.17	30.07	37.60	37.60	37.60
12/16/2008	45	359	0	1	9	0	3	9	0	28	37	23	81	91	69	75.6	78.7	72.4	69.9	77.1	62.7	30.06	30.11	30.00	37.60	37.60	37.60
12/17/2008	45	358	0	1	11	0	3	11	0	28	38	21	83	92	70	73.9	76.2	71.1	68.2	74.4	60.9	30.08	30.13	30.03	37.61	37.61	37.60
12/18/2008	22	359	0	1	11	0	4	11	0	32	36	28	83	91	69	75.4	78.0	73.5	70.6	76.1	64.9	30.10	30.15	30.06	37.61	37.61	37.61
12/19/2008	135	228	27	2	15	0	5	15	0	24	33	18	77	90	58	75.4	79.0	72.5	69.5	78.7	62.7	30.04	30.11	29.98	37.61	37.61	37.61
12/20/2008	248	313	152	2	11	0	5	11	0	18	27	13	74	89	54	75.0	79.9	70.1	67.9	79.5	57.2	29.94	30.02	29.84	37.62	37.62	37.61
12/21/2008	248	359	0	2	17	0	6	17	0	16	23	12	75	88	55	74.4	78.2	70.3	67.1	77.8	57.7	29.87	29.93	29.80	37.63	37.63	37.62
12/22/2008	0	359	0	5	23	0	14	23	0	5	14	1	63	74	51	69.0	73.7	66.0	60.1	65.3	55.5	30.12	30.27	29.92	37.63	37.63	37.63
12/23/2008	112	166	13	6	20	0	15	20	2	11	23	6	61	79	48	70.1	74.2	65.9	67.8	73.7	61.5	30.25	30.32	30.20	37.63	37.63	37.63
12/24/2008	112	191	72	5	20	0	12	20	0	27	33	23	76	84	63	74.7	77.9	71.8	72.0	77.9	67.5	30.17	30.24	30.11	37.63	37.63	37.63
12/25/2008	112	244	59	4	17	0	9	17	0	36	41	31	82	90	68	76.4	79.3	74.4	73.2	79.6	70.2	30.12	30.18	30.06	37.68	37.69	37.63
12/26/2008	112	155	31	4	17	0	9	17	0	30	36	23	75	88	62	76.5	79.4	74.3	73.0	78.2	70.1	30.13	30.18	30.08	37.69	37.69	37.69
12/27/2008	112	184	64	4	20	0	12	20	0	21	27	14	68	79	55	75.9	78.5	73.8	72.3	77.6	69.5	30.11	30.17	30.05	37.69	37.69	37.69
12/28/2008	135	191	35	2	13	0	6	13	0	22	30	18	74	86	60	76.1	79.6	72.6	70.7	79.1	60.9	30.06	30.15	30.00	37.69	37.69	37.69
12/29/2008	315	357	0	1	12	0	4	12	0	16	27	11	73	89	42	75.6	79.7	71.5	68.7	80.2	59.6	30.01	30.09	29.93	37.70	37.70	37.69
12/30/2008	315	359	0	2	13	0	5	13	0	8	15	2	71	87	39	73.4	75.6	70.3	63.9	72.5	53.9	29.97	30.03	29.92	37.70	37.70	37.70
12/31/2008	315	359	0	3	20	0	7	20	0	6	14	2	72	87	49	70.7	75.4	65.8	61.8	74.6	50.3	29.92	30.00	29.82	37.71	37.71	37.70

Date		Wind	Hi	Lo	Wind	Hi	Lo	Wind	Hi	Lo	Hum	Hi	Lo	Hum	Hi	Lo	Temp	Hi	Lo	Temp	Hi	Lo	Raw	Hi	Lo	Tot	Hi	Lo
		Dir			Speed	Mph	Mph	Gust	Mph	Mph	In%	%	%	Out%	%	%	Inside	F	F	F	F	F	Barom	in	in	Rain	in	in
					Mph			Mph									F						Inches

1/2/2009	45	193	74	3	15	0	7	15	0	8	13	5	65	80	53	71.9	75.3	68.5	66.4	74.4	58.4	29.98	30.06	29.92	0.00	0.00	0.00
1/3/2009	112	227	21	2	12	0	4	12	0	11	19	6	72	86	52	72.2	76.6	67.3	65.8	76.9	54.1	29.98	30.05	29.93	0.00	0.00	0.00
1/4/2009	112	180	46	2	14	0	5	14	0	15	22	12	73	85	57	74.5	77.9	70.8	69.1	77.6	59.9	29.98	30.04	29.94	0.00	0.00	0.00
1/6/2009	180	283	86	3	18	0	8	18	0	23	33	16	78	89	51	74.6	79.1	70.3	70.2	82.0	61.5	29.82	29.93	29.72	0.00	0.00	0.00
1/7/2009	202	330	139	4	27	0	11	27	0	23	37	12	77	91	53	74.6	78.9	71.0	68.9	81.9	57.7	29.72	29.83	29.60	0.00	0.01	0.00
1/8/2009	292	359	0	2	16	0	6	16	0	6	13	1	58	85	21	70.3	74.6	65.8	59.9	72.3	48.9	29.87	29.95	29.78	0.02	0.02	0.01
1/9/2009	0	359	0	2	14	0	6	14	0	2	6	1	68	84	47	68.6	72.2	64.5	58.8	68.7	50.5	30.05	30.13	29.94	0.02	0.02	0.02
1/10/2009	112	187	19	2	15	0	5	15	0	7	20	1	72	87	50	69.8	74.9	64.0	62.6	75.4	50.7	30.09	30.19	30.01	0.02	0.02	0.02
1/11/2009	225	300	123	2	16	0	6	16	0	9	22	5	68	88	39	72.6	77.5	67.4	67.1	79.8	55.6	29.97	30.07	29.87	0.03	0.03	0.02
1/12/2009	0	359	0	2	16	0	6	16	0	14	20	5	80	90	68	71.8	73.2	70.2	64.5	69.8	60.3	29.96	30.03	29.91	0.03	0.03	0.03
1/13/2009	292	359	0	4	22	0	10	22	0	20	31	10	81	90	70	71.3	75.5	67.0	64.5	77.4	54.6	29.88	30.01	29.75	0.07	0.19	0.03
1/14/2009	315	359	0	2	14	0	7	14	0	5	12	1	65	81	38	66.7	69.2	63.9	54.7	64.1	46.9	30.10	30.19	29.98	0.19	0.19	0.19
1/15/2009	315	359	0	2	15	0	7	15	0	2	5	1	68	81	51	63.0	64.8	60.4	52.7	62.0	44.6	30.24	30.31	30.18	0.19	0.19	0.19
1/16/2009	315	359	0	4	22	0	13	22	1	3	9	1	67	78	59	63.2	65.7	61.3	54.8	62.3	46.2	30.33	30.40	30.28	0.19	0.19	0.19
1/17/2009	315	359	0	4	19	0	10	19	1	4	10	1	72	83	56	62.8	67.0	58.0	53.0	64.2	43.2	30.31	30.39	30.23	0.19	0.19	0.19
1/18/2009	315	359	0	3	15	0	7	15	0	7	22	3	70	87	39	65.8	71.7	60.0	59.3	73.8	46.4	30.06	30.24	29.87	0.19	0.19	0.19
1/19/2009	225	337	4	5	19	0	12	19	2	7	17	1	66	100	44	68.7	73.5	64.9	63.4	74.4	55.7	29.73	29.89	29.58	0.19	0.19	0.19
1/20/2009	292	330	170	7	25	0	18	25	4	4	16	1	59	84	29	65.4	68.5	59.9	55.0	64.1	40.7	29.75	30.03	29.54	0.23	0.23	0.19
1/21/2009	315	359	0	3	18	0	9	18	0	1	1	1	44	65	18	57.8	61.6	54.2	41.8	53.8	32.7	30.18	30.28	30.03	0.23	0.23	0.23
1/22/2009	315	359	0	2	12	0	5	12	0	1	1	1	57	77	42	56.7	61.2	51.5	44.8	58.2	32.5	30.28	30.38	30.22	0.23	0.23	0.23
1/23/2009	45	359	0	1	11	0	4	11	0	1	1	1	64	80	33	59.7	65.4	53.5	50.9	65.1	36.2	30.26	30.37	30.18	0.23	0.23	0.23
1/24/2009	270	358	0	1	12	0	4	12	0	2	10	1	68	85	36	63.8	69.9	58.0	56.9	72.6	44.2	30.14	30.24	30.06	0.23	0.23	0.23
1/25/2009	45	359	0	1	12	0	3	12	0	2	10	1	66	84	33	66.3	71.5	60.6	59.7	72.3	47.4	30.10	30.18	30.03	0.23	0.23	0.23
1/26/2009	45	359	0	2	12	0	4	12	0	9	19	1	73	100	52	68.5	73.6	62.9	62.7	73.9	51.4	30.18	30.24	30.13	0.23	0.23	0.23
1/27/2009	135	191	11	3	21	0	8	21	0	20	32	10	77	90	60	71.7	76.2	66.9	67.6	77.4	57.1	30.15	30.23	30.05	0.24	0.24	0.23
1/28/2009	180	283	67	4	26	0	10	26	0	25	31	18	74	87	50	74.5	79.3	70.4	72.0	83.9	64.2	29.99	30.07	29.90	0.24	0.24	0.24
1/29/2009	202	359	0	4	23	0	11	23	0	21	33	14	72	89	44	75.4	79.9	71.1	72.4	85.4	62.9	29.87	29.94	29.78	0.24	0.24	0.24
1/30/2009	315	359	0	2	14	0	7	14	0	13	22	3	81	89	62	70.3	76.1	63.3	58.5	68.6	44.6	29.92	30.10	29.81	0.63	0.85	0.24
1/31/2009	315	359	0	4	22	0	12	22	0	1	3	1	53	79	39	61.8	64.1	58.6	50.0	58.1	42.3	30.22	30.30	30.10	0.85	0.85	0.85
2/1/2009	315	359	0	2	14	0	6	14	0	3	10	1	63	79	51	63.8	68.5	58.7	56.6	66.8	44.8	30.17	30.27	30.05	0.85	0.85	0.85
2/2/2009	180	314	28	2	20	0	6	20	0	16	27	5	84	91	76	67.7	70.6	65.4	62.8	69.3	57.4	29.88	30.05	29.72	0.90	0.97	0.85
2/3/2009	270	359	5	5	21	0	12	21	0	11	27	1	59	86	18	67.9	70.0	63.8	59.0	66.1	45.2	29.94	30.12	29.76	0.97	0.97	0.97
2/4/2009	315	359	0	5	25	0	12	25	0	1	1	1	44	77	10	61.9	65.8	58.3	48.6	60.6	38.0	30.23	30.44	30.12	0.97	0.97	0.97
2/5/2009	315	359	0	5	21	0	14	21	0	5	100	1	51	73	34	55.9	58.6	52.4	42.2	51.4	32.5	30.51	30.57	30.44	0.97	0.97	0.97
2/6/2009	315	359	0	3	17	0	8	17	0	3	11	1	68	83	50	58.6	64.4	53.0	50.0	62.2	38.4	30.50	30.56	30.42	0.97	0.97	0.97
2/7/2009	45	359	0	1	11	0	4	11	0	5	13	1	73	90	51	62.1	66.2	58.0	56.3	67.0	45.4	30.45	30.52	30.40	0.97	0.97	0.97
2/8/2009	0	359	0	1	11	0	4	11	0	8	16	4	72	87	48	65.7	70.3	60.8	59.6	70.6	48.5	30.34	30.42	30.24	0.97	0.97	0.97
2/9/2009	112	149	1	2	16	0	6	16	0	6	16	4	69	89	47	67.2	72.0	61.4	61.2	72.7	48.1	30.24	30.30	30.18	0.98	0.98	0.97
2/10/2009	112	179	58	4	22	0	8	22	0	10	20	5	69	84	37	70.1	74.9	64.9	65.6	75.9	54.4	30.17	30.25	30.08	0.98	0.98	0.98
2/11/2009	135	245	71	4	22	0	11	22	0	19	25	11	71	100	57	73.8	78.2	70.1	71.4	79.5	63.5	30.06	30.13	30.00	0.98	0.98	0.98
2/12/2009	225	359	16	3	18	0	8	18	0	22	32	16	77	89	51	75.0	80.0	70.4	71.3	85.8	62.2	30.01	30.07	29.94	0.98	0.98	0.98
2/13/2009	22	359	0	2	15	0	6	15	0	17	19	14	77	100	58	74.4	77.3	71.4	67.5	74.7	60.9	29.96	30.02	29.92	0.98	0.98	0.98
2/14/2009	270	330	90	3	16	0	7	16	0	14	27	5	67	89	31	74.6	80.1	69.6	70.7	85.7	59.6	29.86	29.94	29.76	0.99	0.99	0.98
2/15/2009	248	359	0	2	13	0	7	13	0	17	26	7	83	93	62	73.4	77.5	70.7	65.9	77.6	59.7	29.86	29.92	29.81	1.18	1.52	0.99
2/16/2009	0	359	0	5	27	0	14	27	0	11	22	1	70	91	45	70.2	72.1	66.1	62.9	67.7	58.5	29.97	30.12	29.86	1.53	1.53	1.52
2/17/2009	45	359	0	3	18	0	9	18	0	2	4	1	60	78	43	67.7	71.4	63.9	60.6	68.8	49.2	30.13	30.19	30.08	1.53	1.53	1.53
2/18/2009	180	271	111	4	20	0	9	20	0	3	11	1	62	81	38	69.9	75.8	64.1	64.9	77.8	52.2	29.98	30.10	29.87	1.53	1.53	1.53
2/19/2009	248	310	152	6	22	0	13	22	0	13	21	1	73	88	54	72.4	76.4	68.2	67.7	80.0	57.7	29.84	29.89	29.75	1.53	1.53	1.53
2/20/2009	0	359	0	4	19	0	11	19	0	2	7	1	51	100	33	66.4	71.7	62.2	55.7	60.8	51.5	30.05	30.18	29.89	1.53	1.53	1.53
2/21/2009	112	359	0	2	18	0	7	18	0	1	2	1	59	100	42	65.4	70.6	59.6	57.6	70.0	44.2	30.15	30.22	30.09	1.53	1.53	1.53
2/22/2009	45	359	0	2	14	0	5	14	0	6	15	1	70	84	41	68.9	74.3	63.1	62.6	77.8	50.0	30.12	30.19	30.05	1.53	1.53	1.53
2/23/2009	0	359	0	5	19	0	14	19	0	5	11	2	65	100	56	68.5	71.2	65.9	62.0	66.4	58.3	30.18	30.25	30.14	1.53	1.53	1.53
2/24/2009	45	359	0	6	19	0	14	19	0	7	16	2	63	100	51	68.0	72.4	64.5	63.5	70.3	57.8	30.17	30.20	30.12	1.53	1.53	1.53
2/25/2009	90	163	18	4	17	0	11	17	0	3	7	1	57	100	43	69.6	73.2	66.6	65.5	71.8	60.2	30.18	30.23	30.15	1.53	1.53	1.53
2/26/2009	90	137	3	4	18	0	10	18	0	5	11	1	60	71	43	71.0	74.8	67.7	66.9	73.4	62.2	30.15	30.21	30.09	1.53	1.53	1.53
2/27/2009	112	200	48	3	21	0	8	21	0	7	14	4	65	83	48	72.1	76.5	67.7	67.1	76.7	55.6	30.02	30.10	29.95	1.53	1.53	1.53
2/28/2009	135	242	70	3	17	0	7	17	0	7	16	3	68	100	45	73.3	78.3	67.8	68.0	79.4	55.4	29.91	30.00	29.82	1.53	1.53	1.53
3/1/2009	270	331	145	6	29	0	16	29	0	7	22	1	68	100	46	71.1	75.3	65.7	62.5	79.0	52.9	29.79	29.87	29.71	1.55	1.57	1.53
3/2/2009	292	351	10	4	23	0	12	23	0	1	1	1	49	70	24	64.5	68.3	60.3	52.0	63.4	40.1	30.00	30.11	29.87	1.57	1.57	1.57
3/3/2009	0	359	0	4	20	0	11	20	0	1	1	1	57	79	25	62.0	65.3	57.7	51.0	61.0	38.9	30.18	30.28	30.11	1.57	1.57	1.57
3/4/2009	45	359	0	4	17	0	11	17	1	1	2	1	59	100	35	64.3	69.0	59.8	58.5	67.3	46.5	30.27	30.33	30.22	1.57	1.57	1.57
3/5/2009	68	153	12	3	17	0	10	17	0	1	3	1	53	64	40	68.4	72.7	64.6	64.9	71.9	59.8	30.30	30.36	30.25	1.57	1.57	1.57
3/6/2009	112	192	14	2	15	0	6	15	0	1	5	1	64	100	43	70.1	75.2	64.8	63.7	75.1	52.3	30.29	30.36	30.23	1.57	1.57	1.57
3/7/2009	112	191	40	2	19	0	6	19	0	4	13	1	67	85	43	71.5	76.8	65.6	65.4	77.7	52.2	30.21	30.30	30.14	1.57	1.57	1.57
3/8/2009	112	193	41	3	19	0	8	19	0	9	17	4	70	100	53	73.3	77.5	69.3	68.4	77.8	57.6	30.10	30.17	30.03	1.57	1.57	1.57
3/9/2009	45	359	0	2	14	0	6	14	0	7	15	2	67	84	46	73.9	78.4	68.7	68.0	78.1	56.8	30.07	30.15	29.99	1.57	1.57	1.57
3/10/2009	112	359	0	3	15	0	6	15	0	7	17	3	69	100	43	74.8	79.8	69.3	69.0	81.6	56.2	30.03	30.09	29.98	1.57	1.57	1.57
3/11/2009	112	352	10	2	15	0	5	15	0	9	19	6	73	93	51	75.5	80.0	70.7	69.1	80.0	58.2	30.04	30.11	29.99	1.57	1.57	1.57
3/12/2009	112	359	0	3	18	0	7	18	0	11	25	6	73	89	55	75.8	80.3	70.8	69.7	79.6	58.4	30.03	30.09	29.98	1.58	1.58	1.57
3/13/2009	112	359	0	3	15	0	7	15	0	12	20	7	73	100	56	75.7	79.8	71.2	69.6	78.5	58.7	29.99	30.06	29.92	1.58	1.58	1.58
3/14/2009	135	212	32	3	18	0	8	18	0	20	25	15	77	100	65	76.2	79.2	73.6	71.6	78.1	65.2	29.96	30.02	29.91	1.59	1.59	1.58
3/15/2009	135	257	71	4	18	0	9	18	0	20	27	16	73	100	49	77.4	81.8	73.1	73.7	84.1	63.2	29.98	30.03	29.93	1.59	1.59	1.59
3/16/2009	180	269	24	3	19	0	9	19	0	19	27	12	72	100	49	78.7	82.9	74.8	74.7	84.1	66.7	30.00	30.08	29.92	1.59	1.59	1.59
3/17/2009	0	359	0	4	19	0	11	19	0	17	25	12	75	100	61	77.1	79.8	74.8	70.8	76.7	63.9	29.93	29.98	29.88	1.59	1.59	1.59
3/18/2009	45	359	0	5	24	0	13	24	0	17	26	9	69	83	50	75.2	79.4	72.8	70.6	78.2	64.7	29.95	30.00	29.92	1.59	1.59	1.59
3/19/2009	45	359	0	3	18	0	8	18	0	18	26	12	73	100	43	74.9	78.5	71.8	69.4	75.9	62.0	29.89	29.96	29.83	1.59	1.59	1.59
3/20/2009	22	359	0	4	19	0	10	19	0	16	25	10	73	100	51	75.1	78.8	71.4	68.9	76.7	60.8	29.90	29.98	29.85	1.59	1.59	1.59
3/21/2009	45	359	0	7	23	0	16	23	0	16	25	4	68	86	46	72.3	73.8	70.6	68.1	73.1	64.3	30.06	30.15	29.96	1.68	1.76	1.59
3/22/2009	45	359	0	5	21	0	14	21	1	6	16	1	59	100	47	71.3	74.1	68.9	67.4	73.0	64.0	30.11	30.17	30.05	1.77	1.79	1.76
3/23/2009	112	193	1	6	23	0	14	23	0	8	19	1	59	100	37	72.9	77.0	69.7	68.9	76.4	61.7	30.07	30.13	30.03	1.94	1.96	1.79
3/24/2009	90	170	28	5	23	0	12	23	0	1	6	1	53	100	41	74.2	78.0	70.9	70.3	76.8	66.0	30.07	30.12	30.03	1.96	1.96	1.96
3/25/2009	112	193	57	5	25	0	15	25	1	2	10	1	56	100	37	75.4	79.9	71.6	71.6	79.9	66.3	30.03	30.09	29.96	1.96	2.03	1.96
3/26/2009	135	198	60	6	22	0	14	22	0	8	12	1	65	100	47	75.7	79.7	72.3	71.2	79.1	65.5	29.92	30.01	29.85	2.04	2.04	2.03
3/27/2009	158	228	42	6	24	0	13	24	0	12	20	4	69	100	49	76.3	80.2	72.2	72.5	82.2	63.1	29.76	29.87	29.69	2.04	2.04	2.04
3/28/2009	180	237	79	7	25	0	15	25	1	19	28	12	69	100	46	79.6	84.2	75.1	78.1	89.4	69.6	29.71	29.77	29.62	2.04	2.04	2.04
3/29/2009	180	328	122	7	25	0	15	25	1	23	33	11	77	100	62	79.6	81.5	76.7	75.0	82.4	63.3	29.70	29.81	29.64	2.09	2.13	2.04
3/30/2009	45	359	0	3	13	0	7	13	0	9	20	5	71	100	55	75.2	79.4	69.7	66.0	76.1	52.8	29.86	29.92	29.81	2.13	2.13	2.13
3/31/2009	112	244	43	5	22	0	11	22	0	25	33	10	78	100	65	78.4	83.2	75.3	74.9	83.6	70.2	29.82	29.89	29.71	2.14	2.32	2.13
4/1/2009	180	282	100	5	21	0	11	21	0	27	36	19	76	100	47	79.7	84.1	76.1	77.4	90.9	70.0	29.75	29.82	29.67	2.32	2.33	2.32
4/2/2009	180	267	112	6	21	0	13	21	0	18	30	5	67	100	43	81.4	85.4	77.2	79.1	89.4	69.8	29.64	29.76	29.52	2.33	2.33	2.33
4/3/2009	225	304	151	6	26	0	14	26	2	23	29	10	79	100	69	80.1	81.8	78.9	75.4	80.8	70.8	29.60	29.70	29.54	2.39	2.49	2.33
4/4/2009	45	359	0	2	15	0	8	15	0	15	26	12	72	100	49	77.8	80.8	73.5	69.9	75.9	59.7	29.79	29.86	29.70	2.49	2.49	2.49
4/5/2009	135	233	67	3	19	0	8	19	0	21	38	13	74	100	54	79.5	84.7	74.3	75.4	86.9	64.2	29.77	29.83	29.69	2.49	2.49	2.49
4/6/2009	225	356	166	7	32	0	17	32	0	13	27	1	66	100	43	80.8	85.2	77.2	76.7	89.0	63.6	29.65	29.75	29.51	2.49	2.49	2.49
4/7/2009	292	358	2	7	31	0	17	31	1	1	1	1	47	100	24	72.2	77.3	68.7	59.8	68.2	52.1	29.85	29.99	29.72	2.49	2.49	2.49
4/8/2009	315	359	0	3	13	0	7	13	0	1	1	1	53	100	34	68.2	72.2	63.4	56.4	67.1	44.6	30.01	30.10	29.93	2.49	2.49	2.49
4/9/2009	135	359	1	3	18	0	7	18	0	1	2	1	61	100	39	71.2	77.5	64.2	63.1	76.8	48.2	29.99	30.07	29.91	2.49	2.49	2.49
4/10/2009	180	243	72	4	24	0	11	24	0	6	12	1	66	100	38	74.9	81.5	68.5	70.0	86.3	54.6	29.96	30.04	29.88	2.49	2.49	2.49
4/11/2009	225	337	155	4	19	0	10	19	0	11	23	1	67	89	33	79.0	84.9	74.7	76.7	91.4	67.7	29.88	29.96	29.77	2.49	2.49	2.49
4/12/2009	45	359	0	3	17	0	9	17	0	7	16	1	70	100	53	79.9	83.6	76.0	73.0	80.8	66.0	29.88	29.93	29.82	2.49	2.49	2.49
4/13/2009	112	229	53	7	24	0	15	24	0	17	23	12	70	81	56	79.7	83.7	76.0	75.9	83.4	70.0	29.85	29.92	29.77	2.49	2.49	2.49
4/14/2009	248	353	113	5	37	0	13	37	0	16	26	4	73	90	51	78.4	80.5	76.3	73.0	82.3	66.7	29.77	29.87	29.58	2.59	2.70	2.49
4/15/2009	292	359	0	2	13	0	7	13	0	11	15	6	71	86	54	76.9	80.7	73.9	70.3	81.5	64.0	29.81	29.89	29.72	2.70	2.70	2.70
4/16/2009	45	359	0	4	19	0	9	19	0	8	21	2	69	100	55	75.7	80.1	70.3	67.5	78.3	53.7	29.90	29.97	29.85	2.70	2.70	2.70
4/17/2009	45	359	0	6	20	0	15	20	3	10	16	2	63	78	47	75.9	79.4	73.0	71.3	76.5	66.7	30.02	30.07	29.95	2.70	2.73	2.70
4/18/2009	45	359	0	5	21	0	13	21	0	4	10	1	58	74	50	75.2	78.6	71.8	70.6	76.6	63.1	30.01	30.06	29.96	2.73	2.73	2.73
4/19/2009	135	238	50	4	22	0	11	22	0	6	11	1	62	100	45	77.4	82.4	72.3	72.8	82.6	61.8	29.92	30.00	29.83	2.73	2.73	2.73
4/20/2009	202	328	90	3	22	0	9	22	0	8	17	2	66	100	36	79.2	83.8	74.8	74.7	88.3	64.3	29.80	29.86	29.71	2.73	2.73	2.73
4/21/2009	292	358	0	3	17	0	9	17	0	5	11	1	65	100	33	80.0	84.5	76.2	74.0	85.8	65.8	29.79	29.87	29.73	2.73	2.73	2.73
4/22/2009	292	359	0	3	17	0	8	17	0	2	11	1	64	100	50	77.6	81.0	72.5	68.8	79.2	56.9	29.95	30.02	29.87	2.73	2.73	2.73
4/23/2009	135	311	11	3	18	0	7	18	0	3	18	1	66	100	44	79.0	84.5	73.2	72.4	84.7	60.0	30.04	30.11	29.99	2.73	2.73	2.73
4/24/2009	112	280	1	3	16	0	8	16	0	4	13	1	66	100	49	79.7	84.5	74.3	73.3	83.3	60.4	30.09	30.14	30.05	2.73	2.73	2.73
4/25/2009	90	156	32	6	22	0	15	22	2	5	9	1	61	72	43	80.3	84.1	77.0	75.6	83.0	71.2	30.12	30.16	30.09	2.73	2.73	2.73
4/26/2009	112	152	31	7	22	0	16	22	3	5	9	1	59	69	45	79.5	83.2	76.1	75.1	81.4	70.5	30.12	30.17	30.08	2.73	2.73	2.73
4/27/2009	112	177	34	5	22	0	15	22	3	7	11	4	62	73	49	80.0	84.3	76.8	75.6	83.1	71.6	30.11	30.16	30.08	2.73	2.73	2.73
4/28/2009	112	190	19	5	18	0	12	18	0	8	12	3	63	72	50	80.4	84.5	76.6	75.6	82.6	70.7	30.09	30.15	30.04	2.73	2.73	2.73
4/29/2009	90	357	1	5	18	0	12	18	0	6	12	1	61	79	46	80.6	84.7	76.8	75.5	82.9	67.6	30.05	30.10	30.00	2.73	2.73	2.73
4/30/2009	112	192	44	6	18	0	14	18	3	6	13	1	60	72	43	81.2	85.6	77.3	76.8	85.9	71.4	30.03	30.08	30.00	2.73	2.73	2.73
5/1/2009	112	179	25	4	19	0	10	19	0	4	12	1	61	81	43	81.2	85.0	76.9	75.5	83.1	64.7	30.01	30.07	29.95	2.73	2.73	2.73
5/2/2009	112	274	37	4	18	0	9	18	0	5	13	1	65	84	37	81.6	87.2	76.4	75.9	87.9	63.2	29.92	30.00	29.83	2.73	2.73	2.73
5/3/2009	135	231	67	5	26	0	12	26	0	8	15	2	65	84	43	82.2	86.9	77.9	77.6	87.4	68.7	29.87	29.93	29.78	2.73	2.73	2.73
5/4/2009	135	247	54	4	20	0	11	20	0	8	15	4	66	83	41	82.2	87.2	77.9	77.4	89.3	66.7	29.86	29.90	29.82	2.73	2.73	2.73
5/5/2009	112	345	2	4	20	0	10	20	0	9	14	3	66	84	41	83.0	88.1	78.3	78.1	88.2	67.6	29.86	29.94	29.78	2.73	2.73	2.73
5/6/2009	112	251	32	5	20	0	11	20	0	9	15	4	67	82	45	83.0	87.4	78.5	77.9	87.3	68.0	29.86	29.91	29.80	2.73	2.73	2.73
5/7/2009	135	358	1	4	19	0	9	19	0	11	18	6	69	86	41	84.2	89.0	79.4	79.4	90.1	69.8	29.82	29.89	29.75	2.73	2.73	2.73
5/8/2009	135	311	37	4	16	0	11	16	0	11	18	5	66	79	41	85.4	90.3	81.0	81.6	93.1	73.7	29.80	29.84	29.75	2.73	2.73	2.73
5/9/2009	180	359	0	4	17	0	10	17	0	9	18	3	65	100	36	86.2	91.2	81.8	82.0	93.4	73.7	29.83	29.89	29.78	2.73	2.73	2.73
5/10/2009	135	229	23	4	21	0	11	21	0	8	17	1	65	83	43	86.6	91.8	82.0	81.9	92.5	73.5	29.83	29.89	29.76	2.73	2.73	2.73
5/11/2009	135	276	55	4	21	0	11	21	0	11	15	6	68	84	37	86.4	91.6	82.6	81.9	96.2	73.9	29.79	29.84	29.70	2.73	2.73	2.73
5/12/2009	112	358	0	3	23	0	9	23	0	13	19	8	73	87	52	85.0	89.5	81.3	78.9	89.2	70.9	29.80	29.86	29.75	2.74	2.85	2.73
5/13/2009	112	359	0	3	14	0	8	14	0	18	27	12	77	89	57	82.2	85.9	78.8	76.3	85.0	70.5	29.88	29.93	29.83	2.94	2.98	2.85
5/14/2009	112	216	42	4	19	0	11	19	0	16	23	7	70	84	51	84.4	89.0	80.2	79.9	88.0	72.6	29.91	29.95	29.86	2.98	2.98	2.98
5/15/2009	112	162	25	4	19	0	11	19	0	16	20	8	71	82	56	84.0	87.7	81.4	78.9	85.9	74.4	29.90	29.95	29.85	2.98	2.98	2.98
5/16/2009	112	280	39	5	21	0	12	21	0	15	21	6	69	84	50	84.3	88.5	80.4	79.6	87.7	71.0	29.86	29.92	29.80	2.98	2.98	2.98
5/17/2009	112	197	47	4	21	0	11	21	0	13	19	6	68	80	51	84.8	88.8	81.2	80.1	87.7	72.9	29.78	29.86	29.68	2.98	2.98	2.98
5/18/2009	0	359	0	2	18	0	7	18	0	11	22	5	78	89	48	82.2	86.5	78.0	74.4	87.3	68.4	29.71	29.75	29.66	3.16	3.76	2.98
5/19/2009	112	359	0	4	21	0	11	21	0	28	37	20	87	91	80	76.8	78.0	76.0	70.7	74.7	67.7	29.67	29.74	29.62	4.09	4.29	3.76
5/20/2009	112	185	6	4	22	0	12	22	0	35	50	27	82	92	65	78.8	84.1	75.2	75.2	84.1	69.2	29.69	29.75	29.64	4.32	4.34	4.29
5/21/2009	112	203	40	7	23	0	16	23	2	35	42	31	81	89	68	79.3	81.5	76.9	75.5	81.4	69.8	29.74	29.79	29.67	4.34	4.35	4.34
5/22/2009	112	271	47	4	24	0	13	24	0	35	43	26	82	88	66	80.2	84.8	78.1	76.0	84.7	70.8	29.75	29.80	29.71	5.04	5.99	4.35
5/23/2009	135	189	66	4	21	0	11	21	0	34	41	26	81	89	68	79.6	82.3	77.6	75.8	81.4	72.0	29.79	29.85	29.75	6.04	6.05	5.99
5/24/2009	135	359	0	3	17	0	8	17	0	31	40	22	79	90	65	80.5	83.3	77.6	76.3	82.8	72.2	29.78	29.84	29.71	6.08	6.09	6.05
5/25/2009	112	356	0	2	15	0	5	15	0	26	34	21	79	88	56	81.3	85.6	77.6	76.4	87.1	69.0	29.73	29.79	29.64	6.11	6.17	6.09
5/26/2009	112	359	1	2	42	0	7	42	0	24	34	12	81	100	64	81.7	86.7	78.0	75.0	85.4	68.3	29.71	29.77	29.64	6.32	6.75	6.17
5/27/2009	202	359	0	3	30	0	8	30	0	21	33	11	78	89	47	81.0	87.3	76.9	75.8	91.0	68.3	29.72	29.77	29.65	6.84	7.06	6.75
5/28/2009	180	359	0	3	23	0	8	23	0	21	33	15	79	89	51	81.2	86.4	77.8	76.5	92.4	69.8	29.73	29.78	29.66	7.13	7.40	7.06
5/29/2009	225	327	133	3	17	0	8	17	0	24	32	18	81	89	63	81.2	84.6	78.0	76.4	86.1	70.1	29.72	29.78	29.67	7.47	7.63	7.40
5/30/2009	248	356	6	4	19	0	9	19	0	21	35	10	73	90	48	83.8	89.5	79.1	80.3	93.5	72.5	29.69	29.74	29.62	7.64	7.65	7.63
5/31/2009	112	358	0	2	13	0	7	13	0	8	16	1	65	84	43	84.3	87.9	80.1	78.3	85.6	69.8	29.74	29.80	29.69	7.65	7.65	7.65
6/1/2009	112	359	0	3	19	0	8	19	0	13	20	6	74	87	56	85.3	89.8	80.9	79.8	87.3	71.7	29.80	29.86	29.76	7.65	7.65	7.65
6/2/2009	112	358	1	3	16	0	7	16	0	15	28	9	75	88	55	85.3	89.3	81.4	79.5	86.4	72.1	29.83	29.88	29.78	7.65	7.65	7.65
6/3/2009	112	270	31	3	16	0	7	16	0	14	24	7	73	87	51	85.8	90.1	81.9	80.4	88.1	73.4	29.80	29.85	29.72	7.65	7.65	7.65
6/4/2009	180	280	86	2	18	0	7	18	0	15	24	7	79	88	58	84.1	88.3	81.4	78.5	88.6	73.4	29.74	29.79	29.66	7.71	7.82	7.65
6/5/2009	180	359	0	3	16	0	8	16	0	18	29	10	81	89	51	82.2	87.2	79.4	76.2	92.0	70.3	29.68	29.73	29.61	7.87	7.92	7.82
6/6/2009	180	359	0	4	27	0	10	27	0	20	27	12	77	89	47	82.4	87.9	79.2	77.6	91.0	71.9	29.73	29.80	29.67	7.93	7.94	7.92
6/7/2009	202	359	0	3	25	0	8	25	0	19	34	14	82	89	57	81.1	86.3	78.8	74.4	89.1	69.6	29.81	29.85	29.76	8.30	9.00	7.94
6/8/2009	180	359	0	2	24	0	6	24	0	22	34	15	81	90	59	81.3	86.4	77.1	75.8	86.3	68.4	29.80	29.85	29.75	9.28	9.80	9.00
6/9/2009	45	359	0	2	14	0	6	14	0	19	31	11	76	90	60	83.6	88.0	79.1	78.3	84.4	70.1	29.75	29.80	29.69	9.80	9.80	9.80
6/10/2009	112	359	0	2	13	0	5	13	0	14	29	6	72	88	47	85.9	91.2	80.8	81.2	89.9	71.9	29.71	29.76	29.65	9.80	9.80	9.80
6/11/2009	112	313	28	2	14	0	7	14	0	11	22	5	69	86	50	87.3	92.2	82.6	82.9	92.2	74.0	29.69	29.73	29.64	9.80	9.80	9.80
6/12/2009	180	358	1	3	14	0	7	14	0	12	25	4	71	83	56	88.0	92.2	84.0	83.7	93.2	76.7	29.71	29.75	29.66	9.80	9.80	9.80
6/13/2009	112	359	0	3	14	0	8	14	0	11	18	6	70	84	44	88.6	93.6	84.1	83.0	92.5	74.7	29.74	29.79	29.67	9.80	9.80	9.80
6/14/2009	112	359	0	2	12	0	6	12	0	11	19	5	72	84	55	87.3	91.5	83.4	81.2	89.0	73.5	29.76	29.82	29.72	9.80	9.80	9.80
6/15/2009	45	359	0	2	13	0	7	13	0	12	24	4	74	88	59	88.0	92.4	84.3	82.8	90.8	76.2	29.74	29.79	29.69	9.80	9.80	9.80
6/16/2009	112	359	0	3	14	0	7	14	0	11	23	5	73	100	54	88.4	92.7	84.1	82.7	90.9	75.3	29.74	29.80	29.69	9.80	9.80	9.80
6/17/2009	45	359	0	3	16	0	7	16	0	13	21	5	76	87	57	88.0	91.6	84.1	81.2	87.2	74.2	29.76	29.81	29.71	9.80	9.80	9.80
6/18/2009	45	359	0	2	15	0	6	15	0	12	26	3	76	90	62	88.2	92.3	84.3	81.5	88.9	75.6	29.72	29.76	29.66	9.80	9.80	9.80
6/19/2009	45	359	0	2	12	0	6	12	0	9	19	3	71	87	54	87.9	92.5	83.3	81.6	89.4	73.1	29.69	29.74	29.64	9.80	9.80	9.80
6/20/2009	112	359	0	2	13	0	7	13	0	8	18	1	69	85	47	89.4	94.5	84.6	84.7	95.2	76.1	29.67	29.73	29.61	9.80	9.80	9.80
6/21/2009	270	357	1	4	14	0	8	14	0	7	19	1	67	87	48	90.4	94.6	86.1	87.6	97.6	78.3	29.60	29.66	29.51	9.80	9.80	9.80
6/22/2009	270	359	0	5	20	0	11	20	0	11	24	1	69	88	41	91.5	96.3	88.1	87.4	99.9	80.5	29.49	29.56	29.42	9.80	9.82	9.80
6/23/2009	292	359	0	3	21	0	9	21	0	9	19	3	77	87	54	88.6	93.9	85.3	80.7	92.6	74.4	29.47	29.54	29.42	9.87	9.98	9.82
6/24/2009	90	333	15	3	15	0	8	15	0	13	23	6	75	90	59	87.3	92.1	82.8	81.5	89.4	73.2	29.56	29.63	29.51	9.99	9.99	9.98
6/25/2009	112	359	0	2	18	0	7	18	0	14	21	9	74	85	57	88.1	91.5	85.4	83.1	90.3	77.3	29.64	29.68	29.60	10.00	10.03	9.99
6/26/2009	225	309	156	4	34	0	10	34	0	13	21	6	79	88	50	86.4	90.1	84.0	80.2	91.9	75.6	29.69	29.74	29.65	10.37	11.03	10.03
6/27/2009	225	356	14	4	25	0	10	25	0	15	27	7	75	89	54	86.3	89.6	82.8	81.5	92.1	74.8	29.73	29.78	29.67	11.03	11.04	11.03
6/28/2009	225	312	155	4	18	0	10	18	0	12	27	4	72	96	48	87.8	92.1	83.7	83.7	94.2	75.7	29.65	29.73	29.56	11.04	11.04	11.04
6/29/2009	225	303	123	4	24	0	12	24	0	16	24	6	82	100	63	86.1	88.4	83.7	79.5	87.7	75.1	29.59	29.63	29.53	11.28	11.70	11.04
6/30/2009	225	316	150	5	22	0	12	22	0	25	33	18	86	100	62	83.9	87.8	82.3	78.2	89.3	75.0	29.59	29.64	29.54	12.04	12.47	11.70
7/1/2009	225	317	131	4	25	0	11	25	0	26	34	21	83	90	64	83.6	87.1	81.4	78.5	89.2	74.9	29.67	29.75	29.61	12.51	12.60	12.47
7/2/2009	225	331	133	4	17	0	9	17	0	25	35	21	84	100	61	83.2	88.0	80.6	77.8	90.2	73.8	29.79	29.85	29.73	12.62	12.66	12.60
7/3/2009	225	359	0	4	19	0	10	19	0	23	35	10	75	91	45	85.2	91.4	80.7	82.3	96.8	74.3	29.82	29.89	29.74	12.68	12.80	12.66
7/4/2009	248	359	0	2	20	0	7	20	0	17	32	7	78	91	55	86.8	92.4	82.9	81.5	92.8	75.4	29.79	29.84	29.71	12.86	13.07	12.80
7/5/2009	180	321	76	2	17	0	8	17	0	17	28	8	74	89	46	87.5	92.7	83.4	83.3	97.1	75.5	29.75	29.81	29.68	13.09	13.26	13.07
7/6/2009	225	359	0	2	24	0	8	24	0	15	25	7	77	89	51	87.1	91.4	83.5	81.9	94.8	75.5	29.71	29.76	29.64	13.39	13.69	13.26
7/7/2009	225	359	0	4	27	0	10	27	0	15	28	6	74	87	49	87.5	90.7	84.1	82.8	94.7	77.1	29.67	29.72	29.63	13.70	13.73	13.69
7/8/2009	180	359	0	3	18	0	9	18	0	13	25	3	72	87	39	87.8	94.1	83.8	83.1	97.1	75.5	29.70	29.77	29.64	13.73	13.73	13.73
7/9/2009	180	359	0	2	23	0	7	23	0	12	26	4	77	86	50	87.3	92.5	83.9	80.0	93.2	72.5	29.80	29.88	29.75	13.83	14.03	13.73
7/10/2009	45	359	0	1	23	0	5	23	0	12	22	6	77	89	50	85.1	90.3	82.1	78.3	91.0	71.1	29.91	29.99	29.85	14.22	14.89	14.03
7/11/2009	45	359	0	2	16	0	6	16	0	14	20	8	79	89	58	84.1	89.7	79.8	77.1	88.1	70.1	29.93	29.98	29.88	14.94	15.07	14.89
7/12/2009	112	359	0	1	13	0	5	13	0	14	22	6	77	89	54	85.6	90.9	80.7	79.4	89.4	71.2	29.89	29.95	29.81	15.11	15.25	15.07
7/13/2009	248	354	5	2	14	0	6	14	0	13	21	6	76	87	49	86.7	92.2	82.9	81.4	94.0	74.9	29.79	29.88	29.71	15.41	15.78	15.25
7/14/2009	202	308	32	2	14	0	6	14	0	14	22	7	76	88	55	87.5	92.3	83.4	82.0	91.7	75.5	29.81	29.86	29.77	15.78	15.78	15.78
7/15/2009	180	359	0	2	14	0	6	14	0	13	23	7	71	86	55	88.6	93.5	84.4	84.2	93.6	76.0	29.86	29.91	29.83	15.78	15.78	15.78
7/16/2009	112	357	1	2	12	0	5	12	0	13	21	6	72	88	51	89.7	94.2	85.6	85.0	93.5	77.8	29.83	29.88	29.75	15.78	15.78	15.78
7/17/2009	248	359	0	2	15	0	6	15	0	10	20	3	73	84	47	89.3	94.6	85.6	83.4	96.8	77.0	29.79	29.82	29.73	15.79	15.83	15.78
7/18/2009	225	359	0	3	16	0	7	16	0	8	20	1	71	87	43	88.2	93.7	84.5	82.6	97.9	75.5	29.82	29.89	29.77	15.84	15.85	15.83
7/19/2009	225	359	0	2	24	0	7	24	0	7	14	1	73	88	46	86.6	93.3	83.1	79.5	95.9	70.7	29.85	29.92	29.77	16.25	17.56	15.85
7/20/2009	270	359	0	1	24	0	5	24	0	9	20	4	73	89	52	84.9	88.9	80.4	78.3	89.2	70.0	29.81	29.87	29.74	17.57	17.57	17.56
7/21/2009	45	359	0	2	14	0	6	14	0	12	21	5	74	87	61	86.8	91.1	82.2	80.5	87.2	72.0	29.77	29.82	29.71	17.57	17.57	17.57
7/22/2009	45	359	0	2	14	0	6	14	0	13	21	5	73	100	60	88.2	92.1	84.2	82.4	88.2	75.4	29.75	29.80	29.71	17.57	17.57	17.57
7/23/2009	112	358	0	2	15	0	6	15	0	10	20	1	70	88	50	88.8	93.8	83.8	83.0	91.6	74.0	29.75	29.79	29.70	17.57	17.57	17.57
7/24/2009	135	359	0	3	15	0	7	15	0	9	23	2	71	86	42	89.7	93.9	85.4	84.5	92.5	76.1	29.75	29.82	29.70	17.57	17.57	17.57
7/25/2009	180	359	0	2	19	0	7	19	0	9	17	1	75	100	57	88.3	93.1	85.3	80.9	90.4	75.6	29.79	29.84	29.73	17.66	17.85	17.57
7/26/2009	112	359	0	2	24	0	8	24	0	8	17	3	72	87	47	87.8	93.3	83.2	81.3	93.7	73.3	29.85	29.89	29.78	18.01	18.85	17.85
7/27/2009	202	356	1	1	12	0	4	12	0	10	19	4	77	89	56	86.4	91.4	82.9	79.5	90.4	73.3	29.85	29.90	29.80	18.86	18.88	18.85
7/28/2009	135	249	3	2	20	0	6	20	0	14	29	5	76	88	51	87.2	91.8	82.6	81.8	93.3	73.3	29.82	29.87	29.75	18.89	18.89	18.88
7/29/2009	135	284	55	2	23	0	7	23	0	13	24	5	73	86	52	88.6	92.7	85.4	84.0	93.9	78.6	29.82	29.87	29.77	18.89	18.89	18.89
7/30/2009	180	349	7	2	19	0	5	19	0	12	26	5	78	87	62	87.4	90.5	84.8	81.3	90.2	74.0	29.86	29.91	29.81	19.22	19.67	18.89
7/31/2009	135	359	0	1	19	0	5	19	0	15	26	8	76	89	55	87.6	92.1	83.7	82.3	92.0	74.6	29.89	29.94	29.84	19.70	19.73	19.67
8/1/2009	112	206	23	2	17	0	6	17	0	13	25	7	74	87	55	89.0	93.3	84.8	83.9	91.7	76.3	29.87	29.93	29.81	19.73	19.73	19.73
8/2/2009	135	289	59	2	27	0	7	27	0	13	21	6	73	86	55	89.3	93.9	85.5	84.3	93.5	76.8	29.82	29.88	29.76	19.73	19.74	19.73
8/3/2009	180	359	0	3	19	0	9	19	0	13	21	7	72	89	46	89.6	94.6	85.7	84.5	96.5	74.5	29.82	29.89	29.75	19.96	21.91	19.74
8/4/2009	112	325	28	2	12	0	4	12	0	13	24	6	78	89	51	87.9	92.6	84.3	81.4	93.4	75.1	29.82	29.86	29.77	21.92	21.99	21.91
8/5/2009	45	359	2	1	16	0	4	16	0	16	31	6	81	90	63	87.4	91.5	83.9	81.0	90.7	75.5	29.80	29.85	29.72	22.00	22.02	21.99
8/6/2009	180	359	0	1	15	0	4	15	0	15	24	11	81	89	61	86.4	88.1	84.4	80.2	88.8	76.4	29.78	29.84	29.73	22.03	22.05	22.02
8/7/2009	45	359	0	2	14	0	6	14	0	21	32	11	79	89	63	86.6	90.4	82.7	81.1	88.4	73.8	29.84	29.91	29.80	22.05	22.05	22.05
8/8/2009	45	358	2	3	17	0	7	17	0	20	28	12	75	88	59	88.5	92.5	85.0	84.1	89.4	78.5	29.89	29.93	29.85	22.05	22.05	22.05
8/9/2009	45	359	0	3	17	0	8	17	0	20	27	15	76	87	64	89.2	92.9	85.7	84.1	89.1	78.1	29.90	29.95	29.86	22.05	22.05	22.05
8/10/2009	45	359	0	2	15	0	7	15	0	18	27	11	75	88	64	89.1	92.8	85.5	83.5	88.6	77.1	29.86	29.92	29.81	22.05	22.05	22.05
8/11/2009	112	166	4	2	13	0	6	13	0	11	22	2	70	87	51	89.4	93.3	85.4	83.7	90.7	76.8	29.80	29.85	29.73	22.05	22.05	22.05
8/12/2009	135	320	33	2	17	0	7	17	0	10	18	3	70	86	51	89.9	94.3	85.5	84.5	93.1	76.0	29.75	29.78	29.68	22.05	22.05	22.05
8/13/2009	135	359	0	3	20	0	8	20	0	11	21	2	72	85	52	89.8	94.5	86.2	83.9	93.2	77.8	29.75	29.80	29.71	22.05	22.05	22.05
8/14/2009	112	251	11	2	16	0	7	16	0	14	23	7	73	83	56	88.9	92.6	85.6	83.7	92.9	78.0	29.79	29.82	29.75	22.05	22.05	22.05
8/15/2009	112	311	25	4	23	0	10	23	0	17	24	11	76	87	61	88.2	91.2	85.6	82.7	91.0	75.1	29.80	29.87	29.75	22.10	22.18	22.05
8/16/2009	112	165	21	4	17	0	10	17	0	19	29	12	75	87	60	88.0	92.8	84.2	83.2	91.5	76.5	29.84	29.88	29.79	22.18	22.18	22.18
8/17/2009	90	359	0	5	16	0	11	16	0	20	28	13	72	82	60	89.3	93.5	85.8	84.8	91.8	80.4	29.84	29.88	29.81	22.18	22.18	22.18
8/18/2009	112	295	20	4	19	0	11	19	0	21	30	13	74	83	58	89.7	93.7	86.3	85.3	93.1	80.8	29.81	29.86	29.75	22.18	22.18	22.18
8/19/2009	112	224	26	3	18	0	10	18	0	20	26	13	77	86	62	88.3	90.8	86.6	83.1	89.3	79.3	29.78	29.85	29.72	22.20	22.22	22.18
8/20/2009	112	199	31	2	14	0	6	14	0	18	29	8	75	100	57	89.3	94.0	85.1	84.7	92.4	77.3	29.79	29.85	29.72	22.22	22.22	22.22
8/21/2009	45	357	0	2	24	0	6	24	0	12	24	2	76	88	58	89.6	93.8	86.2	82.8	91.2	74.4	29.74	29.81	29.65	22.22	22.23	22.22
8/22/2009	225	326	131	3	18	0	7	18	0	8	19	1	73	89	43	88.3	93.3	83.9	82.6	96.5	73.9	29.68	29.73	29.61	22.23	22.23	22.23
8/23/2009	45	359	0	2	16	0	6	16	0	9	17	1	76	87	51	88.5	92.6	85.0	81.9	93.3	75.6	29.69	29.73	29.65	22.23	22.23	22.23
8/24/2009	45	359	0	2	16	0	6	16	0	15	23	6	81	89	63	87.5	91.1	84.6	80.4	88.4	75.0	29.75	29.79	29.70	22.23	22.23	22.23
8/25/2009	68	359	4	3	18	0	9	18	0	19	26	10	76	89	58	87.3	91.6	83.3	81.9	88.8	74.5	29.77	29.82	29.72	22.23	22.23	22.23
8/26/2009	45	148	10	2	14	0	8	14	0	21	31	17	75	88	61	88.1	91.6	85.3	83.8	89.7	78.8	29.76	29.81	29.70	22.24	22.24	22.23
8/27/2009	45	359	0	3	16	0	8	16	0	18	25	14	75	88	60	88.2	91.4	85.2	83.5	89.2	79.0	29.71	29.76	29.66	22.25	22.25	22.24
8/28/2009	270	359	0	2	13	0	6	13	0	19	26	10	76	90	49	88.4	92.9	84.7	83.5	94.3	77.2	29.64	29.69	29.56	22.25	22.26	22.25
8/29/2009	248	359	0	2	13	0	7	13	0	17	28	7	80	88	57	87.5	91.4	84.8	81.1	92.3	77.0	29.66	29.72	29.62	22.26	22.26	22.26
8/30/2009	112	359	0	2	14	0	7	14	0	15	25	10	78	90	61	87.7	92.5	83.7	81.4	89.4	75.8	29.73	29.79	29.68	22.26	22.26	22.26
8/31/2009	112	315	30	1	17	0	6	17	0	16	27	7	78	90	63	86.9	90.5	83.7	80.7	89.0	74.7	29.77	29.82	29.71	22.26	22.26	22.26
9/1/2009	45	359	0	1	12	0	4	12	0	16	29	8	83	90	68	86.1	90.7	83.6	79.4	88.1	75.1	29.76	29.81	29.72	22.26	22.26	22.26
9/2/2009	45	359	0	2	13	0	6	13	0	20	29	15	83	91	67	84.9	88.1	82.5	79.2	86.6	75.2	29.72	29.78	29.65	22.26	22.26	22.26
9/3/2009	270	359	0	2	14	0	6	14	0	20	30	9	80	91	53	85.7	91.1	81.7	79.9	91.5	74.3	29.68	29.73	29.62	22.33	22.60	22.26
9/4/2009	45	359	0	2	15	0	5	15	0	17	27	9	80	91	65	86.1	89.9	82.7	80.3	87.4	75.0	29.72	29.76	29.68	22.60	22.60	22.60
9/5/2009	225	305	19	1	13	0	4	13	0	14	26	8	81	89	67	85.0	88.6	82.7	78.0	87.0	73.4	29.80	29.85	29.75	22.60	22.61	22.60
9/6/2009	112	359	0	2	13	0	5	13	0	16	25	5	78	90	62	85.4	90.5	81.4	79.8	88.1	72.6	29.80	29.86	29.73	22.62	22.62	22.61
9/7/2009	45	359	0	2	13	0	6	13	0	15	25	7	77	88	64	85.9	89.2	82.6	79.9	87.1	73.9	29.73	29.80	29.67	22.62	22.62	22.62
9/8/2009	22	359	0	3	19	0	8	19	0	16	25	10	77	89	65	86.5	90.4	82.8	80.8	87.3	73.8	29.70	29.74	29.65	22.62	22.62	22.62
9/9/2009	45	359	0	3	17	0	10	17	0	16	21	9	69	80	60	87.6	91.3	84.5	83.3	87.7	78.5	29.71	29.76	29.67	22.62	22.63	22.62
9/10/2009	68	174	4	4	24	0	10	24	0	16	21	11	74	87	61	87.2	90.6	84.4	82.0	88.8	76.1	29.73	29.78	29.69	22.63	22.63	22.63
9/11/2009	112	264	0	2	12	0	6	12	0	19	27	12	78	90	63	86.7	90.0	83.5	81.4	88.0	75.5	29.74	29.79	29.67	22.93	22.98	22.63
9/12/2009	225	338	162	2	22	0	6	22	0	13	20	9	78	91	63	86.4	89.7	84.0	80.4	87.8	75.7	29.68	29.73	29.61	22.98	23.00	22.98
9/13/2009	225	359	1	3	29	0	8	29	0	16	26	10	82	89	57	85.7	89.9	82.7	79.4	91.6	74.7	29.66	29.70	29.60	23.16	23.54	23.00
9/14/2009	45	359	0	3	14	0	9	14	0	19	30	15	78	91	63	86.2	90.2	82.6	81.4	87.8	75.5	29.69	29.74	29.64	23.60	23.60	23.54
9/15/2009	45	359	0	3	12	0	7	12	0	11	18	4	66	83	52	87.2	91.1	84.0	82.6	87.7	76.1	29.70	29.75	29.66	23.60	23.60	23.60
9/16/2009	45	358	1	2	13	0	6	13	0	8	17	4	70	86	55	87.5	91.7	83.4	81.7	88.7	73.8	29.70	29.74	29.66	23.60	23.60	23.60
9/17/2009	90	153	4	2	15	0	7	15	0	7	14	3	67	83	56	87.9	91.7	84.1	82.3	88.2	74.4	29.72	29.77	29.68	23.60	23.60	23.60
9/18/2009	45	144	3	2	15	0	7	15	0	9	18	4	70	83	59	88.2	91.7	85.2	83.0	88.6	77.5	29.73	29.78	29.69	23.60	23.60	23.60
9/19/2009	45	359	1	3	18	0	8	18	0	13	22	4	74	86	61	87.9	91.9	84.4	82.3	88.5	75.2	29.76	29.80	29.72	23.60	23.62	23.60
9/20/2009	68	179	8	3	14	0	8	14	0	22	29	17	77	84	70	87.0	89.0	85.1	82.4	86.4	78.7	29.78	29.83	29.74	23.66	23.70	23.62
9/21/2009	45	358	0	2	14	0	7	14	0	17	24	10	72	87	58	87.7	92.1	84.0	83.2	88.9	75.7	29.77	29.82	29.72	23.70	23.70	23.70
9/22/2009	45	345	1	2	13	0	7	13	0	16	25	10	75	89	61	88.2	92.3	84.3	83.1	88.8	77.3	29.75	29.79	29.69	23.73	23.80	23.70
9/23/2009	68	230	6	2	17	0	8	17	0	20	27	11	81	90	70	85.1	87.2	83.0	79.4	83.9	73.7	29.76	29.84	29.72	23.98	24.04	23.80
9/24/2009	112	165	1	2	14	0	7	14	0	18	27	9	73	86	60	87.5	92.1	83.5	83.0	89.3	76.7	29.75	29.80	29.69	24.04	24.04	24.04
9/25/2009	45	359	0	2	13	0	6	13	0	14	20	9	76	89	62	87.9	91.5	84.2	81.9	87.4	75.9	29.77	29.82	29.72	24.09	24.10	24.04
9/26/2009	45	359	0	1	13	0	5	13	0	13	20	8	78	89	63	87.6	91.2	83.7	81.1	87.5	75.6	29.73	29.80	29.65	24.12	24.13	24.10
9/27/2009	248	344	154	3	18	0	9	18	0	12	23	5	74	89	52	88.4	92.5	84.5	83.3	92.8	76.4	29.63	29.70	29.54	24.13	24.13	24.13
9/28/2009	292	359	0	2	12	0	6	12	0	5	12	1	72	88	48	88.4	91.9	84.6	81.0	89.1	73.6	29.66	29.74	29.62	24.13	24.13	24.13
9/29/2009	270	355	0	3	18	0	7	18	0	4	15	1	68	86	41	87.5	92.2	82.6	81.1	92.8	69.3	29.68	29.75	29.60	24.13	24.13	24.13
9/30/2009	315	359	0	2	11	0	6	11	0	1	3	1	68	84	53	85.9	88.3	83.0	76.5	83.4	69.6	29.70	29.75	29.64	24.13	24.13	24.13
10/1/2009	45	359	0	3	17	0	8	17	0	3	13	1	70	80	54	84.5	88.8	80.7	76.8	86.2	68.6	29.71	29.77	29.65	24.13	24.13	24.13
10/2/2009	225	359	0	1	11	0	4	11	0	5	15	1	71	87	41	85.9	90.7	81.6	79.3	90.6	71.0	29.66	29.72	29.61	24.13	24.13	24.13
10/3/2009	315	359	0	1	11	0	4	11	0	2	5	1	67	80	47	86.0	91.3	81.6	78.1	89.5	69.1	29.69	29.75	29.64	24.13	24.13	24.13
10/4/2009	45	181	1	2	14	0	5	14	0	4	16	1	71	86	54	86.3	90.1	82.5	79.9	87.4	72.2	29.76	29.82	29.72	24.13	24.13	24.13
10/5/2009	225	323	117	2	17	0	5	17	0	3	9	1	70	85	47	87.1	91.3	83.0	82.0	93.4	73.1	29.73	29.78	29.66	24.13	24.13	24.13
10/6/2009	112	359	0	2	11	0	6	11	0	7	15	1	74	88	46	88.3	92.6	84.4	82.4	92.7	74.9	29.73	29.78	29.67	24.13	24.13	24.13
10/7/2009	225	359	0	2	11	0	7	11	0	12	21	2	76	88	49	88.3	92.9	84.4	82.8	93.3	75.9	29.79	29.86	29.74	24.13	24.13	24.13
10/8/2009	45	359	0	2	12	0	6	12	0	15	23	7	80	88	64	88.7	92.1	85.4	83.1	89.2	77.0	29.83	29.89	29.79	24.13	24.13	24.13
10/9/2009	135	205	35	2	16	0	6	16	0	13	22	8	76	89	59	89.0	92.9	85.7	84.1	91.1	77.6	29.79	29.85	29.72	24.13	24.13	24.13
10/10/2009	135	259	8	2	12	0	7	12	0	11	19	5	73	86	54	88.6	92.9	84.9	83.5	92.0	76.6	29.77	29.82	29.72	24.13	24.13	24.13
10/11/2009	45	359	0	2	13	0	6	13	0	12	18	7	74	86	59	88.6	92.4	85.3	83.1	89.7	76.8	29.80	29.85	29.76	24.13	24.13	24.13
10/12/2009	112	195	12	2	16	0	8	16	0	11	18	2	70	82	58	88.8	92.6	85.6	83.8	90.5	77.6	29.81	29.86	29.74	24.13	24.13	24.13
10/13/2009	45	358	0	2	12	0	5	12	0	7	14	2	72	86	54	87.8	91.5	84.0	81.2	89.8	72.9	29.79	29.84	29.74	24.14	24.14	24.13
10/14/2009	225	351	40	2	12	0	5	12	0	7	15	1	72	87	44	88.2	92.8	84.5	82.8	93.6	75.4	29.70	29.77	29.61	24.14	24.14	24.14
10/15/2009	248	359	0	2	13	0	6	13	0	6	17	1	74	88	47	88.1	91.7	84.6	81.8	92.4	74.8	29.59	29.66	29.51	24.14	24.14	24.14
10/16/2009	225	316	166	4	19	0	9	19	0	7	16	1	75	87	52	86.6	89.0	83.9	80.4	90.6	74.3	29.56	29.61	29.50	24.14	24.14	24.14
10/17/2009	315	359	0	3	18	0	9	18	0	4	10	1	72	88	50	82.5	85.7	77.6	71.7	77.8	60.0	29.69	29.82	29.61	24.15	24.15	24.14
10/18/2009	315	359	0	4	19	0	12	19	0	1	1	1	58	75	40	74.7	78.3	71.1	59.6	70.1	50.6	29.90	29.98	29.81	24.15	24.15	24.15
10/19/2009	315	359	0	5	24	0	13	24	2	1	1	1	61	74	46	73.0	76.7	68.7	64.3	75.5	51.6	29.97	30.03	29.92	24.15	24.15	24.15
10/20/2009	45	359	0	5	18	0	12	18	0	3	8	1	64	79	47	77.4	81.1	73.7	73.0	80.4	64.4	29.93	29.98	29.89	24.15	24.16	24.15
10/21/2009	68	149	4	5	18	0	12	18	0	7	14	2	64	82	53	80.8	84.9	77.8	77.5	83.6	73.4	29.88	29.93	29.82	24.16	24.18	24.16
10/22/2009	90	357	2	3	17	0	10	17	0	12	18	7	70	89	54	81.1	84.4	78.7	77.4	83.9	70.6	29.79	29.86	29.71	24.33	24.42	24.18
10/23/2009	112	198	74	3	17	0	8	17	0	11	22	5	72	88	56	83.2	87.0	79.1	78.5	86.6	69.9	29.71	29.76	29.66	24.42	24.42	24.42
10/24/2009	112	359	0	1	10	0	4	10	0	12	20	5	79	89	63	83.7	86.9	79.9	77.5	85.2	70.1	29.64	29.68	29.57	24.42	24.42	24.42
10/25/2009	0	359	0	2	11	0	7	11	0	14	22	5	79	93	66	83.6	87.2	80.0	76.9	84.2	69.5	29.69	29.77	29.63	24.42	24.42	24.42
10/26/2009	135	359	0	3	18	0	7	18	0	15	21	10	76	100	51	84.5	88.6	80.7	79.9	88.9	71.4	29.76	29.82	29.72	24.42	24.42	24.42
10/27/2009	135	270	90	4	19	0	11	19	0	21	27	15	76	85	61	85.7	88.8	83.4	82.3	89.1	78.5	29.74	29.80	29.66	24.42	24.42	24.42
10/28/2009	180	358	8	2	13	0	6	13	0	16	23	11	76	100	54	85.6	89.3	82.3	80.9	90.2	74.2	29.74	29.80	29.70	24.42	24.42	24.42
10/29/2009	45	358	0	2	11	0	4	11	0	16	30	8	81	100	67	85.5	89.1	81.9	79.6	86.2	71.8	29.79	29.86	29.75	24.42	24.42	24.42
10/30/2009	112	177	19	2	15	0	7	15	0	17	27	12	77	88	68	83.8	85.2	82.6	78.6	82.4	73.6	29.77	29.83	29.73	24.42	24.42	24.42
10/31/2009	112	214	38	2	14	0	7	14	0	10	17	4	69	85	55	84.1	87.9	80.1	78.6	86.3	69.4	29.74	29.79	29.67	24.42	24.42	24.42
11/1/2009	112	348	3	1	12	0	4	12	0	7	17	3	75	87	56	84.5	88.3	80.2	77.5	85.6	69.0	29.71	29.77	29.65	24.42	24.42	24.42
11/2/2009	0	359	0	2	13	0	6	13	0	12	20	2	80	89	68	84.1	87.1	81.7	77.7	83.2	73.0	29.74	29.78	29.70	24.42	24.42	24.42
11/3/2009	0	359	0	5	17	0	12	17	0	19	25	14	78	89	68	82.0	83.7	80.3	76.5	80.5	74.0	29.80	29.88	29.74	24.63	24.65	24.42
11/4/2009	45	359	1	5	15	0	12	15	1	12	16	6	65	74	53	82.0	85.1	79.7	78.8	83.3	76.0	29.89	29.93	29.85	24.65	24.65	24.65
11/5/2009	0	359	0	6	21	0	13	21	0	7	15	1	62	100	48	80.9	82.8	77.9	76.1	79.3	68.7	29.93	29.98	29.89	24.65	24.65	24.65
11/6/2009	45	359	0	7	19	0	15	19	0	1	1	1	52	64	43	78.7	81.8	76.7	74.9	79.3	66.2	29.96	30.00	29.93	24.65	24.65	24.65
11/7/2009	68	123	21	7	22	0	15	22	3	1	1	1	54	61	46	78.9	81.7	76.6	75.1	78.9	72.7	29.95	30.01	29.91	24.65	24.65	24.65
11/8/2009	68	139	27	6	24	0	16	24	2	3	9	1	59	74	48	80.2	83.3	78.0	76.9	82.5	73.9	29.93	29.98	29.89	24.65	24.65	24.65
11/9/2009	112	164	50	8	26	0	20	26	3	9	15	5	63	73	52	81.8	85.5	79.6	79.0	84.1	76.1	29.89	29.95	29.84	24.65	24.65	24.65
11/10/2009	135	218	85	6	22	0	14	22	0	14	19	5	70	75	63	82.0	84.2	80.4	78.2	82.8	76.0	29.76	29.87	29.66	24.65	24.65	24.65
11/11/2009	180	327	123	5	22	0	13	22	0	12	20	4	73	82	60	81.8	84.7	80.1	77.0	84.3	70.9	29.53	29.67	29.42	24.65	24.65	24.65
11/12/2009	315	359	0	5	16	0	12	16	0	3	7	1	74	86	65	76.1	80.3	71.6	63.5	70.9	58.3	29.57	29.67	29.47	24.65	24.65	24.65
11/13/2009	292	357	225	5	25	0	12	25	0	1	1	1	61	81	41	73.1	77.7	68.8	64.3	76.9	52.6	29.66	29.72	29.59	24.65	24.65	24.65
11/14/2009	292	359	0	1	14	0	6	14	0	1	6	1	71	85	50	74.5	78.6	69.9	65.2	76.5	55.9	29.76	29.82	29.69	24.65	24.65	24.65
11/15/2009	292	359	0	1	14	0	5	14	0	1	5	1	68	84	44	74.4	78.7	69.7	65.9	77.6	55.0	29.83	29.90	29.78	24.66	24.66	24.65
11/16/2009	0	359	0	2	13	0	7	13	0	5	12	1	76	84	55	75.3	79.1	72.0	69.0	78.5	59.6	29.81	29.89	29.76	24.66	24.66	24.66
11/17/2009	0	359	0	1	11	0	5	11	0	8	12	5	74	85	51	77.7	80.8	75.3	72.3	80.2	67.0	29.79	29.85	29.75	24.66	24.66	24.66
11/18/2009	45	359	0	2	12	0	3	12	0	4	11	1	73	87	48	77.6	81.2	73.7	70.2	80.5	61.2	29.84	29.90	29.80	24.66	24.66	24.66
11/19/2009	0	359	0	2	12	0	5	12	0	6	12	1	76	88	54	77.3	80.9	73.4	70.3	79.3	61.9	29.86	29.92	29.81	24.67	24.67	24.66
11/20/2009	0	359	0	3	16	0	7	16	0	14	23	7	82	90	70	77.9	80.6	75.3	71.5	77.9	66.3	29.82	29.87	29.77	24.67	24.67	24.67
11/21/2009	22	359	0	2	14	0	6	14	0	17	25	10	80	89	69	78.0	81.6	74.4	72.1	79.5	64.5	29.80	29.85	29.76	24.68	24.68	24.67
11/22/2009	180	251	39	1	13	0	4	13	0	20	24	16	81	90	60	78.6	81.4	76.2	74.5	82.2	68.5	29.81	29.87	29.75	24.69	24.70	24.68
11/23/2009	45	359	0	1	12	0	4	12	0	20	25	16	82	100	72	79.2	81.6	76.9	73.4	79.3	68.6	29.86	29.92	29.81	24.70	24.70	24.70
11/24/2009	45	359	0	1	10	0	5	10	0	24	30	17	83	100	68	79.1	81.8	77.0	74.4	81.2	69.2	29.85	29.92	29.78	24.70	24.70	24.70
11/25/2009	315	359	0	1	11	0	4	11	0	22	25	20	87	91	79	77.4	78.9	75.3	71.2	74.9	67.1	29.76	29.81	29.72	24.76	24.90	24.70
11/26/2009	315	359	0	2	14	0	8	14	0	14	23	1	79	91	52	75.1	78.6	72.1	65.6	75.0	55.1	29.77	29.86	29.70	24.90	24.90	24.90
11/27/2009	315	359	0	3	16	0	9	16	0	1	1	1	55	78	28	70.0	73.9	66.1	55.8	68.5	47.5	29.93	30.03	29.86	24.90	24.90	24.90
11/28/2009	315	359	0	1	10	0	4	10	0	1	1	1	63	81	29	67.0	70.7	62.4	54.5	67.1	43.4	29.98	30.06	29.92	24.90	24.90	24.90
11/29/2009	0	359	0	1	9	0	4	9	0	4	14	1	73	100	50	69.8	75.0	64.7	62.1	74.0	51.8	29.96	30.04	29.90	24.90	24.90	24.90
11/30/2009	225	303	67	2	16	0	4	16	0	4	12	1	72	89	48	72.7	77.5	67.9	66.7	79.9	56.1	29.87	29.96	29.79	24.90	24.90	24.90
12/1/2009	45	359	0	1	11	0	4	11	0	10	17	2	77	86	58	74.5	78.3	70.1	68.5	76.6	58.7	29.81	29.89	29.76	24.90	24.90	24.90
12/2/2009	180	229	95	6	22	0	15	22	0	21	29	15	73	85	57	78.9	82.3	75.2	77.4	86.0	68.6	29.68	29.76	29.60	24.90	24.90	24.90
12/3/2009	180	359	0	4	19	0	10	19	0	24	32	15	79	89	59	79.8	81.0	77.4	75.1	79.1	68.6	29.74	29.86	29.64	24.94	24.96	24.90
12/4/2009	315	359	0	2	16	0	8	16	0	15	27	11	85	90	77	73.8	77.4	70.3	64.8	69.6	59.4	29.84	29.88	29.77	25.25	25.82	24.96
12/5/2009	315	359	0	2	18	0	9	18	0	25	33	10	88	100	83	70.8	72.8	67.5	63.3	69.4	52.3	29.81	29.97	29.72	26.57	26.87	25.82
12/6/2009	315	359	0	4	15	0	9	15	1	17	28	5	77	87	63	68.8	73.2	63.8	62.7	72.8	48.6	29.99	30.07	29.95	26.87	26.87	26.87
12/7/2009	112	168	34	2	14	0	8	14	0	35	43	28	81	90	71	76.2	79.7	73.1	74.9	80.2	71.7	29.93	29.99	29.88	26.87	26.87	26.87
12/8/2009	135	208	78	2	17	0	8	17	0	35	43	30	84	91	73	78.0	80.8	74.8	75.1	81.1	68.2	29.86	29.95	29.77	26.87	26.87	26.87
12/9/2009	202	273	146	5	25	0	11	25	0	31	39	21	79	91	61	79.5	83.1	76.6	76.9	85.4	71.6	29.73	29.80	29.65	26.88	26.88	26.87
12/10/2009	0	359	0	4	18	0	11	18	1	21	34	7	80	91	59	77.4	82.0	72.1	71.0	83.9	62.4	29.83	30.00	29.73	26.88	26.88	26.88
12/11/2009	45	359	0	5	16	0	11	16	1	12	15	7	67	74	59	72.8	74.3	71.5	69.0	73.9	62.2	30.06	30.15	29.98	26.88	26.88	26.88
12/12/2009	90	192	3	5	15	0	12	15	0	25	36	14	77	89	66	75.1	77.2	72.9	72.7	76.9	70.1	30.08	30.14	30.02	27.03	27.22	26.88
12/13/2009	135	297	91	4	18	0	10	18	0	33	42	23	77	87	51	79.3	83.8	76.1	77.3	86.5	71.9	29.96	30.02	29.89	27.23	27.23	27.22
12/14/2009	45	359	0	1	9	0	3	9	0	27	36	20	85	90	72	79.3	82.4	76.6	73.5	80.3	68.6	29.92	29.99	29.87	27.23	27.23	27.23
12/15/2009	112	344	4	1	13	0	3	13	0	23	35	18	83	91	65	78.3	81.6	74.7	72.3	81.5	64.7	29.90	29.95	29.84	27.24	27.25	27.23
12/16/2009	0	359	0	3	18	0	9	18	0	25	32	19	85	92	73	76.8	79.1	74.6	70.6	76.3	65.7	29.94	29.99	29.90	27.31	27.82	27.25
12/17/2009	68	145	8	7	21	0	16	21	4	32	36	29	81	88	74	74.0	75.6	72.2	70.7	73.4	68.2	29.90	29.97	29.81	27.94	28.15	27.82
12/18/2009	180	289	44	6	24	0	17	24	2	38	43	26	86	91	78	74.0	75.8	72.3	70.8	73.7	66.5	29.58	29.82	29.40	29.62	29.96	28.15
12/19/2009	270	331	218	7	27	0	16	27	0	6	26	1	67	84	48	69.5	73.5	67.1	59.5	66.8	53.1	29.71	29.88	29.45	29.96	29.96	29.96
12/20/2009	315	359	0	4	18	0	8	18	0	1	1	1	61	81	34	65.8	68.9	63.3	53.6	62.5	47.8	30.02	30.14	29.88	29.96	29.96	29.96
12/21/2009	315	359	0	2	14	0	7	14	0	1	2	1	68	76	56	63.4	66.4	60.1	52.1	61.8	44.3	30.16	30.24	30.10	29.96	29.96	29.96
12/22/2009	0	359	0	2	11	0	6	11	0	3	8	1	66	75	57	64.8	68.2	61.4	58.4	66.7	49.8	30.11	30.18	30.05	29.96	29.96	29.96
12/23/2009	68	359	0	3	14	0	8	14	0	4	10	1	60	72	47	69.5	73.3	66.1	67.2	73.8	59.4	30.00	30.07	29.92	29.96	29.96	29.96
12/24/2009	112	177	32	5	22	0	13	22	1	12	26	7	66	84	55	73.5	77.1	70.3	71.7	77.8	67.1	29.85	29.92	29.76	29.96	29.97	29.96
12/25/2009	180	327	102	4	21	0	12	21	0	27	33	14	82	89	65	76.2	79.7	74.0	73.1	81.8	62.9	29.74	29.81	29.66	30.00	30.02	29.97
12/26/2009	315	359	0	2	15	0	6	15	0	6	14	1	77	86	58	71.1	74.8	68.6	58.6	63.1	53.9	29.89	29.98	29.78	30.02	30.02	30.02
12/27/2009	315	359	0	3	14	0	7	14	0	5	10	1	75	81	65	68.3	71.1	65.1	59.0	66.7	51.4	29.96	30.04	29.88	30.02	30.02	30.02
12/28/2009	315	359	0	4	21	0	10	21	0	2	5	1	61	79	42	68.7	73.4	65.7	60.1	72.6	47.6	29.98	30.10	29.90	30.02	30.02	30.02
12/29/2009	315	359	0	4	13	0	9	13	0	1	1	1	66	80	49	63.1	65.7	59.7	50.3	58.2	39.8	30.17	30.25	30.10	30.02	30.02	30.02
12/30/2009	315	359	0	2	14	0	6	14	0	4	17	1	72	87	51	65.7	71.4	59.8	60.0	73.9	46.7	30.17	30.26	30.07	30.02	30.02	30.02
12/31/2009	202	274	111	1	14	0	4	14	0	8	19	5	72	89	49	71.3	75.8	66.4	68.1	78.6	57.6	30.02	30.12	29.94	30.02	30.02	30.02
																											
Date		Wind	Hi	Lo	Wind	Hi	Lo	Wind	Hi	Lo	Hum	Hi	Lo	Hum	Hi	Lo	Temp	Hi	Lo	Temp	Hi	Lo	Raw	Hi	Lo	Tot	Hi	Lo
		Dir			Speed	Mph	Mph	Gust	Mph	Mph	In%	%	%	Out%	%	%	Inside	F	F	F	F	F	Barom	in	in	Rain	in	in
					Mph			Mph									F						Inches

1/1/2010	315	359	0	3	20	0	8	20	0	9	21	2	85	90	77	69.6	72.7	64.1	60.8	67.0	48.5	29.89	30.00	29.77	0.14	0.14	0.00
1/2/2010	315	359	0	4	19	0	10	19	0	1	3	1	65	87	37	61.8	64.2	59.0	48.3	57.1	41.1	30.06	30.14	29.99	0.14	0.14	0.14
1/3/2010	315	359	0	3	11	0	7	11	0	1	1	1	63	75	50	57.9	59.9	55.4	44.5	51.6	37.2	30.09	30.17	30.03	0.14	0.14	0.14
1/4/2010	315	358	0	3	14	0	9	14	0	1	1	1	44	63	16	56.9	61.9	52.5	45.0	58.0	34.6	30.09	30.18	30.00	0.14	0.14	0.14
1/5/2010	292	354	217	4	20	0	9	20	0	38	100	1	51	75	22	56.0	59.7	53.2	42.6	53.1	34.8	30.18	30.26	30.12	0.14	0.14	0.14
1/6/2010	315	359	0	3	21	0	8	21	0	69	100	1	46	73	13	53.8	59.1	49.3	40.0	55.1	30.4	30.25	30.34	30.14	0.14	0.14	0.14
1/7/2010	292	359	0	1	9	0	4	9	0	46	100	1	50	71	24	54.7	59.7	49.0	44.0	57.1	31.3	30.22	30.34	30.13	0.14	0.14	0.14
1/8/2010	225	359	0	3	15	0	7	15	0	1	1	1	61	81	29	58.9	65.5	53.0	53.0	71.9	38.6	30.07	30.16	29.94	0.14	0.14	0.14
1/9/2010	315	359	0	5	18	0	12	18	1	1	1	1	76	85	62	54.4	60.5	49.4	39.4	48.8	33.1	30.19	30.33	30.06	0.43	0.43	0.14
1/10/2010	315	359	0	6	22	0	15	22	0	5	100	1	49	63	28	49.9	54.2	46.4	37.9	48.8	31.1	30.39	30.49	30.30	0.43	0.43	0.43
1/11/2010	315	359	0	3	16	0	9	16	0	1	100	1	58	77	46	52.3	57.7	47.0	42.6	56.1	32.0	30.43	30.53	30.34	0.43	0.43	0.43
1/12/2010	292	359	0	4	17	0	9	17	0	1	1	1	58	79	32	55.2	61.6	48.9	45.9	61.9	31.8	30.34	30.45	30.22	0.43	0.43	0.43
1/13/2010	315	359	0	1	11	0	4	11	0	1	1	1	67	83	38	57.3	62.5	51.6	47.9	61.0	35.8	30.31	30.42	30.24	0.43	0.43	0.43
1/14/2010	0	359	0	2	12	0	5	12	0	4	11	1	77	85	62	62.1	66.8	56.8	56.4	66.7	45.8	30.23	30.31	30.15	0.43	0.43	0.43
1/15/2010	112	359	0	2	18	0	6	18	0	10	22	1	77	86	57	66.9	72.5	61.8	63.5	74.9	51.6	30.13	30.20	30.03	0.43	0.43	0.43
1/16/2010	135	193	88	6	26	0	16	26	2	27	33	21	77	84	66	72.1	75.7	69.0	70.9	77.3	65.7	29.96	30.05	29.85	0.43	0.43	0.43
1/17/2010	248	309	90	8	29	0	18	29	2	22	35	5	71	90	54	74.7	77.9	71.5	72.2	80.1	62.4	29.79	29.88	29.70	0.68	0.68	0.43
1/18/2010	270	337	188	3	19	0	8	19	0	5	10	1	73	86	51	69.9	73.6	66.4	60.8	71.2	52.3	29.93	30.01	29.88	0.68	0.68	0.68
1/19/2010	292	359	0	1	10	0	4	10	0	2	9	1	76	100	54	66.6	70.4	62.3	56.4	68.1	46.6	30.00	30.09	29.94	0.69	0.69	0.68
1/20/2010	315	357	3	1	8	0	3	8	0	3	11	1	74	87	52	67.2	71.6	62.0	59.8	70.8	48.1	29.94	30.05	29.86	0.70	0.70	0.69
1/21/2010	202	282	126	4	25	0	11	25	0	15	30	2	74	89	56	72.1	77.0	67.1	71.3	82.8	59.9	29.78	29.86	29.68	0.70	0.70	0.70
1/22/2010	202	328	157	4	20	0	11	20	0	26	33	17	82	90	65	75.8	78.8	74.1	72.3	80.3	62.9	29.69	29.76	29.62	0.93	0.93	0.70
1/23/2010	90	359	0	4	17	0	9	17	0	16	29	9	75	92	59	73.2	76.0	69.8	68.1	74.7	59.5	29.82	29.88	29.75	0.94	0.94	0.93
1/24/2010	135	254	68	6	26	0	17	26	3	46	76	16	75	100	65	75.4	83.6	72.6	73.2	79.4	69.2	29.73	29.83	0.00	0.95	0.95	0.94
1/25/2010	292	356	128	6	24	0	15	24	0	64	81	41	67	85	33	74.4	76.1	68.7	68.0	74.4	52.5	29.70	29.94	29.58	1.01	1.01	0.95
1/26/2010	292	359	0	3	18	0	9	18	0	41	48	36	58	81	29	68.5	73.2	63.7	58.5	71.0	47.9	30.02	30.11	29.94	1.01	1.01	1.01
1/27/2010	0	359	0	2	15	0	6	15	0	38	43	34	62	79	39	65.5	68.8	61.5	54.8	64.1	44.6	30.17	30.24	30.10	1.01	1.01	1.01
1/28/2010	0	359	0	2	12	0	4	12	0	48	59	38	75	100	60	66.7	71.4	61.8	58.6	69.1	49.4	30.15	30.24	30.07	1.01	1.01	1.01
1/29/2010	112	175	22	2	16	0	5	16	0	54	64	47	75	88	56	69.3	74.3	64.1	64.2	74.8	52.2	29.99	30.09	29.88	1.01	1.01	1.01
1/30/2010	180	281	127	5	24	0	12	24	0	60	70	56	72	83	55	73.7	77.4	69.5	71.7	81.0	62.4	29.75	29.88	29.66	1.01	1.01	1.01
1/31/2010	0	359	0	4	19	0	14	19	2	55	61	50	76	88	64	68.5	75.2	65.5	60.7	70.0	56.2	29.93	30.03	29.70	1.02	1.02	1.01
2/1/2010	68	352	6	5	18	0	13	18	0	72	86	57	81	91	65	68.1	70.5	-25.8	65.6	68.3	-25.8	29.98	30.06	29.89	1.08	1.28	1.02
2/2/2010	180	359	0	3	20	0	9	20	0	80	86	70	85	90	68	72.2	75.3	69.7	68.7	77.5	61.9	29.82	29.89	29.75	1.49	1.80	1.28
2/3/2010	0	359	0	4	17	0	11	17	0	62	71	58	77	100	65	66.9	70.0	64.7	58.9	63.0	55.7	29.98	30.05	29.88	1.80	1.80	1.80
2/4/2010	112	359	0	3	17	0	8	17	0	64	72	59	75	91	52	68.6	73.4	63.2	64.7	74.9	52.5	30.00	30.07	29.89	1.81	1.81	1.80
2/5/2010	135	310	83	7	36	0	16	36	3	75	79	69	80	89	64	73.0	75.9	70.7	70.7	77.9	65.9	29.73	29.90	29.57	1.99	2.40	1.81
2/6/2010	270	327	194	6	27	0	16	27	1	58	74	41	69	86	47	70.2	73.2	66.5	62.8	72.1	52.5	29.65	29.78	29.57	2.40	2.40	2.40
2/7/2010	315	359	0	2	15	0	8	15	0	42	44	37	65	80	46	64.0	66.7	61.8	51.5	59.7	46.3	29.88	29.97	29.77	2.40	2.40	2.40
2/8/2010	315	359	0	2	8	0	4	8	0	47	55	40	75	85	60	62.7	67.7	58.2	53.1	63.7	43.0	29.99	30.07	29.92	2.40	2.40	2.40
2/9/2010	180	310	5	3	23	0	8	23	0	59	70	50	78	90	37	67.8	72.4	62.0	63.4	77.2	52.0	29.92	30.03	29.85	2.43	2.48	2.40
2/10/2010	292	359	0	6	19	0	13	19	0	52	70	39	57	88	27	67.2	70.5	62.0	55.4	65.5	43.8	30.02	30.14	29.89	2.48	2.48	2.48
2/11/2010	315	359	0	2	13	0	6	13	0	40	44	37	59	80	39	60.4	62.9	56.3	46.8	55.2	38.1	30.08	30.16	29.99	2.48	2.48	2.48
2/12/2010	292	359	0	3	28	0	10	28	0	55	65	44	76	92	66	62.9	66.9	59.2	56.6	68.2	48.5	29.82	30.03	29.57	2.60	2.89	2.48
2/13/2010	315	358	0	5	21	0	13	21	0	48	55	44	67	100	48	59.6	62.4	57.0	47.2	54.0	40.4	29.99	30.11	29.81	2.89	2.89	2.89
2/14/2010	315	359	0	2	10	0	5	10	0	47	51	44	70	100	54	57.2	60.8	53.2	45.8	54.6	36.8	30.15	30.22	30.10	2.89	2.89	2.89
2/15/2010	180	359	0	2	19	0	6	19	0	50	59	45	62	100	37	62.5	71.0	54.2	55.7	72.5	39.5	30.05	30.15	29.95	2.89	2.89	2.89
2/16/2010	292	359	0	6	21	0	14	21	1	40	50	35	52	75	34	64.5	67.5	60.5	53.7	61.2	43.0	30.08	30.16	29.98	2.89	2.89	2.89
2/17/2010	292	359	0	4	24	0	12	24	0	37	41	34	58	82	35	60.6	65.3	55.5	49.0	60.7	39.0	30.12	30.20	30.06	2.89	2.89	2.89
2/18/2010	292	359	0	3	16	0	8	16	0	37	42	33	53	85	22	60.7	66.7	55.4	50.1	63.9	39.8	30.20	30.26	30.16	2.89	2.89	2.89
2/19/2010	315	359	0	1	9	0	4	9	0	38	42	33	61	81	33	60.0	63.6	55.8	50.6	61.9	40.8	30.23	30.30	30.17	2.89	2.89	2.89
2/20/2010	45	359	0	1	10	0	3	10	0	46	51	42	66	100	8	63.8	68.2	59.7	58.0	67.5	51.3	30.20	30.25	30.15	2.89	2.89	2.89
2/21/2010	135	359	0	2	16	0	6	16	0	53	65	47	68	100	40	67.5	73.7	60.9	63.2	75.6	50.4	30.13	30.19	30.03	2.89	2.89	2.89
2/22/2010	180	359	0	3	17	0	10	17	0	57	62	52	69	84	56	72.2	76.3	67.4	69.1	77.5	60.5	29.89	30.05	29.79	2.89	2.89	2.89
2/23/2010	45	359	0	2	12	0	5	12	0	63	68	59	83	100	65	72.9	76.0	70.4	66.5	77.0	59.8	29.82	29.89	29.76	2.89	2.89	2.89
2/24/2010	315	359	0	2	22	0	6	22	0	64	71	58	84	90	75	70.5	73.5	67.2	63.5	70.9	53.4	29.83	29.90	29.69	3.05	3.17	2.89
2/25/2010	315	359	0	6	25	0	15	25	0	42	58	34	52	86	24	64.2	67.8	60.9	51.6	62.2	42.6	30.05	30.13	29.89	3.17	3.17	3.17
2/26/2010	315	359	0	2	14	0	6	14	0	35	40	33	52	86	27	60.6	64.1	55.6	47.8	58.6	36.7	30.11	30.19	30.03	3.17	3.17	3.17
2/27/2010	315	359	0	2	12	0	6	12	0	43	49	36	75	88	46	58.1	60.5	55.8	47.1	56.5	40.7	29.94	30.05	29.78	3.19	3.23	3.17
2/28/2010	292	357	0	4	20	0	10	20	0	43	50	36	57	89	28	60.5	67.0	54.6	53.0	66.8	40.5	30.06	30.12	29.95	3.24	3.24	3.23
3/1/2010	45	359	0	2	13	0	6	13	0	43	50	37	64	100	31	62.8	68.2	56.0	54.2	65.5	39.4	30.07	30.16	29.95	3.24	3.24	3.24
3/2/2010	248	321	109	8	29	0	18	29	0	55	70	47	69	86	44	66.7	71.9	62.5	63.2	77.2	53.9	29.77	29.96	29.64	3.28	3.30	3.24
3/3/2010	292	354	207	7	26	0	17	26	2	43	49	37	57	74	41	62.3	65.4	59.6	52.8	60.0	44.6	29.94	30.05	29.79	3.30	3.30	3.30
3/4/2010	292	351	215	5	25	0	11	25	0	38	46	33	54	88	24	60.5	65.9	55.8	50.4	63.2	41.4	30.10	30.19	30.03	3.30	3.30	3.30
3/5/2010	0	359	0	2	15	0	8	15	0	36	40	33	54	78	29	60.8	66.1	54.8	50.8	60.5	37.3	30.18	30.23	30.13	3.30	3.30	3.30
3/6/2010	0	359	0	3	16	0	10	16	0	39	44	37	59	100	38	61.5	66.0	56.6	53.0	62.6	41.1	30.25	30.29	30.19	3.30	3.30	3.30
3/7/2010	0	359	0	2	13	0	6	13	0	45	50	40	67	100	39	62.8	68.1	56.7	54.8	65.2	41.8	30.28	30.35	30.23	3.30	3.30	3.30
3/8/2010	45	359	0	2	12	0	4	12	0	46	60	40	66	90	39	65.8	71.2	59.3	58.0	69.3	46.1	30.19	30.28	30.12	3.30	3.30	3.30
3/9/2010	112	229	11	1	12	0	4	12	0	49	58	42	69	85	52	67.1	70.9	63.2	61.6	70.0	52.1	30.13	30.20	30.08	3.31	3.32	3.30
3/10/2010	135	195	52	3	24	0	9	24	0	54	60	50	72	100	18	70.7	76.2	63.5	65.9	77.3	51.7	30.05	30.12	30.00	3.32	3.32	3.32
3/11/2010	135	359	0	5	31	0	14	31	0	71	78	60	83	94	76	72.7	74.8	70.8	69.3	72.8	65.9	29.88	30.06	29.64	3.80	5.22	3.32
3/12/2010	180	359	0	2	19	0	8	19	0	73	75	70	90	97	89	70.2	71.3	68.7	65.1	68.2	62.9	29.77	29.93	29.67	5.93	6.50	5.22
3/13/2010	270	337	164	6	26	0	16	26	0	61	76	46	65	100	33	70.7	74.6	67.0	65.9	74.4	58.0	29.77	29.87	29.66	6.51	6.51	6.50
3/14/2010	248	341	188	6	24	0	14	24	0	48	56	40	57	80	35	70.1	74.8	65.9	63.9	74.0	54.8	29.90	29.99	29.83	6.51	6.51	6.51
3/15/2010	270	334	199	5	32	0	13	32	0	47	58	40	62	100	34	70.5	75.9	65.8	63.3	75.9	53.3	29.95	30.04	29.88	6.51	6.51	6.51
3/16/2010	315	359	0	2	14	0	7	14	0	45	48	43	68	100	36	68.6	70.9	65.0	58.7	65.0	50.7	30.05	30.11	30.01	6.51	6.51	6.51
3/17/2010	225	353	3	2	15	0	6	15	0	51	55	47	71	85	35	67.8	72.0	64.5	60.7	70.3	54.4	30.03	30.11	29.94	6.51	6.51	6.51
3/18/2010	270	359	0	5	26	0	12	26	0	47	53	40	64	90	35	68.5	73.3	64.4	60.3	71.2	52.7	30.00	30.08	29.94	6.51	6.51	6.51
3/19/2010	292	359	0	3	15	0	7	15	0	46	53	43	67	100	38	68.6	73.2	63.3	59.2	69.8	49.5	30.12	30.18	30.06	6.51	6.51	6.51
3/20/2010	112	357	0	3	15	0	6	15	0	46	52	43	67	100	41	70.2	75.9	63.7	62.2	74.4	50.1	30.17	30.22	30.14	6.51	6.51	6.51
3/21/2010	135	344	87	6	37	0	13	37	0	62	71	51	77	89	64	72.3	77.4	69.1	68.1	79.8	61.7	30.06	30.19	29.97	6.72	7.25	6.51
3/22/2010	270	358	0	5	24	0	11	24	0	58	65	50	72	90	44	70.6	73.9	67.0	63.8	73.2	57.6	30.06	30.13	29.99	7.33	7.36	7.25
3/23/2010	248	359	3	3	17	0	8	17	0	51	55	47	66	100	7	71.0	76.4	66.2	63.1	74.1	55.2	30.11	30.19	30.07	7.36	7.36	7.36
3/24/2010	45	359	0	2	11	0	5	11	0	51	56	47	71	100	39	71.0	75.9	65.2	62.3	72.4	50.4	30.19	30.24	30.15	7.36	7.36	7.36
3/25/2010	135	231	58	4	23	0	10	23	0	57	61	54	72	100	3	73.2	77.7	68.1	68.8	77.2	58.0	30.10	30.19	29.99	7.36	7.36	7.36
3/26/2010	248	355	7	5	22	0	11	22	0	63	72	52	75	100	48	75.9	81.3	71.6	71.7	82.9	62.6	29.95	30.04	29.89	7.63	7.66	7.36
3/27/2010	68	359	0	4	16	0	9	16	0	56	67	51	71	100	48	74.6	79.2	68.9	67.4	77.0	55.5	30.11	30.19	30.03	7.66	7.66	7.66
3/28/2010	112	359	0	6	22	0	14	22	0	65	69	61	76	90	55	74.5	77.5	72.0	70.3	76.2	64.9	30.07	30.19	29.95	7.80	8.59	7.66
3/29/2010	270	325	8	5	28	0	12	28	0	66	76	48	78	94	51	72.8	76.4	69.6	67.2	75.6	57.4	29.84	29.96	29.76	8.86	8.96	8.59
3/30/2010	270	355	0	4	19	0	10	19	0	49	59	43	59	100	28	71.3	77.1	65.8	63.3	75.1	52.2	30.05	30.15	29.95	8.96	8.96	8.96
3/31/2010	68	359	0	2	11	0	5	11	0	45	52	41	62	100	35	72.1	76.9	65.6	62.3	73.5	49.6	30.18	30.23	30.13	8.96	8.96	8.96
4/1/2010	45	359	0	1	11	0	4	11	0	46	52	41	68	100	28	73.1	78.0	67.0	63.8	74.5	53.1	30.21	30.27	30.17	8.96	8.96	8.96
4/2/2010	45	359	0	2	13	0	4	13	0	53	64	44	76	100	30	74.7	80.1	68.0	66.6	77.8	54.8	30.18	30.23	30.14	8.96	8.96	8.96
4/3/2010	90	192	6	3	14	0	7	14	0	56	66	51	74	100	3	76.2	81.4	70.0	69.7	79.9	58.1	30.17	30.21	30.12	8.97	8.97	8.96
4/4/2010	90	359	0	3	13	0	7	13	0	56	62	51	70	100	35	76.6	81.2	71.7	70.4	79.4	60.4	30.24	30.29	30.17	8.97	8.97	8.97
4/5/2010	45	359	0	2	14	0	7	14	0	54	60	50	67	100	4	76.8	81.1	72.5	71.2	78.6	61.9	30.29	30.34	30.24	8.97	8.97	8.97
4/6/2010	112	231	18	3	16	0	8	16	0	52	59	47	66	100	11	77.3	82.3	72.4	71.5	80.7	61.4	30.24	30.29	30.19	8.97	8.97	8.97
4/7/2010	135	226	52	4	21	0	11	21	0	53	58	49	63	100	34	78.6	83.6	73.8	74.2	82.6	65.2	30.15	30.21	30.10	8.97	8.97	8.97
4/8/2010	158	268	55	4	20	0	11	20	0	58	63	56	69	87	36	79.4	84.4	74.6	75.2	86.2	67.1	30.06	30.13	29.98	8.97	8.97	8.97
4/9/2010	45	359	0	4	20	0	10	20	0	61	68	57	77	100	13	78.7	82.5	76.0	73.2	83.8	69.3	30.09	30.21	30.02	8.97	8.97	8.97
4/10/2010	45	359	0	5	16	0	12	16	2	55	62	50	63	100	51	76.4	80.3	72.7	72.1	77.0	68.7	30.28	30.35	30.19	8.97	8.97	8.97
4/11/2010	68	137	2	5	17	0	11	17	0	61	65	56	70	100	61	76.1	78.6	74.3	72.1	76.7	70.0	30.25	30.31	30.20	8.97	8.97	8.97
4/12/2010	45	359	0	5	21	0	12	21	0	62	67	56	68	100	45	76.5	80.5	73.7	72.8	77.5	70.0	30.19	30.23	30.15	8.97	8.97	8.97
4/13/2010	68	359	0	5	18	0	13	18	0	63	68	59	72	100	36	77.5	82.0	73.7	73.6	79.7	69.6	30.22	30.28	30.16	8.97	8.97	8.97
4/14/2010	68	359	0	7	22	0	15	22	3	58	66	50	65	100	6	76.7	80.2	73.7	73.0	78.0	70.1	30.32	30.38	30.25	8.97	8.97	8.97
4/15/2010	68	129	4	6	21	0	14	21	2	59	66	53	65	100	1	76.9	81.3	73.8	73.4	79.4	70.5	30.31	30.41	30.28	8.97	8.97	8.97
4/16/2010	90	170	19	6	22	0	14	22	0	53	57	50	61	100	34	76.2	79.9	72.9	72.5	78.2	69.1	30.22	30.31	30.15	8.97	8.97	8.97
4/17/2010	112	222	20	3	14	0	8	14	0	56	60	53	66	100	30	77.3	80.9	74.1	73.3	79.4	68.6	30.08	30.16	30.01	8.97	8.97	8.97
4/18/2010	22	359	0	2	15	0	5	15	0	62	71	57	78	90	58	76.5	78.4	73.4	71.5	77.9	66.0	29.98	30.03	29.93	9.02	9.86	8.97
4/19/2010	22	359	0	3	14	0	8	14	0	65	71	56	75	100	2	76.3	83.5	72.4	71.2	78.7	65.7	29.98	30.14	29.92	9.87	9.87	9.86
4/20/2010	112	359	0	3	15	0	9	15	0	61	67	55	71	100	46	77.9	82.2	73.8	72.4	79.1	64.4	30.02	30.08	29.98	9.87	9.88	9.87
4/21/2010	158	359	0	2	14	0	6	14	0	62	66	58	79	100	7	77.7	82.7	73.6	71.2	80.3	63.6	29.94	30.00	29.89	10.14	10.19	9.88
4/22/2010	45	359	0	2	12	0	6	12	0	55	64	47	72	100	36	78.4	82.7	73.3	70.7	79.2	61.8	30.00	30.07	29.93	10.20	10.20	10.19
4/23/2010	135	223	36	3	19	0	7	19	0	54	64	47	69	100	28	79.4	84.8	74.0	73.4	83.8	62.2	30.08	30.14	30.01	10.20	10.20	10.20
4/24/2010	135	210	47	6	22	0	12	22	0	57	66	51	72	100	9	80.3	85.3	75.2	75.0	83.8	64.9	30.07	30.14	30.02	10.20	10.20	10.20
4/25/2010	180	347	109	5	26	0	12	26	0	63	69	58	71	100	52	81.4	85.6	77.0	78.1	88.7	70.3	29.92	30.03	29.81	10.20	10.20	10.20
4/26/2010	248	359	0	6	20	0	13	20	0	60	71	46	70	100	33	79.9	84.8	75.5	74.7	87.4	66.3	29.75	29.93	29.65	11.33	11.60	10.20
4/27/2010	248	329	107	5	19	0	12	19	0	50	58	43	62	100	15	80.2	86.1	74.3	74.3	87.3	62.6	29.87	29.93	29.81	11.60	11.60	11.60
4/28/2010	315	359	0	2	12	0	7	12	0	43	49	39	58	100	17	78.7	82.2	75.1	68.9	75.2	62.2	30.04	30.12	29.91	11.60	11.60	11.60
4/29/2010	112	359	0	3	21	0	9	21	0	50	57	42	69	100	39	77.6	82.5	72.2	70.2	80.7	58.7	30.12	30.19	30.06	11.60	11.60	11.60
4/30/2010	135	211	59	6	24	0	14	24	0	59	68	54	69	100	14	80.4	85.4	76.3	76.6	84.8	70.5	30.11	30.16	30.06	11.60	11.60	11.60
5/1/2010	135	220	59	5	23	0	14	23	0	66	73	61	76	100	39	83.2	88.5	78.5	79.4	87.8	73.2	30.10	30.15	30.05	11.60	11.60	11.60
5/2/2010	135	233	69	6	25	0	14	25	0	67	73	61	76	100	38	84.1	89.7	79.5	79.9	89.9	73.8	30.12	30.19	30.07	11.60	11.60	11.60
5/3/2010	135	236	54	6	19	0	14	19	2	67	74	60	76	100	38	84.5	90.0	79.7	80.5	90.4	74.0	30.13	30.18	30.09	11.60	11.60	11.60
5/4/2010	112	290	70	5	16	0	11	16	0	66	73	61	78	100	8	84.7	89.1	81.0	80.6	89.1	75.1	30.07	30.16	29.99	11.60	11.60	11.60
5/5/2010	225	359	0	3	14	0	8	14	0	66	72	64	81	100	57	84.0	89.3	81.0	78.9	91.5	73.9	30.04	30.08	29.99	11.68	11.90	11.60
5/6/2010	225	359	1	2	15	0	6	15	0	66	73	60	79	100	38	84.2	90.7	78.9	78.9	92.0	71.1	30.06	30.10	30.00	11.94	12.16	11.90
5/7/2010	45	359	0	3	13	0	7	13	0	66	73	62	82	100	45	84.2	88.5	79.5	78.0	83.9	71.3	30.10	30.15	30.05	12.17	12.17	12.16
5/8/2010	45	359	0	2	11	0	6	11	0	66	72	61	80	100	24	85.1	89.4	81.1	79.8	85.6	73.1	30.10	30.16	30.05	12.17	12.17	12.17
5/9/2010	0	359	0	3	15	0	8	15	0	59	66	54	75	100	48	83.0	85.9	80.1	75.5	80.9	71.7	30.15	30.22	30.05	12.17	12.17	12.17
5/10/2010	45	359	0	5	18	0	11	18	0	59	65	52	69	100	37	81.5	85.6	77.9	76.4	82.5	71.7	30.23	30.29	30.16	12.17	12.17	12.17
5/11/2010	90	359	25	6	23	0	15	23	2	60	65	56	71	100	40	81.8	86.0	78.1	77.0	83.2	73.2	30.26	30.32	30.19	12.17	12.17	12.17
5/12/2010	112	151	24	5	20	0	13	20	0	61	69	57	71	100	7	81.6	85.4	78.1	76.7	82.6	71.0	30.26	30.35	30.22	12.17	12.17	12.17
5/13/2010	112	157	18	4	18	0	11	18	0	58	62	52	68	100	37	82.6	87.0	78.8	77.6	83.6	72.4	30.27	30.34	30.21	12.17	12.17	12.17
5/14/2010	112	358	12	5	19	0	13	19	0	60	65	57	71	100	20	83.2	87.0	79.4	78.2	84.2	74.4	30.31	30.38	30.27	12.17	12.17	12.17
5/15/2010	112	196	44	5	19	0	13	19	0	61	64	56	68	100	47	83.6	88.8	79.5	79.4	86.7	73.7	30.24	30.30	30.18	12.17	12.17	12.17
5/16/2010	112	270	37	4	19	0	10	19	0	63	69	58	74	100	34	83.9	89.4	80.4	79.9	87.7	73.3	30.16	30.22	30.10	12.17	12.17	12.17
5/17/2010	180	359	0	2	18	0	6	18	0	63	71	59	80	100	38	82.9	87.1	80.2	77.2	90.6	71.8	30.08	30.14	30.02	12.36	12.71	12.17
5/18/2010	135	359	0	3	12	0	7	12	0	64	70	60	79	100	40	83.4	88.9	78.7	78.2	89.0	70.0	30.03	30.08	29.98	12.72	12.72	12.71
5/19/2010	158	359	0	2	13	0	6	13	0	64	69	58	77	100	41	85.1	89.0	81.1	79.6	87.3	73.4	30.01	30.05	29.97	12.72	12.72	12.72
5/20/2010	45	359	0	2	13	0	6	13	0	60	66	59	76	100	36	85.7	90.4	80.8	79.2	86.3	72.1	30.04	30.11	30.00	12.72	12.72	12.72
5/21/2010	45	359	0	2	13	0	6	13	0	59	67	50	77	100	59	86.7	91.0	82.0	79.3	85.3	72.4	30.10	30.14	30.06	12.72	12.72	12.72
5/22/2010	45	359	0	3	14	0	7	14	0	58	61	54	76	100	4	86.7	90.6	83.3	79.1	84.8	72.4	30.11	30.16	30.06	12.72	12.72	12.72
5/23/2010	45	359	0	3	15	0	10	15	0	60	64	55	74	100	63	85.9	89.6	82.8	79.3	84.2	75.4	30.07	30.12	30.04	12.72	12.72	12.72
5/24/2010	45	359	0	2	14	0	8	14	0	58	62	55	73	100	32	86.3	90.3	82.5	79.0	84.1	73.4	30.01	30.05	29.97	12.72	12.72	12.72
5/25/2010	0	359	0	2	17	0	7	17	0	57	61	54	75	100	62	85.7	88.6	82.9	77.2	82.0	72.2	29.99	30.02	29.96	12.80	12.86	12.72
5/26/2010	22	359	0	3	14	0	9	14	0	54	58	48	72	88	47	85.1	88.8	81.4	76.4	82.5	69.3	29.94	29.99	29.88	12.86	12.86	12.86
5/27/2010	45	359	0	2	14	0	8	14	0	55	59	51	73	100	52	85.5	89.5	81.5	77.6	84.5	69.4	29.90	29.93	29.84	12.86	12.86	12.86
5/28/2010	68	359	0	2	16	0	6	16	0	55	62	52	75	100	56	86.4	90.8	82.8	78.5	86.7	72.7	29.89	29.92	29.85	12.86	12.87	12.86
5/29/2010	112	357	0	3	17	0	8	17	0	59	64	54	76	100	36	85.7	90.3	82.8	79.3	87.0	72.6	29.92	29.98	29.86	12.88	12.88	12.87
5/30/2010	112	291	34	4	18	0	11	18	0	63	67	59	75	83	62	85.9	89.1	83.2	80.3	87.3	74.9	30.01	30.10	29.94	12.89	12.89	12.88
5/31/2010	135	281	52	4	21	0	11	21	0	64	67	59	74	88	59	87.3	91.4	83.5	82.0	89.4	75.9	30.10	30.15	30.06	12.89	12.89	12.89
6/1/2010	112	359	19	2	14	0	5	14	0	61	70	57	80	94	54	86.2	90.2	83.6	78.3	88.3	73.5	30.08	30.14	30.02	12.98	13.16	12.89
6/2/2010	112	359	2	2	18	0	7	18	0	61	68	56	79	93	56	86.0	90.2	82.2	79.6	89.0	73.4	30.01	30.06	29.95	13.27	13.39	13.16
6/3/2010	202	359	0	2	29	0	7	29	0	60	66	56	80	100	57	86.3	92.0	83.1	78.6	92.5	71.0	29.99	30.06	29.94	13.52	13.93	13.39
6/4/2010	225	359	0	2	21	0	7	21	0	62	67	57	81	100	55	85.2	91.5	82.1	78.9	93.7	72.8	30.04	30.11	29.98	14.22	15.06	13.93
6/5/2010	225	357	9	2	26	0	7	26	0	62	69	56	79	91	42	87.3	93.5	82.3	81.3	95.4	73.7	30.09	30.13	30.05	15.07	15.09	15.06
6/6/2010	270	359	0	2	18	0	6	18	0	59	68	52	75	92	51	88.6	94.4	84.0	82.8	95.1	75.2	30.06	30.11	29.98	15.14	15.39	15.09
6/7/2010	248	359	0	2	22	0	8	22	0	57	63	53	77	100	51	88.2	91.2	84.5	81.7	92.0	75.1	30.02	30.07	29.96	15.51	15.70	15.39
6/8/2010	45	359	0	4	17	0	10	17	0	61	67	55	75	100	63	88.5	92.1	85.7	81.8	86.3	78.9	30.09	30.18	30.00	15.70	15.70	15.70
6/9/2010	45	358	0	5	16	0	11	16	0	58	63	53	67	100	59	86.7	90.2	83.8	80.6	85.1	77.4	30.14	30.19	30.08	15.70	15.70	15.70
6/10/2010	45	359	0	2	14	0	7	14	0	58	62	55	73	86	66	87.5	91.4	83.5	80.3	85.2	74.6	30.11	30.15	30.07	15.70	15.70	15.70
6/11/2010	45	359	0	2	13	0	5	13	0	57	61	54	74	90	11	87.7	92.3	84.0	80.0	86.4	72.8	30.14	30.19	30.08	15.70	15.70	15.70
6/12/2010	45	359	0	4	16	0	8	16	0	61	64	58	75	100	48	89.1	93.1	85.4	82.6	87.5	76.1	30.17	30.22	30.13	15.70	15.70	15.70
6/13/2010	45	359	0	3	14	0	7	14	0	61	67	56	76	100	40	90.4	94.4	86.6	84.3	89.7	79.1	30.13	30.18	30.08	15.70	15.70	15.70
6/14/2010	112	359	1	2	13	0	8	13	0	59	66	53	72	89	52	91.5	96.2	87.2	86.0	94.9	78.7	30.07	30.12	30.03	15.70	15.70	15.70
6/15/2010	180	358	0	2	12	0	5	12	0	57	65	54	76	100	10	91.0	95.3	87.7	83.9	92.0	78.1	30.10	30.15	30.04	15.70	15.70	15.70
6/16/2010	112	359	0	2	14	0	6	14	0	58	69	51	73	91	54	91.4	96.0	86.9	85.4	93.1	77.8	30.14	30.18	30.11	15.70	15.70	15.70
6/17/2010	270	355	9	2	25	0	8	25	0	54	62	48	74	92	40	90.8	96.3	86.7	82.1	95.2	74.6	30.12	30.18	30.07	15.90	16.65	15.70
6/18/2010	225	355	1	2	23	0	6	23	0	54	62	50	79	100	56	88.9	94.4	84.8	79.7	92.7	73.3	30.12	30.16	30.08	16.89	17.63	16.65
6/19/2010	112	307	0	2	16	0	6	16	0	57	67	51	77	91	61	88.7	93.9	84.0	80.9	90.4	72.5	30.14	30.19	30.10	17.63	17.63	17.63
6/20/2010	112	359	0	1	21	0	5	21	0	55	65	52	77	88	62	88.5	91.6	85.5	80.9	89.9	75.4	30.11	30.16	30.07	17.64	17.64	17.63
6/21/2010	112	196	28	3	17	0	8	17	0	58	67	53	74	89	56	90.0	94.5	85.5	83.6	90.9	76.5	30.13	30.20	30.06	17.64	17.64	17.64
6/22/2010	112	201	27	4	18	0	11	18	0	60	64	57	73	83	45	90.6	93.8	87.6	84.7	90.0	80.6	30.18	30.23	30.11	17.66	17.69	17.64
6/23/2010	112	178	3	4	17	0	11	17	0	60	65	56	72	100	57	90.5	94.2	87.4	84.4	90.2	80.2	30.19	30.23	30.15	17.69	17.69	17.69
6/24/2010	112	358	0	3	14	0	9	14	0	60	64	56	72	87	59	90.5	94.1	87.3	84.2	90.2	79.3	30.14	30.24	30.10	17.69	17.69	17.69
6/25/2010	112	350	0	3	16	0	10	16	0	61	64	59	75	100	17	90.5	94.6	87.4	84.2	90.3	80.0	30.12	30.17	30.07	17.71	17.76	17.69
6/26/2010	112	224	29	3	16	0	9	16	0	61	65	57	76	89	45	90.6	94.6	87.1	84.4	91.0	78.0	30.08	30.13	30.03	17.76	17.76	17.76
6/27/2010	135	358	16	3	18	0	8	18	0	59	64	50	74	100	10	91.0	96.0	87.3	85.1	93.1	78.4	30.03	30.07	29.99	17.76	17.76	17.76
6/28/2010	135	340	5	3	16	0	8	16	0	58	62	55	77	99	64	89.9	92.9	87.2	83.3	90.4	77.5	30.03	30.08	29.99	17.92	18.06	17.76
6/29/2010	135	215	63	4	19	0	10	19	0	60	66	56	74	91	46	90.7	94.7	87.1	84.9	91.6	78.5	30.07	30.11	30.03	18.06	18.06	18.06
6/30/2010	112	359	3	3	19	0	8	19	0	57	61	51	73	100	59	91.1	95.5	87.2	84.4	92.0	77.8	30.13	30.19	30.07	18.06	18.06	18.06
7/1/2010	112	357	0	2	15	0	7	15	0	57	65	50	76	87	61	90.6	94.1	86.9	82.7	91.2	75.8	30.16	30.19	30.10	18.06	18.06	18.06
7/2/2010	45	359	0	2	15	0	7	15	0	59	64	52	80	91	67	87.9	90.1	85.8	79.2	84.0	74.7	30.11	30.16	30.06	18.06	18.06	18.06
7/3/2010	112	359	0	2	17	0	8	17	0	62	68	56	79	100	61	87.1	91.3	84.2	80.1	88.5	74.6	30.09	30.13	30.04	18.07	18.12	18.06
7/4/2010	112	358	0	0	9	0	4	9	0	64	69	58	86	97	67	86.4	88.9	84.7	79.1	84.9	74.3	30.11	30.15	30.06	18.17	18.30	18.12
7/5/2010	45	359	0	1	11	0	5	11	0	63	68	59	84	98	67	84.6	87.9	82.4	76.9	83.1	73.6	30.10	30.14	30.06	18.40	18.46	18.30
7/6/2010	45	359	0	3	14	0	8	14	0	65	72	58	77	98	59	86.6	91.2	82.8	81.0	88.2	74.1	30.09	30.13	30.04	18.47	18.47	18.46
7/7/2010	45	359	0	4	14	0	11	14	0	63	68	57	72	84	57	88.1	91.5	85.0	82.4	87.4	79.5	30.08	30.12	30.04	18.47	18.47	18.47
7/8/2010	45	359	0	2	11	0	7	11	0	58	63	52	71	88	56	88.1	92.0	84.3	80.6	86.2	73.2	30.06	30.10	30.02	18.47	18.47	18.47
7/9/2010	112	358	0	2	11	0	5	11	0	52	61	45	71	91	34	89.1	94.4	83.9	81.8	93.0	71.8	30.06	30.11	30.02	18.53	18.63	18.47
7/10/2010	45	359	0	2	14	0	8	14	0	54	60	51	72	88	46	90.9	94.8	86.7	84.2	91.5	77.0	30.07	30.11	30.03	18.63	18.63	18.63
7/11/2010	270	359	0	2	16	0	8	16	0	51	58	45	66	100	39	91.0	95.4	87.0	84.1	95.2	76.0	30.04	30.09	30.00	18.63	18.63	18.63
7/12/2010	112	359	0	2	13	0	7	13	0	52	58	46	71	100	47	91.1	95.4	87.5	84.9	94.7	78.4	30.04	30.08	29.99	18.63	18.63	18.63
7/13/2010	45	359	0	2	14	0	6	14	0	55	60	51	76	100	22	91.3	94.7	87.8	84.1	90.7	78.1	30.09	30.13	30.04	18.63	18.63	18.63
7/14/2010	112	354	0	2	16	0	7	16	0	56	63	53	74	100	36	91.7	95.2	88.1	84.8	91.4	78.3	30.13	30.18	30.09	18.63	18.63	18.63
7/15/2010	112	232	55	3	20	0	10	20	0	56	62	53	73	100	12	91.9	95.9	87.9	85.7	92.5	78.2	30.14	30.19	30.09	18.63	18.63	18.63
7/16/2010	112	200	22	4	21	0	11	21	0	57	61	54	73	100	41	91.7	95.6	88.3	85.5	92.6	79.0	30.17	30.22	30.11	18.63	18.63	18.63
7/17/2010	112	200	35	4	17	0	9	17	0	56	60	50	71	100	35	91.9	95.2	88.4	85.3	91.4	80.3	30.20	30.24	30.17	18.63	18.63	18.63
7/18/2010	112	212	18	4	20	0	11	20	0	58	61	53	74	100	45	91.0	94.7	87.4	84.0	90.9	77.4	30.18	30.33	30.12	18.67	18.68	18.63
7/19/2010	112	192	19	5	20	0	13	20	0	60	66	56	74	100	51	91.1	95.1	87.7	84.9	91.3	79.8	30.16	30.20	30.12	18.68	18.68	18.68
7/20/2010	112	202	26	5	20	0	13	20	0	60	64	55	74	100	37	91.3	95.1	88.0	85.4	91.7	81.0	30.19	30.25	30.14	18.68	18.68	18.68
7/21/2010	112	169	7	4	17	0	12	17	0	62	66	57	73	100	38	91.1	94.5	88.0	84.9	90.5	80.8	30.20	30.25	30.14	18.68	18.68	18.68
7/22/2010	45	359	0	2	14	0	9	14	0	61	65	57	74	100	10	90.4	93.7	87.5	83.9	89.3	79.3	30.16	30.26	30.11	18.68	18.68	18.68
7/23/2010	45	359	0	5	22	0	14	22	0	69	75	61	82	100	56	88.0	90.2	86.4	81.9	86.3	79.0	30.09	30.13	30.05	18.87	19.21	18.68
7/24/2010	112	355	39	5	19	0	13	19	0	70	77	62	78	96	62	90.0	95.0	85.9	85.3	91.8	80.7	30.14	30.19	30.07	19.23	19.24	19.21
7/25/2010	112	222	0	4	19	0	10	19	0	62	67	56	74	93	58	91.1	94.9	87.8	85.2	92.0	79.0	30.16	30.22	30.10	19.24	19.24	19.24
7/26/2010	135	359	0	3	16	0	8	16	0	57	63	54	72	100	56	90.9	95.3	87.1	84.1	93.5	75.9	30.16	30.21	30.12	19.24	19.24	19.24
7/27/2010	45	359	0	2	12	0	8	12	0	59	64	56	76	100	62	91.2	94.6	87.9	84.4	89.3	78.9	30.17	30.22	30.13	19.24	19.24	19.24
7/28/2010	45	359	0	2	13	0	7	13	0	57	63	53	74	100	59	92.4	96.5	88.5	85.8	91.9	79.9	30.16	30.20	30.10	19.24	19.24	19.24
7/29/2010	112	355	0	2	15	0	7	15	0	54	60	49	72	100	55	92.6	96.9	88.2	85.4	94.2	76.1	30.11	30.16	30.03	19.24	19.24	19.24
7/30/2010	225	358	39	3	15	0	9	15	0	53	60	49	69	100	45	92.5	97.1	88.3	86.3	98.3	77.4	30.00	30.07	29.94	19.24	19.24	19.24
7/31/2010	225	358	1	3	14	0	9	14	0	55	62	51	72	100	48	92.8	97.2	89.0	86.5	96.8	79.2	29.95	29.98	29.91	19.24	19.24	19.24
8/1/2010	248	359	0	3	20	0	10	20	0	55	61	49	73	100	39	92.8	98.4	89.3	85.8	98.7	77.2	29.97	30.03	29.91	19.24	19.30	19.24
8/2/2010	45	359	0	2	13	0	6	13	0	56	63	51	78	100	56	90.7	94.8	87.4	82.6	90.6	76.3	30.07	30.14	29.99	19.30	19.30	19.30
8/3/2010	45	359	0	2	17	0	7	17	0	57	61	53	75	95	62	91.6	95.2	88.1	84.2	89.6	77.7	30.11	30.15	30.09	19.30	19.30	19.30
8/4/2010	112	359	0	2	16	0	8	16	0	57	61	53	74	100	38	90.8	93.9	88.2	83.4	90.0	78.0	30.07	30.12	30.02	19.30	19.30	19.30
8/5/2010	135	359	0	1	15	0	7	15	0	57	63	53	78	100	57	89.2	91.4	87.0	81.5	91.0	76.1	30.04	30.08	29.98	19.85	20.63	19.30
8/6/2010	180	322	34	3	17	0	8	17	0	56	63	51	71	100	35	90.8	96.1	86.3	85.1	96.4	76.8	30.03	30.07	29.98	20.63	20.63	20.63
8/7/2010	225	346	0	2	11	0	7	11	0	57	67	52	79	100	50	90.7	95.3	87.9	83.3	95.2	78.9	30.01	30.07	29.98	20.64	20.68	20.63
8/8/2010	225	359	0	2	21	0	7	21	0	59	63	55	84	100	44	88.2	91.5	86.5	79.8	91.6	76.0	30.01	30.07	29.96	20.90	21.20	20.68
8/9/2010	112	318	21	4	20	0	10	20	0	60	64	56	77	100	60	88.9	93.2	84.8	81.9	89.1	75.7	30.00	30.04	29.96	21.20	21.20	21.20
8/10/2010	135	248	34	3	29	0	14	29	0	64	70	59	78	89	66	87.8	90.4	86.3	80.9	88.9	76.6	30.01	30.07	29.96	21.30	21.40	21.20
8/11/2010	112	268	33	3	20	0	10	20	0	61	69	54	74	86	60	88.7	93.0	84.8	82.8	92.2	76.7	30.04	30.08	29.99	21.40	21.40	21.40
8/12/2010	112	330	30	2	14	0	6	14	0	57	64	52	72	92	55	90.0	94.4	85.6	84.3	93.4	76.0	30.02	30.07	29.97	21.40	21.40	21.40
8/13/2010	112	348	4	2	13	0	7	13	0	55	61	50	71	100	43	92.2	97.9	87.6	86.6	98.5	78.9	30.01	30.06	29.97	21.40	21.40	21.40
8/14/2010	45	359	0	2	13	0	6	13	0	56	61	52	74	100	62	92.4	96.0	88.8	85.2	91.7	79.5	30.05	30.12	30.01	21.40	21.63	21.40
8/15/2010	45	359	0	2	13	0	6	13	0	58	63	53	79	100	66	91.4	94.7	88.1	83.4	89.6	78.3	30.04	30.12	29.98	21.80	21.81	21.63
8/16/2010	45	359	0	2	13	0	6	13	0	58	65	52	74	92	36	91.7	95.6	87.9	84.6	91.1	78.2	30.02	30.08	29.98	21.81	21.81	21.81
8/17/2010	135	359	5	2	15	0	7	15	0	56	62	52	75	88	62	91.7	94.9	88.4	83.7	91.6	78.0	30.09	30.17	30.03	21.81	21.81	21.81
8/18/2010	112	272	15	3	16	0	8	16	0	57	65	53	71	83	54	91.9	96.8	86.9	85.6	94.4	77.3	30.14	30.18	30.09	21.81	21.81	21.81
8/19/2010	112	311	7	3	15	0	8	15	0	56	64	53	73	100	49	92.9	96.7	88.9	85.8	94.0	78.2	30.09	30.16	30.02	21.81	21.81	21.81
8/20/2010	45	359	0	3	14	0	8	14	0	58	65	52	75	100	41	92.0	95.3	86.8	84.2	90.1	76.2	30.04	30.09	30.00	21.81	21.81	21.81
8/21/2010	45	359	0	2	18	0	7	18	0	56	63	53	77	100	59	91.1	94.9	87.6	82.0	91.0	76.3	30.04	30.09	30.00	21.84	21.92	21.81
8/22/2010	225	357	0	3	19	0	8	19	0	56	66	53	77	90	61	90.1	93.7	86.6	82.1	90.8	76.7	30.01	30.07	29.97	21.93	21.93	21.92
8/23/2010	180	313	98	5	35	0	12	35	0	58	64	54	77	89	54	89.0	92.8	85.9	81.2	92.5	76.3	29.99	30.03	29.95	22.14	22.52	21.93
8/24/2010	180	296	125	3	18	0	9	18	0	61	66	56	81	88	64	87.6	89.8	85.4	80.5	88.9	76.1	29.98	30.07	29.93	22.52	22.54	22.52
8/25/2010	180	327	109	2	16	0	8	16	0	61	68	55	76	100	35	87.2	91.7	83.8	81.7	93.4	75.4	30.05	30.12	29.98	22.54	22.54	22.54
8/26/2010	45	359	0	1	10	0	4	10	0	58	64	55	77	90	62	88.3	91.3	85.5	81.0	87.4	76.9	30.10	30.13	30.05	22.54	22.57	22.54
8/27/2010	45	359	0	2	13	0	6	13	0	61	64	57	78	100	66	88.7	92.9	85.0	81.4	87.6	75.1	30.08	30.12	30.04	22.57	22.57	22.57
8/28/2010	45	359	0	3	14	0	8	14	0	63	68	59	77	100	21	89.6	92.9	86.7	83.2	88.7	77.5	30.09	30.13	30.04	22.57	22.57	22.57
8/29/2010	45	359	0	4	19	0	12	19	0	64	70	59	75	100	11	88.8	92.1	86.5	82.8	88.4	78.7	30.14	30.20	30.07	22.58	22.59	22.57
8/30/2010	45	359	0	5	16	0	12	16	0	63	65	59	71	100	40	88.6	91.8	85.9	83.5	88.9	80.8	30.17	30.23	30.14	22.59	22.59	22.59
8/31/2010	45	359	0	5	18	0	13	18	0	63	67	57	72	100	54	88.9	92.5	85.6	83.3	88.6	78.8	30.11	30.18	30.06	22.60	22.76	22.59
9/1/2010	45	359	0	6	20	0	14	20	2	62	68	54	69	84	50	88.1	91.7	85.3	82.9	87.9	79.3	30.00	30.08	29.94	22.76	22.76	22.76
9/2/2010	45	359	0	3	13	0	8	13	0	60	65	57	73	100	52	88.4	92.4	84.1	81.9	88.3	74.6	29.96	30.05	29.89	22.76	22.76	22.76
9/3/2010	180	357	4	2	16	0	7	16	0	58	63	52	68	100	37	89.9	95.8	85.2	85.2	97.7	74.8	30.05	30.10	30.00	22.76	22.76	22.76
9/4/2010	112	358	1	3	13	0	8	13	0	57	62	53	72	100	8	89.6	92.7	86.1	82.9	91.8	75.2	30.05	30.11	30.00	22.76	22.76	22.76
9/5/2010	45	359	0	2	19	0	8	19	0	60	67	55	80	100	38	88.9	92.6	85.6	81.8	89.1	73.9	30.05	30.14	30.00	22.82	23.28	22.76
9/6/2010	45	359	0	1	21	0	5	21	0	62	67	58	85	100	23	86.0	91.2	83.4	78.6	89.4	73.2	30.13	30.20	30.06	23.68	24.67	23.28
9/7/2010	45	359	0	2	19	0	7	19	0	67	74	63	84	100	68	85.5	90.4	82.2	79.8	86.7	74.0	30.16	30.22	30.12	24.69	24.90	24.67
9/8/2010	112	359	6	3	18	0	9	18	0	66	77	59	78	100	59	87.5	92.6	83.1	82.6	90.4	74.3	30.10	30.20	30.05	25.42	25.46	24.90
9/9/2010	112	359	0	2	13	0	5	13	0	62	70	59	75	100	39	88.6	92.1	85.0	83.2	90.0	76.2	30.02	30.08	29.97	25.46	25.46	25.46
9/10/2010	112	359	0	2	13	0	5	13	0	63	71	58	77	100	31	88.7	92.3	85.2	83.1	90.1	76.9	30.00	30.05	29.95	25.47	25.49	25.46
9/11/2010	45	359	0	2	14	0	6	14	0	63	70	59	78	100	43	89.2	93.2	85.2	83.3	89.7	75.8	30.02	30.08	29.97	25.49	25.49	25.49
9/12/2010	90	359	0	1	12	0	6	12	0	61	67	56	76	100	39	89.7	94.0	85.6	83.7	90.4	76.6	30.03	30.07	29.99	25.49	25.49	25.49
9/13/2010	45	359	0	2	17	0	8	17	0	61	67	54	77	100	39	89.7	93.5	86.6	83.1	88.4	77.2	30.02	30.08	29.98	25.49	25.49	25.49
9/14/2010	45	359	0	4	15	0	12	15	0	59	66	51	67	100	21	87.9	90.5	85.7	82.9	87.1	79.8	30.08	30.13	30.02	25.49	25.49	25.49
9/15/2010	45	358	0	4	20	0	12	20	0	58	65	51	67	100	36	86.4	90.2	84.4	81.8	86.8	78.8	30.10	30.14	30.06	25.51	25.53	25.49
9/16/2010	112	352	0	6	19	0	14	19	0	60	64	57	66	100	52	87.4	91.0	84.6	83.6	88.8	80.7	30.08	30.14	30.05	25.53	25.53	25.53
9/17/2010	45	359	0	3	15	0	9	15	0	58	63	53	69	100	16	87.7	91.3	84.6	82.8	88.1	76.9	30.05	30.09	30.00	25.53	25.53	25.53
9/18/2010	45	359	0	4	17	0	12	17	3	57	64	51	64	100	8	86.9	90.7	84.8	82.5	87.1	80.3	30.07	30.12	30.02	25.53	25.53	25.53
9/19/2010	45	359	0	5	20	0	14	20	0	60	67	55	67	100	58	86.8	90.9	84.2	82.6	88.2	76.6	30.06	30.10	30.02	25.54	25.55	25.53
9/20/2010	45	359	0	6	18	0	14	18	0	57	61	53	63	100	11	86.6	90.4	83.6	82.4	87.2	79.6	30.05	30.11	30.00	25.55	25.55	25.55
9/21/2010	45	358	0	4	22	0	14	22	0	59	65	55	68	100	38	86.8	90.2	84.1	82.6	87.1	80.2	30.12	30.17	30.07	25.58	25.61	25.55
9/22/2010	68	343	2	5	17	0	15	17	0	61	65	58	69	100	7	87.0	90.7	84.2	82.8	87.8	79.1	30.15	30.20	30.10	25.61	25.61	25.61
9/23/2010	90	356	2	5	21	0	14	21	1	66	71	62	76	100	53	87.1	91.0	84.7	82.5	88.7	78.2	30.17	30.22	30.13	25.70	25.98	25.61
9/24/2010	90	315	7	5	20	0	14	20	0	71	78	68	78	100	23	86.5	89.3	84.3	82.5	87.9	79.4	30.16	30.21	30.11	26.01	26.06	25.98
9/25/2010	112	359	0	3	14	0	9	14	0	64	69	60	71	100	45	86.0	89.0	83.9	81.7	85.9	79.6	30.08	30.16	30.01	26.06	26.06	26.06
9/26/2010	112	352	0	2	17	0	8	17	0	62	68	59	74	100	57	87.1	91.5	82.8	81.7	89.3	73.3	29.96	30.05	29.90	26.06	26.06	26.06
9/27/2010	158	342	22	2	17	0	7	17	0	64	70	60	80	92	59	86.5	90.0	84.1	80.5	91.7	76.3	29.89	29.95	29.84	26.33	26.81	26.06
9/28/2010	112	359	0	2	17	0	6	17	0	68	73	63	87	94	69	84.0	87.4	80.4	76.9	86.8	72.2	29.81	29.87	29.73	27.16	28.78	26.81
9/29/2010	45	359	0	5	24	0	13	24	0	77	82	71	85	90	77	80.3	80.8	79.4	76.1	77.7	74.1	29.64	29.77	29.53	29.06	29.21	28.78
9/30/2010	315	359	0	2	15	0	8	15	0	71	77	61	78	89	56	82.3	87.0	78.4	77.2	87.4	70.6	29.66	29.83	29.55	29.21	29.22	29.21
10/1/2010	45	359	0	1	10	0	5	10	0	61	71	58	72	89	47	82.3	86.5	77.7	75.5	86.8	66.2	29.82	29.88	29.77	29.22	29.22	29.22
10/2/2010	45	359	0	1	9	0	4	9	0	59	68	56	73	100	49	83.6	88.0	79.2	76.9	86.8	69.1	29.86	29.92	29.82	29.22	29.22	29.22
10/3/2010	0	359	0	4	20	0	11	20	0	56	64	46	70	88	47	83.0	86.9	79.8	75.9	83.2	69.0	29.94	30.04	29.88	29.22	29.22	29.22
10/4/2010	0	359	0	4	21	0	12	21	0	51	57	46	61	86	49	81.6	85.4	78.0	75.4	80.8	65.9	30.06	30.12	29.99	29.22	29.22	29.22
10/5/2010	22	359	0	4	23	0	12	23	0	53	59	49	66	100	55	81.8	86.2	77.9	75.5	82.5	66.8	30.08	30.12	30.04	29.22	29.22	29.22
10/6/2010	0	359	0	6	22	0	17	22	1	53	57	47	60	69	43	81.1	83.8	78.9	76.2	79.7	68.8	30.07	30.14	30.03	29.22	29.22	29.22
10/7/2010	315	359	0	5	17	0	11	17	0	49	55	46	65	74	49	79.1	83.0	75.5	70.9	79.9	64.0	30.08	30.12	30.04	29.22	29.22	29.22
10/8/2010	315	359	0	2	12	0	7	12	0	49	56	47	66	85	44	80.0	85.0	75.2	72.6	82.4	62.1	30.10	30.15	30.06	29.22	29.22	29.22
10/9/2010	292	359	0	2	12	0	5	12	0	49	58	44	67	100	38	81.0	85.7	76.2	73.4	84.7	63.9	30.11	30.16	30.07	29.22	29.22	29.22
10/10/2010	45	359	0	1	11	0	4	11	0	49	57	46	71	100	12	81.4	86.2	76.7	73.8	83.6	64.6	30.09	30.14	30.04	29.23	29.23	29.22
10/11/2010	45	359	0	2	12	0	4	12	0	52	59	48	73	100	38	82.1	86.8	77.3	74.4	84.6	65.5	30.09	30.14	30.05	29.23	29.23	29.23
10/12/2010	90	356	7	2	13	0	5	13	0	52	61	48	71	100	40	82.6	87.0	78.2	76.1	85.2	66.8	30.07	30.12	30.03	29.23	29.23	29.23
10/13/2010	45	359	0	2	14	0	5	14	0	52	58	48	72	100	54	82.8	86.7	78.5	75.7	84.4	67.9	30.06	30.11	30.02	29.23	29.23	29.23
10/14/2010	315	359	0	1	9	0	4	9	0	54	58	52	75	84	62	82.8	85.9	80.4	76.5	84.3	69.1	30.01	30.07	29.93	29.23	29.23	29.23
10/15/2010	315	359	0	2	15	0	6	15	0	47	57	39	62	100	28	80.6	84.3	76.5	71.3	80.6	62.7	30.02	30.10	29.98	29.23	29.23	29.23
10/16/2010	315	359	0	2	15	0	7	15	0	40	45	38	58	100	32	78.0	82.9	72.9	68.6	80.1	56.8	30.12	30.18	30.08	29.23	29.23	29.23
10/17/2010	45	359	0	3	13	0	8	13	0	45	50	40	59	100	13	79.7	83.6	76.7	73.9	79.6	65.0	30.17	30.24	30.14	29.23	29.23	29.23
10/18/2010	112	359	0	2	14	0	5	14	0	46	52	42	65	100	43	79.3	83.5	74.9	71.7	82.1	62.3	30.11	30.17	30.06	29.23	29.23	29.23
10/19/2010	45	359	0	1	11	0	4	11	0	48	54	45	67	100	39	80.1	84.7	75.6	73.0	82.8	63.8	30.05	30.11	29.99	29.23	29.23	29.23
10/20/2010	112	358	0	1	12	0	4	12	0	52	58	47	74	100	43	81.5	85.2	78.2	75.7	84.1	69.4	30.01	30.05	29.96	29.23	29.23	29.23
10/21/2010	45	359	0	1	14	0	5	14	0	52	61	48	72	100	35	81.0	84.7	77.0	73.3	81.3	64.7	30.03	30.08	29.99	29.23	29.23	29.23
10/22/2010	45	359	0	2	12	0	7	12	0	53	61	48	70	100	15	80.8	85.3	76.2	74.4	82.3	64.5	30.12	30.20	30.04	29.24	29.24	29.23
10/23/2010	45	359	0	5	15	0	12	15	1	54	59	52	60	69	46	82.3	85.8	79.3	78.9	83.2	75.9	30.21	30.26	30.15	29.24	29.24	29.24
10/24/2010	112	229	1	5	20	0	13	20	0	59	62	56	68	100	37	83.4	87.3	80.3	79.6	85.1	76.2	30.19	30.25	30.13	29.24	29.26	29.24
10/25/2010	135	306	32	6	22	0	14	22	0	67	73	61	77	85	67	83.8	87.1	81.1	79.7	85.6	75.3	30.08	30.14	30.03	29.27	29.27	29.26
10/26/2010	135	288	60	4	22	0	10	22	0	66	74	63	77	100	62	84.1	88.3	80.7	79.5	87.2	72.6	30.07	30.13	30.03	29.27	29.27	29.27
10/27/2010	112	358	9	3	15	0	9	15	0	68	74	65	78	90	38	85.1	88.9	81.9	80.7	86.7	74.5	30.16	30.22	30.09	29.27	29.27	29.27
10/28/2010	112	340	0	2	14	0	6	14	0	64	72	60	78	90	61	85.2	89.0	81.8	79.9	87.6	73.6	30.15	30.22	30.08	29.27	29.27	29.27
10/29/2010	0	359	0	3	17	0	10	17	0	57	63	49	70	100	50	83.0	85.1	80.8	76.9	81.3	72.8	30.09	30.16	30.03	29.27	29.27	29.27
10/30/2010	45	359	0	4	18	0	13	18	0	53	58	49	59	67	51	81.5	84.0	79.4	77.4	81.4	74.0	30.16	30.22	30.12	29.27	29.27	29.27
10/31/2010	45	359	0	1	13	0	4	13	0	53	59	51	68	86	46	80.4	83.8	76.3	73.2	81.2	62.5	30.16	30.21	30.11	29.27	29.27	29.27
11/1/2010	45	359	0	2	14	0	6	14	0	56	65	50	73	89	57	80.7	84.7	76.6	73.8	82.0	64.5	30.20	30.26	30.16	29.27	29.27	29.27
11/2/2010	112	335	12	3	17	0	8	17	0	56	61	51	67	100	2	82.5	85.4	80.2	77.2	83.2	70.0	30.14	30.22	30.08	29.27	29.27	29.27
11/3/2010	112	272	11	2	19	0	7	19	0	58	63	51	77	100	48	81.2	85.8	77.3	74.2	83.7	66.4	30.00	30.11	29.90	29.35	29.65	29.27
11/4/2010	225	315	108	2	13	0	7	13	0	65	69	61	89	92	86	78.2	80.3	76.0	71.3	74.0	68.2	29.76	29.91	29.67	29.78	29.86	29.65
11/5/2010	315	359	0	5	27	0	14	27	0	49	66	37	60	93	29	73.5	76.0	69.1	61.6	68.2	49.1	29.91	30.14	29.71	29.87	29.87	29.86
11/6/2010	315	359	0	3	18	0	10	18	0	36	40	33	53	73	32	67.5	70.3	63.9	54.5	63.7	45.7	30.21	30.32	30.12	29.87	29.87	29.87
11/7/2010	315	359	0	6	21	0	15	21	3	44	57	31	63	80	47	66.0	67.9	63.3	58.1	66.0	49.5	30.24	30.32	30.18	29.88	29.89	29.87
11/8/2010	315	359	0	3	14	0	9	14	0	50	55	47	66	84	51	68.7	72.8	65.5	61.1	70.4	53.7	30.15	30.22	30.09	29.89	29.89	29.89
11/9/2010	315	359	0	1	9	0	4	9	0	47	53	43	65	87	32	69.9	75.6	63.9	61.1	75.6	48.2	30.08	30.14	30.04	29.90	29.90	29.89
11/10/2010	22	359	0	1	12	0	4	12	0	49	60	43	71	100	48	71.7	77.9	65.0	63.8	77.7	50.0	30.11	30.18	30.05	29.90	29.90	29.90
11/11/2010	0	359	0	3	18	0	8	18	0	53	64	49	70	93	48	74.0	78.4	69.1	68.5	78.1	57.8	30.22	30.27	30.15	29.91	29.91	29.90
11/12/2010	22	359	0	4	18	0	13	18	0	53	60	50	61	77	47	75.7	78.6	73.4	72.2	78.6	65.5	30.24	30.27	30.21	29.91	29.91	29.91
11/13/2010	315	359	0	3	17	0	9	17	0	54	57	51	73	84	50	74.8	78.2	71.6	67.1	75.6	60.0	30.18	30.23	30.13	29.91	29.91	29.91
11/14/2010	315	359	0	2	14	0	6	14	0	52	58	49	70	86	40	74.2	78.0	70.2	66.7	75.9	59.0	30.12	30.19	30.08	29.91	29.91	29.91
11/15/2010	135	359	0	1	11	0	5	11	0	54	64	49	76	100	53	74.8	79.7	70.3	68.5	79.3	58.2	30.05	30.10	30.00	29.92	29.92	29.91
11/16/2010	202	313	102	3	20	0	9	20	0	55	62	52	67	88	44	76.5	81.4	71.5	72.1	83.8	60.1	30.00	30.08	29.95	29.92	29.92	29.92
11/17/2010	22	359	0	2	13	0	6	13	0	60	67	53	79	88	62	77.5	81.1	74.1	71.8	82.2	64.9	30.12	30.19	30.05	29.92	29.92	29.92
11/18/2010	0	359	0	3	18	0	9	18	0	62	70	49	76	100	54	76.5	79.2	73.3	71.0	75.5	67.3	30.18	30.25	30.13	29.95	29.95	29.92
11/19/2010	45	359	0	4	17	0	11	17	0	51	55	46	59	85	46	74.4	77.8	70.5	69.9	76.1	57.1	30.25	30.31	30.18	29.95	29.95	29.95
11/20/2010	68	355	0	3	17	0	10	17	0	56	64	50	69	91	51	75.4	78.5	73.5	71.2	77.9	66.1	30.31	30.36	30.25	29.99	30.20	29.95
11/21/2010	45	311	1	3	18	0	9	18	0	66	75	63	79	94	65	74.6	77.5	72.2	70.6	76.3	65.3	30.34	30.39	30.29	30.31	30.36	30.20
11/22/2010	45	359	0	4	19	0	12	19	0	66	74	56	72	83	54	76.8	80.6	74.2	73.8	80.3	70.3	30.31	30.36	30.26	30.36	30.36	30.36
11/23/2010	45	359	0	2	12	0	6	12	0	62	67	57	72	89	60	77.5	81.0	74.0	72.3	78.0	63.5	30.22	30.27	30.18	30.36	30.36	30.36
11/24/2010	45	359	0	2	13	0	6	13	0	56	64	52	67	89	50	77.2	81.0	73.1	71.8	79.2	60.9	30.17	30.27	30.13	30.36	30.36	30.36
11/25/2010	112	220	22	2	14	0	7	14	0	60	66	56	73	89	59	78.0	81.5	73.9	73.4	81.2	62.2	30.15	30.20	30.11	30.36	30.36	30.36
11/26/2010	202	282	96	3	21	0	10	21	0	62	66	59	74	86	61	78.8	81.5	76.4	74.4	80.4	68.8	30.07	30.13	30.00	30.36	30.36	30.36
11/27/2010	0	359	0	4	17	0	10	17	0	62	70	57	78	100	64	76.5	80.2	73.8	70.2	80.4	67.8	30.07	30.14	30.01	30.37	30.37	30.36
11/28/2010	45	359	0	5	16	0	12	16	3	64	71	56	70	91	63	76.0	79.2	73.2	72.9	77.9	68.4	30.16	30.22	30.12	30.37	30.37	30.37
11/29/2010	112	358	0	4	26	0	12	26	0	74	81	69	84	100	77	77.2	79.5	75.6	73.3	77.3	68.5	30.20	30.26	30.16	30.64	30.94	30.37
11/30/2010	135	234	45	5	26	0	14	26	1	78	85	74	84	95	58	77.7	80.8	75.5	74.5	79.8	71.1	30.15	30.21	30.09	31.08	31.14	30.94
12/1/2010	315	359	0	4	17	0	10	17	0	64	74	45	70	93	44	74.5	77.5	68.6	64.7	72.4	51.1	30.16	30.23	30.08	31.15	31.15	31.14
12/2/2010	315	359	0	4	22	0	12	22	0	46	53	40	62	72	53	66.8	70.6	63.1	54.2	64.6	44.0	30.23	30.28	30.19	31.15	31.15	31.15
12/3/2010	315	359	0	3	15	0	8	15	0	46	53	39	62	81	52	65.2	69.4	60.3	54.1	66.0	41.9	30.21	30.25	30.17	31.15	31.15	31.15
12/4/2010	338	359	0	1	9	0	5	9	0	45	51	37	62	82	28	65.3	70.8	59.8	55.0	69.6	43.0	30.17	30.25	30.10	31.15	31.15	31.15
12/5/2010	225	359	0	4	20	0	10	20	0	54	65	43	73	87	51	67.5	72.7	62.8	61.5	74.9	51.9	30.06	30.13	29.98	31.16	31.16	31.15
12/6/2010	315	359	0	5	18	0	12	18	2	40	50	33	54	71	28	63.7	67.5	59.5	49.8	60.9	39.6	30.13	30.19	30.08	31.16	31.16	31.16
12/7/2010	292	359	0	2	17	0	9	17	0	33	34	30	50	76	21	57.8	61.8	54.2	43.3	56.5	33.1	30.18	30.25	30.12	31.16	31.16	31.16
12/8/2010	315	359	0	1	9	0	6	9	0	38	45	31	56	68	45	58.1	62.8	52.6	47.8	59.3	35.4	30.19	30.24	30.13	31.16	31.16	31.16
12/9/2010	315	359	0	4	17	0	9	17	0	45	52	37	71	80	47	59.7	61.1	57.8	52.6	58.1	47.2	30.20	30.24	30.14	31.18	31.20	31.16
12/10/2010	292	359	0	2	9	0	6	9	0	57	72	49	77	100	50	64.0	70.2	58.3	58.9	73.9	47.0	30.17	30.23	30.12	31.21	31.21	31.20
12/11/2010	315	359	0	2	10	0	6	10	0	58	64	55	81	94	41	66.8	69.8	63.3	58.6	68.1	53.1	30.13	30.20	30.05	31.22	31.22	31.21
12/12/2010	270	342	125	6	28	0	14	28	0	55	60	47	73	91	44	65.8	71.0	62.1	59.1	76.3	50.7	29.90	30.06	29.77	31.23	31.24	31.22
12/13/2010	292	358	16	8	34	0	20	34	2	37	47	32	53	67	33	58.9	64.2	54.4	45.5	53.2	35.2	29.95	30.11	29.85	31.24	31.24	31.24
12/14/2010	315	359	0	4	17	0	11	17	0	30	33	28	38	100	15	53.5	57.7	49.5	39.0	52.8	28.1	30.17	30.24	30.09	31.24	31.24	31.24
12/15/2010	315	359	0	2	13	0	6	13	0	29	33	24	42	63	16	53.6	58.3	48.5	42.0	54.8	31.0	30.20	30.27	30.15	31.24	31.24	31.24
12/16/2010	225	330	85	1	18	0	5	18	0	40	52	30	57	77	35	58.9	66.8	51.3	53.7	72.3	37.1	30.15	30.20	30.09	31.24	31.24	31.24
12/17/2010	202	306	46	2	16	0	7	16	0	51	59	43	68	84	35	66.3	73.2	60.1	62.9	78.8	52.2	30.13	30.20	30.08	31.24	31.24	31.24
12/18/2010	0	359	0	1	9	0	4	9	0	58	71	47	87	95	76	66.3	68.3	63.1	59.9	65.8	52.0	29.96	30.11	29.84	31.47	31.76	31.24
12/19/2010	315	359	0	3	17	0	11	17	0	62	66	53	84	94	74	64.9	67.0	61.4	56.7	62.1	47.6	29.94	30.08	29.83	31.76	31.76	31.76
12/20/2010	315	359	0	2	17	0	10	17	0	53	60	50	72	88	56	61.4	65.3	57.1	51.6	62.5	41.6	30.14	30.24	30.05	31.76	31.76	31.76
12/21/2010	45	359	0	1	11	0	4	11	0	53	65	50	73	90	48	62.7	67.7	57.7	54.8	67.0	45.3	30.22	30.27	30.18	31.76	31.76	31.76
12/22/2010	270	354	13	3	17	0	8	17	0	54	63	50	69	95	45	65.7	71.6	59.7	60.5	74.9	47.7	30.16	30.24	30.07	31.77	31.77	31.76
12/23/2010	315	359	0	4	19	0	12	19	2	54	57	48	74	90	56	66.6	69.1	62.7	58.2	64.0	47.8	30.13	30.20	30.06	31.77	31.77	31.77
12/24/2010	315	359	0	3	18	0	10	18	0	52	57	47	72	100	59	63.6	67.8	59.0	54.7	64.4	46.1	30.19	30.25	30.16	31.77	31.77	31.77
12/25/2010	180	359	0	4	21	0	8	21	0	54	62	50	67	92	42	65.5	71.1	59.4	60.4	74.4	46.6	30.06	30.17	29.85	31.77	31.77	31.77
12/26/2010	292	355	8	10	32	0	24	32	0	46	65	33	61	84	42	63.9	68.6	56.3	53.5	66.0	36.5	29.96	30.18	29.78	31.77	31.77	31.77
12/27/2010	292	357	0	4	21	0	12	21	0	33	35	32	50	68	27	54.1	57.0	51.1	39.7	52.3	31.1	30.26	30.37	30.16	31.77	31.77	31.77
12/28/2010	315	359	0	2	10	0	5	10	0	36	43	33	60	77	30	53.7	58.1	48.6	41.6	54.8	30.0	30.36	30.43	30.29	31.77	31.77	31.77
12/29/2010	45	359	0	1	9	0	4	9	0	40	45	35	64	80	33	55.3	60.8	49.0	46.2	59.7	31.9	30.26	30.33	30.17	31.77	31.77	31.77
12/30/2010	0	359	0	1	8	0	3	8	0	53	63	43	77	89	60	60.7	65.7	56.1	57.1	67.3	45.7	30.21	30.29	30.17	31.77	31.77	31.77
12/31/2010	135	224	0	3	19	0	9	19	0	61	66	57	68	80	52	68.3	72.5	64.6	67.4	75.3	60.5	30.24	30.29	30.18	31.77	31.77	31.77
																											
Date		Wind	Hi	Lo	Wind	Hi	Lo	Wind	Hi	Lo	Hum	Hi	Lo	Hum	Hi	Lo	Temp	Hi	Lo	Temp	Hi	Lo	Raw	Hi	Lo	Tot	Hi	Lo
		Dir			Speed	Mph	Mph	Gust	Mph	Mph	In%	%	%	Out%	%	%	Inside	F	F	F	F	F	Barom	in	in	Rain	in	in
					Mph			Mph									F						Inches

1/1/2011	135	255	51	4	23	0	10	23	0	63	72	58	72	86	55	70.2	74.8	66.3	67.8	76.5	58.8	30.23	30.28	30.17	0.00	0.00	0.00
1/2/2011	180	309	46	2	20	0	8	20	0	62	69	57	71	100	49	72.1	75.4	68.9	69.8	80.5	62.4	30.22	30.28	30.17	0.00	0.00	0.00
1/3/2011	0	359	0	3	14	0	9	14	0	61	65	58	76	88	63	69.7	71.4	67.7	63.6	66.7	59.7	30.23	30.29	30.18	0.00	0.00	0.00
1/4/2011	248	359	0	1	11	0	4	11	0	62	67	59	76	88	59	69.9	74.0	66.1	65.2	75.9	57.2	30.20	30.26	30.16	0.00	0.00	0.00
1/5/2011	225	359	0	2	15	0	7	15	0	60	63	58	73	100	3	71.5	74.4	67.5	66.8	76.8	56.9	30.08	30.19	29.94	0.00	0.00	0.00
1/6/2011	248	358	0	5	32	0	14	32	0	62	70	47	77	89	50	69.8	72.1	65.0	63.0	68.2	51.0	29.86	29.95	29.75	0.62	0.62	0.00
1/7/2011	270	357	97	4	20	0	10	20	0	47	52	44	64	100	35	64.6	67.9	60.5	54.6	65.8	44.3	29.88	29.97	29.81	0.62	0.62	0.62
1/8/2011	225	349	23	5	25	0	12	25	0	51	64	47	68	89	41	67.0	72.9	61.4	60.7	74.6	50.8	29.88	30.00	29.82	0.62	0.62	0.62
1/9/2011	315	359	0	4	14	0	9	14	0	49	56	43	62	100	44	65.7	69.4	60.5	58.0	68.4	43.7	30.12	30.20	29.99	0.62	0.62	0.62
1/10/2011	180	296	23	4	22	0	13	22	0	62	72	56	65	100	35	71.4	76.2	67.1	71.4	80.3	64.2	30.12	30.18	30.04	0.62	0.62	0.62
1/11/2011	22	359	0	1	11	0	6	11	0	62	67	57	82	100	72	71.9	74.3	67.4	64.6	70.6	53.5	30.22	30.30	30.13	0.62	0.62	0.62
1/12/2011	315	359	0	3	17	0	10	17	0	45	57	35	60	100	35	63.0	67.4	59.2	49.6	55.5	42.3	30.35	30.43	30.28	0.62	0.62	0.62
1/13/2011	315	359	0	5	20	0	13	20	2	40	46	34	63	80	45	57.7	60.4	54.2	45.3	54.1	35.4	30.42	30.49	30.38	0.63	0.63	0.62
1/14/2011	315	359	0	3	12	0	8	12	0	51	65	45	70	85	50	60.5	65.9	55.6	53.9	66.5	43.6	30.37	30.43	30.33	0.63	0.63	0.63
1/15/2011	22	359	0	2	12	0	5	12	0	55	67	51	74	100	57	64.6	70.1	59.6	59.1	67.5	49.3	30.28	30.35	30.21	0.63	0.63	0.63
1/16/2011	45	359	0	1	10	0	4	10	0	56	62	53	76	88	60	67.0	70.8	62.4	60.2	69.3	51.6	30.16	30.24	30.10	0.63	0.63	0.63
1/17/2011	180	359	52	2	25	0	7	25	0	65	77	57	83	89	65	67.7	70.4	64.7	63.6	73.2	56.1	30.01	30.14	29.91	0.64	0.65	0.63
1/18/2011	248	359	0	3	18	0	9	18	0	69	76	63	80	100	40	69.8	75.3	66.3	66.6	78.8	61.3	29.99	30.05	29.95	0.66	0.66	0.65
1/19/2011	202	359	0	4	18	0	10	18	0	66	76	60	78	100	41	72.7	78.4	69.1	68.8	81.5	60.4	30.04	30.13	29.96	0.67	0.67	0.66
1/20/2011	135	359	0	2	13	0	6	13	0	67	79	59	80	100	52	72.3	77.4	67.0	67.4	81.7	56.2	30.06	30.14	29.96	0.68	0.69	0.67
1/21/2011	0	359	0	3	19	0	11	19	0	71	76	67	86	99	74	72.0	74.3	69.4	66.7	73.9	61.9	29.90	29.97	29.82	1.41	1.95	0.69
1/22/2011	292	358	19	5	23	0	12	23	0	57	69	39	68	91	37	67.0	69.6	61.0	56.6	64.6	41.1	29.91	30.12	29.80	1.95	1.95	1.95
1/23/2011	315	359	0	3	18	0	10	18	0	47	55	40	65	84	55	60.2	64.1	55.8	49.3	60.1	38.0	30.18	30.25	30.09	1.95	1.95	1.95
1/24/2011	112	359	0	2	14	0	7	14	0	56	63	51	71	100	27	65.3	70.5	60.4	61.2	70.3	49.2	30.24	30.29	30.21	1.95	1.95	1.95
1/25/2011	135	359	1	6	29	0	17	29	0	67	76	58	74	92	64	71.1	74.8	67.7	69.3	75.7	62.3	30.09	30.23	29.95	2.09	3.28	1.95
1/26/2011	270	335	97	5	22	0	12	22	0	62	72	49	72	90	39	69.3	72.3	65.4	62.3	70.7	49.4	30.03	30.16	29.92	3.34	3.34	3.28
1/27/2011	292	359	0	1	11	0	6	11	0	49	56	44	65	87	35	64.2	68.2	59.7	53.1	64.9	43.3	30.16	30.22	30.10	3.35	3.35	3.34
1/28/2011	315	359	0	3	15	0	9	15	0	44	48	39	55	75	28	63.9	69.3	59.7	54.5	67.4	46.8	30.15	30.24	30.09	3.35	3.35	3.35
1/29/2011	248	359	0	2	12	0	5	12	0	44	55	38	65	88	30	64.3	69.2	58.6	56.0	68.4	42.9	30.22	30.29	30.17	3.35	3.35	3.35
1/30/2011	45	359	0	1	10	0	4	10	0	48	57	45	70	100	39	65.8	70.0	60.6	58.3	69.0	46.8	30.26	30.33	30.22	3.35	3.35	3.35
1/31/2011	90	359	0	1	12	0	5	12	0	56	63	49	78	89	56	68.4	72.1	64.3	62.5	71.9	54.6	30.22	30.31	30.18	3.35	3.35	3.35
2/1/2011	135	248	26	4	22	0	10	22	0	65	77	57	78	100	50	71.1	76.1	65.5	67.1	76.9	55.4	30.16	30.23	30.09	3.35	3.35	3.35
2/2/2011	180	279	28	4	20	0	11	20	0	69	75	66	77	86	42	74.8	79.1	70.8	72.7	84.1	66.4	30.19	30.25	30.13	3.35	3.35	3.35
2/3/2011	0	359	0	2	12	0	8	12	0	68	72	66	84	93	69	73.9	75.8	71.6	67.6	72.3	64.3	30.25	30.33	30.20	3.35	3.35	3.35
2/4/2011	135	359	0	3	17	0	8	17	0	71	78	67	83	97	42	73.8	78.0	70.4	69.8	77.9	64.5	30.17	30.25	30.09	3.36	3.36	3.35
2/5/2011	225	359	0	3	22	0	10	22	0	67	76	55	73	100	41	76.1	80.7	72.2	73.5	84.1	66.5	30.05	30.11	29.96	3.37	3.37	3.36
2/6/2011	45	359	0	2	13	0	7	13	0	64	67	61	79	87	63	73.1	76.3	70.9	65.8	69.2	63.1	30.11	30.18	30.01	3.37	3.37	3.37
2/7/2011	180	359	0	6	35	0	15	35	0	64	76	53	71	89	40	74.8	80.1	70.8	72.7	85.2	63.3	30.03	30.13	29.90	3.37	3.37	3.37
2/8/2011	0	359	0	4	17	0	12	17	0	51	57	47	69	100	43	70.2	74.2	65.1	59.1	67.0	52.1	30.18	30.28	30.08	3.37	3.37	3.37
2/9/2011	112	359	0	3	18	0	9	18	0	53	58	47	69	100	50	67.9	73.1	61.7	61.3	72.6	46.4	30.18	30.26	30.06	3.38	3.38	3.37
2/10/2011	0	359	0	4	20	0	11	20	0	64	75	58	84	91	58	70.0	74.9	66.9	64.6	79.3	58.9	30.04	30.13	29.98	3.42	3.50	3.38
2/11/2011	315	359	0	3	13	0	9	13	0	62	65	55	80	92	68	66.4	68.6	64.3	57.4	62.7	53.2	30.15	30.27	30.06	3.55	3.56	3.50
2/12/2011	315	359	0	4	19	0	12	19	0	48	55	39	62	100	41	62.5	64.6	60.4	52.5	57.9	44.4	30.35	30.43	30.25	3.56	3.56	3.56
2/13/2011	315	359	0	3	17	0	8	17	0	42	49	37	56	80	33	62.4	66.5	57.9	53.6	62.8	42.9	30.40	30.47	30.35	3.56	3.56	3.56
2/14/2011	315	359	0	2	19	0	6	19	0	46	55	41	64	100	35	64.4	70.8	57.8	56.2	72.7	42.6	30.32	30.40	30.25	3.56	3.56	3.56
2/15/2011	0	359	0	2	11	0	6	11	0	50	59	41	73	100	58	65.9	71.0	59.5	56.6	67.9	42.3	30.30	30.35	30.26	3.56	3.56	3.56
2/16/2011	45	358	0	2	12	0	5	12	0	55	63	51	74	100	49	69.4	74.8	63.2	63.5	75.0	51.4	30.30	30.36	30.26	3.56	3.56	3.56
2/17/2011	112	202	13	3	18	0	8	18	0	58	67	54	73	100	55	71.5	76.2	66.3	66.6	76.5	55.3	30.30	30.36	30.25	3.56	3.56	3.56
2/18/2011	45	359	0	1	11	0	5	11	0	58	65	55	75	100	54	72.8	77.6	67.8	66.4	76.4	56.7	30.32	30.39	30.28	3.56	3.56	3.56
2/19/2011	45	359	0	2	12	0	6	12	0	56	61	52	74	100	51	71.8	76.2	67.4	64.4	74.3	55.9	30.26	30.32	30.20	3.56	3.56	3.56
2/20/2011	112	359	0	2	17	0	8	17	0	59	75	53	77	94	53	71.6	76.6	67.0	65.8	77.0	56.3	30.23	30.27	30.19	3.57	3.58	3.56
2/21/2011	202	295	97	2	20	0	9	20	0	60	67	53	67	87	43	75.0	80.3	69.9	72.3	83.6	61.3	30.14	30.21	30.08	3.59	3.59	3.58
2/22/2011	248	348	142	2	17	0	7	17	0	56	65	51	69	90	42	76.1	80.9	71.4	71.3	84.6	61.7	30.15	30.21	30.10	3.59	3.59	3.59
2/23/2011	0	359	0	2	16	0	8	16	0	59	66	52	81	91	69	74.1	77.5	70.8	65.5	73.2	58.8	30.20	30.26	30.12	3.59	3.59	3.59
2/24/2011	135	359	0	3	16	0	9	16	0	63	71	60	77	93	49	74.1	79.0	68.7	69.1	78.9	57.2	30.20	30.26	30.14	3.59	3.59	3.59
2/25/2011	225	327	44	3	20	0	9	20	0	60	68	54	67	88	44	76.1	80.1	72.4	73.0	83.2	65.0	30.14	30.21	30.07	3.60	3.60	3.59
2/26/2011	135	359	0	2	14	0	7	14	0	58	68	54	72	100	51	76.1	80.4	71.4	70.7	80.4	61.6	30.17	30.30	30.12	3.60	3.60	3.60
2/27/2011	135	351	22	3	23	0	10	23	0	61	68	56	73	86	54	76.7	81.9	71.6	71.9	81.5	61.4	30.20	30.26	30.15	3.60	3.60	3.60
2/28/2011	158	355	0	3	22	0	10	22	0	60	69	54	67	88	35	77.9	82.8	72.6	74.5	86.4	63.5	30.17	30.25	30.09	3.60	3.60	3.60
3/1/2011	0	359	0	4	19	0	11	19	0	62	68	54	80	91	66	75.4	78.2	72.3	68.8	76.2	64.7	30.14	30.19	30.09	3.64	3.68	3.60
3/2/2011	45	359	0	6	23	0	14	23	2	59	69	48	65	100	50	73.3	76.0	71.3	69.4	73.7	66.8	30.20	30.26	30.14	3.71	3.72	3.68
3/3/2011	68	359	0	6	25	0	17	25	3	52	56	47	58	68	44	72.9	76.5	70.4	69.6	74.6	67.0	30.27	30.33	30.19	3.72	3.72	3.72
3/4/2011	90	359	0	6	22	0	16	22	0	59	67	52	70	89	52	72.2	75.5	70.6	68.2	74.4	64.4	30.30	30.37	30.26	3.82	4.12	3.72
3/5/2011	112	353	8	6	20	0	16	20	3	62	67	56	68	85	36	73.4	77.8	70.0	70.7	76.8	64.6	30.22	30.31	30.14	4.12	4.20	4.12
3/6/2011	180	355	60	5	23	0	12	23	0	64	75	56	74	92	46	74.6	78.7	70.4	71.2	81.5	62.6	30.05	30.16	29.95	4.27	4.28	4.20
3/7/2011	0	359	0	4	16	0	11	16	0	55	61	52	76	88	61	71.2	74.2	68.6	60.9	65.6	55.7	30.12	30.21	30.04	4.28	4.28	4.28
3/8/2011	90	359	0	5	17	0	11	17	0	59	67	53	66	100	47	73.1	78.4	68.0	70.2	77.9	62.0	30.23	30.29	30.15	4.28	4.28	4.28
3/9/2011	112	272	33	5	24	0	17	24	0	61	64	58	68	100	35	75.6	79.2	72.1	72.4	78.2	68.4	30.23	30.29	30.18	4.28	4.28	4.28
3/10/2011	292	359	0	3	23	0	10	23	0	62	66	54	80	89	63	71.9	75.0	68.1	64.6	69.1	53.3	30.14	30.22	30.01	4.81	5.26	4.28
3/11/2011	315	359	0	4	18	0	10	18	0	46	54	39	57	79	32	67.5	72.3	62.9	55.7	67.8	45.7	30.23	30.31	30.15	5.27	5.27	5.26
3/12/2011	315	359	0	2	15	0	7	15	0	43	48	39	64	84	45	66.4	71.7	60.3	56.4	66.9	43.5	30.33	30.38	30.30	5.27	5.27	5.27
3/13/2011	90	358	0	2	13	0	5	13	0	47	57	45	69	100	33	69.1	75.3	61.9	61.2	74.2	46.5	30.33	30.40	30.29	5.27	5.27	5.27
3/14/2011	112	345	2	2	14	0	7	14	0	50	60	46	67	100	34	71.3	77.2	65.1	64.8	76.0	52.0	30.30	30.34	30.27	5.27	5.27	5.27
3/15/2011	112	352	1	2	19	0	7	19	0	50	60	47	69	100	40	72.9	77.8	67.8	66.7	76.6	55.8	30.30	30.36	30.25	5.27	5.27	5.27
3/16/2011	112	359	0	2	15	0	6	15	0	53	61	49	72	100	1	74.1	79.2	68.7	67.9	77.8	57.4	30.31	30.36	30.26	5.27	5.27	5.27
3/17/2011	45	359	0	2	12	0	7	12	0	55	61	50	77	100	51	75.2	79.7	70.2	68.6	76.5	59.2	30.33	30.39	30.28	5.27	5.27	5.27
3/18/2011	45	359	0	2	11	0	7	11	0	54	61	47	67	100	31	76.2	80.6	71.5	70.4	77.7	61.1	30.33	30.39	30.30	5.27	5.27	5.27
3/19/2011	45	359	0	1	9	0	5	9	0	47	57	37	63	100	22	75.7	81.2	69.8	67.9	79.2	56.9	30.30	30.36	30.26	5.27	5.27	5.27
3/20/2011	45	359	0	4	21	0	10	21	0	55	70	42	76	100	62	75.2	80.4	69.3	67.9	78.6	55.5	30.34	30.41	30.27	5.27	5.27	5.27
3/21/2011	90	188	2	5	19	0	13	19	0	58	67	48	65	100	35	76.3	79.9	73.0	72.2	78.5	64.4	30.37	30.48	30.31	5.27	5.27	5.27
3/22/2011	112	358	2	2	13	0	5	13	0	50	59	45	68	100	20	75.8	81.4	69.8	68.1	79.6	56.5	30.24	30.34	30.15	5.27	5.27	5.27
3/23/2011	248	359	0	3	14	0	9	14	0	52	63	46	69	100	37	76.7	83.8	70.5	71.5	87.4	58.7	30.09	30.17	30.01	5.27	5.27	5.27
3/24/2011	248	350	2	5	22	0	12	22	0	52	65	45	69	100	25	77.6	83.2	72.3	72.6	87.3	61.1	30.02	30.09	29.94	5.27	5.27	5.27
3/25/2011	248	359	0	3	13	0	9	13	0	54	62	48	74	100	51	78.4	82.0	74.6	71.1	77.1	65.3	30.03	30.09	29.98	5.27	5.27	5.27
3/26/2011	112	359	0	2	16	0	7	16	0	47	52	37	64	100	17	77.4	82.7	71.6	70.7	83.0	57.4	30.03	30.09	29.98	5.27	5.27	5.27
3/27/2011	180	353	35	3	17	0	9	17	0	51	63	46	64	100	32	80.1	87.4	73.7	77.0	92.5	63.5	30.01	30.08	29.95	5.27	5.27	5.27
3/28/2011	180	359	0	2	21	0	9	21	0	56	62	48	82	100	63	76.7	82.2	72.5	69.0	75.0	64.7	30.07	30.17	29.96	5.85	6.49	5.27
3/29/2011	45	359	0	3	19	0	8	19	0	64	73	61	83	100	37	75.4	80.5	70.8	69.5	76.4	61.7	30.12	30.20	29.98	6.49	6.50	6.49
3/30/2011	180	349	7	5	29	0	13	29	0	65	77	53	74	100	36	79.1	85.0	74.9	76.9	90.0	69.2	30.01	30.15	29.87	6.50	6.50	6.50
3/31/2011	225	359	4	6	33	0	18	33	2	59	64	52	72	100	38	77.9	80.8	75.4	73.1	83.6	67.4	29.86	29.98	29.77	6.64	7.20	6.50
4/1/2011	292	358	0	5	21	0	12	21	0	57	67	41	65	100	27	77.5	82.9	73.1	71.6	82.3	62.4	29.92	30.08	29.81	7.25	7.25	7.20
4/2/2011	45	359	0	2	14	0	5	14	0	48	53	43	67	100	36	76.4	80.9	70.2	67.2	77.2	54.9	30.10	30.16	30.04	7.25	7.25	7.25
4/3/2011	45	359	0	2	16	0	8	16	0	52	59	49	70	100	37	77.6	82.6	72.0	70.8	80.7	59.8	30.20	30.27	30.13	7.25	7.25	7.25
4/4/2011	135	243	45	6	25	0	13	25	0	57	67	53	70	100	39	80.4	85.9	75.1	76.3	85.7	67.1	30.14	30.22	30.06	7.25	7.25	7.25
4/5/2011	180	359	0	4	29	0	14	29	1	63	72	57	80	91	55	78.5	81.8	76.0	72.0	84.2	63.1	30.03	30.16	29.96	7.53	7.82	7.25
4/6/2011	45	359	0	4	17	0	11	17	0	51	57	47	63	100	50	75.3	79.3	70.1	67.6	75.4	55.2	30.22	30.29	30.14	7.82	7.82	7.82
4/7/2011	112	357	0	3	17	0	8	17	0	56	66	49	73	100	15	77.8	83.0	71.7	71.4	80.8	60.9	30.20	30.27	30.15	7.82	7.82	7.82
4/8/2011	112	359	0	3	17	0	6	17	0	58	67	55	72	89	47	80.1	85.3	75.0	74.8	84.3	65.2	30.19	30.25	30.15	7.82	7.82	7.82
4/9/2011	45	359	0	2	12	0	6	12	0	57	63	53	72	89	49	81.2	86.7	76.2	75.7	87.6	66.0	30.20	30.28	30.16	7.82	7.82	7.82
4/10/2011	45	359	0	2	12	0	5	12	0	57	65	52	72	87	51	82.8	87.5	77.8	77.3	85.1	69.4	30.20	30.26	30.16	7.82	7.82	7.82
4/11/2011	135	359	0	3	15	0	9	15	0	58	64	54	70	100	35	83.7	88.7	78.8	79.1	89.2	70.7	30.15	30.20	30.10	7.82	7.82	7.82
4/12/2011	225	340	2	3	19	0	10	19	0	55	65	48	65	100	37	83.6	88.4	78.8	79.2	90.0	69.3	30.07	30.14	29.99	7.82	7.82	7.82
4/13/2011	45	359	0	2	13	0	7	13	0	46	53	38	62	80	38	82.2	85.2	78.6	73.6	79.9	65.3	30.07	30.13	30.01	7.82	7.82	7.82
4/14/2011	45	359	0	3	17	0	8	17	0	45	60	40	64	100	43	79.9	84.4	74.6	72.0	81.4	60.6	30.10	30.16	30.05	7.82	7.82	7.82
4/15/2011	112	301	2	4	15	0	12	15	0	61	69	48	77	94	63	80.0	81.9	78.9	75.3	79.2	70.8	30.09	30.14	30.05	8.29	8.83	7.82
4/16/2011	248	322	120	4	17	0	10	17	0	62	74	47	66	89	34	82.5	88.1	77.9	80.3	91.2	72.7	30.06	30.13	29.98	8.83	8.83	8.83
4/17/2011	45	359	0	3	15	0	10	15	0	51	56	45	70	100	53	81.8	84.3	79.3	73.5	77.0	69.7	30.08	30.15	30.00	8.84	8.84	8.83
4/18/2011	45	359	0	4	17	0	10	17	0	60	65	52	73	100	7	80.9	85.2	77.4	76.2	82.4	71.8	30.14	30.22	30.08	8.84	8.84	8.84
4/19/2011	135	309	16	4	20	0	9	20	0	61	72	54	73	91	39	83.0	88.5	78.1	78.3	87.6	69.3	30.19	30.24	30.13	8.84	8.84	8.84
4/20/2011	112	267	0	3	15	0	8	15	0	57	65	51	70	91	52	83.3	87.9	78.5	77.4	85.8	67.6	30.22	30.27	30.17	8.84	8.84	8.84
4/21/2011	112	359	0	3	13	0	9	13	0	53	61	49	66	100	45	82.8	87.3	78.2	76.1	82.4	66.5	30.22	30.28	30.16	8.84	8.84	8.84
4/22/2011	112	353	7	4	16	0	10	16	0	52	57	48	63	100	41	82.7	87.0	78.3	76.9	84.4	67.6	30.22	30.26	30.18	8.84	8.84	8.84
4/23/2011	112	215	4	4	18	0	11	18	0	55	62	51	67	79	53	83.3	87.8	79.1	78.2	86.4	73.0	30.24	30.29	30.17	8.84	8.84	8.84
4/24/2011	112	344	0	4	18	0	12	18	2	58	63	51	69	84	54	83.4	87.3	80.1	78.2	84.5	74.9	30.22	30.29	30.17	8.84	8.84	8.84
4/25/2011	112	358	4	4	22	0	14	22	0	63	68	58	75	93	61	83.1	87.0	80.3	78.2	84.3	74.9	30.12	30.23	30.04	8.87	8.90	8.84
4/26/2011	135	244	18	4	28	0	12	28	0	65	74	57	75	100	61	83.7	88.3	79.8	79.6	88.3	72.4	30.02	30.07	29.97	8.91	8.92	8.90
4/27/2011	135	255	37	6	24	0	17	24	0	67	73	62	74	97	55	85.0	89.4	81.3	81.6	89.0	76.4	30.06	30.14	29.99	8.92	8.92	8.92
4/28/2011	180	317	24	5	27	0	14	27	0	63	72	54	70	100	38	86.0	91.1	81.9	82.0	92.1	75.9	30.11	30.16	30.03	8.92	8.92	8.92
4/29/2011	0	359	0	5	22	0	12	22	0	57	66	52	73	87	59	81.1	84.4	76.6	73.6	85.0	67.9	30.08	30.13	30.01	8.92	8.92	8.92
4/30/2011	45	359	0	4	17	0	10	17	0	54	59	49	64	100	38	79.2	84.2	74.6	73.8	80.8	64.2	30.13	30.19	30.07	8.92	8.92	8.92
5/1/2011	90	350	2	5	20	0	12	20	0	55	59	51	67	100	38	81.1	85.9	77.0	76.3	83.7	71.1	30.19	30.24	30.15	8.92	8.92	8.92
5/2/2011	112	338	1	6	19	0	14	19	2	59	65	54	69	100	46	82.0	86.6	78.1	77.1	84.7	72.6	30.24	30.29	30.18	8.92	8.92	8.92
5/3/2011	112	346	3	5	18	0	12	18	0	56	61	50	65	79	50	82.6	87.5	78.2	77.7	85.9	71.5	30.23	30.32	30.19	8.92	8.92	8.92
5/4/2011	45	359	0	3	16	0	8	16	0	56	62	53	73	100	56	82.7	87.4	78.5	75.7	83.7	67.6	30.19	30.23	30.16	8.92	8.92	8.92
5/5/2011	45	359	0	5	18	0	14	18	3	54	62	46	64	85	52	80.6	83.6	77.6	75.2	79.2	72.2	30.20	30.25	30.16	8.92	8.92	8.92
5/6/2011	112	260	0	4	21	0	13	21	0	55	60	52	66	100	54	80.7	84.5	77.4	76.1	84.3	71.7	30.12	30.19	30.05	8.92	8.92	8.92
5/7/2011	45	359	0	3	14	0	7	14	0	52	59	41	70	100	34	80.8	84.8	76.9	73.0	80.4	66.1	30.10	30.16	30.05	8.92	8.92	8.92
5/8/2011	45	359	0	3	16	0	7	16	0	57	66	49	75	100	37	82.0	87.4	76.0	75.6	85.3	64.7	30.07	30.13	30.01	8.92	8.92	8.92
5/9/2011	45	359	0	1	14	0	7	14	0	56	65	52	75	100	47	83.5	88.2	78.2	76.4	86.9	66.2	30.02	30.08	29.99	8.92	8.92	8.92
5/10/2011	112	359	0	3	14	0	7	14	0	57	66	53	74	100	38	84.2	88.9	79.4	77.6	85.6	69.4	30.05	30.11	29.99	8.92	8.92	8.92
5/11/2011	248	359	0	1	16	0	7	16	0	54	60	49	64	100	11	85.1	91.3	79.6	80.9	95.5	69.0	30.06	30.11	30.01	8.92	8.92	8.92
5/12/2011	45	359	0	4	16	0	9	16	0	57	64	50	72	100	42	85.6	89.3	82.6	79.0	84.1	74.4	30.08	30.14	30.03	8.92	8.92	8.92
5/13/2011	112	333	17	3	18	0	9	18	0	53	60	49	66	100	51	84.2	88.8	79.7	78.4	86.6	68.6	30.02	30.10	29.93	8.92	8.92	8.92
5/14/2011	225	359	1	2	37	0	11	37	0	53	61	49	72	100	37	83.5	89.5	79.7	76.3	93.8	68.5	29.93	29.98	29.85	9.17	9.71	8.92
5/15/2011	248	336	8	6	28	0	16	28	1	54	63	44	65	100	32	80.7	85.8	76.2	75.9	88.7	67.1	29.84	29.91	29.77	9.72	9.73	9.71
5/16/2011	270	356	51	4	19	0	10	19	0	45	52	41	61	100	42	81.1	85.9	76.3	73.1	84.0	63.1	29.85	29.90	29.80	9.73	9.73	9.73
5/17/2011	270	357	0	3	22	0	9	22	0	45	53	40	60	100	36	80.6	85.0	75.7	73.3	84.9	62.4	29.84	29.90	29.78	9.73	9.73	9.73
5/18/2011	112	359	0	4	16	0	8	16	0	46	53	40	66	100	44	80.5	85.1	75.1	72.0	83.0	60.1	29.96	30.05	29.89	9.73	9.73	9.73
5/19/2011	112	359	0	3	16	0	9	16	0	55	58	49	67	100	27	84.0	90.6	79.1	79.8	91.4	71.0	30.08	30.16	30.01	9.73	9.73	9.73
5/20/2011	135	267	13	4	21	0	9	21	0	58	65	54	75	100	36	86.4	90.8	81.9	81.6	89.2	73.9	30.12	30.16	30.07	9.73	9.73	9.73
5/21/2011	112	359	0	3	16	0	7	16	0	57	65	51	71	100	39	86.9	91.6	82.0	81.3	91.7	72.4	30.11	30.14	30.08	9.73	9.73	9.73
5/22/2011	112	338	0	2	14	0	7	14	0	54	62	50	75	100	2	86.9	91.6	82.0	80.5	89.0	71.0	30.15	30.20	30.10	9.73	9.73	9.73
5/23/2011	112	336	4	3	15	0	9	15	0	56	61	51	70	100	36	86.1	89.8	82.6	80.1	86.4	71.9	30.16	30.20	30.10	9.73	9.73	9.73
5/24/2011	112	359	0	3	16	0	9	16	0	52	57	49	67	100	3	85.1	89.3	80.7	78.0	85.1	69.5	30.12	30.17	30.09	9.73	9.73	9.73
5/25/2011	112	357	1	4	20	0	11	20	0	53	59	50	67	100	52	85.1	89.7	80.7	79.1	87.1	70.0	30.10	30.14	30.06	9.73	9.73	9.73
5/26/2011	112	359	23	6	22	0	12	22	0	56	61	52	69	100	37	85.4	89.9	81.4	80.0	87.7	70.9	30.08	30.14	30.04	9.73	9.73	9.73
5/27/2011	180	267	17	2	19	0	8	19	0	58	63	55	72	100	55	85.0	88.6	81.5	79.6	87.9	72.1	30.05	30.13	29.98	9.73	9.74	9.73
5/28/2011	112	324	3	3	19	0	9	19	0	57	64	53	72	100	41	85.8	90.7	80.9	80.0	88.2	70.9	30.06	30.13	30.00	9.74	9.74	9.74
5/29/2011	45	359	0	4	21	0	10	21	0	57	64	53	70	100	56	86.1	89.7	82.7	80.0	85.2	73.3	30.14	30.23	30.07	9.74	9.74	9.74
5/30/2011	45	358	0	5	18	0	13	18	0	58	62	54	68	100	8	85.2	89.2	82.0	80.2	85.1	76.6	30.21	30.25	30.15	9.74	9.74	9.74
5/31/2011	45	359	0	4	16	0	13	16	0	59	64	54	70	100	10	84.9	89.3	81.9	79.7	84.9	76.7	30.22	30.26	30.18	9.75	9.78	9.74
6/1/2011	112	359	0	3	19	0	9	19	0	58	63	53	70	100	47	84.5	88.0	81.1	78.5	83.2	70.9	30.16	30.24	30.11	9.78	9.78	9.78
6/2/2011	112	359	0	4	19	0	13	19	0	57	61	52	66	100	9	84.9	88.6	81.5	79.7	84.4	75.6	30.14	30.19	30.10	9.78	9.78	9.78
6/3/2011	45	359	0	4	19	0	11	19	0	58	62	53	70	100	21	85.3	89.3	81.9	80.2	84.8	76.2	30.13	30.17	30.10	9.78	9.78	9.78
6/4/2011	45	359	0	3	16	0	10	16	0	59	64	53	72	100	42	85.1	89.2	82.2	80.1	84.8	76.0	30.16	30.21	30.12	9.78	9.78	9.78
6/5/2011	45	359	0	3	14	0	9	14	0	59	66	53	74	100	4	85.4	89.5	81.5	79.5	84.6	71.9	30.12	30.18	30.07	9.78	9.78	9.78
6/6/2011	112	304	1	3	12	0	8	12	0	54	59	49	67	100	14	85.3	90.2	80.6	79.1	87.5	68.1	30.04	30.09	29.98	9.78	9.78	9.78
6/7/2011	45	359	0	4	15	0	10	15	0	56	61	52	74	100	1	85.1	89.0	81.1	79.2	85.3	70.0	30.07	30.11	30.00	9.78	9.78	9.78
6/8/2011	45	359	0	6	19	0	13	19	0	62	67	55	74	100	4	84.9	88.0	81.9	79.8	84.1	74.5	30.11	30.16	30.07	9.98	10.04	9.78
6/9/2011	112	182	1	6	19	0	14	19	2	62	66	58	74	100	7	85.4	89.0	82.3	80.7	85.9	77.0	30.09	30.14	30.04	10.05	10.06	10.04
6/10/2011	45	359	0	4	17	0	12	17	0	62	67	54	71	100	3	85.4	88.8	82.5	80.6	84.9	77.1	30.04	30.08	30.00	10.07	10.07	10.06
6/11/2011	45	359	0	4	19	0	12	19	0	61	66	57	72	100	2	85.7	89.6	82.4	80.8	85.6	77.4	30.01	30.05	29.96	10.07	10.07	10.07
6/12/2011	45	359	0	3	18	0	9	18	0	58	65	53	72	100	15	86.2	90.5	81.8	79.9	87.6	71.4	30.05	30.11	29.99	10.07	10.07	10.07
6/13/2011	248	359	0	3	16	0	10	16	0	55	65	50	64	100	37	87.7	93.8	81.9	83.2	95.5	72.0	30.06	30.11	30.00	10.07	10.07	10.07
6/14/2011	248	359	0	2	17	0	10	17	0	54	63	49	68	100	28	88.1	94.0	83.8	82.4	98.9	73.5	30.02	30.07	29.95	10.07	10.08	10.07
6/15/2011	270	359	0	3	26	0	9	26	0	56	67	51	76	100	41	86.4	92.6	82.8	79.1	94.5	70.4	29.99	30.04	29.94	10.14	10.30	10.08
6/16/2011	112	359	0	4	21	0	10	21	0	60	68	54	75	88	58	84.8	89.8	80.4	79.0	87.8	70.4	30.05	30.12	29.98	10.30	10.30	10.30
6/17/2011	112	356	0	3	20	0	8	20	0	60	67	54	74	100	61	87.5	92.3	83.3	82.5	90.0	74.5	30.12	30.22	30.07	10.30	10.30	10.30
6/18/2011	112	359	0	2	19	0	9	19	0	57	65	52	71	91	50	87.8	93.2	83.6	81.8	93.5	73.5	30.17	30.24	30.12	10.31	10.35	10.30
6/19/2011	202	359	0	2	16	0	8	16	0	59	68	52	73	90	50	87.3	92.7	82.5	81.8	94.0	73.9	30.14	30.19	30.09	10.35	10.35	10.35
6/20/2011	45	359	0	2	16	0	8	16	0	58	65	51	72	100	16	87.9	92.8	83.4	82.0	89.5	73.6	30.10	30.14	30.07	10.35	10.35	10.35
6/21/2011	112	358	1	4	18	0	9	18	0	57	66	53	68	100	35	88.7	93.7	83.8	83.7	92.0	74.6	30.11	30.16	30.06	10.35	10.35	10.35
6/22/2011	112	271	6	3	21	0	10	21	0	58	64	55	70	100	42	89.4	94.3	85.0	84.6	92.0	77.1	30.14	30.18	30.09	10.35	10.35	10.35
6/23/2011	112	357	13	5	22	0	10	22	0	59	65	54	71	100	54	89.5	94.3	85.3	84.7	92.9	76.1	30.11	30.16	30.05	10.35	10.35	10.35
6/24/2011	180	355	10	3	24	0	9	24	0	57	66	50	72	100	47	89.0	94.4	85.1	82.2	94.1	74.6	30.06	30.12	29.99	10.35	10.37	10.35
6/25/2011	202	359	0	2	19	0	7	19	0	59	65	53	79	90	50	86.4	91.3	83.2	79.3	92.5	73.5	30.08	30.15	30.03	10.74	11.49	10.37
6/26/2011	202	359	0	2	23	0	8	23	0	61	66	58	80	92	54	85.8	90.7	82.8	78.9	91.2	73.5	30.12	30.17	30.07	11.57	11.81	11.49
6/27/2011	180	309	2	1	17	0	5	17	0	64	72	61	84	98	62	84.0	88.4	81.1	77.6	88.4	72.2	30.17	30.23	30.12	11.85	11.95	11.81
6/28/2011	112	358	2	2	23	0	6	23	0	65	73	60	83	95	59	84.6	90.3	82.1	78.6	88.4	74.2	30.18	30.22	30.14	11.97	11.98	11.95
6/29/2011	135	359	0	1	27	0	6	27	0	66	73	63	88	93	71	82.1	85.6	80.3	75.8	84.2	72.8	30.13	30.18	30.09	12.27	12.67	11.98
6/30/2011	225	358	134	2	26	0	8	26	0	68	75	64	85	95	60	81.7	87.0	79.1	76.2	88.4	72.6	30.09	30.13	30.03	12.91	13.41	12.67
7/1/2011	112	359	0	1	16	0	6	16	0	68	77	63	84	96	63	82.5	89.0	79.0	76.8	87.0	72.1	30.09	30.13	30.04	13.88	14.88	13.41
7/2/2011	45	359	0	2	12	0	6	12	0	67	73	62	80	94	38	83.9	88.8	79.2	78.3	84.4	71.6	30.11	30.17	30.07	14.89	14.89	14.88
7/3/2011	112	359	0	3	17	0	8	17	0	63	72	58	76	93	63	86.5	90.8	81.8	80.7	86.9	73.7	30.10	30.14	30.05	14.89	14.89	14.89
7/4/2011	112	215	7	3	16	0	7	16	0	61	68	57	74	100	35	87.5	92.6	83.2	82.2	89.2	75.0	30.10	30.14	30.06	14.89	14.89	14.89
7/5/2011	112	359	0	3	15	0	10	15	0	64	69	59	75	91	65	87.9	92.4	84.5	82.8	87.6	78.2	30.10	30.14	30.06	14.89	14.89	14.89
7/6/2011	45	359	0	3	15	0	9	15	0	67	72	63	78	100	45	87.5	91.6	84.7	82.4	87.1	79.7	30.08	30.12	30.03	14.89	14.89	14.89
7/7/2011	180	270	15	1	21	0	6	21	0	66	72	64	83	89	66	86.0	89.0	83.7	80.5	88.4	77.0	30.03	30.07	30.00	14.92	14.99	14.89
7/8/2011	180	264	74	4	19	0	13	19	0	67	75	62	79	90	39	84.7	89.6	81.3	79.9	89.8	74.6	30.05	30.09	30.01	15.03	15.13	14.99
7/9/2011	112	282	10	2	17	0	8	17	0	65	76	57	77	100	36	86.3	92.6	81.4	82.2	93.0	73.7	30.08	30.14	30.04	15.13	15.13	15.13
7/10/2011	180	359	0	1	12	0	6	12	0	63	70	60	78	100	46	88.0	91.4	84.8	82.4	90.4	77.3	30.13	30.19	30.08	15.13	15.13	15.13
7/11/2011	135	359	0	2	15	0	6	15	0	63	68	59	78	100	37	88.0	91.4	84.7	82.7	91.9	77.3	30.15	30.20	30.11	15.19	15.33	15.13
7/12/2011	248	359	0	2	18	0	7	18	0	60	68	53	76	100	1	88.2	93.0	83.9	82.0	92.4	75.1	30.13	30.18	30.08	15.33	15.33	15.33
7/13/2011	225	356	0	3	21	0	9	21	0	61	71	54	80	100	50	88.1	93.3	84.0	81.8	91.6	76.1	30.07	30.13	30.00	15.36	15.46	15.33
7/14/2011	225	336	2	3	17	0	8	17	0	62	71	57	78	100	41	88.6	93.6	84.1	83.2	92.4	77.1	30.01	30.06	29.94	15.46	15.46	15.46
7/15/2011	270	359	0	1	16	0	8	16	0	61	68	56	80	100	56	88.0	92.2	84.9	81.1	88.1	74.4	30.02	30.07	29.96	15.50	15.79	15.46
7/16/2011	45	359	0	1	11	0	5	11	0	63	72	59	81	100	63	86.8	91.8	82.5	79.9	87.1	73.9	30.07	30.12	30.00	15.80	15.80	15.79
7/17/2011	22	359	0	2	18	0	8	18	0	63	69	58	80	89	67	87.3	90.8	84.4	81.1	86.3	76.6	30.11	30.16	30.07	15.80	15.80	15.80
7/18/2011	0	359	0	3	18	0	10	18	0	67	72	61	79	89	65	85.0	86.5	83.5	78.9	83.6	75.0	30.10	30.15	30.05	15.87	15.96	15.80
7/19/2011	45	359	0	2	13	0	6	13	0	62	69	57	76	100	59	85.8	91.3	80.8	79.0	86.0	70.6	30.06	30.10	30.03	15.96	15.96	15.96
7/20/2011	45	359	0	2	15	0	6	15	0	59	70	53	74	100	9	87.8	92.5	83.0	82.3	89.6	74.1	30.06	30.11	30.03	15.96	15.96	15.96
7/21/2011	180	359	0	1	17	0	6	17	0	60	68	55	73	86	58	89.0	93.3	85.1	83.8	91.2	77.1	30.09	30.15	30.03	15.96	15.96	15.96
7/22/2011	112	358	0	2	20	0	8	20	0	59	66	51	73	86	55	89.9	95.3	85.2	83.8	93.3	76.6	30.17	30.22	30.11	15.96	15.96	15.96
7/23/2011	112	354	8	2	16	0	8	16	0	59	70	54	72	100	51	89.9	95.1	85.1	85.1	95.1	75.9	30.22	30.27	30.16	15.96	15.96	15.96
7/24/2011	112	228	7	3	18	0	9	18	0	61	70	57	75	100	56	90.6	94.5	86.5	85.1	91.7	77.4	30.21	30.25	30.16	16.12	16.19	15.96
7/25/2011	112	312	13	3	13	0	7	13	0	59	65	55	73	88	57	90.1	94.0	86.5	84.6	92.1	78.0	30.12	30.19	30.05	16.19	16.19	16.19
7/26/2011	225	359	0	2	18	0	7	18	0	56	63	51	71	85	9	89.5	93.8	86.2	84.2	96.4	77.8	30.05	30.10	30.01	16.19	16.19	16.19
7/27/2011	135	358	68	2	13	0	6	13	0	59	63	53	73	84	46	88.3	90.7	86.0	83.2	89.4	78.1	30.10	30.19	30.04	16.19	16.19	16.19
7/28/2011	112	339	3	4	18	0	10	18	0	62	70	57	74	89	56	89.7	94.5	85.3	84.6	92.0	78.2	30.18	30.23	30.12	16.19	16.19	16.19
7/29/2011	112	359	0	2	14	0	9	14	0	61	66	56	73	84	51	90.6	94.6	86.9	84.7	90.7	79.7	30.18	30.23	30.13	16.19	16.19	16.19
7/30/2011	112	359	0	2	12	0	7	12	0	58	64	54	72	100	57	90.5	94.7	86.1	84.2	91.0	76.3	30.15	30.20	30.09	16.19	16.19	16.19
7/31/2011	112	359	0	3	16	0	8	16	0	56	63	49	69	100	44	91.2	95.8	86.8	85.7	94.5	77.4	30.13	30.19	30.08	16.19	16.19	16.19
8/1/2011	112	333	3	2	17	0	8	17	0	55	61	51	70	87	41	91.3	96.7	86.9	84.8	95.8	75.8	30.10	30.15	30.04	16.21	16.34	16.19
8/2/2011	45	359	0	2	17	0	6	17	0	56	64	51	77	89	54	89.8	94.9	85.4	81.6	92.7	75.1	30.03	30.07	29.97	16.35	16.35	16.34
8/3/2011	112	359	0	2	17	0	8	17	0	59	66	53	77	88	54	89.6	94.9	85.5	83.2	93.8	77.5	29.99	30.03	29.94	16.36	16.38	16.35
8/4/2011	180	351	11	2	15	0	7	15	0	60	68	56	76	87	54	89.1	93.8	84.8	83.0	96.1	75.4	30.02	30.08	29.95	16.39	16.42	16.38
8/5/2011	112	308	11	3	16	0	8	16	0	59	66	55	73	100	54	90.6	95.4	85.8	84.9	92.7	76.7	30.08	30.12	30.03	16.42	16.42	16.42
8/6/2011	45	359	0	2	15	0	7	15	0	60	66	55	74	97	60	91.1	95.0	87.7	85.3	90.6	79.0	30.08	30.13	30.03	16.42	16.42	16.42
8/7/2011	248	359	0	3	16	0	9	16	0	59	68	53	73	84	49	89.4	93.2	85.0	84.1	94.6	78.3	30.07	30.12	30.02	16.42	16.42	16.42
8/8/2011	225	339	145	4	22	0	10	22	0	61	70	55	77	89	50	87.6	92.6	84.2	81.0	95.5	75.7	30.04	30.08	30.01	16.57	16.94	16.42
8/9/2011	225	335	166	3	28	0	10	28	0	64	73	59	84	89	62	85.7	89.5	83.6	78.9	90.9	75.1	30.00	30.07	29.94	17.79	18.98	16.94
8/10/2011	248	349	164	4	29	0	12	29	0	66	76	61	78	89	62	86.0	89.7	82.1	80.9	90.3	74.9	29.97	30.03	29.93	19.00	19.01	18.98
8/11/2011	248	359	0	2	20	0	8	20	0	65	75	60	78	89	59	87.8	91.5	84.1	82.4	91.9	77.3	29.98	30.05	29.93	19.17	19.40	19.01
8/12/2011	112	304	4	2	14	0	7	14	0	61	71	55	74	89	56	89.3	94.5	84.2	83.6	92.3	75.4	30.03	30.09	29.96	19.40	19.40	19.40
8/13/2011	180	354	9	2	27	0	8	27	0	61	69	55	77	86	63	89.1	92.2	86.4	83.0	92.0	77.2	30.07	30.12	30.02	19.60	19.92	19.40
8/14/2011	248	359	0	2	14	0	8	14	0	61	69	56	77	100	49	88.2	94.2	84.4	81.7	97.4	75.0	30.02	30.08	29.96	19.95	20.06	19.92
8/15/2011	248	359	0	2	14	0	8	14	0	63	71	58	78	92	55	87.1	91.1	83.6	81.0	94.2	75.7	29.99	30.04	29.96	20.06	20.07	20.06
8/16/2011	135	359	0	2	27	0	8	27	0	64	71	58	80	100	58	86.8	91.1	83.8	80.7	92.4	76.5	30.05	30.12	30.00	20.51	21.33	20.07
8/17/2011	45	354	2	2	17	0	8	17	0	65	73	56	81	100	45	87.2	92.6	83.5	80.6	91.6	73.9	30.12	30.17	30.08	21.57	22.30	21.33
8/18/2011	112	268	20	2	15	0	6	15	0	64	73	59	79	100	62	87.1	92.7	82.1	81.2	91.8	73.1	30.09	30.15	30.03	22.30	22.30	22.30
8/19/2011	180	292	19	2	14	0	6	14	0	62	69	59	78	93	51	87.6	92.0	84.1	81.3	94.2	75.3	30.04	30.09	29.99	22.30	22.31	22.30
8/20/2011	112	359	0	2	17	0	6	17	0	61	72	55	76	100	54	87.6	93.5	83.3	81.9	93.0	75.2	30.08	30.15	30.01	22.31	22.32	22.31
8/21/2011	112	277	21	3	15	0	8	15	0	60	70	56	73	100	39	89.0	93.9	84.4	84.3	92.8	76.4	30.13	30.18	30.09	22.32	22.32	22.32
8/22/2011	112	359	0	2	13	0	5	13	0	59	66	55	74	90	56	90.0	94.0	85.9	84.2	91.4	77.3	30.09	30.15	30.02	22.32	22.32	22.32
8/23/2011	45	359	0	1	16	0	5	16	0	60	67	55	77	91	56	88.8	93.8	85.9	82.7	91.5	76.9	30.03	30.08	29.97	22.32	22.32	22.32
8/24/2011	45	359	0	3	17	0	9	17	0	64	72	59	77	91	64	88.0	92.9	84.0	82.4	88.6	75.8	30.01	30.07	29.96	22.36	22.49	22.32
8/25/2011	22	359	0	7	31	0	19	31	3	68	72	64	76	88	68	86.8	88.9	84.7	82.5	87.7	76.6	29.84	29.98	29.72	22.60	22.85	22.49
8/26/2011	292	353	199	6	22	0	16	22	0	65	74	55	70	91	49	87.2	92.4	83.0	84.0	93.6	76.5	29.81	29.92	29.71	22.85	22.85	22.85
8/27/2011	248	339	152	5	31	0	13	31	0	59	71	51	70	86	49	88.9	93.7	85.1	84.0	97.4	77.5	29.88	29.92	29.83	22.85	22.85	22.85
8/28/2011	225	310	133	4	21	0	11	21	0	58	69	48	67	87	44	90.1	95.4	85.3	86.6	97.0	77.9	29.87	29.92	29.83	22.85	22.85	22.85
8/29/2011	202	359	0	2	19	0	9	19	0	58	66	49	76	87	58	89.4	91.9	86.6	82.9	92.2	78.4	29.96	30.03	29.91	22.88	22.91	22.85
8/30/2011	180	359	0	2	24	0	8	24	0	60	65	55	76	98	52	88.0	93.5	84.9	81.9	93.3	73.7	30.06	30.14	30.00	23.27	24.87	22.91
8/31/2011	45	354	1	1	11	0	5	11	0	65	69	58	84	92	66	86.0	89.0	84.2	80.0	86.7	75.8	30.13	30.18	30.07	24.89	24.93	24.87
9/1/2011	45	359	0	2	21	0	7	21	0	68	73	63	80	94	66	85.4	88.2	82.9	80.3	86.8	75.5	30.14	30.19	30.10	24.95	24.98	24.93
9/2/2011	45	359	0	2	14	0	7	14	0	60	67	50	69	100	54	86.5	90.2	82.9	80.7	86.8	74.8	30.09	30.18	30.05	24.98	24.98	24.98
9/3/2011	112	356	1	2	15	0	7	15	0	59	66	53	73	100	55	86.1	90.6	81.9	80.0	88.4	71.6	30.04	30.09	30.00	24.98	24.98	24.98
9/4/2011	135	271	22	2	16	0	7	16	0	62	67	59	75	90	61	87.3	90.8	83.3	82.6	90.2	74.7	30.01	30.05	29.96	24.98	24.98	24.98
9/5/2011	180	307	86	4	22	0	11	22	0	59	70	48	70	100	43	89.2	94.5	84.8	85.0	96.6	78.3	29.98	30.02	29.92	24.99	25.05	24.98
9/6/2011	180	322	125	3	21	0	11	21	0	62	69	55	80	89	56	87.6	91.0	85.1	80.5	93.0	77.1	29.99	30.06	29.92	25.12	25.21	25.05
9/7/2011	45	359	0	1	22	0	6	22	0	63	69	60	84	100	38	85.0	88.9	82.4	77.3	85.2	73.9	30.04	30.15	29.99	25.37	25.70	25.21
9/8/2011	270	359	0	1	13	0	5	13	0	65	72	61	81	96	56	85.4	91.0	81.0	79.5	90.9	73.5	30.03	30.06	29.98	25.73	25.79	25.70
9/9/2011	135	359	0	1	19	0	6	19	0	63	75	60	81	100	38	85.8	89.2	83.1	79.4	88.2	75.2	30.05	30.11	29.99	25.80	25.85	25.79
9/10/2011	45	359	0	1	22	0	5	22	0	64	77	59	81	92	50	86.2	92.0	81.6	80.2	88.3	73.7	30.08	30.15	30.02	25.87	25.92	25.85
9/11/2011	158	295	13	2	12	0	5	12	0	64	72	60	79	100	44	87.7	93.0	83.3	82.5	90.8	75.9	30.14	30.19	30.10	25.92	25.92	25.92
9/12/2011	45	359	0	2	15	0	7	15	0	60	66	54	77	100	43	88.5	92.3	84.6	82.1	88.2	76.4	30.14	30.20	30.08	25.92	25.92	25.92
9/13/2011	22	359	0	2	13	0	7	13	0	58	67	52	75	100	38	87.9	91.5	84.4	81.3	87.7	75.1	30.09	30.14	30.03	25.92	25.92	25.92
9/14/2011	22	359	0	2	20	0	8	20	0	55	59	50	68	100	40	87.4	91.6	83.8	81.3	86.9	73.5	30.04	30.09	30.01	25.92	25.92	25.92
9/15/2011	45	359	0	2	13	0	6	13	0	53	60	48	71	100	35	87.2	91.4	82.8	80.0	86.8	71.9	30.07	30.13	30.02	25.92	25.92	25.92
9/16/2011	45	359	0	2	12	0	6	12	0	53	61	49	73	100	36	87.5	91.9	82.9	80.4	87.6	72.1	30.16	30.21	30.10	25.92	25.92	25.92
9/17/2011	45	359	0	3	14	0	9	14	0	54	61	51	68	100	35	87.2	91.1	83.4	80.9	87.3	72.3	30.17	30.23	30.13	25.92	25.92	25.92
9/18/2011	45	359	0	3	14	0	8	14	0	57	61	52	69	89	56	86.9	90.7	83.3	81.3	87.4	73.7	30.16	30.21	30.12	25.92	25.92	25.92
9/19/2011	112	358	0	2	15	0	8	15	0	59	66	56	74	97	57	87.5	91.6	83.6	81.8	89.1	74.8	30.10	30.15	30.05	25.95	25.96	25.92
9/20/2011	112	211	18	2	14	0	9	14	0	63	70	59	78	100	37	87.2	91.2	83.7	82.0	88.9	75.8	30.09	30.15	30.03	26.06	26.10	25.96
9/21/2011	112	193	29	4	17	0	12	17	0	64	68	58	71	100	37	88.2	92.8	85.3	84.5	90.8	80.6	30.12	30.21	30.06	26.10	26.11	26.10
9/22/2011	135	314	37	2	19	0	10	19	0	66	73	62	80	100	62	87.2	91.9	84.2	81.8	90.1	76.6	30.12	30.18	30.08	26.34	26.90	26.11
9/23/2011	112	359	0	1	12	0	5	12	0	65	72	61	80	100	36	87.1	90.8	83.3	81.4	88.9	75.6	30.07	30.13	29.99	26.91	27.34	26.90
9/24/2011	45	359	0	2	12	0	5	12	0	63	69	58	81	100	22	87.2	91.4	83.2	80.5	88.2	74.5	30.02	30.07	29.97	27.35	27.35	27.34
9/25/2011	45	357	0	1	13	0	5	13	0	62	68	59	81	100	36	86.8	91.5	84.0	80.1	90.2	75.6	30.04	30.08	29.99	27.35	27.35	27.35
9/26/2011	180	260	97	2	14	0	8	14	0	65	70	61	81	100	69	84.6	87.2	82.4	79.0	84.0	75.3	30.05	30.11	30.00	27.36	27.36	27.35
9/27/2011	135	298	20	1	12	0	5	12	0	66	71	63	80	100	54	85.1	88.3	81.8	79.7	88.0	74.2	30.04	30.09	30.00	27.37	27.38	27.36
9/28/2011	45	359	0	2	12	0	6	12	0	65	72	60	79	100	65	86.2	90.5	82.0	80.6	87.0	73.8	30.00	30.05	29.96	27.38	27.38	27.38
9/29/2011	112	359	0	1	13	0	6	13	0	61	68	56	75	100	41	87.0	90.8	83.0	81.2	89.2	74.3	29.97	30.02	29.91	27.38	27.38	27.38
9/30/2011	45	359	0	1	13	0	6	13	0	60	68	56	77	100	60	86.9	90.8	83.6	80.3	88.7	74.4	29.91	29.97	29.84	27.38	27.38	27.38
10/1/2011	0	359	0	2	18	0	9	18	0	55	61	47	73	100	38	84.5	87.7	81.4	76.8	83.0	70.8	29.95	30.06	29.87	27.38	27.38	27.38
10/2/2011	22	359	0	2	14	0	8	14	0	46	52	44	59	100	38	82.0	86.1	77.7	74.3	81.2	63.1	30.08	30.15	30.02	27.38	27.38	27.38
10/3/2011	45	359	0	1	14	0	6	14	0	48	57	44	68	100	12	82.4	87.0	77.5	74.6	83.1	65.5	30.16	30.22	30.11	27.38	27.38	27.38
10/4/2011	45	359	0	2	16	0	8	16	0	47	53	43	64	100	31	82.9	87.5	78.5	76.2	83.3	67.1	30.21	30.26	30.17	27.38	27.38	27.38
10/5/2011	45	359	0	6	19	0	14	19	3	48	51	44	58	100	28	82.8	85.7	80.0	78.6	83.2	76.1	30.19	30.23	30.15	27.38	27.38	27.38
10/6/2011	45	359	0	6	22	0	17	22	0	55	63	48	67	100	16	82.7	86.2	80.3	78.4	83.5	72.2	30.16	30.21	30.12	27.42	27.45	27.38
10/7/2011	45	359	0	5	29	0	17	29	0	63	70	59	79	100	4	80.8	84.7	78.1	75.1	83.3	70.6	30.18	30.24	30.14	27.67	28.38	27.45
10/8/2011	68	358	0	11	36	0	26	36	2	77	84	65	86	100	54	77.0	78.5	75.7	73.4	77.0	70.0	30.12	30.20	30.03	30.12	32.54	28.38
10/9/2011	68	359	0	11	39	0	28	39	5	76	82	72	79	100	67	77.9	80.6	76.4	75.6	81.0	69.3	29.93	30.08	29.76	33.17	33.74	32.54
10/10/2011	180	357	0	3	16	0	8	16	0	73	82	67	79	100	54	80.0	85.6	75.4	76.7	88.5	68.5	29.89	29.95	29.83	33.74	33.74	33.74
10/11/2011	180	359	0	2	12	0	7	12	0	69	77	65	78	100	59	83.2	87.7	78.8	79.4	88.6	72.2	29.92	29.97	29.87	33.75	33.75	33.74
10/12/2011	225	312	43	2	13	0	6	13	0	67	72	65	80	100	59	84.1	88.3	80.8	78.7	87.7	73.0	29.94	30.00	29.89	33.80	33.94	33.75
10/13/2011	225	356	8	1	16	0	5	16	0	64	73	57	78	93	48	84.4	88.8	80.4	79.0	89.0	72.8	29.89	29.95	29.83	33.97	34.10	33.94
10/14/2011	45	359	0	2	13	0	5	13	0	59	68	53	77	100	45	83.1	86.0	80.0	75.9	81.0	69.9	29.98	30.10	29.89	34.11	34.11	34.10
10/15/2011	45	359	0	3	17	0	9	17	0	55	58	50	67	88	52	81.6	84.5	79.0	76.7	83.2	69.6	30.12	30.19	30.06	34.11	34.11	34.11
10/16/2011	45	145	3	4	17	0	12	17	0	59	63	55	66	100	12	82.2	84.5	80.5	79.1	82.5	77.2	30.15	30.21	30.10	34.11	34.11	34.11
10/17/2011	112	214	20	3	19	0	10	19	0	61	67	57	74	100	27	83.4	86.6	81.4	79.3	84.6	74.3	30.05	30.14	29.97	34.12	34.26	34.11
10/18/2011	135	264	21	3	25	0	11	25	0	73	80	64	89	100	86	80.1	82.3	78.9	75.0	76.4	73.6	29.86	29.98	29.70	34.58	36.79	34.26
10/19/2011	202	344	6	6	24	0	18	24	3	73	83	51	78	100	19	81.0	84.3	78.2	77.2	83.9	66.0	29.74	29.99	29.64	36.81	36.82	36.79
10/20/2011	315	359	0	2	18	0	8	18	0	50	55	44	65	100	46	76.5	80.3	72.9	65.0	73.6	57.5	30.09	30.20	29.98	36.82	36.82	36.82
10/21/2011	0	359	0	2	15	0	6	15	0	46	52	42	67	100	37	73.6	77.4	68.7	62.1	71.0	53.2	30.19	30.25	30.13	36.82	36.82	36.82
10/22/2011	315	359	0	3	20	0	12	20	0	49	55	43	67	100	30	74.3	78.2	70.0	67.0	75.3	58.3	30.10	30.16	30.05	36.82	36.82	36.82
10/23/2011	0	359	0	3	18	0	11	18	0	53	57	48	65	100	42	77.4	81.6	73.6	72.3	77.7	65.9	30.09	30.14	30.05	36.82	36.82	36.82
10/24/2011	0	359	0	1	17	0	10	17	0	50	56	44	71	100	45	77.6	80.9	73.7	69.8	76.8	62.9	30.14	30.23	30.08	36.82	36.82	36.82
10/25/2011	45	359	0	4	16	0	11	16	0	51	59	47	65	100	42	77.9	82.3	73.6	73.2	80.1	63.1	30.20	30.26	30.16	36.82	36.82	36.82
10/26/2011	68	187	10	3	14	0	9	14	0	51	54	48	64	100	46	81.0	84.6	77.6	76.4	81.4	72.5	30.14	30.20	30.08	36.82	36.82	36.82
10/27/2011	112	356	0	1	11	0	3	11	0	54	62	50	74	100	43	81.0	85.5	75.6	74.3	85.5	63.1	30.04	30.10	29.99	36.82	36.82	36.82
10/28/2011	0	359	0	2	12	0	6	12	0	63	69	55	87	100	18	81.4	84.4	79.4	75.6	80.8	72.2	30.03	30.08	29.98	36.85	37.05	36.82
10/29/2011	0	359	0	4	21	0	11	21	0	70	74	59	86	100	52	79.1	80.8	77.5	73.6	76.4	69.9	29.96	30.10	29.89	37.30	37.38	37.05
10/30/2011	45	359	0	6	25	0	18	25	4	61	68	58	69	100	55	76.3	77.7	75.1	72.7	74.4	69.9	30.13	30.20	30.05	37.38	37.38	37.38
10/31/2011	0	359	0	4	22	0	14	22	0	75	82	68	87	94	78	76.2	77.9	75.2	71.6	74.8	68.4	30.08	30.18	30.02	39.61	40.70	37.38
11/1/2011	0	359	0	5	20	0	16	20	0	65	72	54	72	100	37	76.8	79.8	74.3	72.5	77.4	68.3	30.18	30.26	30.11	40.70	40.70	40.70
11/2/2011	45	359	0	6	17	0	14	17	2	57	62	51	63	100	38	77.1	80.5	74.2	74.0	78.1	71.0	30.24	30.30	30.20	40.70	40.70	40.70
11/3/2011	45	359	0	2	13	0	7	13	0	60	65	55	72	100	44	77.8	80.6	75.7	73.0	78.6	64.8	30.16	30.24	30.07	40.73	40.74	40.70
11/4/2011	248	359	0	3	22	0	10	22	0	55	63	43	71	90	44	76.2	80.0	73.4	68.5	78.8	59.7	29.99	30.08	29.90	40.74	40.74	40.74
11/5/2011	315	359	0	5	22	0	14	22	0	54	68	43	73	100	42	73.0	76.1	69.4	65.3	75.5	56.0	30.08	30.16	30.01	40.74	40.76	40.74
11/6/2011	45	359	0	5	21	0	16	21	2	63	67	57	69	90	55	75.9	78.8	74.0	73.7	77.5	70.8	30.20	30.26	30.12	40.81	40.89	40.76
11/7/2011	45	359	0	5	21	0	15	21	0	63	67	59	70	100	21	76.7	79.8	74.6	73.4	77.7	69.6	30.22	30.28	30.18	40.90	40.93	40.89
11/8/2011	45	359	0	3	17	0	11	17	0	61	67	56	69	100	44	77.6	80.4	75.0	74.1	78.9	70.4	30.15	30.20	30.09	40.94	40.94	40.93
11/9/2011	0	359	0	3	18	0	11	18	0	61	66	56	73	100	12	77.9	81.0	75.7	72.4	76.9	66.1	30.07	30.15	30.02	40.94	40.94	40.94
11/10/2011	315	359	0	2	13	0	6	13	0	56	63	50	73	100	23	77.3	81.7	73.5	69.2	79.8	62.7	30.00	30.06	29.95	40.94	40.94	40.94
11/11/2011	315	359	0	4	20	0	13	20	0	45	52	38	65	100	13	72.9	76.0	70.0	61.9	67.4	54.4	30.18	30.30	30.03	40.94	40.94	40.94
11/12/2011	45	356	0	2	18	0	9	18	0	49	57	45	68	100	34	71.8	76.5	67.1	65.1	74.4	54.0	30.33	30.38	30.27	40.94	40.94	40.94
11/13/2011	112	167	21	2	16	0	8	16	0	53	58	49	67	100	35	75.6	79.3	72.1	71.5	78.5	64.7	30.29	30.36	30.24	40.94	40.94	40.94
11/14/2011	112	189	8	2	15	0	7	15	0	63	73	53	82	100	56	77.1	81.3	72.4	71.9	80.7	62.7	30.22	30.29	30.17	41.01	41.24	40.94
11/15/2011	135	233	53	3	17	0	9	17	0	75	78	71	89	100	56	79.9	83.2	76.8	76.9	84.0	71.6	30.15	30.19	30.10	41.36	41.42	41.24
11/16/2011	135	284	54	3	14	0	9	14	0	71	77	66	84	100	2	81.0	84.8	77.8	77.1	85.9	72.0	30.12	30.19	30.07	41.42	41.42	41.42
11/17/2011	248	359	0	2	19	0	8	19	0	67	74	61	79	100	38	81.2	85.0	77.6	76.8	85.2	69.6	30.13	30.21	30.06	41.42	41.42	41.42
11/18/2011	45	359	0	6	22	0	18	22	3	59	62	54	68	100	15	76.7	79.6	75.2	72.9	74.0	71.8	30.27	30.33	30.19	41.42	41.42	41.42
11/19/2011	68	172	8	5	19	0	13	19	2	66	73	61	73	100	21	77.3	80.3	75.1	74.9	79.2	72.3	30.31	30.54	30.26	41.46	41.50	41.42
11/20/2011	45	359	0	5	20	0	14	20	2	70	75	67	77	100	67	79.2	82.5	77.3	76.0	80.7	74.0	30.33	30.38	30.28	41.50	41.51	41.50
11/21/2011	45	359	0	3	16	0	10	16	0	74	82	69	82	100	53	79.1	81.9	77.3	75.4	81.0	72.4	30.29	30.36	30.24	41.59	41.63	41.51
11/22/2011	112	216	22	1	13	0	6	13	0	68	75	60	78	98	48	79.6	83.2	76.5	74.7	81.0	66.9	30.25	30.31	30.22	41.63	41.63	41.63
11/23/2011	248	315	116	2	16	0	6	16	0	62	70	60	78	100	41	78.7	82.5	74.7	72.6	83.0	64.5	30.17	30.24	30.08	41.63	41.63	41.63
11/24/2011	22	359	0	5	21	0	13	21	0	54	60	46	64	100	10	76.6	79.0	74.3	71.5	76.9	65.3	30.24	30.34	30.14	41.63	41.63	41.63
11/25/2011	68	358	0	5	22	0	15	22	3	49	53	46	59	100	9	75.7	78.1	73.7	72.6	75.8	70.1	30.31	30.37	30.26	41.63	41.63	41.63
11/26/2011	90	158	13	7	21	0	17	21	4	53	58	47	62	100	22	77.5	80.5	75.1	74.8	78.9	72.0	30.29	30.35	30.25	41.63	41.63	41.63
11/27/2011	112	207	44	5	18	0	15	18	2	50	58	46	61	100	12	78.5	81.8	76.0	75.2	80.4	72.6	30.18	30.26	30.10	41.63	41.63	41.63
11/28/2011	135	345	67	6	24	0	14	24	0	61	71	55	78	100	39	78.9	82.3	76.0	73.5	81.5	63.3	30.03	30.12	29.96	41.70	41.74	41.63
11/29/2011	292	348	107	3	16	0	8	16	0	52	58	43	71	100	19	75.2	78.3	71.6	65.3	73.1	55.6	30.08	30.14	30.04	41.75	41.75	41.74
11/30/2011	315	359	0	2	11	0	5	11	0	49	57	44	73	100	2	71.8	76.6	67.3	60.4	70.7	52.9	30.12	30.19	30.06	41.75	41.75	41.75
12/1/2011	22	359	0	4	17	0	12	17	0	48	56	43	71	100	31	70.0	73.8	65.4	61.6	70.1	48.9	30.24	30.34	30.16	41.75	41.75	41.75
12/2/2011	22	359	0	6	19	0	15	19	4	48	52	44	60	100	6	72.9	76.1	70.6	70.0	74.7	67.1	30.37	30.43	30.31	41.75	41.75	41.75
12/3/2011	45	359	0	6	21	0	17	21	4	52	61	48	66	100	5	74.2	77.0	72.5	71.8	76.3	69.3	30.40	30.45	30.37	41.75	41.75	41.75
12/4/2011	68	358	0	5	19	0	14	19	2	55	60	50	64	100	27	75.4	78.3	73.5	72.6	76.7	70.3	30.32	30.39	30.26	41.75	41.76	41.75
12/5/2011	112	358	0	5	18	0	10	18	0	58	63	52	68	100	1	77.3	80.6	74.5	73.6	79.4	70.0	30.24	30.30	30.20	41.76	41.77	41.76
12/6/2011	135	213	24	1	17	0	5	17	0	58	66	53	79	100	50	76.6	79.7	73.9	69.7	78.8	61.6	30.21	30.26	30.16	41.78	41.78	41.77
12/7/2011	202	358	101	3	23	0	9	23	0	54	62	41	71	100	39	75.8	80.4	71.7	69.1	81.1	60.3	30.14	30.21	30.03	41.78	41.78	41.78
12/8/2011	315	359	0	3	19	0	11	19	0	47	60	36	69	100	30	70.7	74.3	67.3	61.3	69.6	49.3	30.23	30.30	30.17	41.78	41.78	41.78
12/9/2011	68	359	0	3	19	0	9	19	0	65	69	60	80	100	39	75.1	78.4	71.9	72.7	77.5	69.4	30.23	30.28	30.19	41.78	41.80	41.78
12/10/2011	45	359	0	2	16	0	9	16	0	73	76	67	88	100	49	74.0	76.0	73.0	69.6	71.8	67.5	30.24	30.29	30.19	42.66	43.26	41.80
12/11/2011	45	359	0	3	17	0	11	17	0	75	80	73	84	100	47	74.0	75.6	72.2	70.8	76.9	66.2	30.26	30.31	30.20	43.31	43.34	43.26
12/12/2011	45	359	0	3	27	0	14	27	0	78	82	74	87	100	1	73.5	74.3	72.7	69.8	71.2	68.3	30.26	30.33	30.21	43.35	43.41	43.34
12/13/2011	45	359	0	6	21	0	14	21	2	71	80	64	74	100	4	74.8	77.7	72.8	72.7	76.7	69.4	30.33	30.39	30.28	43.41	43.42	43.41
12/14/2011	45	359	0	5	16	0	14	16	3	60	68	54	68	100	5	74.7	77.1	72.8	71.7	75.2	68.8	30.35	30.40	30.31	43.42	43.42	43.42
12/16/2011	90	180	33	2	13	0	6	13	0	62	67	58	74	100	38	75.7	78.9	73.5	71.1	78.5	64.0	30.29	30.33	30.25	43.42	43.42	43.42
12/17/2011	315	359	0	1	14	0	5	14	0	61	67	57	82	100	11	75.1	79.0	71.9	67.7	79.2	61.3	30.26	30.32	30.21	43.43	43.43	43.42
12/18/2011	315	359	0	4	17	0	10	17	0	55	58	52	73	100	39	72.3	74.0	70.2	63.7	68.5	57.7	30.32	30.38	30.25	43.43	43.43	43.43
12/19/2011	112	358	6	4	21	0	13	21	0	52	55	50	60	100	45	72.5	75.7	70.0	68.9	74.2	64.1	30.35	30.40	30.31	43.43	43.43	43.43
12/20/2011	135	202	54	5	21	0	14	21	0	58	64	51	69	100	6	74.1	77.4	71.4	71.0	77.3	66.6	30.29	30.34	30.25	43.43	43.43	43.43
12/21/2011	135	273	60	3	19	0	11	19	0	61	65	57	71	100	16	75.8	79.3	72.9	72.4	79.0	66.4	30.25	30.31	30.20	43.43	43.43	43.43
12/22/2011	135	294	44	2	18	0	8	18	0	61	69	57	76	100	38	76.0	80.4	71.6	70.4	81.1	61.1	30.23	30.40	30.19	43.43	43.43	43.43
12/23/2011	112	236	27	2	15	0	5	15	0	64	73	60	80	100	38	77.3	81.3	73.5	72.4	80.6	65.1	30.26	30.32	30.20	43.43	43.43	43.43
12/24/2011	0	359	0	1	13	0	5	13	0	67	74	61	86	100	63	77.3	80.0	74.3	71.5	77.0	65.7	30.32	30.38	30.26	43.44	43.44	43.43
12/25/2011	112	194	10	1	14	0	4	14	0	67	74	63	84	100	17	77.0	80.3	73.7	71.5	79.8	64.3	30.33	30.39	30.28	43.45	43.45	43.44
12/26/2011	0	359	0	1	13	0	6	13	0	69	77	62	88	98	74	75.1	76.9	73.7	68.5	73.2	64.4	30.27	30.33	30.20	43.63	44.20	43.45
12/27/2011	180	325	91	5	23	0	13	23	0	71	78	58	84	100	66	75.0	78.3	72.0	69.8	78.3	61.2	30.12	30.21	30.02	44.25	44.30	44.20
12/28/2011	315	359	0	3	20	0	10	20	0	49	58	42	68	84	38	69.5	73.2	65.6	55.6	62.0	48.2	30.22	30.31	30.14	44.30	44.30	44.30
12/29/2011	315	359	0	1	11	0	5	11	0	48	51	44	72	100	55	67.3	72.6	61.6	56.0	66.2	46.9	30.23	30.30	30.06	44.30	44.30	44.30
12/30/2011	315	359	0	1	10	0	4	10	0	53	58	49	78	100	47	71.6	76.3	66.5	62.1	72.2	53.2	30.23	30.30	30.18	44.30	44.30	44.30
12/31/2011	270	359	0	1	14	0	5	14	0	58	67	53	76	100	35	72.3	78.0	67.0	66.0	79.0	56.7	30.27	30.42	30.22	42.38	0.00	0.00
																											
Date		Wind	Hi	Lo	Wind	Hi	Lo	Wind	Hi	Lo	Hum	Hi	Lo	Hum	Hi	Lo	Temp	Hi	Lo	Temp	Hi	Lo	Raw	Hi	Lo	Tot	Hi	Lo
		Dir			Speed	Mph	Mph	Gust	Mph	Mph	In%	%	%	Out%	%	%	Inside	F	F	F	F	F	Barom	in	in	Rain	in	in
					Mph			Mph									F						Inches

1/1/2012	112	359	0	1	10	0	3	10	0	58	68	54	78	100	40	74.0	78.8	69.0	66.7	79.0	58.0	30.32	30.40	30.27	0.01	0.01	0.00
1/2/2012	292	359	0	2	17	0	8	17	0	54	63	39	73	89	41	71.2	75.0	66.5	60.8	70.5	49.6	30.24	30.32	30.17	0.01	0.01	0.01
1/3/2012	315	359	0	4	28	0	13	28	0	32	40	28	44	69	23	61.4	66.6	56.8	45.2	51.5	37.6	30.40	30.50	30.28	0.01	0.01	0.01
1/4/2012	315	359	0	2	11	0	7	11	0	35	43	29	56	100	43	58.5	63.4	53.3	46.5	59.3	36.0	30.47	30.55	30.41	0.01	0.01	0.01
1/5/2012	315	359	0	1	13	0	6	13	0	41	48	35	64	84	34	61.5	68.7	54.2	51.2	67.3	35.9	30.37	30.44	30.30	0.01	0.01	0.01
1/6/2012	45	359	0	1	10	0	3	10	0	48	58	42	78	100	38	64.1	69.2	58.8	55.1	66.9	45.5	30.31	30.39	30.26	0.01	0.01	0.01
1/7/2012	45	359	0	1	9	0	4	9	0	50	58	46	74	100	37	66.1	72.0	60.6	58.9	74.0	47.4	30.28	30.35	30.24	0.02	0.02	0.01
1/8/2012	45	359	0	1	8	0	2	8	0	51	56	48	76	100	49	69.1	75.2	62.5	61.6	74.7	49.1	30.33	30.38	30.29	0.02	0.02	0.02
1/9/2012	112	355	7	1	14	0	4	14	0	54	64	51	76	100	46	71.1	76.2	66.5	64.9	76.7	55.5	30.29	30.36	30.21	0.02	0.02	0.02
1/10/2012	90	334	11	1	14	0	4	14	0	55	64	52	77	100	41	71.6	76.1	66.7	65.2	75.5	55.4	30.18	30.26	30.10	0.03	0.03	0.02
1/11/2012	180	277	106	3	25	0	11	25	0	61	66	54	78	89	66	71.9	74.7	69.0	67.6	74.9	61.3	30.00	30.12	29.90	0.03	0.03	0.03
1/12/2012	225	339	60	2	14	0	8	14	0	58	67	49	71	100	32	73.3	78.2	68.7	68.0	79.2	58.1	30.02	30.10	29.96	0.03	0.03	0.03
1/13/2012	315	359	0	3	13	0	7	13	0	48	55	37	65	100	38	71.3	74.8	67.5	61.1	69.6	52.9	30.22	30.34	30.09	0.03	0.03	0.03
1/14/2012	315	359	0	2	16	0	8	16	0	34	37	33	52	73	30	63.7	67.6	60.4	50.9	58.4	42.3	30.41	30.49	30.32	0.03	0.03	0.03
1/15/2012	0	359	0	2	16	0	8	16	0	37	45	33	57	100	34	61.4	66.3	55.4	52.6	64.0	37.0	30.51	30.59	30.46	0.03	0.03	0.03
1/16/2012	45	359	0	4	17	0	12	17	0	49	52	43	58	67	50	67.6	71.6	63.7	65.5	69.9	59.5	30.52	30.59	30.46	0.03	0.03	0.03
1/17/2012	112	262	34	2	16	0	6	16	0	55	61	49	74	100	50	70.5	74.8	65.3	65.3	75.7	53.1	30.37	30.47	30.29	0.03	0.03	0.03
1/18/2012	270	358	7	2	18	0	8	18	0	55	63	49	70	100	28	72.0	77.5	66.2	67.2	79.3	54.4	30.21	30.30	30.05	0.03	0.03	0.03
1/19/2012	315	359	0	2	16	0	8	16	0	49	56	42	69	100	27	71.7	73.9	68.5	62.3	68.2	53.4	30.23	30.30	30.12	0.03	0.03	0.03
1/20/2012	112	354	0	2	14	0	5	14	0	47	55	43	71	100	31	69.9	75.9	63.3	61.4	74.8	49.1	30.29	30.35	30.24	0.03	0.03	0.03
1/21/2012	135	357	41	2	18	0	6	18	0	50	55	47	76	100	16	72.0	77.8	65.7	65.1	79.2	53.4	30.24	30.31	30.17	0.03	0.03	0.03
1/22/2012	45	359	0	1	11	0	4	11	0	56	63	49	81	100	21	72.1	75.9	67.1	64.6	74.2	49.6	30.24	30.29	30.18	0.03	0.03	0.03
1/23/2012	112	208	22	3	21	0	8	21	0	61	74	55	81	100	6	73.4	78.2	68.5	68.1	77.9	58.1	30.24	30.28	30.20	0.04	0.04	0.03
1/24/2012	112	345	18	2	17	0	6	17	0	62	71	58	78	100	15	75.1	79.3	70.5	69.8	78.8	47.1	30.27	30.32	30.23	0.04	0.04	0.04
1/25/2012	112	195	46	3	17	0	8	17	0	60	70	57	78	100	13	74.9	78.9	70.1	69.7	78.6	59.1	30.28	30.33	30.23	0.05	0.05	0.04
1/26/2012	135	214	59	5	23	0	13	23	0	64	70	60	74	100	35	76.8	80.6	73.8	73.7	79.9	69.4	30.18	30.26	30.10	0.05	0.05	0.05
1/27/2012	180	338	127	4	22	0	12	22	0	65	71	62	78	100	63	76.0	78.3	74.0	71.4	77.2	66.3	30.11	30.20	30.06	0.05	0.05	0.05
1/28/2012	22	359	0	2	16	0	8	16	0	56	62	49	70	100	26	73.7	77.6	71.0	65.9	74.2	58.2	30.25	30.38	30.18	0.05	0.05	0.05
1/29/2012	0	359	0	3	17	0	10	17	0	53	58	51	71	100	5	71.1	73.8	69.0	64.5	70.2	59.1	30.35	30.42	30.28	0.05	0.05	0.05
1/30/2012	45	359	0	4	20	0	15	20	2	52	58	45	65	100	10	70.7	73.5	68.3	66.7	71.0	63.3	30.44	30.50	30.37	0.05	0.05	0.05
1/31/2012	90	358	2	4	18	0	12	18	0	51	55	48	68	100	4	72.5	76.4	69.2	68.9	74.2	65.5	30.43	30.50	30.39	0.05	0.05	0.05
2/1/2012	112	188	20	2	15	0	6	15	0	53	61	51	74	100	2	74.1	78.3	69.3	68.1	77.1	58.5	30.34	30.41	30.28	0.05	0.05	0.05
2/2/2012	45	359	0	2	11	0	4	11	0	59	69	52	82	100	47	74.5	78.8	70.2	67.9	76.8	59.9	30.27	30.32	30.22	0.05	0.05	0.05
2/3/2012	45	358	0	4	18	0	12	18	0	64	67	59	78	100	40	74.3	75.9	73.0	71.2	74.0	64.7	30.32	30.37	30.26	0.05	0.05	0.05
2/4/2012	112	195	19	5	19	0	12	19	2	63	68	58	71	100	37	75.8	79.9	72.8	72.8	78.4	67.3	30.27	30.34	30.21	0.05	0.05	0.05
2/5/2012	112	213	22	2	13	0	6	13	0	67	72	64	83	100	3	76.0	78.5	74.1	71.6	77.0	67.4	30.17	30.23	30.11	0.05	0.05	0.05
2/6/2012	135	359	1	1	15	0	5	15	0	68	74	65	84	100	1	75.5	77.5	73.6	70.6	76.1	64.4	30.16	30.23	30.11	0.11	0.15	0.05
2/7/2012	0	359	0	3	14	0	9	14	0	74	78	66	87	100	40	74.5	76.3	73.1	69.5	72.8	67.0	30.15	30.20	30.10	0.30	0.40	0.15
2/8/2012	0	359	0	5	17	0	12	17	0	68	74	55	80	100	2	73.7	76.6	71.7	68.2	74.1	65.5	30.16	30.21	30.11	0.40	0.40	0.40
2/9/2012	45	359	0	5	15	0	11	15	1	60	64	55	69	100	44	73.0	76.0	70.4	69.5	74.3	61.0	30.21	30.28	30.16	0.40	0.40	0.40
2/10/2012	112	350	26	4	23	0	10	23	0	71	76	64	83	100	7	74.6	77.2	72.9	71.1	78.2	48.2	30.12	30.24	29.99	0.43	0.82	0.40
2/11/2012	292	359	0	5	23	0	15	23	0	58	72	41	71	100	7	72.3	75.1	67.7	63.3	69.5	51.6	30.06	30.22	29.99	0.92	0.93	0.82
2/12/2012	315	359	0	4	21	0	16	21	1	36	43	29	58	100	36	61.5	67.8	58.6	46.7	52.7	37.4	30.35	30.44	30.21	0.93	0.93	0.93
2/13/2012	315	359	0	2	12	0	8	12	0	44	57	37	66	100	33	61.5	66.8	55.6	53.1	66.2	40.1	30.32	30.40	30.25	0.93	0.93	0.93
2/14/2012	158	352	10	4	19	0	8	19	0	51	59	47	69	100	38	68.2	75.2	61.3	64.0	77.6	50.1	30.23	30.28	30.17	0.93	0.93	0.93
2/15/2012	135	255	26	2	16	0	7	16	0	56	66	53	72	100	42	73.0	78.6	67.3	69.1	81.1	53.6	30.29	30.35	30.24	0.93	0.93	0.93
2/16/2012	135	250	56	2	16	0	8	16	0	59	67	55	78	100	36	75.1	79.4	71.1	71.1	81.2	63.3	30.26	30.33	30.19	0.93	0.93	0.93
2/17/2012	202	358	3	1	11	0	6	11	0	62	67	59	80	100	56	76.1	79.9	72.4	71.5	81.5	64.9	30.17	30.22	30.11	0.93	0.93	0.93
2/18/2012	112	359	0	2	15	0	6	15	0	63	68	60	82	100	59	76.3	79.1	73.2	71.0	77.3	64.9	30.09	30.17	30.02	0.93	0.93	0.93
2/19/2012	180	321	36	6	30	0	17	30	0	65	75	56	78	100	7	76.8	81.3	73.0	73.8	83.9	65.1	29.99	30.05	29.89	0.93	0.93	0.93
2/20/2012	0	359	0	3	18	0	11	18	0	52	57	47	74	100	20	72.2	75.4	69.4	61.9	67.8	54.5	30.20	30.34	30.04	0.93	0.93	0.93
2/21/2012	112	356	5	3	14	0	8	14	0	51	59	48	72	100	41	71.6	76.6	65.8	64.8	75.5	52.4	30.29	30.35	30.24	0.93	0.93	0.93
2/22/2012	180	359	0	3	16	0	9	16	0	54	61	50	70	100	35	75.0	80.8	69.5	70.7	82.6	59.4	30.16	30.25	30.04	0.93	0.93	0.93
2/23/2012	180	354	47	3	16	0	10	16	0	58	67	50	72	100	46	77.6	83.0	72.6	73.8	86.4	64.3	30.07	30.12	30.01	0.93	0.93	0.93
2/24/2012	180	344	78	4	22	0	12	22	0	57	70	48	69	100	10	79.1	84.7	74.2	75.8	89.9	64.6	30.10	30.16	30.05	0.93	0.93	0.93
2/25/2012	0	359	0	4	22	0	13	22	0	47	55	42	69	100	21	73.9	79.5	70.3	66.0	71.2	62.5	30.26	30.36	30.13	0.93	0.93	0.93
2/26/2012	68	359	0	5	20	0	14	20	3	59	71	48	71	100	1	71.1	73.1	69.8	68.3	71.3	66.4	30.39	30.44	30.34	0.93	0.93	0.93
2/27/2012	135	359	0	5	22	0	13	22	0	71	76	66	79	100	65	75.9	80.5	72.9	73.4	80.7	57.7	30.39	30.44	30.34	0.96	1.05	0.93
2/28/2012	0	359	0	2	14	0	7	14	0	71	78	67	85	100	2	76.3	80.1	72.7	70.9	77.1	64.9	30.37	30.43	30.33	1.06	1.06	1.05
2/29/2012	135	305	2	4	21	0	9	21	0	67	74	63	78	100	37	77.8	82.2	73.2	73.5	81.0	64.3	30.30	30.38	30.23	1.06	1.06	1.06
3/1/2012	225	313	82	3	15	0	10	15	0	64	71	57	73	100	44	80.0	84.9	75.8	77.1	87.5	69.8	30.19	30.26	30.11	1.06	1.06	1.06
3/2/2012	225	248	135	3	15	0	8	15	0	63	70	58	72	100	47	80.4	84.7	75.9	77.0	86.5	68.1	30.18	30.25	30.12	1.06	1.06	1.06
3/3/2012	0	225	202	0	4	0	2	4	1	59	59	58	82	85	79	78.3	80.6	76.2	69.1	72.9	66.2	30.14	30.16	30.12	1.06	1.06	1.06
3/3/2012	202	225	180	2	16	0	6	16	1	60	65	58	75	85	54	78.6	82.3	75.8	72.6	83.6	66.2	30.15	30.19	30.12	1.06	1.06	1.06
3/2/2012	135	225	180	2	17	0	7	17	1	61	65	58	74	85	54	78.9	83.2	75.8	73.4	84.6	66.2	30.15	30.19	30.11	1.06	1.06	1.06
3/2/2012	135	225	112	2	17	0	8	17	1	61	65	58	73	85	54	79.2	84.0	75.8	73.9	84.6	66.2	30.15	30.19	30.10	1.06	1.06	1.06
3/3/2012	135	225	112	3	19	0	9	19	1	60	65	56	70	85	37	80.4	84.2	75.8	75.5	84.6	66.2	30.13	30.19	30.09	1.06	1.06	1.06
3/2/2012	135	232	112	2	17	0	8	17	1	61	65	58	73	85	54	79.2	84.0	75.8	73.9	84.6	66.2	30.15	30.19	30.10	1.06	1.06	1.06
3/3/2012	180	338	8	3	25	0	9	25	1	60	69	47	70	100	23	80.4	86.4	75.8	75.5	89.0	66.2	30.13	30.19	29.93	1.06	1.06	1.06
3/4/2012	315	359	0	6	34	0	18	34	0	50	69	33	60	94	28	77.3	81.2	71.5	66.4	75.9	51.4	30.08	30.34	29.85	1.18	1.25	1.06
3/5/2012	315	359	0	3	13	0	8	13	0	33	37	30	45	100	27	71.1	76.7	64.9	58.1	69.1	45.8	30.39	30.50	30.23	1.25	1.25	1.25
3/6/2012	315	315	0	3	14	0	9	14	3	32	36	30	45	67	27	70.3	74.8	65.1	58.3	68.7	46.1	30.42	30.49	30.32	1.25	1.25	1.25
3/7/2012	45	68	45	10	24	9	23	24	20	50	52	49	63	69	58	74.2	75.0	72.7	71.8	72.7	70.2	30.52	30.55	30.50	1.25	1.25	1.25
3/6/2012	45	68	45	10	24	8	23	24	20	50	52	49	63	69	58	74.1	75.0	72.7	71.4	72.7	69.3	30.52	30.55	30.50	1.25	1.25	1.25
3/6/2012	45	68	45	10	24	8	22	24	20	50	52	49	63	69	58	74.0	75.0	72.7	71.1	72.7	68.8	30.52	30.55	30.50	1.25	1.25	1.25
3/6/2012	45	68	45	10	24	8	22	24	20	50	52	49	63	69	58	73.8	75.0	72.7	70.8	72.7	68.5	30.52	30.55	30.50	1.25	1.25	1.25
3/6/2012	45	120	22	10	26	2	22	26	4	50	52	49	63	100	36	74.0	75.0	71.5	71.1	72.7	68.1	30.52	30.55	30.50	1.25	1.25	1.25
3/7/2012	68	138	5	9	26	0	22	26	20	50	56	49	66	100	1	73.4	75.8	71.0	70.2	76.0	68.2	30.52	30.55	30.46	1.25	1.25	1.25
3/8/2012	68	112	45	8	27	6	21	27	17	53	56	51	73	100	45	71.9	75.1	71.0	70.0	74.9	68.5	30.50	30.52	30.46	1.25	1.25	1.25
3/7/2012	112	199	5	9	26	0	22	26	9	50	65	49	66	100	1	73.4	78.6	71.0	70.2	78.0	67.1	30.52	30.55	30.42	1.25	1.55	1.25
3/8/2012	112	356	9	7	27	0	18	27	2	59	72	51	74	100	1	75.2	80.3	71.0	72.2	77.6	68.5	30.42	30.52	30.32	1.40	1.55	1.55
3/9/2012	135	306	36	4	18	0	11	18	0	66	72	61	81	100	27	78.0	81.6	74.8	73.7	81.8	67.8	30.28	30.35	30.21	1.58	1.70	1.55
3/10/2012	45	359	0	3	20	0	8	20	0	66	71	61	82	100	22	77.6	81.3	74.6	71.8	77.8	67.4	30.28	30.35	30.22	1.71	1.71	1.70
3/11/2012	90	359	0	7	21	0	12	21	0	75	77	68	84	100	23	73.1	76.7	72.4	69.1	71.7	67.2	30.39	30.44	30.31	2.72	2.78	1.71
3/12/2012	90	358	6	5	18	0	14	18	1	62	70	53	66	100	45	75.1	79.5	71.7	72.0	77.1	63.0	30.39	30.45	30.34	2.78	2.78	2.78
3/13/2012	45	359	0	2	13	0	6	13	0	56	61	51	69	100	15	76.2	80.6	71.9	70.3	77.2	60.2	30.35	30.39	30.31	2.78	2.78	2.78
3/14/2012	45	359	0	3	13	0	7	13	0	56	65	51	75	100	3	76.4	80.9	71.8	69.8	77.2	61.1	30.32	30.38	30.27	2.78	2.78	2.78
3/15/2012	90	359	0	2	20	0	9	20	0	60	68	56	74	100	11	77.2	81.6	73.7	72.1	80.2	64.7	30.33	30.39	30.27	2.78	2.78	2.78
3/16/2012	90	354	0	3	20	0	10	20	0	59	65	53	70	100	52	77.7	81.2	73.9	72.8	79.4	57.3	30.33	30.42	30.28	2.78	2.78	2.78
3/17/2012	45	359	0	2	15	0	8	15	0	55	61	48	70	100	7	77.4	81.8	73.1	71.6	77.7	61.5	30.32	30.38	30.28	2.78	2.78	2.78
3/18/2012	45	359	0	3	17	0	9	17	0	56	64	53	73	100	15	77.9	81.7	73.5	72.2	78.5	62.4	30.33	30.39	30.29	2.78	2.78	2.78
3/19/2012	90	358	2	3	15	0	10	15	0	51	56	46	64	100	10	78.7	83.0	74.6	73.6	79.6	65.2	30.28	30.33	30.24	2.78	2.78	2.78
3/20/2012	112	345	9	5	20	0	13	20	0	55	62	50	69	100	37	79.0	83.1	75.6	74.3	80.4	69.4	30.23	30.28	30.18	2.79	2.83	2.78
3/21/2012	112	337	15	8	25	0	19	25	4	62	67	58	73	100	3	79.0	82.5	75.8	75.0	80.3	69.2	30.25	30.31	30.18	2.88	2.90	2.83
3/22/2012	112	223	16	5	20	0	14	20	1	61	67	54	72	100	12	80.2	84.5	76.5	76.0	82.7	71.5	30.27	30.32	30.22	2.90	2.90	2.90
3/23/2012	112	289	9	3	18	0	9	18	0	56	63	50	75	100	25	80.3	84.4	75.8	74.3	82.0	65.2	30.22	30.27	30.16	2.90	2.90	2.90
3/24/2012	180	314	34	4	20	0	10	20	0	56	63	50	70	100	4	80.7	86.5	75.9	75.7	88.2	67.7	30.12	30.22	30.04	2.90	2.90	2.90
3/25/2012	292	358	0	5	24	0	13	24	0	54	63	40	66	100	33	80.2	84.0	77.1	74.8	86.2	66.1	29.99	30.09	29.91	2.90	2.90	2.90
3/26/2012	0	359	0	3	19	0	10	19	0	45	52	39	67	100	7	77.7	81.3	73.4	69.0	77.8	59.6	30.07	30.15	30.00	2.90	2.90	2.90
3/27/2012	45	359	0	4	16	0	10	16	0	54	59	47	72	100	5	78.8	83.4	75.1	74.0	79.9	66.9	30.23	30.33	30.12	2.90	2.90	2.90
3/28/2012	112	186	27	5	17	0	13	17	0	51	55	47	67	100	37	79.6	84.0	75.8	74.7	81.1	69.9	30.28	30.34	30.21	2.90	2.90	2.90
3/29/2012	112	358	11	2	15	0	6	15	0	50	58	42	73	100	34	79.1	83.8	73.8	71.8	81.4	60.7	30.17	30.25	30.12	2.90	2.90	2.90
3/30/2012	112	257	46	3	14	0	8	14	0	49	57	41	65	100	4	79.9	85.6	74.5	73.7	84.5	63.4	30.16	30.23	30.12	2.90	2.90	2.90
3/31/2012	225	358	64	3	23	0	10	23	0	50	58	46	71	100	44	79.8	85.5	75.4	73.1	88.3	64.2	30.08	30.16	29.98	3.00	3.27	2.90
4/1/2012	248	359	0	2	14	0	8	14	0	55	64	51	77	100	36	79.8	84.9	74.9	72.6	81.0	65.0	30.03	30.08	29.99	3.28	3.28	3.27
4/2/2012	45	359	0	2	10	0	6	10	0	52	63	49	74	100	40	80.8	86.0	75.9	73.5	83.5	65.4	30.02	30.07	29.97	3.28	3.28	3.28
4/3/2012	112	359	0	2	13	0	6	13	0	51	60	44	69	100	1	81.9	87.4	76.1	75.3	86.2	64.0	30.07	30.13	30.02	3.28	3.28	3.28
4/4/2012	225	318	65	3	18	0	10	18	0	49	58	42	63	100	27	83.5	89.7	77.3	79.3	91.5	66.4	30.03	30.11	29.93	3.28	3.28	3.28
4/5/2012	248	359	0	3	20	0	9	20	0	48	53	42	63	100	37	83.7	87.8	79.9	77.7	87.6	71.5	29.93	30.01	29.86	3.28	3.28	3.28
4/6/2012	292	359	0	4	26	0	14	26	0	47	57	39	64	100	36	82.8	87.8	78.8	76.2	88.5	68.8	29.93	30.09	29.86	3.28	3.28	3.28
4/7/2012	45	359	0	6	23	0	16	23	2	47	54	38	62	100	46	78.1	81.3	75.6	71.5	76.4	68.0	30.19	30.28	30.06	3.28	3.28	3.28
4/8/2012	45	359	0	3	15	0	10	15	0	41	45	37	52	100	25	77.5	82.1	73.8	71.6	77.1	67.4	30.27	30.33	30.23	3.28	3.28	3.28
4/9/2012	112	358	0	2	14	0	6	14	0	43	49	38	62	100	42	78.1	83.2	72.7	70.2	79.2	58.7	30.20	30.25	30.14	3.28	3.28	3.28
4/10/2012	112	359	0	3	14	0	7	14	0	45	53	38	64	100	10	79.3	85.1	73.7	72.6	84.1	60.6	30.17	30.23	30.11	3.28	3.28	3.28
4/11/2012	45	359	0	2	16	0	8	16	0	45	54	42	65	100	1	80.6	87.0	75.2	73.4	86.9	64.2	30.14	30.19	30.10	3.28	3.28	3.28
4/12/2012	68	359	0	3	20	0	10	20	0	47	54	43	69	100	49	80.0	83.9	75.8	72.0	79.3	62.7	30.15	30.22	30.08	3.28	3.28	3.28
4/13/2012	112	191	5	6	21	0	16	21	3	54	57	50	68	100	8	79.8	84.3	76.4	74.7	82.3	67.2	30.22	30.30	30.16	3.31	3.69	3.28
4/14/2012	112	184	6	7	25	0	19	25	4	57	64	53	69	100	58	75.7	77.9	74.5	71.2	73.8	66.3	30.33	30.40	30.25	3.89	3.93	3.69
4/15/2012	112	203	39	6	20	0	14	20	0	50	55	45	58	100	4	77.7	82.3	73.7	73.8	81.1	66.4	30.34	30.38	30.30	3.93	3.93	3.93
4/16/2012	112	198	32	6	24	0	16	24	3	50	56	44	60	100	43	79.5	83.7	75.8	75.3	82.8	69.9	30.32	30.37	30.26	3.93	3.93	3.93
4/17/2012	112	178	3	5	20	0	11	20	0	47	53	42	61	100	40	80.1	85.4	74.9	73.3	82.6	49.0	30.28	30.34	30.22	3.93	3.93	3.93
4/18/2012	135	339	0	4	19	0	12	19	0	51	57	47	67	100	53	80.8	84.8	76.6	75.4	82.9	46.9	30.18	30.25	30.11	3.93	3.93	3.93
4/19/2012	135	351	6	3	21	0	10	21	0	56	62	51	75	97	50	81.0	85.7	77.4	74.8	85.5	66.7	30.09	30.16	30.02	4.01	4.24	3.93
4/20/2012	135	359	0	3	26	0	10	26	0	60	68	55	82	100	28	80.0	86.8	76.8	72.7	87.7	66.4	30.02	30.07	29.95	4.67	5.64	4.24
4/21/2012	180	357	12	3	16	0	10	16	0	60	67	55	76	100	61	78.3	81.7	74.6	72.3	79.1	65.7	29.90	30.00	29.78	5.65	5.65	5.64
4/22/2012	270	332	70	5	21	0	14	21	0	56	65	48	68	100	40	79.3	83.9	74.4	72.9	82.4	62.1	29.71	29.85	29.65	5.69	5.70	5.65
4/23/2012	292	358	0	5	29	0	16	29	0	39	48	30	54	100	25	77.4	81.7	72.8	67.5	77.7	56.8	29.91	30.04	29.83	5.70	5.70	5.70
4/24/2012	292	359	0	3	17	0	9	17	0	32	35	26	50	100	10	74.1	78.3	69.0	62.0	72.5	43.0	30.09	30.18	30.02	5.70	5.70	5.70
4/25/2012	45	356	0	2	14	0	6	14	0	36	43	30	56	100	39	74.2	80.2	66.9	64.8	77.6	49.0	30.21	30.27	30.16	5.70	5.70	5.70
4/26/2012	90	359	0	3	17	0	8	17	0	44	49	39	62	100	37	77.6	84.5	71.0	71.1	82.8	59.0	30.24	30.30	30.19	5.70	5.70	5.70
4/27/2012	135	359	0	2	16	0	8	16	0	48	55	44	70	100	36	79.4	85.0	73.2	72.2	81.7	59.4	30.23	30.29	30.19	5.70	5.70	5.70
4/28/2012	112	203	26	2	17	0	7	17	0	56	68	49	77	100	23	80.9	85.5	76.7	75.0	83.4	67.3	30.22	30.25	30.18	5.70	5.70	5.70
4/29/2012	112	359	0	4	19	0	10	19	0	62	68	58	76	100	67	81.0	83.5	78.9	75.9	80.2	73.5	30.21	30.26	30.18	5.70	5.70	5.70
4/30/2012	68	359	4	5	23	0	14	23	0	63	69	57	72	100	63	81.0	85.1	78.0	77.0	81.8	73.6	30.22	30.27	30.18	5.70	5.70	5.70
5/1/2012	112	196	25	7	25	0	17	25	3	64	71	56	72	80	57	81.8	86.0	78.8	78.0	84.3	74.8	30.21	30.26	30.17	5.70	5.70	5.70
5/2/2012	112	185	36	6	22	0	15	22	2	62	67	53	71	100	15	82.3	87.1	78.8	78.1	85.1	73.1	30.22	30.27	30.16	5.70	5.70	5.70
5/3/2012	112	174	30	6	21	0	14	21	0	62	66	55	72	100	45	82.2	87.4	78.8	77.5	84.1	61.2	30.22	30.27	30.19	5.70	5.70	5.70
5/4/2012	112	204	10	3	14	0	9	14	0	60	63	54	71	100	11	81.5	85.1	78.5	76.5	82.0	69.1	30.19	30.25	30.15	5.70	5.70	5.70
5/5/2012	112	318	27	3	16	0	8	16	0	59	64	54	70	100	3	82.7	88.2	78.0	77.7	86.5	67.3	30.12	30.18	30.07	5.70	5.70	5.70
5/6/2012	225	359	2	4	15	0	10	15	0	58	69	48	69	100	34	84.3	91.9	78.8	79.8	94.3	67.9	30.07	30.12	30.01	5.70	5.70	5.70
5/7/2012	248	359	0	1	15	0	7	15	0	56	64	53	74	90	44	83.1	89.2	79.5	75.7	90.6	64.6	30.03	30.08	29.98	5.76	5.91	5.70
5/8/2012	180	358	1	3	20	0	9	20	0	60	68	50	73	100	43	82.3	88.9	77.8	76.9	89.3	60.9	30.02	30.06	29.98	5.92	5.94	5.91
5/9/2012	202	359	0	2	22	0	9	22	0	59	66	52	77	94	47	82.8	88.9	78.3	76.1	91.0	69.1	29.98	30.04	29.90	6.17	7.06	5.94
5/10/2012	45	359	0	2	18	0	9	18	0	60	67	55	78	100	28	81.8	85.9	78.2	75.1	80.7	69.7	29.96	30.06	29.90	7.07	7.07	7.06
5/11/2012	45	359	0	4	17	0	12	17	0	55	65	45	65	83	50	81.6	84.7	79.1	77.1	81.2	72.2	30.14	30.26	30.03	7.07	7.07	7.07
5/12/2012	90	146	1	6	20	0	14	20	0	54	61	47	64	78	49	81.5	85.5	78.8	77.2	81.7	74.2	30.28	30.36	30.22	7.07	7.07	7.07
5/13/2012	112	170	27	5	20	0	13	20	0	55	60	48	65	97	57	81.3	85.2	78.3	77.3	82.0	73.6	30.24	30.29	30.17	7.07	7.07	7.07
5/14/2012	112	268	15	2	14	0	7	14	0	62	72	58	76	98	64	82.2	86.0	79.8	78.1	84.3	72.5	30.15	30.22	30.09	7.07	7.09	7.07
5/15/2012	112	359	0	2	14	0	6	14	0	63	71	58	80	100	12	82.0	87.4	78.3	75.6	85.2	55.3	30.13	30.19	30.08	7.11	7.13	7.09
5/16/2012	45	359	0	1	11	0	5	11	0	62	67	60	80	100	42	80.9	83.9	77.7	74.5	82.7	51.2	30.11	30.16	30.06	7.22	7.79	7.13
5/17/2012	180	359	0	2	14	0	7	14	0	66	74	61	85	100	68	79.5	83.6	77.2	73.0	83.3	48.7	30.04	30.12	29.98	8.13	8.58	7.79
5/18/2012	45	359	0	2	15	0	8	15	0	64	73	57	78	100	39	80.9	85.6	76.2	74.5	81.1	54.7	30.04	30.08	29.99	8.58	8.58	8.58
5/19/2012	22	359	0	2	15	0	8	15	0	61	68	58	78	100	38	82.4	86.2	78.9	75.7	81.8	67.4	30.07	30.14	30.02	8.58	8.58	8.58
5/20/2012	22	359	0	3	15	0	10	15	0	61	67	51	72	100	36	82.6	86.8	79.4	77.2	81.2	73.2	30.09	30.14	30.05	8.58	8.58	8.58
5/21/2012	45	359	0	2	15	0	6	15	0	52	58	48	66	100	28	82.5	88.0	77.3	75.5	85.9	63.7	30.10	30.14	30.05	8.58	8.58	8.58
5/22/2012	112	250	28	3	20	0	9	20	0	56	65	47	72	100	49	83.5	89.5	78.5	77.6	88.8	50.8	30.07	30.11	30.02	8.59	8.60	8.58
5/23/2012	112	356	1	4	18	0	12	18	0	59	66	54	74	100	5	84.1	89.5	79.5	78.4	86.9	52.2	30.04	30.08	30.00	8.60	8.60	8.60
5/24/2012	90	359	0	3	17	0	8	17	0	63	71	59	79	91	66	84.2	88.4	80.5	78.1	85.3	66.0	30.02	30.06	29.99	8.60	8.60	8.60
5/25/2012	22	359	0	3	17	0	8	17	0	62	68	59	79	100	29	84.9	89.7	80.7	78.5	84.4	71.6	30.12	30.18	30.03	8.60	8.60	8.60
5/26/2012	0	359	0	2	14	0	8	14	0	61	68	54	76	100	5	85.2	89.9	81.5	79.1	85.2	56.4	30.14	30.20	30.10	8.60	8.60	8.60
5/27/2012	248	347	128	5	24	0	12	24	0	55	60	49	74	100	42	84.4	89.8	80.4	78.2	93.2	70.3	30.02	30.11	29.94	8.63	8.79	8.60
5/28/2012	180	297	69	6	20	0	14	20	1	61	73	55	76	100	37	84.7	88.8	80.6	80.0	90.2	72.8	30.05	30.10	29.98	8.83	8.83	8.79
5/29/2012	180	359	0	3	17	0	10	17	0	59	68	55	73	100	40	85.3	89.4	81.4	79.8	90.2	73.8	30.06	30.11	30.00	8.83	8.84	8.83
5/30/2012	225	359	0	3	21	0	11	21	0	61	67	52	71	100	31	85.5	92.0	81.4	81.5	94.5	73.9	30.00	30.05	29.92	8.84	9.21	8.84
5/31/2012	158	327	33	2	16	0	9	16	0	60	70	52	75	90	41	85.4	90.6	80.7	80.0	89.7	61.3	30.03	30.09	29.98	9.35	9.36	9.21
6/1/2012	180	358	1	2	18	0	9	18	0	60	67	52	80	100	43	83.5	86.0	80.3	76.4	84.7	69.7	30.05	30.11	30.00	9.59	10.44	9.36
6/2/2012	248	346	134	4	16	0	10	16	0	62	72	51	73	100	47	84.0	89.6	79.0	80.1	92.2	70.9	30.05	30.11	30.00	10.44	10.44	10.44
6/3/2012	45	359	0	2	13	0	8	13	0	50	59	43	67	100	30	85.8	89.2	81.5	78.6	84.8	53.5	30.13	30.20	30.06	10.44	10.44	10.44
6/4/2012	225	337	131	4	20	0	10	20	0	51	61	45	68	100	45	86.6	92.0	81.2	81.8	93.8	55.1	30.05	30.13	29.97	10.44	10.44	10.44
6/5/2012	248	316	171	4	19	0	11	19	0	55	61	46	74	87	55	86.6	88.8	84.0	80.8	88.5	75.3	29.98	30.03	29.92	10.44	10.44	10.44
6/6/2012	180	338	32	3	28	0	10	28	0	58	67	50	74	83	63	84.4	87.3	80.4	78.4	86.2	71.8	30.04	30.10	29.97	10.44	10.46	10.44
6/7/2012	225	359	0	1	12	0	6	12	0	64	70	56	83	100	64	83.5	85.6	81.5	78.1	85.0	52.6	30.08	30.12	30.03	10.48	10.53	10.46
6/8/2012	135	359	0	0	20	0	4	20	0	65	70	59	81	100	56	83.1	89.4	79.8	76.7	88.9	54.0	30.08	30.13	30.03	10.58	10.75	10.53
6/9/2012	112	296	23	2	16	0	7	16	0	66	73	62	81	100	42	83.3	89.2	79.4	77.7	87.1	68.2	30.12	30.19	30.07	10.79	10.95	10.75
6/10/2012	112	327	15	4	18	0	9	18	0	68	82	62	79	100	15	85.4	90.8	80.3	80.4	89.3	53.6	30.19	30.30	30.12	10.95	10.95	10.95
6/11/2012	112	342	9	4	16	0	10	16	0	61	71	52	68	90	47	86.1	90.3	82.1	81.6	89.3	75.3	30.24	30.29	30.18	11.04	11.05	10.95
6/12/2012	112	192	11	3	14	0	8	14	0	54	61	47	62	100	42	85.6	90.7	81.4	80.2	90.1	51.9	30.17	30.25	30.10	11.05	11.05	11.05
6/13/2012	90	359	3	2	16	0	8	16	0	55	64	51	68	95	46	85.9	91.9	81.2	80.6	93.5	69.6	30.08	30.13	30.02	11.06	11.13	11.05
6/14/2012	45	359	0	2	14	0	7	14	0	59	66	54	75	100	50	85.8	91.7	81.5	79.3	90.4	54.2	30.09	30.14	30.01	11.16	11.28	11.13
6/15/2012	22	359	0	3	19	0	10	19	0	60	68	53	73	100	48	85.0	89.0	81.3	79.4	86.5	72.9	30.12	30.18	30.06	11.29	11.29	11.28
6/16/2012	45	359	0	5	19	0	13	19	0	59	67	53	65	97	47	84.2	88.3	80.8	80.0	85.6	72.7	30.16	30.21	30.10	11.65	11.74	11.29
6/17/2012	45	359	0	4	16	0	12	16	0	54	60	50	59	83	50	84.0	87.7	81.1	79.9	85.2	76.0	30.15	30.22	30.10	11.74	11.74	11.74
6/18/2012	68	358	0	4	16	0	11	16	0	52	57	48	59	100	45	84.6	88.4	81.2	80.1	87.5	55.5	30.15	30.21	30.09	11.74	11.74	11.74
6/19/2012	68	359	1	5	20	0	15	20	3	54	60	49	59	100	48	83.9	87.2	81.4	79.8	86.0	-34.6	30.19	30.24	30.14	11.75	11.76	11.74
6/20/2012	112	220	0	4	23	0	13	23	0	66	72	58	74	86	61	82.9	85.7	81.5	78.6	84.3	76.0	30.15	30.19	30.11	11.92	12.12	11.76
6/21/2012	112	197	21	4	19	0	12	19	0	70	76	64	73	87	58	84.0	88.8	80.3	81.3	89.3	74.9	30.09	30.15	30.02	12.14	12.14	12.12
6/22/2012	112	274	30	2	19	0	9	19	0	67	72	63	75	84	61	84.2	86.6	82.2	80.2	87.0	76.1	30.02	30.07	29.99	12.15	12.16	12.14
6/23/2012	135	253	50	2	16	0	7	16	0	68	75	64	77	86	59	83.4	85.3	81.1	79.8	85.3	75.5	30.08	30.14	29.99	12.16	12.20	12.16
6/24/2012	135	228	71	6	24	0	14	24	0	77	86	69	83	89	77	81.2	83.6	80.2	77.3	80.1	74.9	30.05	30.12	29.97	12.33	12.55	12.20
6/25/2012	180	256	106	7	24	0	17	24	4	80	86	76	80	88	74	81.3	81.9	80.7	79.0	80.8	75.8	29.91	29.98	29.83	12.65	12.72	12.55
6/26/2012	180	320	116	8	34	0	22	34	4	76	82	67	75	84	57	83.0	86.8	80.7	81.5	89.6	77.0	29.82	29.86	29.76	12.74	12.76	12.72
6/27/2012	248	359	0	7	26	0	19	26	0	71	76	63	73	84	54	83.4	88.0	81.1	80.2	91.1	75.6	29.95	30.13	29.80	12.77	12.77	12.76
6/28/2012	45	359	0	2	14	0	8	14	0	58	64	52	64	79	48	83.9	88.9	79.2	78.4	85.3	70.5	30.18	30.23	30.11	12.77	12.77	12.77
6/29/2012	112	359	0	2	12	0	6	12	0	56	65	49	64	84	38	85.4	91.2	79.4	81.2	93.5	69.8	30.14	30.20	30.08	12.77	12.77	12.77
6/30/2012	112	359	0	2	14	0	7	14	0	56	63	51	63	80	36	87.1	93.0	82.1	83.8	99.1	73.8	30.11	30.16	30.07	12.77	12.77	12.77
7/1/2012	112	358	0	2	14	0	7	14	0	56	66	50	66	100	38	87.8	92.5	83.1	80.1	95.4	0.0	30.17	30.23	30.11	12.77	12.77	12.77
7/2/2012	180	357	16	2	16	0	8	16	0	57	66	51	65	78	50	88.5	92.7	83.9	84.3	92.4	77.3	30.19	30.24	30.13	12.77	12.77	12.77
7/3/2012	45	359	0	2	16	0	7	16	0	55	63	48	65	80	47	87.8	92.5	83.0	82.5	89.4	74.8	30.18	30.23	30.13	12.77	12.77	12.77
7/4/2012	112	355	0	2	18	0	8	18	0	56	64	50	67	81	48	88.5	93.5	84.5	83.6	91.9	77.3	30.20	30.25	30.16	12.77	12.77	12.77
7/5/2012	112	359	0	2	16	0	7	16	0	54	65	49	66	81	53	88.1	92.8	83.0	82.7	90.3	74.0	30.18	30.23	30.12	12.77	12.77	12.77
7/6/2012	112	359	3	2	15	0	7	15	0	55	62	51	67	82	52	88.2	92.8	84.2	83.0	90.3	75.3	30.18	30.22	30.15	12.77	12.77	12.77
7/7/2012	112	359	0	2	16	0	7	16	0	59	66	52	70	83	55	88.1	92.5	84.1	82.5	88.2	75.7	30.22	30.25	30.18	12.77	12.77	12.77
7/8/2012	45	359	0	3	16	0	7	16	0	59	65	55	71	83	61	88.6	92.5	84.4	82.8	87.3	76.5	30.21	30.25	30.16	12.77	12.77	12.77
7/9/2012	112	359	0	2	19	0	6	19	0	57	65	49	68	82	52	88.6	93.8	84.8	83.3	91.0	76.8	30.17	30.21	30.11	12.77	12.77	12.77
7/10/2012	112	291	39	3	17	0	8	17	0	59	67	54	70	83	53	87.7	91.8	84.2	82.9	90.2	75.5	30.16	30.20	30.10	12.77	12.77	12.77
7/11/2012	112	359	0	1	17	0	6	17	0	62	71	55	77	86	63	85.3	88.6	83.4	78.5	86.3	75.4	30.16	30.23	30.05	12.81	12.84	12.77
7/12/2012	112	359	0	3	21	0	7	21	0	61	70	54	74	87	58	85.3	90.7	80.6	79.5	87.4	72.7	30.15	30.19	30.11	12.86	12.86	12.84
7/13/2012	112	273	20	4	20	0	10	20	0	61	72	55	70	86	56	86.5	91.4	82.3	81.9	89.3	74.6	30.18	30.23	30.14	12.87	12.88	12.86
7/14/2012	112	207	24	5	20	0	13	20	0	61	68	55	69	79	56	87.7	91.8	84.3	82.7	87.9	79.0	30.21	30.27	30.15	12.90	12.92	12.88
7/15/2012	112	267	7	3	25	0	9	25	0	58	64	50	67	81	49	87.6	91.8	84.6	82.7	89.5	77.0	30.22	30.27	30.18	12.92	12.92	12.92
7/16/2012	180	357	1	2	14	0	6	14	0	60	68	53	79	86	65	84.4	87.9	82.1	77.0	85.3	73.7	30.18	30.25	30.12	13.22	13.69	12.92
7/17/2012	135	359	0	2	23	0	9	23	0	66	73	59	81	86	62	83.1	88.3	80.3	76.6	85.9	73.0	30.15	30.20	30.11	13.97	14.42	13.69
7/18/2012	180	322	33	2	25	0	8	25	0	65	74	56	75	88	49	84.8	90.5	80.2	80.4	92.0	73.8	30.21	30.29	30.13	14.53	14.86	14.42
7/19/2012	135	292	57	3	17	0	9	17	0	63	71	58	73	86	55	87.1	92.7	82.6	83.3	91.4	76.4	30.28	30.33	30.24	14.86	14.86	14.86
7/20/2012	135	246	27	3	17	0	8	17	0	61	69	56	70	86	55	88.2	93.1	83.5	83.7	90.7	75.7	30.25	30.28	30.20	14.86	14.86	14.86
7/21/2012	112	216	22	3	18	0	9	18	0	60	66	55	70	83	55	89.1	93.1	85.1	84.4	90.6	79.2	30.23	30.27	30.18	14.86	14.86	14.86
7/22/2012	112	359	0	3	42	0	13	42	0	64	70	58	77	89	63	87.7	91.8	84.2	81.5	88.1	76.4	30.26	30.32	30.20	14.90	15.01	14.86
7/23/2012	112	359	0	3	18	0	8	18	0	65	71	57	79	91	60	84.4	88.6	82.1	78.3	87.0	73.2	30.29	30.34	30.26	15.03	15.14	15.01
7/24/2012	112	359	0	1	14	0	5	14	0	66	72	61	79	90	59	85.1	89.3	81.6	80.1	90.3	75.1	30.24	30.30	30.13	15.16	15.17	15.14
7/25/2012	225	345	1	2	17	0	8	17	0	63	70	56	69	82	46	87.5	93.1	82.3	84.2	94.8	75.2	30.16	30.20	30.11	15.17	15.17	15.17
7/26/2012	135	359	0	3	17	0	9	17	0	60	66	57	70	82	50	88.9	93.6	84.9	84.4	92.7	77.6	30.16	30.21	30.11	15.17	15.17	15.17
7/27/2012	112	359	0	2	18	0	8	18	0	59	69	51	69	84	55	89.0	93.0	84.7	83.4	89.2	77.6	30.19	30.26	30.14	15.17	15.17	15.17
7/28/2012	112	359	0	3	21	0	8	21	0	56	65	50	68	80	52	89.0	94.4	84.8	83.5	90.8	77.5	30.22	30.26	30.18	15.17	15.17	15.17
7/29/2012	180	357	1	2	18	0	8	18	0	57	64	53	71	90	51	88.4	92.9	84.9	82.9	92.3	76.2	30.19	30.25	30.14	15.48	16.33	15.17
7/30/2012	112	359	0	2	16	0	8	16	0	56	64	49	69	88	46	88.2	93.0	84.1	82.2	90.5	76.7	30.17	30.21	30.12	16.33	16.33	16.33
7/31/2012	112	359	0	2	16	0	7	16	0	55	63	50	73	88	48	87.7	93.4	83.4	80.8	91.9	74.6	30.16	30.21	30.10	16.39	16.63	16.33
8/1/2012	248	359	0	2	16	0	7	16	0	57	64	52	70	84	48	88.0	93.0	83.5	82.5	92.8	75.3	30.13	30.17	30.08	16.64	16.64	16.63
8/2/2012	112	359	2	2	16	0	8	16	0	57	63	52	71	84	57	88.9	92.7	84.9	83.2	89.1	76.8	30.12	30.16	30.07	16.64	16.64	16.64
8/3/2012	45	359	0	2	20	0	6	20	0	58	65	54	74	85	64	87.7	91.4	85.3	80.9	86.6	77.6	30.14	30.20	30.06	16.64	16.64	16.64
8/4/2012	45	359	0	2	16	0	8	16	0	62	70	56	75	90	64	87.8	91.9	83.6	81.3	84.8	75.1	30.15	30.21	30.10	16.64	16.64	16.64
8/5/2012	112	215	1	3	17	0	9	17	0	63	68	61	74	83	61	87.7	89.5	85.4	82.5	88.6	79.7	30.22	30.27	30.17	16.64	16.64	16.64
8/6/2012	135	288	49	4	18	0	12	18	0	62	68	56	71	83	53	87.6	91.8	84.6	82.9	90.5	76.1	30.20	30.25	30.14	16.65	16.74	16.64
8/7/2012	135	358	0	2	19	0	7	19	0	63	71	57	77	90	62	86.9	91.6	83.0	81.0	89.8	74.4	30.16	30.20	30.12	16.74	16.74	16.74
8/8/2012	112	359	0	2	18	0	8	18	0	62	68	55	71	88	51	88.5	92.9	84.2	83.6	91.2	77.0	30.17	30.21	30.12	16.74	16.74	16.74
8/9/2012	112	190	0	3	18	0	8	18	0	59	68	55	72	93	58	89.1	93.6	84.5	83.3	89.2	76.5	30.14	30.19	30.09	16.74	16.74	16.74
8/10/2012	135	275	25	3	21	0	9	21	0	58	65	54	70	84	51	88.7	92.7	85.3	83.4	89.9	77.4	30.12	30.16	30.08	16.74	16.74	16.74
8/11/2012	135	291	33	2	15	0	7	15	0	59	62	56	69	81	55	87.5	90.5	84.4	82.3	89.2	77.1	30.12	30.18	30.08	16.74	16.74	16.74
8/12/2012	248	359	0	1	18	0	6	18	0	60	68	56	79	89	54	85.7	89.6	83.2	78.8	90.5	74.5	30.17	30.22	30.11	17.29	18.29	16.74
8/13/2012	135	359	0	1	10	0	5	10	0	65	72	62	80	91	60	84.8	88.9	81.2	79.6	89.0	73.8	30.19	30.24	30.14	18.33	18.40	18.29
8/14/2012	112	359	0	1	20	0	6	20	0	66	71	58	79	100	65	85.9	89.4	83.0	80.4	87.7	73.7	30.17	30.22	30.11	18.41	18.49	18.40
8/15/2012	135	353	7	2	14	0	6	14	0	64	74	59	75	93	53	86.4	92.3	81.3	81.9	92.0	74.0	30.16	30.21	30.11	18.50	18.50	18.49
8/16/2012	202	359	0	2	15	0	7	15	0	60	69	52	70	88	50	88.8	93.5	84.6	83.5	92.5	77.5	30.18	30.24	30.13	18.50	18.50	18.50
8/17/2012	248	359	0	1	20	0	7	20	0	60	66	54	76	86	53	87.5	92.5	84.4	81.1	93.2	76.1	30.15	30.21	30.10	18.68	19.04	18.50
8/18/2012	180	359	0	2	20	0	7	20	0	62	69	59	79	88	50	85.5	90.6	82.4	79.0	90.3	75.6	30.10	30.16	30.04	19.25	19.55	19.04
8/19/2012	202	359	0	2	18	0	9	18	0	63	72	56	73	86	50	86.9	93.1	82.4	82.3	94.2	75.9	30.11	30.16	30.05	19.57	19.65	19.55
8/20/2012	180	288	55	4	20	0	10	20	0	60	70	50	70	88	45	88.0	93.9	83.6	83.8	94.4	76.7	30.11	30.17	30.02	19.65	19.65	19.65
8/21/2012	180	359	0	2	30	0	10	30	0	58	68	52	72	89	46	87.5	93.4	83.7	81.4	95.0	72.3	30.17	30.26	30.11	19.69	19.92	19.65
8/22/2012	180	359	0	2	21	0	8	21	0	60	67	54	76	89	48	85.3	90.3	81.5	79.0	92.0	73.7	30.21	30.25	30.15	19.99	20.00	19.92
8/23/2012	45	359	0	2	11	0	5	11	0	63	68	57	79	89	64	85.8	89.4	81.9	79.4	86.6	73.6	30.21	30.31	30.17	20.02	20.06	20.00
8/24/2012	22	359	0	3	22	0	8	22	0	63	72	54	76	89	55	86.9	90.6	83.5	80.9	85.5	75.4	30.16	30.23	30.11	20.06	20.20	20.06
8/25/2012	45	359	0	3	22	0	14	22	0	67	76	58	77	85	70	82.8	85.7	79.8	77.2	82.8	71.5	30.13	30.21	30.08	20.33	20.43	20.20
8/26/2012	45	359	0	6	26	0	17	26	3	79	83	76	81	89	74	82.8	84.0	80.8	79.8	81.5	75.5	30.03	30.12	29.97	20.54	20.88	20.43
8/27/2012	135	357	7	8	32	0	21	32	4	84	88	80	86	89	77	80.3	81.6	79.2	77.4	80.9	74.2	30.00	30.08	29.94	22.89	24.88	20.88
8/28/2012	158	325	79	5	20	0	13	20	0	80	88	69	79	85	59	83.5	89.2	80.5	80.9	91.7	76.2	30.09	30.16	30.04	24.99	25.25	24.88
8/29/2012	135	281	59	3	17	0	10	17	0	72	82	65	76	89	59	85.1	90.0	81.2	82.2	90.1	76.2	30.11	30.16	30.07	25.26	25.26	25.25
8/30/2012	112	281	17	3	15	0	8	15	0	68	75	63	75	88	57	86.9	91.3	83.2	82.9	89.9	78.1	30.17	30.27	30.09	25.26	25.26	25.26
8/31/2012	45	359	0	2	14	0	7	14	0	68	74	65	77	87	69	87.5	90.8	84.0	82.3	85.8	77.9	30.27	30.33	30.22	25.26	25.26	25.26
9/1/2012	45	359	0	3	15	0	10	15	0	66	74	58	71	81	62	87.0	90.9	84.5	82.3	86.0	80.0	30.24	30.30	30.20	25.26	25.26	25.26
9/2/2012	45	359	0	3	12	0	8	12	0	56	61	53	62	72	53	86.3	90.4	82.8	81.4	85.3	77.5	30.19	30.23	30.13	25.26	25.26	25.26
9/3/2012	45	359	0	1	12	0	5	12	0	57	62	52	71	87	55	86.6	90.6	82.5	80.2	85.0	74.1	30.17	30.22	30.13	25.26	25.26	25.26
9/4/2012	112	357	2	2	19	0	7	19	0	58	65	53	75	84	57	85.6	89.9	82.9	78.8	88.2	74.0	30.14	30.20	30.08	25.44	25.85	25.26
9/5/2012	180	356	9	3	21	0	10	21	0	60	69	55	75	84	50	84.5	89.9	81.2	78.0	89.1	73.6	30.12	30.16	30.07	25.95	26.20	25.85
9/6/2012	180	332	33	2	24	0	8	24	0	62	69	59	78	88	60	83.9	88.6	80.3	77.5	89.3	73.0	30.14	30.19	30.08	26.37	26.70	26.20
9/7/2012	112	333	27	2	20	0	8	20	0	64	73	59	76	89	59	83.9	89.3	79.4	78.5	88.4	71.6	30.10	30.16	30.05	26.71	26.77	26.70
9/8/2012	225	321	112	2	15	0	6	15	0	62	73	53	70	91	47	85.8	91.6	80.5	82.3	92.4	73.8	30.06	30.12	30.01	26.78	26.78	26.77
9/9/2012	225	347	1	4	25	0	13	25	0	59	68	53	71	82	54	87.4	91.5	83.7	82.5	90.0	76.8	30.06	30.12	30.01	26.78	26.79	26.78
9/10/2012	248	359	0	1	14	0	6	14	0	60	68	55	79	90	61	86.3	91.1	82.6	79.1	88.4	73.5	30.11	30.16	30.05	26.83	26.95	26.79
9/11/2012	45	359	0	3	18	0	10	18	0	65	73	59	76	89	62	83.2	86.4	81.1	79.2	84.3	74.7	30.19	30.26	30.12	27.09	27.16	26.95
9/12/2012	45	359	0	5	20	0	13	20	0	67	70	65	72	87	65	83.4	85.9	82.1	80.0	84.4	74.1	30.22	30.28	30.17	27.45	27.90	27.16
9/13/2012	45	359	0	4	18	0	12	18	0	67	72	60	69	100	59	84.9	88.8	82.0	81.6	85.9	78.2	30.20	30.25	30.15	27.90	27.91	27.90
9/14/2012	45	356	0	3	19	0	11	19	0	67	73	61	74	84	65	85.3	88.5	82.6	80.8	85.0	77.3	30.16	30.20	30.13	27.92	27.93	27.91
9/15/2012	45	359	0	3	17	0	10	17	0	65	71	59	73	82	63	85.6	88.8	82.2	79.7	83.9	76.6	30.18	30.23	30.14	27.93	27.93	27.93
9/16/2012	112	214	6	2	14	0	9	14	0	65	72	61	75	89	61	84.6	87.4	81.6	79.7	84.9	73.2	30.16	30.21	30.12	28.18	28.28	27.93
9/17/2012	112	214	50	4	18	0	8	18	0	63	69	59	73	87	60	85.1	89.9	81.3	80.7	87.2	74.6	30.12	30.18	30.06	28.28	28.28	28.28
9/18/2012	180	334	10	3	28	0	10	28	0	64	72	61	78	87	54	84.4	89.1	81.1	78.6	89.5	74.0	30.08	30.12	30.03	28.38	28.56	28.28
9/19/2012	180	359	0	3	18	0	9	18	0	66	72	58	76	87	54	83.7	89.6	80.0	78.8	89.4	73.6	30.12	30.20	30.04	28.58	28.66	28.56
9/20/2012	45	359	0	1	11	0	5	11	0	64	70	61	79	88	69	84.2	88.4	80.4	78.2	83.2	72.5	30.14	30.18	30.08	28.67	28.70	28.66
9/21/2012	45	359	0	1	16	0	6	16	0	66	74	62	82	91	69	83.6	87.1	81.6	78.2	83.9	74.1	30.12	30.17	30.06	28.73	28.99	28.70
9/22/2012	45	359	0	0	12	0	4	12	0	68	72	65	81	91	69	82.9	85.9	80.3	77.4	81.3	74.2	30.12	30.17	30.07	29.00	29.00	28.99
9/23/2012	45	359	0	2	14	0	5	14	0	62	70	56	72	89	45	84.4	88.9	80.4	79.2	85.1	73.7	30.17	30.21	30.12	29.00	29.00	29.00
9/24/2012	0	359	0	2	14	0	7	14	0	58	65	54	71	84	54	83.9	86.4	81.3	77.9	82.4	73.8	30.17	30.23	30.14	29.00	29.00	29.00
9/25/2012	45	359	0	1	9	0	4	9	0	56	61	52	67	81	51	83.1	86.3	80.0	76.9	82.3	71.4	30.19	30.24	30.14	29.00	29.00	29.00
9/26/2012	45	359	0	2	12	0	5	12	0	61	69	52	76	98	65	83.5	87.4	79.5	78.0	85.0	71.0	30.21	30.25	30.16	29.00	29.00	29.00
9/27/2012	45	359	0	3	20	0	8	20	0	64	71	62	76	87	67	86.0	90.0	82.3	80.6	84.9	76.1	30.20	30.26	30.16	29.00	29.00	29.00
9/28/2012	45	359	0	2	12	0	6	12	0	63	69	59	74	84	58	86.2	90.1	82.7	80.5	85.0	75.5	30.15	30.20	30.09	29.00	29.00	29.00
9/29/2012	112	359	0	1	12	0	5	12	0	63	70	60	77	87	63	85.4	88.3	82.2	79.6	85.9	75.9	30.07	30.13	30.00	29.09	29.15	29.00
9/30/2012	135	270	53	3	18	0	7	18	0	63	70	60	74	89	57	85.5	90.2	81.5	80.9	88.8	74.0	29.99	30.05	29.93	29.15	29.15	29.15
10/1/2012	180	286	63	3	19	0	10	19	0	64	71	60	72	84	56	86.0	89.9	82.6	81.9	90.0	75.2	29.94	29.99	29.88	29.16	29.19	29.15
10/2/2012	180	335	122	4	20	0	12	20	0	66	71	62	76	84	59	84.9	88.1	82.3	79.7	87.7	76.3	30.06	30.19	29.97	29.19	29.21	29.19
10/3/2012	135	359	0	3	16	0	10	16	0	68	76	61	76	86	53	85.6	90.7	81.6	81.5	89.3	76.1	30.23	30.33	30.17	29.22	29.22	29.21
10/4/2012	112	183	5	2	13	0	7	13	0	68	74	61	78	87	66	86.4	89.9	84.1	81.9	87.8	77.0	30.27	30.35	30.22	29.23	29.23	29.22
10/5/2012	45	359	0	2	13	0	8	13	0	68	74	64	77	88	65	86.3	90.3	83.6	81.5	86.6	78.4	30.17	30.26	30.09	29.25	29.32	29.23
10/6/2012	45	359	0	2	13	0	7	13	0	68	75	65	79	100	66	85.1	88.6	82.4	79.7	84.9	75.5	30.07	30.12	30.00	29.33	29.36	29.32
10/7/2012	45	359	0	1	13	0	5	13	0	67	76	62	78	90	66	84.0	88.4	80.2	78.5	84.8	71.9	30.08	30.14	30.04	29.36	29.36	29.36
10/8/2012	112	359	0	2	13	0	5	13	0	65	69	62	77	86	64	84.9	88.1	82.3	79.5	84.2	76.1	30.11	30.18	30.06	29.36	29.38	29.36
10/9/2012	22	359	0	2	15	0	8	15	0	65	73	62	78	89	66	84.4	88.1	81.0	78.8	84.0	74.2	30.13	30.19	30.09	29.38	29.38	29.38
10/10/2012	0	359	0	2	16	0	10	16	0	63	70	54	72	86	60	84.1	87.4	81.7	78.6	82.8	75.1	30.18	30.24	30.13	29.38	29.38	29.38
10/11/2012	22	359	0	4	17	0	13	17	1	55	59	50	60	67	54	82.9	86.6	80.0	78.3	82.4	74.9	30.24	30.29	30.19	29.38	29.38	29.38
10/12/2012	22	359	0	5	19	0	15	19	0	52	55	48	57	63	50	82.9	86.3	80.3	78.3	81.5	76.4	30.25	30.31	30.20	29.38	29.38	29.38
10/13/2012	45	359	0	8	26	0	18	26	4	57	64	52	63	85	51	82.5	86.3	80.3	78.7	82.5	73.8	30.25	30.31	30.21	29.48	29.95	29.38
10/14/2012	45	356	2	6	21	0	15	21	3	63	68	60	67	76	59	83.5	87.7	80.5	80.6	84.6	75.9	30.18	30.24	30.10	29.97	29.97	29.95
10/15/2012	45	359	0	2	14	0	8	14	0	64	69	56	70	81	44	85.3	89.1	82.4	80.6	84.2	76.8	30.02	30.12	29.94	29.98	29.98	29.97
10/16/2012	22	359	0	2	13	0	7	13	0	58	66	55	72	86	59	84.2	87.5	80.8	77.2	82.2	71.5	29.96	30.01	29.92	29.98	29.98	29.98
10/17/2012	180	325	5	1	15	0	5	15	0	60	66	56	75	84	61	82.5	85.4	80.5	76.4	83.1	72.7	29.99	30.04	29.95	29.99	30.02	29.98
10/18/2012	112	359	0	0	17	0	5	17	0	66	71	63	80	88	68	81.7	84.9	78.4	76.2	83.3	70.1	29.98	30.04	29.94	30.10	30.20	30.02
10/19/2012	270	359	0	2	11	0	6	11	0	65	71	62	75	100	56	83.4	87.6	79.3	78.7	88.0	71.3	29.98	30.03	29.93	30.20	30.20	30.20
10/20/2012	0	359	0	1	13	0	6	13	0	54	64	44	64	84	40	82.3	84.8	79.6	74.7	78.7	67.0	30.03	30.10	29.96	30.20	30.20	30.20
10/21/2012	22	359	0	2	14	0	7	14	0	48	54	45	62	81	43	79.8	84.4	74.8	72.3	80.3	62.0	30.12	30.18	30.06	30.20	30.20	30.20
10/22/2012	45	359	0	6	19	0	14	19	0	50	55	48	56	61	49	81.5	84.9	79.1	78.3	82.0	75.8	30.16	30.21	30.11	30.20	30.20	30.20
10/23/2012	45	359	1	7	21	0	15	21	3	56	61	48	61	72	54	81.5	84.6	79.8	78.2	81.7	76.4	30.14	30.18	30.10	30.20	30.23	30.20
10/24/2012	45	358	0	6	21	0	16	21	2	61	67	55	66	83	54	82.5	86.2	80.1	79.2	83.3	74.2	30.09	30.15	30.04	30.27	30.27	30.23
10/25/2012	45	359	0	7	26	0	19	26	2	69	73	65	76	88	63	80.9	82.7	79.3	77.1	80.6	71.7	29.95	30.04	29.87	31.37	31.74	30.27
10/26/2012	22	359	0	8	32	0	26	32	3	66	69	63	73	85	62	78.7	80.7	77.2	74.5	78.4	69.9	29.73	29.88	29.63	32.07	32.52	31.74
10/27/2012	315	359	0	8	35	0	22	35	3	62	65	58	73	86	65	76.5	77.5	75.4	70.2	72.7	67.5	29.65	29.79	29.55	32.68	32.69	32.52
10/28/2012	292	355	216	6	21	0	14	21	3	58	65	50	68	80	51	76.4	80.3	73.4	69.4	76.9	62.5	29.81	29.90	29.76	32.69	32.69	32.69
10/29/2012	270	358	1	6	19	0	14	19	2	43	51	33	55	75	28	72.9	75.8	70.2	61.1	69.8	54.2	29.90	29.97	29.85	32.69	32.69	32.69
10/30/2012	270	341	147	4	30	0	13	30	0	35	37	33	51	69	29	69.2	73.3	65.0	58.5	69.4	48.5	30.00	30.10	29.93	32.69	32.69	32.69
10/31/2012	248	359	0	2	22	0	8	22	0	40	45	36	57	78	37	70.0	75.4	64.7	61.3	71.6	51.5	30.13	30.19	30.08	32.69	32.69	32.69
11/1/2012	248	355	164	4	15	0	8	15	0	48	58	39	65	82	49	73.0	78.7	67.8	67.1	77.7	57.4	30.13	30.18	30.06	32.69	32.69	32.69
11/2/2012	45	359	0	1	11	0	4	11	0	46	55	40	62	85	33	74.5	78.4	69.9	65.5	72.6	57.3	30.17	30.24	30.13	32.70	32.70	32.69
11/3/2012	45	359	0	1	11	0	4	11	0	48	65	40	67	84	50	74.6	80.2	68.4	66.3	77.7	55.3	30.22	30.27	30.18	32.70	32.70	32.70
11/4/2012	112	359	0	1	10	0	4	10	0	51	61	47	68	89	46	76.4	81.5	70.9	70.2	80.9	59.8	30.19	30.26	30.13	32.71	32.71	32.70
11/5/2012	270	359	0	1	11	0	5	11	0	54	59	50	73	85	56	77.6	81.2	73.9	70.8	78.2	64.4	30.10	30.15	30.04	32.75	32.94	32.71
11/6/2012	248	332	135	1	15	0	6	15	0	56	59	52	74	85	53	76.8	80.0	74.2	70.0	77.2	64.7	30.00	30.07	29.94	32.95	32.95	32.94
11/7/2012	292	359	1	4	23	0	10	23	0	46	52	39	64	82	42	73.5	76.6	69.8	62.1	69.0	54.7	30.02	30.12	29.95	32.96	32.96	32.95
11/8/2012	315	359	0	3	17	0	10	17	0	41	44	39	63	77	41	69.8	74.0	65.9	57.4	65.9	50.2	30.20	30.29	30.09	32.96	32.96	32.96
11/9/2012	0	359	0	3	20	0	11	20	0	44	49	39	60	71	50	70.9	76.0	65.9	62.5	69.9	54.4	30.32	30.38	30.26	32.96	32.96	32.96
11/10/2012	45	359	0	3	15	0	9	15	0	47	52	44	61	80	44	72.9	76.4	69.1	67.1	74.2	58.5	30.38	30.44	30.33	32.96	32.96	32.96
11/11/2012	112	197	1	4	20	0	13	20	0	53	59	46	60	69	37	76.4	79.9	73.5	73.8	77.7	70.4	30.38	30.43	30.34	32.96	32.96	32.96
11/12/2012	112	244	12	3	21	0	13	21	0	60	66	57	69	94	48	78.5	81.7	75.7	74.6	79.3	70.6	30.33	30.38	30.29	32.99	33.01	32.96
11/13/2012	0	359	0	1	14	0	5	14	0	60	65	56	76	87	67	78.2	81.2	75.0	71.7	76.1	65.7	30.26	30.31	30.22	33.01	33.01	33.01
11/14/2012	315	359	0	1	13	0	6	13	0	64	69	60	82	87	69	76.8	79.2	74.4	70.2	75.5	66.2	30.24	30.29	30.20	34.39	35.97	33.01
11/15/2012	315	359	0	2	13	0	8	13	0	63	69	58	82	90	74	75.4	79.2	72.6	66.8	71.9	62.8	30.22	30.27	30.17	35.98	35.99	35.97
11/16/2012	315	359	0	4	18	0	11	18	0	60	66	57	78	85	67	74.4	77.7	71.5	65.8	72.2	60.7	30.22	30.26	30.19	35.99	36.07	35.99
11/17/2012	0	359	0	3	18	0	11	18	0	64	71	60	75	87	55	74.8	79.5	71.5	69.3	74.5	64.1	30.23	30.26	30.19	36.13	36.13	36.07
11/18/2012	0	359	0	4	25	0	15	25	0	63	70	56	75	87	64	74.7	78.3	71.9	68.0	72.6	62.0	30.24	30.29	30.19	36.13	36.13	36.13
11/19/2012	315	359	0	3	15	0	11	15	1	57	59	54	79	84	72	70.4	71.9	68.5	60.1	63.5	56.3	30.22	30.27	30.15	36.13	36.13	36.13
11/20/2012	315	359	0	4	19	0	13	19	0	62	72	56	77	89	65	71.0	75.5	67.8	63.6	70.9	59.0	30.12	30.17	30.08	36.13	36.13	36.13
11/21/2012	315	359	0	4	18	0	12	18	0	55	65	49	70	85	56	71.0	74.9	67.8	62.1	69.8	57.2	30.12	30.18	30.08	36.13	36.13	36.13
11/22/2012	315	359	0	5	22	0	14	22	2	49	56	42	64	77	51	69.6	73.6	66.0	59.8	68.0	54.1	30.20	30.27	30.13	36.13	36.13	36.13
11/23/2012	315	359	0	3	15	0	8	15	0	47	57	43	61	69	49	69.9	74.9	65.0	60.9	71.8	52.9	30.24	30.30	30.20	36.13	36.13	36.13
11/24/2012	292	359	0	1	14	0	6	14	0	50	63	42	71	85	49	69.2	74.4	63.6	59.8	73.7	49.4	30.18	30.23	30.11	36.13	36.13	36.13
11/25/2012	315	359	0	1	13	0	6	13	0	49	55	46	68	79	47	69.4	73.8	64.3	59.6	69.1	49.9	30.23	30.28	30.18	36.14	36.14	36.13
11/26/2012	45	359	0	1	10	0	3	10	0	54	65	47	73	91	58	71.6	76.0	65.9	64.9	73.7	54.9	30.30	30.36	30.25	36.14	36.14	36.14
11/27/2012	112	208	35	1	15	0	5	15	0	57	62	53	71	85	57	74.5	78.0	70.8	69.6	76.5	62.8	30.28	30.34	30.21	36.14	36.14	36.14
11/28/2012	0	359	0	2	17	0	9	17	0	58	64	55	77	86	69	73.7	77.2	71.0	65.4	71.0	59.0	30.29	30.36	30.23	36.14	36.14	36.14
11/29/2012	45	359	0	4	16	0	11	16	0	59	69	55	71	88	58	72.3	76.1	67.3	67.1	73.9	57.0	30.35	30.40	30.31	36.16	36.16	36.14
11/30/2012	45	359	0	3	17	0	9	17	0	54	58	51	60	73	50	74.6	78.1	71.4	70.5	75.5	62.1	30.34	30.40	30.30	36.16	36.16	36.16
12/1/2012	45	358	0	3	24	0	10	24	0	57	63	51	69	84	54	74.4	78.4	71.3	69.5	75.9	61.7	30.32	30.37	30.28	36.16	36.17	36.16
12/2/2012	45	359	0	3	18	0	9	18	0	61	65	59	72	85	57	75.7	79.3	73.3	71.1	77.1	66.3	30.35	30.40	30.32	36.20	36.25	36.17
12/3/2012	45	359	0	2	14	0	7	14	0	56	63	49	66	85	50	75.5	79.3	71.9	70.5	76.4	63.4	30.36	30.41	30.32	36.25	36.25	36.25
12/4/2012	45	359	0	3	16	0	9	16	0	50	59	46	58	75	43	74.9	78.0	72.0	70.8	76.0	61.7	30.35	30.41	30.30	36.25	36.25	36.25
12/5/2012	45	359	0	1	12	0	5	12	0	58	63	53	73	85	61	76.1	79.5	72.6	69.5	74.6	63.2	30.24	30.31	30.17	36.26	36.26	36.25
12/6/2012	45	359	0	1	13	0	5	13	0	60	67	54	78	88	65	75.2	79.1	72.1	68.9	76.5	63.8	30.12	30.18	30.06	36.26	36.26	36.26
12/7/2012	112	359	0	1	17	0	5	17	0	64	72	59	77	88	65	75.5	79.4	71.6	69.7	76.5	62.6	30.09	30.16	30.03	36.27	36.27	36.26
12/8/2012	45	359	0	2	18	0	6	18	0	67	74	60	81	91	71	76.4	79.9	73.6	71.1	75.8	66.6	30.14	30.20	30.10	36.27	36.31	36.27
12/9/2012	112	329	2	1	12	0	6	12	0	69	74	66	80	90	62	77.8	81.6	74.4	73.6	81.9	68.6	30.16	30.23	30.13	36.40	36.42	36.31
12/10/2012	180	273	87	3	16	0	8	16	0	70	77	65	81	90	62	78.2	82.3	75.4	74.6	84.3	69.1	30.08	30.16	30.00	36.45	36.49	36.42
12/11/2012	225	307	6	3	16	0	8	16	0	73	75	69	81	86	73	79.3	81.7	77.0	75.6	79.4	72.7	30.08	30.18	30.01	36.49	36.49	36.49
12/12/2012	202	359	0	1	14	0	7	14	0	71	74	69	80	89	68	78.9	81.6	76.0	74.6	80.3	70.2	30.17	30.23	30.12	37.00	37.09	36.49
12/13/2012	315	359	0	3	17	0	11	17	0	67	71	63	81	100	75	74.9	77.8	71.4	67.4	72.2	61.8	30.22	30.27	30.14	37.10	37.10	37.09
12/14/2012	0	359	0	4	20	0	11	20	0	66	75	62	79	100	61	72.9	77.0	69.2	66.3	73.8	60.4	30.24	30.30	30.20	37.10	37.14	37.10
12/15/2012	315	359	0	1	13	0	7	13	0	66	76	63	79	91	61	74.1	79.1	69.9	68.0	75.7	61.0	30.21	30.27	30.18	37.17	37.18	37.14
12/16/2012	135	257	52	2	15	0	6	15	0	68	73	63	80	100	48	74.7	77.1	71.2	70.0	76.0	64.2	30.14	30.20	30.08	37.19	37.21	37.18
12/17/2012	225	324	132	1	13	0	6	13	0	67	72	60	72	86	55	77.0	80.7	73.3	73.1	80.1	67.0	30.06	30.12	30.00	37.21	37.21	37.21
12/18/2012	248	347	157	2	17	0	8	17	0	64	72	55	73	86	55	77.2	80.8	74.1	72.0	81.4	61.8	30.07	30.15	30.00	37.21	37.21	37.21
12/19/2012	45	359	0	1	9	0	3	9	0	55	61	52	68	88	51	75.1	79.5	69.0	66.0	76.0	55.1	30.18	30.24	30.13	37.21	37.21	37.21
12/20/2012	180	271	19	2	17	0	7	17	0	57	61	54	70	87	49	75.6	79.8	70.6	69.7	79.7	60.2	30.16	30.25	30.08	37.22	37.22	37.21
12/21/2012	292	358	0	7	26	0	17	26	0	42	64	31	50	80	22	71.8	75.7	65.6	60.9	71.3	45.9	30.18	30.32	30.03	37.22	37.22	37.22
12/22/2012	315	359	0	4	17	0	9	17	0	30	32	27	40	60	19	64.7	70.2	59.5	50.7	65.4	40.6	30.33	30.39	30.29	37.22	37.22	37.22
12/23/2012	315	359	0	1	8	0	3	8	0	38	46	30	62	78	44	64.6	70.8	57.9	54.2	66.6	40.5	30.33	30.40	30.27	37.22	37.22	37.22
12/24/2012	202	342	31	1	18	0	4	18	0	48	54	43	68	86	46	69.9	74.8	65.2	63.8	74.4	55.3	30.20	30.27	30.11	37.22	37.22	37.22
12/25/2012	135	226	19	1	12	0	4	12	0	53	58	49	70	88	55	71.6	75.5	66.6	66.2	74.6	55.8	30.12	30.19	30.04	37.22	37.22	37.22
12/26/2012	180	352	38	5	29	0	15	29	0	60	72	51	72	84	53	73.8	78.9	70.7	69.1	82.2	56.6	30.01	30.12	29.89	37.23	37.25	37.22
12/27/2012	292	359	0	2	11	0	7	11	0	46	52	43	66	76	44	67.8	71.5	63.6	53.9	62.8	44.6	30.16	30.22	30.10	37.25	37.25	37.25
12/28/2012	135	359	0	2	14	0	6	14	0	54	71	42	72	88	59	67.1	72.8	60.2	60.1	72.0	46.1	30.16	30.23	30.08	37.26	37.42	37.25
12/29/2012	180	336	122	6	24	0	16	24	3	70	79	47	76	88	58	74.9	79.2	70.5	71.7	81.2	54.8	30.08	30.25	30.01	37.42	37.42	37.42
12/30/2012	315	359	0	4	19	0	14	19	0	49	55	41	66	75	57	65.7	70.6	62.2	54.8	64.3	42.9	30.38	30.45	30.24	37.42	37.42	37.42
12/31/2012	112	218	7	4	17	0	10	17	0	53	58	50	60	74	49	70.1	74.6	66.2	66.8	73.2	57.9	30.39	30.47	30.34	37.42	37.42	37.42
																											
Date		Wind	Hi	Lo	Wind	Hi	Lo	Wind	Hi	Lo	Hum	Hi	Lo	Hum	Hi	Lo	Temp	Hi	Lo	Temp	Hi	Lo	Raw	Hi	Lo	Tot	Hi	Lo
		Dir			Speed	Mph	Mph	Gust	Mph	Mph	In%	%	%	Out%	%	%	Inside	F	F	F	F	F	Barom	in	in	Rain	in	in
					Mph			Mph									F						Inches

1/1/2013	180	272	69	2	15	0	5	15	0	56	63	50	70	93	54	70.5	74.7	65.9	65.4	75.7	55.2	30.25	30.36	30.18	0.00	0.00	0.00
1/2/2013	225	332	32	1	12	0	5	12	0	60	69	57	70	92	49	74.0	79.0	69.1	69.7	80.4	60.6	30.17	30.22	30.11	0.00	0.00	0.00
1/3/2013	0	359	0	2	13	0	6	13	0	62	68	56	79	88	62	74.3	77.8	70.8	66.8	76.8	60.6	30.20	30.29	30.15	0.00	0.00	0.00
1/4/2013	0	359	0	2	13	0	10	13	0	68	71	65	84	87	81	72.6	74.2	70.8	66.1	68.6	63.1	30.31	30.38	30.24	0.00	0.00	0.00
1/5/2013	0	359	0	2	12	0	8	12	0	69	74	65	80	96	68	73.1	77.1	69.3	68.2	74.5	62.0	30.35	30.40	30.30	0.01	0.17	0.00
1/6/2013	45	359	0	1	9	0	4	9	0	71	78	67	92	100	84	75.1	78.3	70.9	70.5	75.8	63.8	30.25	30.33	30.18	0.18	0.18	0.17
1/7/2013	45	359	0	3	17	0	12	17	0	71	76	68	89	99	81	74.0	75.8	72.2	69.3	72.8	65.1	30.27	30.33	30.21	0.19	0.24	0.18
1/8/2013	112	359	0	2	11	0	6	11	0	75	79	71	91	100	79	74.8	78.1	72.0	71.6	77.7	67.0	30.29	30.35	30.23	0.32	0.33	0.24
1/9/2013	112	214	42	4	20	0	11	20	0	77	84	74	89	98	79	76.9	80.1	74.1	74.5	79.5	70.3	30.38	30.43	30.31	0.34	0.34	0.33
1/10/2013	112	185	17	4	20	0	10	20	0	70	77	63	83	93	69	77.7	80.7	75.0	74.3	79.0	70.6	30.41	30.45	30.34	0.34	0.34	0.34
1/11/2013	135	202	23	3	18	0	9	18	0	67	73	63	84	95	69	77.2	79.9	74.6	73.1	79.1	68.0	30.34	30.42	30.30	0.34	0.34	0.34
1/12/2013	112	184	22	2	14	0	5	14	0	65	73	62	84	99	70	76.5	80.4	72.1	71.0	78.6	63.4	30.28	30.33	30.23	0.35	0.35	0.34
1/13/2013	112	192	9	2	16	0	9	16	0	63	68	60	80	90	67	76.6	80.1	73.4	72.5	78.1	67.3	30.24	30.29	30.20	0.35	0.35	0.35
1/14/2013	112	196	38	2	15	0	6	15	0	62	68	58	82	99	70	76.2	80.2	71.8	71.0	79.0	61.9	30.28	30.32	30.25	0.35	0.35	0.35
1/15/2013	112	235	20	2	17	0	6	17	0	61	67	58	82	99	69	76.5	80.5	72.5	70.9	78.6	63.7	30.24	30.28	30.19	0.35	0.35	0.35
1/16/2013	135	281	23	2	17	0	6	17	0	61	67	57	81	99	63	76.0	80.2	71.2	70.8	80.6	61.1	30.18	30.24	30.14	0.35	0.35	0.35
1/17/2013	292	338	127	4	23	0	13	23	0	60	71	42	80	93	59	76.8	82.4	71.3	70.5	82.5	56.4	30.15	30.23	30.05	0.35	0.35	0.35
1/18/2013	45	359	0	6	27	0	17	27	2	50	65	39	75	88	64	68.6	71.4	64.7	59.4	69.0	45.8	30.31	30.38	30.21	0.36	0.40	0.35
1/19/2013	45	359	0	4	22	0	14	22	0	69	74	63	85	100	75	71.5	74.6	69.5	68.3	74.0	64.6	30.30	30.38	30.24	0.51	0.68	0.40
1/20/2013	0	359	0	1	15	0	7	15	0	71	80	68	92	100	80	72.8	76.5	69.6	67.4	72.7	63.1	30.22	30.29	30.17	0.68	0.68	0.68
1/21/2013	0	359	0	1	11	0	5	11	0	69	74	65	92	100	83	73.5	76.6	71.6	67.8	73.7	62.8	30.15	30.21	30.10	0.73	0.79	0.68
1/22/2013	0	359	0	4	25	0	13	25	0	56	65	46	73	95	58	70.3	73.0	67.7	63.4	68.1	59.8	30.26	30.39	30.14	0.79	0.79	0.79
1/23/2013	315	359	0	2	16	0	9	16	0	50	58	46	71	83	59	68.4	72.5	64.4	59.2	66.6	52.0	30.41	30.46	30.36	0.79	0.79	0.79
1/24/2013	45	359	0	1	11	0	4	11	0	47	54	45	73	88	51	67.8	72.4	61.7	58.2	68.9	46.6	30.39	30.45	30.35	0.79	0.79	0.79
1/25/2013	292	359	0	1	13	0	5	13	0	50	58	45	77	94	52	69.4	74.7	63.7	61.6	72.5	51.7	30.37	30.43	30.31	0.80	0.80	0.79
1/26/2013	22	359	0	1	11	0	5	11	0	50	56	46	76	91	61	70.6	75.6	64.8	62.0	71.4	52.1	30.35	30.41	30.30	0.80	0.80	0.80
1/27/2013	0	359	0	2	17	0	5	17	0	55	64	47	82	99	62	71.1	76.5	65.2	63.9	72.7	53.2	30.40	30.45	30.35	0.81	0.81	0.80
1/28/2013	112	201	26	3	17	0	11	17	0	67	72	62	83	90	78	74.0	75.9	72.6	71.4	74.1	69.6	30.41	30.48	30.37	0.81	0.81	0.81
1/29/2013	135	217	71	3	21	0	8	21	0	68	76	63	86	99	74	74.7	78.3	71.0	70.5	77.4	63.2	30.32	30.39	30.25	0.81	0.82	0.81
1/30/2013	180	273	91	4	24	0	12	24	0	64	71	55	78	98	57	76.1	81.0	71.5	73.2	82.8	65.4	30.15	30.26	30.06	0.83	0.83	0.82
1/31/2013	315	359	0	3	22	0	13	22	0	55	67	38	73	97	44	73.1	76.4	67.7	62.5	70.1	51.3	30.20	30.33	30.04	0.89	0.91	0.83
2/1/2013	315	359	0	2	16	0	9	16	0	40	48	36	62	78	47	67.1	71.4	62.4	54.7	63.4	46.1	30.39	30.46	30.32	0.91	0.91	0.91
2/2/2013	315	359	0	1	12	0	5	12	0	45	51	38	74	88	59	67.5	73.9	60.9	57.6	68.1	45.3	30.34	30.42	30.26	0.91	0.91	0.91
2/3/2013	315	359	0	2	15	0	6	15	0	44	47	41	72	90	44	68.5	72.9	63.6	58.8	67.1	50.2	30.24	30.32	30.19	0.91	0.91	0.91
2/4/2013	292	359	0	1	11	0	5	11	0	41	48	39	69	100	52	67.4	72.6	61.4	56.9	68.5	45.0	30.21	30.27	30.15	0.91	0.91	0.91
2/5/2013	45	359	0	2	12	0	5	12	0	42	49	37	67	81	47	69.2	75.4	61.9	60.9	74.4	48.5	30.18	30.24	30.13	0.91	0.91	0.91
2/6/2013	112	224	32	3	15	0	6	15	0	53	64	43	81	98	68	71.9	77.0	66.6	66.2	77.0	56.6	30.20	30.26	30.14	0.91	0.91	0.91
2/7/2013	135	251	65	3	22	0	10	22	0	58	63	55	78	94	66	75.2	79.4	70.2	71.2	78.5	61.2	30.14	30.22	30.04	0.92	0.92	0.91
2/8/2013	202	359	0	4	14	0	8	14	0	57	65	53	80	92	58	75.8	79.8	72.0	69.4	78.5	63.5	30.09	30.20	30.00	0.92	0.92	0.92
2/9/2013	0	359	0	4	17	0	9	17	0	55	62	52	82	96	63	73.9	77.8	69.7	66.0	71.4	57.8	30.26	30.33	30.18	0.93	0.93	0.92
2/10/2013	112	223	20	6	21	0	14	21	2	53	57	49	69	81	59	74.0	77.8	70.9	70.5	75.6	66.8	30.35	30.42	30.30	0.93	0.93	0.93
2/11/2013	135	239	17	4	19	0	11	19	0	57	63	54	75	100	45	75.6	80.1	71.8	72.3	79.4	64.8	30.29	30.37	30.23	0.93	0.93	0.93
2/12/2013	180	302	74	2	16	0	9	16	0	59	67	55	78	100	52	76.9	82.3	71.7	73.0	84.0	62.0	30.18	30.25	30.08	0.93	0.93	0.93
2/13/2013	202	358	0	4	22	0	13	22	0	62	72	53	78	96	52	78.7	83.5	74.6	75.7	85.8	66.6	30.06	30.12	29.97	0.93	0.93	0.93
2/14/2013	0	359	0	1	13	0	6	13	0	56	61	52	87	98	76	74.6	78.0	69.9	65.6	74.2	60.5	30.10	30.18	30.04	1.22	2.14	0.93
2/15/2013	315	359	0	1	11	0	5	11	0	62	64	60	93	100	84	70.1	72.4	68.4	61.8	65.8	58.8	30.12	30.19	30.07	2.21	2.23	2.14
2/16/2013	292	359	0	4	24	0	12	24	0	51	61	33	72	99	43	70.5	74.5	66.2	61.5	69.4	50.1	30.07	30.21	30.01	2.23	2.23	2.23
2/17/2013	315	359	0	4	26	0	13	26	0	29	35	26	48	68	34	62.0	66.3	58.6	46.8	51.8	39.5	30.37	30.47	30.20	2.23	2.23	2.23
2/18/2013	315	359	0	2	18	0	9	18	0	37	43	29	62	79	52	62.2	68.1	55.7	53.9	65.9	40.1	30.43	30.48	30.36	2.23	2.23	2.23
2/19/2013	225	311	108	2	20	0	6	20	0	48	59	41	72	98	51	69.4	76.5	62.3	65.7	78.4	51.4	30.28	30.36	30.19	2.24	2.24	2.23
2/20/2013	22	359	0	1	13	0	6	13	0	54	64	46	84	99	76	72.3	76.3	67.5	65.0	70.8	57.4	30.21	30.26	30.16	2.24	2.24	2.24
2/21/2013	112	200	0	2	15	0	6	15	0	60	68	56	83	100	51	74.8	80.0	69.7	70.3	78.6	61.7	30.19	30.25	30.14	2.24	2.24	2.24
2/22/2013	112	210	44	4	21	0	10	21	0	66	73	58	86	100	75	76.7	80.9	72.0	72.8	80.0	63.5	30.19	30.24	30.15	2.24	2.24	2.24
2/23/2013	180	276	101	3	24	0	10	24	0	65	75	57	78	95	55	78.9	84.1	73.7	76.5	86.5	67.6	30.10	30.18	30.02	2.25	2.25	2.24
2/24/2013	248	359	0	2	19	0	9	19	0	63	68	57	86	95	55	79.0	84.2	75.1	73.0	85.5	67.8	30.07	30.12	30.03	2.27	2.33	2.25
2/25/2013	180	355	0	3	19	0	8	19	0	65	72	61	84	97	56	79.8	84.4	76.0	75.9	85.0	69.5	29.98	30.06	29.92	2.33	2.33	2.33
2/26/2013	180	350	7	6	30	0	16	30	0	64	73	60	81	94	63	79.8	82.5	77.2	76.7	83.6	71.1	29.94	30.00	29.89	2.33	2.33	2.33
2/27/2013	292	359	0	2	12	0	7	12	0	57	62	52	81	91	61	76.8	80.2	73.1	68.2	75.1	62.2	30.04	30.10	29.99	2.34	2.34	2.33
2/28/2013	292	359	0	3	14	0	9	14	0	45	52	41	67	89	46	73.2	77.8	68.9	63.3	74.4	53.3	30.06	30.14	30.00	2.34	2.34	2.34
3/1/2013	292	359	0	4	16	0	10	16	0	39	43	34	63	77	40	70.3	73.8	67.5	59.5	68.2	55.2	30.07	30.11	30.02	2.34	2.34	2.34
3/2/2013	292	359	0	4	23	0	13	23	0	33	35	30	56	69	43	65.4	67.5	61.7	53.9	58.7	46.3	30.12	30.17	30.07	2.34	2.34	2.34
3/3/2013	292	359	0	3	25	0	12	25	0	31	35	28	60	77	43	62.5	67.8	57.6	48.5	59.0	39.7	30.16	30.29	30.09	2.34	2.34	2.34
3/4/2013	22	359	0	2	16	0	7	16	0	31	34	29	62	81	36	61.3	66.5	55.2	49.2	58.3	37.1	30.30	30.38	30.26	2.34	2.34	2.34
3/5/2013	225	359	4	2	15	0	7	15	0	41	49	33	69	93	43	67.1	75.8	58.6	60.9	76.8	45.3	30.25	30.32	30.17	2.34	2.34	2.34
3/6/2013	270	358	3	7	27	0	15	27	2	40	59	25	61	91	28	69.4	74.1	65.7	61.9	71.1	50.3	30.14	30.26	30.07	2.34	2.34	2.34
3/7/2013	315	359	0	3	13	0	9	13	0	35	43	27	67	81	59	65.8	71.0	60.3	54.1	62.6	44.1	30.28	30.33	30.21	2.34	2.34	2.34
3/8/2013	22	359	0	2	15	0	7	15	0	40	46	37	70	95	47	66.4	71.8	60.6	57.8	65.6	46.3	30.30	30.36	30.26	2.34	2.34	2.34
3/9/2013	45	359	0	2	12	0	7	12	0	43	52	38	71	90	56	68.6	73.8	62.9	61.6	69.6	50.9	30.31	30.36	30.24	2.34	2.34	2.34
3/10/2013	68	347	2	3	19	0	10	19	0	48	54	46	69	88	45	71.8	76.1	68.1	67.9	74.0	60.4	30.27	30.32	30.23	2.34	2.34	2.34
3/11/2013	135	210	48	4	22	0	12	22	0	51	55	48	71	84	58	73.6	77.6	69.2	69.6	75.6	61.7	30.17	30.27	30.08	2.34	2.34	2.34
3/12/2013	180	345	27	5	18	0	12	18	1	59	66	52	81	89	71	74.2	76.8	71.8	70.5	76.4	63.9	30.07	30.14	30.02	2.34	2.34	2.34
3/13/2013	315	359	0	3	19	0	10	19	0	49	58	41	74	91	48	71.5	74.9	67.2	61.1	67.6	52.8	30.20	30.29	30.12	2.35	2.35	2.34
3/14/2013	315	359	0	4	19	0	12	19	0	40	42	37	68	100	48	67.2	70.8	63.4	55.4	61.9	48.3	30.31	30.37	30.25	2.35	2.35	2.35
3/15/2013	292	359	0	2	13	0	7	13	0	40	46	36	67	81	52	66.9	73.2	60.7	56.4	65.0	45.4	30.35	30.41	30.30	2.35	2.35	2.35
3/16/2013	112	353	4	3	17	0	7	17	0	39	52	35	67	94	36	69.1	76.3	61.6	61.5	76.7	47.0	30.27	30.34	30.20	2.35	2.35	2.35
3/17/2013	135	353	16	3	19	0	8	19	0	45	50	40	71	90	55	71.5	76.2	65.6	65.4	75.1	52.6	30.23	30.31	30.15	2.35	2.35	2.35
3/18/2013	180	316	104	3	20	0	11	20	0	53	63	48	73	91	58	75.2	79.7	71.2	72.6	81.1	65.5	30.14	30.22	30.02	2.35	2.36	2.35
3/19/2013	112	359	0	2	15	0	6	15	0	57	64	54	84	99	66	76.0	81.0	72.1	70.2	79.4	64.5	30.08	30.15	30.02	2.37	2.37	2.36
3/20/2013	270	359	0	3	19	0	7	19	0	56	64	49	80	100	55	76.5	79.9	73.4	71.3	80.4	65.2	30.03	30.11	29.92	2.38	2.38	2.37
3/21/2013	315	359	0	3	17	0	9	17	0	41	50	33	65	87	38	72.8	75.4	69.6	61.6	66.9	54.8	30.03	30.10	29.96	2.39	2.39	2.38
3/22/2013	112	359	0	2	16	0	7	16	0	43	58	34	73	100	53	69.9	75.6	63.5	62.0	74.4	47.4	30.09	30.16	30.04	2.39	2.42	2.39
3/23/2013	180	311	31	3	20	0	10	20	0	62	75	52	80	98	12	77.0	83.1	72.0	76.4	87.8	67.8	30.02	30.13	29.90	2.51	2.52	2.42
3/24/2013	225	359	0	5	31	0	15	31	0	59	70	52	80	93	54	79.3	84.7	76.2	75.3	88.9	69.8	29.87	30.02	29.77	2.57	2.71	2.52
3/25/2013	292	359	0	5	19	0	12	19	3	50	63	30	65	100	29	77.4	81.4	73.7	69.9	76.7	56.8	29.97	30.15	29.85	2.72	2.72	2.71
3/26/2013	315	359	0	4	24	0	14	24	1	27	31	22	47	66	31	70.0	73.8	65.8	56.3	65.9	48.6	30.22	30.36	30.13	2.72	2.72	2.72
3/27/2013	315	359	0	4	17	0	10	17	0	29	33	23	60	73	45	65.5	69.7	60.5	52.0	59.8	43.2	30.36	30.42	30.31	2.72	2.72	2.72
3/28/2013	22	359	0	2	15	0	8	15	0	33	37	30	65	86	39	66.1	71.6	60.0	55.4	64.1	43.9	30.37	30.43	30.33	2.72	2.72	2.72
3/29/2013	45	359	0	2	16	0	7	16	0	36	41	33	65	92	49	68.9	75.1	62.5	60.5	69.3	50.0	30.40	30.46	30.35	2.72	2.72	2.72
3/30/2013	135	273	18	3	21	0	8	21	0	38	47	35	66	91	50	70.9	76.7	64.6	64.2	74.7	51.9	30.35	30.41	30.29	2.72	2.72	2.72
3/31/2013	135	298	60	3	22	0	10	22	0	46	55	38	71	100	49	73.6	79.8	67.1	68.8	80.6	56.7	30.25	30.33	30.15	2.72	2.72	2.72
4/1/2013	248	327	132	3	18	0	9	18	0	53	66	44	74	100	49	77.2	82.7	72.4	74.2	85.3	66.2	30.13	30.19	30.05	2.76	2.78	2.72
4/2/2013	45	359	0	3	12	0	8	12	0	51	57	44	80	93	60	78.2	82.4	73.6	70.7	75.6	64.0	30.18	30.23	30.12	2.78	2.78	2.78
4/3/2013	112	207	45	4	20	0	12	20	0	59	66	56	79	89	64	79.1	83.8	75.1	75.0	81.8	70.0	30.17	30.22	30.12	2.78	2.78	2.78
4/4/2013	180	338	97	4	20	0	11	20	0	66	70	63	90	96	84	76.8	79.1	73.9	71.8	74.9	67.0	30.11	30.19	30.02	2.86	2.99	2.78
4/5/2013	225	359	0	3	20	0	12	20	0	67	72	62	89	99	59	73.6	76.5	71.9	68.4	74.3	63.4	30.00	30.08	29.90	3.08	3.19	2.99
4/6/2013	315	359	0	4	20	0	13	20	0	59	67	53	81	90	64	73.6	78.6	68.5	66.4	74.4	56.6	30.16	30.25	30.07	3.19	3.19	3.19
4/7/2013	68	149	8	3	15	0	10	15	0	55	59	49	72	83	63	75.9	80.1	72.6	71.8	76.1	68.6	30.24	30.30	30.17	3.19	3.19	3.19
4/8/2013	45	359	0	2	16	0	6	16	0	53	59	50	78	98	63	76.9	82.1	71.4	70.2	77.5	60.4	30.24	30.31	30.19	3.19	3.19	3.19
4/9/2013	112	150	9	4	20	0	11	20	0	57	64	49	77	90	63	78.6	82.6	75.3	73.9	79.9	69.6	30.26	30.33	30.20	3.19	3.19	3.19
4/10/2013	112	186	44	5	21	0	12	21	0	61	67	54	81	96	69	79.7	84.1	75.4	75.4	81.4	69.7	30.20	30.27	30.15	3.19	3.19	3.19
4/11/2013	135	226	65	7	28	0	18	28	3	66	72	61	82	96	65	80.9	84.6	77.5	77.4	82.9	73.5	30.09	30.17	30.01	3.19	3.19	3.19
4/12/2013	180	301	98	4	25	0	14	25	0	65	75	53	75	100	54	82.8	87.9	78.6	81.7	90.8	74.7	30.03	30.07	29.96	3.19	3.19	3.19
4/13/2013	22	359	0	3	15	0	8	15	0	60	67	55	83	99	64	82.6	86.1	80.0	76.5	85.7	72.5	30.06	30.12	30.01	3.19	3.19	3.19
4/14/2013	135	358	1	5	22	0	13	22	0	69	74	64	87	100	71	81.6	86.5	78.9	77.7	85.3	73.5	30.07	30.12	29.99	3.29	4.47	3.19
4/15/2013	45	359	0	3	26	0	9	26	0	65	70	61	86	96	69	80.6	84.8	75.9	74.4	84.3	67.1	30.13	30.21	30.06	4.56	4.56	4.47
4/16/2013	45	359	0	4	16	0	10	16	0	66	76	59	85	96	70	82.2	86.3	79.2	76.9	80.8	73.1	30.24	30.29	30.16	4.56	4.56	4.56
4/17/2013	45	359	0	3	13	0	10	13	0	59	63	53	77	89	55	81.2	85.3	77.6	75.8	79.7	72.5	30.23	30.28	30.19	4.56	4.56	4.56
4/18/2013	112	214	27	4	19	0	10	19	0	60	65	57	79	93	67	81.8	86.8	77.4	77.4	85.0	69.3	30.16	30.21	30.12	4.56	4.56	4.56
4/19/2013	158	333	41	4	28	0	15	28	0	64	72	58	80	100	65	83.3	87.9	79.7	79.8	87.2	75.1	30.14	30.19	30.07	4.56	4.57	4.56
4/20/2013	0	359	0	3	19	0	11	19	0	62	70	57	88	100	82	80.1	82.1	76.5	72.6	78.3	68.2	30.16	30.25	30.10	4.64	4.67	4.57
4/21/2013	112	359	0	3	17	0	10	17	0	66	75	60	87	95	73	78.5	83.3	75.6	73.5	80.7	67.6	30.20	30.25	30.13	4.71	4.76	4.67
4/22/2013	0	359	0	2	15	0	8	15	0	65	69	62	88	97	73	78.5	81.3	76.5	72.6	76.8	70.1	30.15	30.21	30.10	4.77	4.78	4.76
4/23/2013	22	359	0	4	21	0	12	21	0	60	68	50	79	97	63	78.8	83.1	75.1	73.1	77.7	67.4	30.18	30.25	30.11	4.79	4.79	4.78
4/24/2013	68	358	0	4	15	0	10	15	0	51	57	47	68	98	57	79.6	84.4	75.6	74.7	79.6	70.8	30.24	30.30	30.18	4.79	4.79	4.79
4/25/2013	112	359	0	2	12	0	8	12	0	51	57	47	73	91	46	80.9	85.4	76.3	74.5	79.6	66.2	30.29	30.34	30.22	4.79	4.79	4.79
4/26/2013	45	359	0	2	13	0	8	13	0	53	59	49	78	100	63	81.2	85.8	76.5	73.9	78.9	66.4	30.33	30.39	30.28	4.79	4.79	4.79
4/27/2013	112	168	11	4	19	0	11	19	0	54	60	49	74	90	64	81.2	84.6	78.0	75.9	80.7	70.9	30.30	30.37	30.26	4.79	4.79	4.79
4/28/2013	112	207	34	6	19	0	15	19	2	51	55	45	68	76	58	81.2	85.5	77.4	76.5	82.6	72.8	30.22	30.29	30.16	4.79	4.79	4.79
4/29/2013	135	219	65	5	22	0	14	22	0	54	56	50	73	86	63	81.8	85.8	78.2	77.6	83.1	72.9	30.13	30.19	30.06	4.79	4.79	4.79
4/30/2013	112	359	0	2	16	0	6	16	0	59	65	53	87	100	69	81.0	83.6	78.5	74.9	80.0	70.5	30.11	30.15	30.07	4.91	5.09	4.79
5/1/2013	112	359	1	2	15	0	6	15	0	61	70	58	87	98	75	79.8	82.5	77.6	73.8	79.8	69.1	30.11	30.16	30.07	5.15	5.40	5.09
5/2/2013	112	359	0	4	17	0	12	17	0	71	75	68	91	99	82	76.9	78.9	74.6	72.0	76.0	66.2	30.03	30.10	29.95	6.47	6.75	5.40
5/3/2013	315	359	0	3	17	0	9	17	0	67	78	59	83	96	54	79.3	85.4	74.6	75.2	84.1	69.4	29.87	29.97	29.80	6.76	6.76	6.75
5/4/2013	248	359	0	2	14	0	8	14	0	61	68	55	79	93	58	81.0	86.9	76.0	75.5	84.8	68.5	29.85	29.93	29.80	6.76	6.76	6.76
5/5/2013	292	359	0	3	18	0	10	18	0	48	57	36	64	100	25	81.3	86.1	77.5	73.4	81.3	67.0	29.97	30.07	29.87	6.76	6.76	6.76
5/6/2013	248	335	162	3	17	0	10	17	0	42	51	35	64	100	45	79.6	84.8	73.8	71.6	81.8	61.7	30.08	30.14	30.03	6.76	6.76	6.76
5/7/2013	270	345	142	3	19	0	8	19	0	41	47	36	64	100	43	79.2	85.3	72.3	70.7	82.1	57.6	30.14	30.20	30.10	6.76	6.76	6.76
5/8/2013	112	359	0	2	15	0	6	15	0	44	50	37	72	91	52	79.9	84.5	74.3	71.6	80.4	62.1	30.21	30.27	30.16	6.76	6.76	6.76
5/9/2013	45	359	0	2	13	0	7	13	0	51	57	44	79	100	71	80.3	84.8	75.3	72.3	77.3	64.8	30.25	30.31	30.21	6.76	6.76	6.76
5/10/2013	112	251	37	3	19	0	10	19	0	58	67	54	80	100	62	82.9	88.4	78.1	77.9	86.7	70.7	30.22	30.28	30.16	6.81	6.90	6.76
5/11/2013	180	359	0	2	20	0	9	20	0	57	67	50	80	96	50	83.6	90.4	78.8	78.1	92.7	71.7	30.17	30.21	30.08	6.98	7.37	6.90
5/12/2013	248	359	0	2	21	0	9	21	0	60	70	56	84	100	64	83.0	87.8	78.4	77.6	87.1	71.2	30.13	30.18	30.08	7.39	7.43	7.37
5/13/2013	22	359	0	2	17	0	8	17	0	53	58	43	77	93	60	81.7	84.3	78.8	73.9	79.0	69.9	30.19	30.26	30.12	7.43	7.43	7.43
5/14/2013	45	359	0	3	13	0	11	13	0	40	44	37	57	100	51	80.2	84.6	76.1	74.1	77.7	70.6	30.29	30.35	30.23	7.43	7.43	7.43
5/15/2013	45	359	0	3	15	0	8	15	0	42	46	39	66	100	56	80.9	85.2	76.3	74.2	78.9	65.8	30.31	30.36	30.25	7.43	7.43	7.43
5/16/2013	112	203	12	3	16	0	9	16	0	45	50	42	70	89	58	81.3	85.7	76.3	74.2	80.5	65.4	30.23	30.28	30.19	7.43	7.43	7.43
5/17/2013	112	359	0	3	17	0	10	17	0	51	57	46	75	100	66	82.6	87.5	78.0	76.7	82.9	69.3	30.22	30.25	30.16	7.43	7.43	7.43
5/18/2013	112	239	15	3	17	0	9	17	0	56	62	53	79	100	49	83.9	88.8	79.1	78.3	85.0	70.0	30.22	30.26	30.19	7.43	7.43	7.43
5/19/2013	112	277	56	3	16	0	8	16	0	59	63	56	82	93	64	82.5	84.6	80.5	77.3	82.2	73.6	30.21	30.25	30.15	7.52	7.63	7.43
5/20/2013	112	359	0	1	15	0	5	15	0	63	68	59	87	100	75	80.8	83.2	79.1	75.2	79.1	72.3	30.19	30.24	30.14	7.80	7.98	7.63
5/21/2013	112	236	28	3	20	0	9	20	0	65	71	59	86	100	70	80.8	85.2	77.8	75.7	83.6	70.1	30.13	30.18	30.09	8.00	8.05	7.98
5/22/2013	112	359	0	2	17	0	6	17	0	66	73	63	88	100	77	80.6	83.7	77.0	75.4	81.8	69.8	30.08	30.12	30.05	8.13	8.22	8.05
5/23/2013	45	359	0	2	13	0	6	13	0	64	72	58	85	100	74	82.8	87.7	77.8	77.4	82.6	70.8	30.10	30.14	30.03	8.22	8.22	8.22
5/24/2013	45	359	0	2	11	0	7	11	0	56	68	48	78	96	54	84.9	89.8	79.5	79.5	86.5	71.3	30.15	30.23	30.08	8.22	8.22	8.22
5/25/2013	45	359	0	5	19	0	13	19	0	49	58	42	67	84	51	84.5	88.0	81.2	79.0	83.2	74.6	30.27	30.34	30.20	8.22	8.22	8.22
5/26/2013	45	359	0	4	14	0	10	14	0	47	50	45	68	98	62	82.2	86.7	78.0	75.5	79.5	69.8	30.31	30.36	30.27	8.22	8.22	8.22
5/27/2013	68	345	1	5	18	0	13	18	2	52	58	47	72	100	65	82.1	85.6	78.7	76.8	80.7	72.7	30.29	30.34	30.25	8.22	8.22	8.22
5/28/2013	112	166	33	7	23	0	17	23	2	62	68	58	81	100	46	82.8	87.3	79.7	78.3	84.0	73.6	30.25	30.29	30.22	8.24	8.43	8.22
5/29/2013	112	185	34	5	22	0	16	22	0	71	77	66	88	96	76	81.5	84.3	79.4	77.2	82.4	73.1	30.23	30.28	30.18	8.82	9.04	8.43
5/30/2013	112	170	9	7	25	0	19	25	4	67	75	57	80	100	70	82.6	85.7	80.1	79.0	83.2	76.4	30.22	30.26	30.18	9.05	9.05	9.04
5/31/2013	112	165	27	8	23	0	19	23	5	65	70	60	79	89	73	83.2	87.1	80.1	79.1	83.2	76.4	30.21	30.25	30.18	9.08	9.12	9.05
6/1/2013	112	189	27	7	23	0	15	23	2	67	73	62	83	90	71	84.2	88.4	80.9	80.0	85.1	76.8	30.16	30.21	30.12	9.12	9.13	9.12
6/2/2013	112	356	1	3	16	0	8	16	0	65	73	58	84	100	65	85.2	89.8	81.3	80.7	88.9	75.4	30.10	30.15	30.04	9.13	9.13	9.13
6/3/2013	202	336	26	2	16	0	8	16	0	62	69	57	82	95	67	85.5	89.8	81.4	80.3	87.6	75.3	30.09	30.16	30.04	9.13	9.13	9.13
6/4/2013	202	329	59	1	10	0	5	10	0	61	65	57	82	91	69	84.4	86.9	81.8	79.2	83.7	75.6	30.14	30.20	30.08	9.13	9.13	9.13
6/5/2013	112	188	36	4	15	0	9	15	0	66	73	57	85	93	74	83.7	86.7	82.0	79.8	84.6	77.0	30.11	30.16	30.05	9.14	9.16	9.13
6/6/2013	180	266	61	5	28	0	15	28	3	76	79	72	93	96	86	80.9	82.8	78.8	76.2	81.4	72.8	29.95	30.07	29.87	10.19	11.11	9.16
6/7/2013	202	305	136	5	21	0	12	21	0	71	81	61	82	97	64	83.1	89.3	78.1	80.7	90.1	73.4	30.02	30.11	29.93	11.11	11.11	11.11
6/8/2013	180	359	0	1	20	0	6	20	0	66	72	62	89	95	74	83.5	88.0	80.7	77.6	85.2	73.6	30.17	30.24	30.09	11.21	11.40	11.11
6/9/2013	112	200	46	5	20	0	11	20	0	67	78	60	84	100	60	84.1	89.6	79.2	80.0	87.2	73.4	30.22	30.27	30.18	11.40	11.40	11.40
6/10/2013	112	222	52	4	19	0	10	19	0	66	73	62	84	92	71	85.9	90.0	82.5	81.6	88.0	78.1	30.21	30.25	30.16	11.40	11.40	11.40
6/11/2013	112	359	0	2	14	0	7	14	0	67	71	61	86	100	74	85.8	89.3	82.8	81.2	87.5	77.3	30.20	30.24	30.15	11.40	11.40	11.40
6/12/2013	45	359	0	2	14	0	5	14	0	64	75	56	84	100	70	86.1	91.1	81.7	80.5	86.3	74.8	30.19	30.23	30.16	11.40	11.40	11.40
6/13/2013	112	359	0	3	19	0	8	19	0	57	68	52	76	93	51	87.1	93.1	81.6	82.3	92.2	74.2	30.13	30.19	30.06	11.40	11.40	11.40
6/14/2013	248	350	141	3	16	0	10	16	0	56	66	49	74	100	30	88.0	92.6	83.2	83.8	92.7	75.4	30.05	30.10	29.99	11.40	11.40	11.40
6/15/2013	45	359	0	3	19	0	9	19	0	56	62	47	81	90	70	88.2	92.3	84.3	81.2	85.8	76.2	30.14	30.21	30.06	11.40	11.40	11.40
6/16/2013	112	356	2	5	17	0	12	17	0	63	68	58	83	95	72	87.7	91.9	83.8	82.0	86.7	76.8	30.21	30.24	30.18	11.53	11.56	11.40
6/17/2013	135	311	29	3	17	0	10	17	0	62	66	57	79	90	63	88.0	92.1	84.3	83.9	89.8	77.7	30.18	30.24	30.13	11.56	11.56	11.56
6/18/2013	180	356	1	4	19	0	11	19	0	60	66	53	76	90	60	88.6	92.9	84.7	84.5	91.3	78.8	30.17	30.22	30.12	11.56	11.56	11.56
6/19/2013	112	356	2	4	29	0	11	29	0	55	61	47	76	91	53	88.4	93.7	83.7	82.1	91.4	72.3	30.16	30.22	30.12	11.58	11.70	11.56
6/20/2013	180	359	0	1	14	0	5	14	0	58	64	53	86	94	64	85.6	91.5	82.7	78.5	88.3	75.1	30.20	30.25	30.15	11.88	12.20	11.70
6/21/2013	45	359	0	0	15	0	3	15	0	62	72	58	88	98	72	83.8	86.6	80.4	77.4	83.3	72.9	30.23	30.29	30.17	12.25	12.30	12.20
6/22/2013	112	177	0	2	15	0	7	15	0	60	68	55	82	100	56	85.8	90.9	80.9	80.2	86.3	73.3	30.23	30.28	30.18	12.30	12.30	12.30
6/23/2013	112	359	0	3	16	0	9	16	0	60	66	57	81	91	68	86.5	90.1	83.0	81.2	87.4	75.8	30.25	30.31	30.20	12.30	12.30	12.30
6/24/2013	112	357	2	4	17	0	10	17	0	61	67	55	79	92	70	87.0	91.7	82.5	81.9	86.6	76.2	30.28	30.34	30.24	12.30	12.30	12.30
6/25/2013	112	359	0	3	17	0	10	17	0	60	65	57	80	86	73	87.8	91.7	84.0	82.2	85.9	78.6	30.25	30.31	30.20	12.30	12.30	12.30
6/26/2013	135	331	41	1	16	0	6	16	0	62	66	58	88	94	71	85.9	89.6	83.0	80.0	87.8	76.1	30.20	30.26	30.15	12.63	13.06	12.30
6/27/2013	112	292	8	2	16	0	6	16	0	63	72	56	83	100	66	85.8	91.2	80.8	80.8	89.2	73.5	30.15	30.20	30.09	13.07	13.07	13.06
6/29/2013	225	359	0	4	20	0	13	20	0	58	66	50	79	93	57	87.8	92.6	83.5	81.5	93.0	74.3	30.00	30.04	29.96	13.23	13.55	13.07
6/30/2013	180	294	81	3	19	0	10	19	0	63	70	57	90	96	72	84.1	88.6	81.6	77.8	87.9	74.5	30.02	30.08	29.97	13.74	14.38	13.55
7/1/2013	180	358	0	2	27	0	10	27	0	68	75	63	92	95	70	82.8	87.4	80.6	76.9	88.2	73.9	30.10	30.19	30.03	14.75	15.46	14.38
7/2/2013	135	326	6	2	14	0	7	14	0	70	77	65	92	97	79	83.0	86.9	80.3	77.4	86.3	73.8	30.19	30.25	30.12	15.49	15.55	15.46
7/3/2013	135	227	82	3	27	0	12	27	0	67	76	60	84	95	69	85.3	90.4	80.8	80.9	87.8	75.7	30.24	30.29	30.19	15.55	15.55	15.55
7/4/2013	112	269	58	5	25	0	13	25	0	64	73	58	83	97	71	86.2	90.6	81.8	81.3	88.1	74.2	30.27	30.31	30.23	15.68	15.71	15.55
7/5/2013	112	207	34	5	22	0	12	22	0	64	73	59	83	94	69	86.1	90.5	82.3	81.2	87.8	75.2	30.26	30.31	30.22	15.80	15.83	15.71
7/6/2013	112	187	40	4	20	0	12	20	0	63	69	59	81	90	70	86.5	90.7	82.8	81.4	87.5	76.6	30.24	30.29	30.20	15.84	15.85	15.83
7/7/2013	112	146	31	3	17	0	9	17	0	62	69	58	83	94	71	87.1	91.4	83.1	81.2	86.4	76.3	30.24	30.28	30.20	15.86	15.86	15.85
7/8/2013	45	357	0	2	16	0	7	16	0	60	67	53	81	100	70	87.5	92.5	83.8	81.7	86.2	76.4	30.27	30.32	30.23	15.86	15.86	15.86
7/9/2013	45	359	0	2	17	0	6	17	0	61	68	58	84	93	76	86.5	89.3	83.7	79.5	83.2	75.2	30.26	30.34	30.21	15.95	16.05	15.86
7/10/2013	112	223	28	3	16	0	8	16	0	61	65	56	81	95	69	86.1	90.0	82.7	80.6	84.8	75.2	30.20	30.24	30.14	16.05	16.05	16.05
7/11/2013	180	296	33	3	17	0	8	17	0	60	67	53	79	91	68	87.0	92.0	83.0	82.0	89.2	76.8	30.14	30.20	30.09	16.05	16.05	16.05
7/12/2013	112	350	11	1	15	0	4	15	0	59	69	54	84	95	46	85.9	91.7	82.3	78.8	89.7	74.3	30.08	30.11	30.03	16.29	16.90	16.05
7/13/2013	135	354	1	1	17	0	6	17	0	62	69	58	88	96	72	84.3	89.5	81.0	77.3	85.8	73.4	30.10	30.16	30.05	16.91	16.93	16.90
7/14/2013	180	288	30	2	18	0	8	18	0	64	72	60	87	95	75	83.0	86.3	80.0	76.7	83.7	72.6	30.19	30.25	30.12	16.96	17.07	16.93
7/15/2013	112	359	0	3	15	0	7	15	0	67	75	63	88	99	79	82.9	87.6	79.2	77.2	81.8	71.9	30.21	30.27	30.17	17.07	17.07	17.07
7/16/2013	112	359	0	3	22	0	9	22	0	66	70	62	87	96	73	83.4	87.8	80.7	77.9	85.0	74.1	30.26	30.31	30.22	17.32	17.76	17.07
7/17/2013	112	356	10	2	21	0	8	21	0	71	77	64	89	97	76	82.1	85.4	79.5	77.9	83.1	74.1	30.26	30.30	30.21	17.88	18.03	17.76
7/18/2013	112	356	0	2	14	0	7	14	0	68	75	62	87	96	71	83.2	87.9	79.8	78.4	86.2	74.4	30.23	30.28	30.19	18.03	18.05	18.03
7/19/2013	112	339	48	3	19	0	9	19	0	68	74	62	87	100	55	84.2	89.1	80.4	79.8	87.5	74.5	30.24	30.28	30.18	18.05	18.05	18.05
7/20/2013	112	321	21	1	15	0	5	15	0	68	74	62	90	97	79	83.6	86.2	82.1	78.6	86.5	73.9	30.21	30.26	30.17	18.10	18.17	18.05
7/21/2013	180	338	2	3	25	0	8	25	0	68	77	62	85	93	49	83.6	89.7	80.4	79.5	90.4	73.8	30.23	30.28	30.17	18.20	18.36	18.17
7/22/2013	202	359	0	2	13	0	6	13	0	64	77	54	80	95	52	84.9	92.3	79.9	80.9	93.3	73.3	30.24	30.28	30.20	18.36	18.36	18.36
7/23/2013	248	359	0	2	15	0	6	15	0	58	67	53	78	100	35	87.7	93.1	83.0	82.8	93.1	76.6	30.18	30.25	30.10	18.36	18.36	18.36
7/24/2013	248	359	0	2	22	0	8	22	0	59	67	51	85	96	66	86.5	91.0	83.8	79.9	89.4	74.5	30.09	30.17	30.04	18.41	18.58	18.36
7/25/2013	248	359	8	1	15	0	7	15	0	65	70	62	89	96	80	84.1	86.5	82.2	79.2	84.6	76.2	30.08	30.14	30.02	18.87	19.07	18.58
7/26/2013	45	359	0	1	11	0	6	11	0	66	71	63	88	96	77	84.9	89.6	81.5	79.4	83.6	75.3	30.12	30.15	30.08	19.11	19.12	19.07
7/27/2013	112	359	0	2	17	0	6	17	0	63	72	57	83	100	54	87.1	91.9	82.3	81.6	87.7	75.6	30.10	30.14	30.06	19.13	19.13	19.12
7/28/2013	180	359	0	1	34	0	6	34	0	61	69	57	85	98	72	86.9	90.9	84.0	80.3	87.2	73.2	30.15	30.22	30.07	19.48	20.07	19.13
7/29/2013	112	359	0	2	12	0	5	12	0	63	67	59	85	96	76	86.6	90.3	82.2	80.9	86.3	74.6	30.24	30.31	30.17	20.07	20.07	20.07
7/30/2013	112	359	0	2	13	0	5	13	0	64	72	61	86	97	75	87.0	90.0	83.3	81.5	85.8	76.7	30.28	30.33	30.24	20.07	20.07	20.07
7/31/2013	112	213	20	2	16	0	8	16	0	62	70	54	81	94	65	88.5	93.2	84.3	83.8	89.5	78.7	30.22	30.28	30.16	20.07	20.07	20.07
8/1/2013	112	209	22	3	17	0	7	17	0	57	66	52	78	91	62	88.9	93.2	84.5	83.5	89.4	77.4	30.15	30.23	30.11	20.07	20.07	20.07
8/2/2013	0	359	0	1	15	0	6	15	0	57	61	55	81	90	72	88.2	91.0	84.7	81.5	85.3	77.4	30.13	30.18	30.07	20.07	20.07	20.07
8/3/2013	180	311	120	2	16	0	8	16	0	60	66	54	86	95	71	85.4	87.6	82.3	78.9	84.9	74.7	30.21	30.26	30.15	20.09	20.15	20.07
8/4/2013	225	359	0	3	14	0	8	14	0	64	75	58	84	97	61	85.7	91.2	81.1	81.5	93.0	75.2	30.19	30.24	30.13	20.16	20.16	20.15
8/5/2013	292	359	0	2	15	0	7	15	0	62	72	58	87	100	69	86.8	91.2	83.8	80.5	89.6	75.7	30.13	30.18	30.07	20.33	20.60	20.16
8/6/2013	45	359	0	1	11	0	5	11	0	64	72	58	87	100	70	86.4	91.2	81.8	80.5	86.7	74.6	30.08	30.13	30.03	20.60	20.60	20.60
8/7/2013	112	212	16	4	18	0	8	18	0	62	69	55	82	96	65	88.5	92.9	84.2	83.9	89.7	78.7	30.09	30.14	30.05	20.61	20.61	20.60
8/8/2013	112	205	50	4	19	0	11	19	0	61	68	55	78	90	66	89.0	93.3	85.2	84.5	90.3	79.7	30.13	30.19	30.08	20.61	20.61	20.61
8/9/2013	112	209	25	4	20	0	12	20	0	59	67	52	76	85	64	88.9	93.1	85.5	84.0	89.1	80.4	30.17	30.23	30.11	20.61	20.61	20.61
8/10/2013	112	204	18	3	17	0	8	17	0	58	67	55	79	100	20	89.0	93.8	84.7	83.9	90.5	78.0	30.24	30.29	30.19	20.61	20.61	20.61
8/11/2013	112	209	0	3	15	0	8	15	0	58	63	54	80	100	52	89.4	93.5	85.8	83.6	88.2	80.2	30.27	30.31	30.23	20.61	20.61	20.61
8/12/2013	45	359	0	2	12	0	6	12	0	57	63	54	79	100	35	88.6	92.7	84.2	81.8	86.1	75.9	30.23	30.27	30.17	20.61	20.61	20.61
8/14/2013	112	321	32	4	18	0	11	18	0	57	65	49	73	100	45	90.3	94.0	85.1	86.1	91.4	77.8	30.11	30.18	30.07	20.61	20.61	20.61
8/15/2013	112	260	32	2	16	0	7	16	0	56	62	52	78	89	63	89.0	92.8	85.2	83.7	89.7	78.0	30.14	30.20	30.10	20.61	20.61	20.61
8/16/2013	135	336	0	3	17	0	8	17	0	58	62	54	79	89	60	89.1	93.4	85.2	83.9	90.4	79.2	30.17	30.21	30.12	20.61	20.61	20.61
8/17/2013	112	210	40	3	19	0	9	19	0	60	67	53	80	92	64	89.8	94.2	86.2	85.1	91.2	80.7	30.19	30.24	30.15	20.61	20.61	20.61
8/18/2013	112	196	9	3	19	0	11	19	0	60	66	55	79	100	67	89.8	94.0	86.0	84.6	90.8	79.4	30.21	30.26	30.17	20.61	20.61	20.61
8/19/2013	112	217	23	3	18	0	10	18	0	59	66	55	80	100	61	90.1	93.9	86.4	84.9	92.0	80.5	30.18	30.25	30.12	20.61	20.61	20.61
8/20/2013	112	344	27	3	18	0	9	18	0	59	64	54	81	93	69	89.8	93.6	86.4	83.8	89.2	77.9	30.19	30.25	30.14	20.62	20.74	20.61
8/21/2013	112	355	6	4	19	0	11	19	0	64	71	58	85	95	54	88.4	92.7	85.3	82.6	88.6	77.9	30.22	30.26	30.17	20.80	21.29	20.74
8/22/2013	112	194	13	3	17	0	9	17	0	66	73	62	86	99	61	88.0	92.1	84.4	82.7	88.0	77.8	30.18	30.24	30.14	21.31	21.31	21.29
8/23/2013	112	359	0	2	19	0	8	19	0	64	70	60	85	100	73	87.9	91.2	85.0	82.3	87.2	77.5	30.14	30.18	30.10	21.61	21.83	21.31
8/24/2013	45	359	0	2	20	0	8	20	0	63	68	59	85	99	70	87.2	91.4	83.6	81.4	87.0	76.9	30.19	30.24	30.13	21.89	21.95	21.83
8/25/2013	45	359	0	1	11	0	5	11	0	65	69	61	87	95	75	85.7	87.8	83.5	80.0	83.2	77.4	30.25	30.31	30.19	21.99	22.02	21.95
8/26/2013	45	359	0	2	16	0	6	16	0	63	70	56	85	100	30	86.8	91.0	82.9	81.0	85.6	76.2	30.21	30.27	30.15	22.02	22.04	22.02
8/27/2013	45	359	0	3	16	0	9	16	0	58	66	52	78	94	65	86.5	90.2	82.7	80.8	85.8	74.8	30.16	30.20	30.14	22.21	22.28	22.04
8/28/2013	45	359	0	2	13	0	7	13	0	57	63	53	78	85	69	87.0	90.8	84.0	81.2	85.5	78.6	30.16	30.20	30.11	22.28	22.28	22.28
8/30/2013	45	359	5	2	14	0	8	14	0	55	63	50	75	91	65	90.7	93.4	85.1	85.0	90.0	78.2	30.10	30.16	30.06	22.28	22.28	22.28
8/31/2013	112	321	24	2	22	0	8	22	0	55	62	51	80	91	62	88.1	91.9	84.5	81.5	90.1	76.4	30.09	30.15	30.04	22.28	22.28	22.28
9/1/2013	248	356	0	2	14	0	6	14	0	55	63	51	79	100	22	87.1	92.2	83.0	80.7	89.4	74.9	30.11	30.15	30.07	22.28	22.28	22.28
9/2/2013	112	359	0	1	28	0	6	28	0	56	64	53	83	93	64	86.0	91.9	82.6	78.8	90.2	73.9	30.12	30.20	30.06	22.65	23.56	22.28
9/3/2013	45	359	0	1	12	0	5	12	0	60	69	56	85	95	70	85.5	90.3	81.0	79.7	87.5	73.1	30.12	30.17	30.07	23.57	23.57	23.56
9/4/2013	45	359	0	1	11	0	4	11	0	62	69	56	86	93	77	87.0	91.3	83.5	81.6	87.2	76.5	30.17	30.24	30.11	23.57	23.57	23.57
9/5/2013	45	358	0	1	12	0	6	12	0	63	69	60	84	92	76	88.2	92.2	84.8	83.5	88.1	79.1	30.19	30.24	30.15	23.57	23.57	23.57
9/6/2013	45	358	0	2	17	0	5	17	0	61	68	58	84	96	71	88.1	92.0	84.8	82.2	87.3	77.7	30.15	30.20	30.10	23.57	23.59	23.57
9/7/2013	45	359	0	1	12	0	6	12	0	62	74	56	85	96	73	86.3	89.6	83.1	80.0	85.3	73.4	30.10	30.15	30.05	24.40	24.52	23.59
9/8/2013	45	359	0	1	12	0	6	12	0	60	65	55	84	96	72	85.8	89.4	82.5	79.8	85.5	74.6	30.06	30.11	30.02	24.53	24.55	24.52
9/9/2013	45	359	0	3	15	0	8	15	0	62	70	56	83	99	68	85.9	90.7	81.3	80.3	86.3	73.7	30.11	30.17	30.05	25.18	25.21	24.55
9/10/2013	45	359	0	5	23	0	14	23	0	60	64	54	76	97	67	86.8	91.3	83.9	82.5	86.6	77.7	30.18	30.24	30.12	25.21	25.23	25.21
9/11/2013	45	359	0	2	19	0	9	19	0	66	74	60	85	94	77	84.5	86.8	82.6	79.8	83.8	73.8	30.17	30.22	30.14	25.54	25.76	25.23
9/12/2013	45	197	1	0	11	0	2	11	0	66	69	62	89	96	83	83.5	84.7	81.9	78.0	80.4	75.3	30.10	30.17	30.04	25.78	25.80	25.76
9/13/2013	112	359	0	1	12	0	4	12	0	64	71	58	84	100	15	85.0	90.5	80.0	79.5	85.6	72.8	30.01	30.06	29.95	25.80	25.80	25.80
9/14/2013	112	359	0	2	13	0	6	13	0	61	69	58	82	94	68	86.8	90.4	82.8	82.1	87.9	76.2	30.04	30.13	29.96	25.80	25.80	25.80
9/15/2013	112	359	0	2	17	0	7	17	0	64	71	59	84	95	75	85.6	89.0	81.8	80.7	87.6	73.5	30.15	30.21	30.09	25.95	26.76	25.80
9/16/2013	45	355	5	3	28	0	8	28	0	68	76	63	87	96	77	83.9	88.3	81.0	79.0	85.3	73.7	30.17	30.22	30.12	26.76	26.76	26.76
9/17/2013	45	359	0	3	21	0	10	21	0	68	75	64	87	95	58	83.5	88.0	82.0	78.7	84.7	74.8	30.14	30.21	30.09	26.97	27.32	26.76
9/18/2013	45	359	0	3	20	0	11	20	0	70	76	66	85	100	77	84.2	87.5	81.2	80.0	84.3	75.7	30.13	30.17	30.07	27.44	27.57	27.32
9/19/2013	45	359	0	4	15	0	11	15	0	69	76	62	83	96	72	84.0	87.5	81.6	80.1	84.8	74.7	30.14	30.19	30.08	27.76	28.07	27.57
9/20/2013	45	359	0	3	15	0	9	15	0	57	63	51	71	100	60	84.4	88.6	80.9	80.4	84.2	74.7	30.11	30.17	30.05	28.08	28.08	28.07
9/21/2013	112	359	3	1	12	0	5	12	0	55	61	50	77	100	41	85.8	90.1	81.4	79.8	84.7	74.0	30.00	30.08	29.92	28.08	28.08	28.08
9/22/2013	202	350	1	2	16	0	8	16	0	57	67	51	77	91	51	86.2	90.8	81.9	81.6	91.0	74.6	29.94	30.01	29.90	28.08	28.08	28.08
9/23/2013	112	355	0	1	13	0	5	13	0	60	69	52	88	100	19	84.8	88.9	82.1	78.3	88.4	74.3	30.05	30.13	29.98	28.82	30.77	28.08
9/24/2013	248	308	125	2	14	0	6	14	0	69	74	62	90	97	78	83.2	86.6	81.0	78.6	85.2	75.3	30.05	30.11	29.98	30.78	30.78	30.77
9/25/2013	248	342	151	3	20	0	10	20	0	63	71	55	82	93	65	84.3	89.2	80.4	78.9	85.2	74.0	29.96	30.01	29.92	30.78	30.78	30.78
9/26/2013	248	359	0	4	19	0	11	19	0	62	71	57	82	94	64	85.7	90.9	81.6	81.1	90.0	75.4	29.95	29.99	29.90	30.78	30.78	30.78
9/27/2013	0	359	0	2	17	0	9	17	0	60	69	56	85	100	14	84.7	88.3	81.5	77.2	83.1	72.1	30.01	30.08	29.96	30.79	30.86	30.78
9/28/2013	45	359	0	4	16	0	9	16	0	60	69	55	81	97	57	83.6	87.8	80.1	78.3	84.7	72.5	30.08	30.14	30.03	30.88	30.89	30.86
9/29/2013	45	359	0	2	12	0	7	12	0	56	64	51	76	93	65	84.8	89.0	81.0	79.3	83.8	73.0	30.09	30.12	30.05	30.89	30.89	30.89
9/30/2013	45	359	0	2	12	0	5	12	0	56	62	52	80	93	69	84.6	88.8	80.5	78.2	83.9	71.9	30.10	30.17	30.05	30.89	30.89	30.89
10/1/2013	45	359	0	2	14	0	6	14	0	56	62	52	78	93	67	85.4	89.8	81.1	79.6	84.8	73.2	30.16	30.21	30.10	30.89	30.89	30.89
10/2/2013	45	359	0	3	14	0	9	14	0	57	62	53	75	83	68	85.6	89.1	82.8	80.5	84.0	78.0	30.17	30.21	30.14	30.89	30.89	30.89
10/3/2013	45	154	1	3	14	0	7	14	0	56	61	52	75	86	67	85.2	89.6	81.7	80.1	85.3	73.9	30.17	30.22	30.11	30.89	30.89	30.89
10/4/2013	45	359	0	2	10	0	6	10	0	55	60	51	75	88	65	85.9	89.6	82.7	80.5	84.5	75.7	30.18	30.23	30.14	30.89	30.89	30.89
10/5/2013	45	359	0	2	12	0	7	12	0	57	62	53	78	90	66	85.9	89.7	82.2	80.6	85.1	74.1	30.15	30.20	30.10	30.89	30.89	30.89
10/6/2013	112	268	19	2	13	0	6	13	0	57	63	52	78	91	65	86.5	90.5	82.8	81.3	86.8	75.1	30.07	30.13	30.03	30.89	30.89	30.89
10/7/2013	202	306	117	2	20	0	9	20	0	59	65	53	85	100	65	84.4	88.3	81.9	78.0	87.4	74.2	29.98	30.04	29.93	30.98	31.13	30.89
10/8/2013	248	337	145	3	15	0	10	15	0	62	72	53	80	95	56	84.5	89.5	80.4	80.1	89.4	74.1	29.99	30.07	29.94	31.14	31.14	31.13
10/9/2013	0	359	0	3	20	0	12	20	0	59	67	53	86	96	60	84.3	87.8	81.7	77.0	81.9	74.0	30.09	30.15	30.02	31.22	31.25	31.14
10/10/2013	0	359	0	2	17	0	9	17	0	57	67	50	81	95	69	82.9	87.0	79.0	75.4	81.4	68.6	30.14	30.19	30.10	31.25	31.25	31.25
10/11/2013	45	359	0	2	11	0	4	11	0	50	55	47	73	92	58	82.4	86.8	77.5	75.2	81.8	66.1	30.13	30.19	30.09	31.25	31.25	31.25
10/12/2013	45	359	0	1	12	0	5	12	0	50	58	48	76	91	53	83.2	87.7	78.9	76.4	85.9	69.6	30.14	30.19	30.09	31.25	31.25	31.25
10/13/2013	0	359	0	1	13	0	6	13	0	49	55	45	73	89	53	83.0	87.5	78.3	75.8	82.4	67.6	30.17	30.23	30.12	31.25	31.25	31.25
10/14/2013	22	359	0	2	18	0	7	18	0	53	60	47	79	91	70	83.1	87.1	79.1	76.0	81.5	69.9	30.12	30.17	30.07	31.25	31.25	31.25
10/15/2013	315	359	0	1	11	0	6	11	0	54	61	50	84	100	65	83.1	87.1	79.3	75.1	81.4	69.3	30.08	30.13	30.03	31.25	31.25	31.25
10/16/2013	45	359	0	2	12	0	5	12	0	55	62	51	83	94	70	83.4	87.4	79.6	76.7	81.8	71.4	30.07	30.11	30.04	31.25	31.25	31.25
10/17/2013	45	359	0	1	11	0	4	11	0	55	61	51	82	100	68	83.6	87.7	79.5	77.3	82.9	70.9	30.08	30.13	30.04	31.26	31.26	31.25
10/18/2013	112	359	1	2	14	0	5	14	0	57	64	54	81	93	71	84.3	88.3	80.1	78.5	83.8	71.7	30.09	30.15	30.05	31.26	31.26	31.26
10/19/2013	135	269	39	2	16	0	7	16	0	58	64	55	79	93	65	84.7	88.4	80.8	80.2	87.4	72.5	30.06	30.12	30.02	31.26	31.26	31.26
10/20/2013	45	359	0	3	12	0	8	12	0	63	69	59	84	100	71	85.0	88.4	82.1	79.9	85.1	76.3	30.06	30.11	30.00	31.28	31.33	31.26
10/21/2013	112	353	27	2	12	0	6	12	0	64	69	62	84	100	71	84.9	88.0	81.6	80.7	86.7	75.0	30.10	30.15	30.05	31.33	31.33	31.33
10/22/2013	202	319	107	2	14	0	7	14	0	62	69	55	78	100	55	86.3	90.6	82.8	83.0	91.5	77.5	30.03	30.11	29.95	31.33	31.33	31.33
10/23/2013	0	359	0	2	13	0	7	13	0	55	61	49	80	90	66	84.7	86.9	82.1	77.0	79.9	70.6	30.01	30.13	29.93	31.33	31.33	31.33
10/24/2013	315	359	0	3	13	0	8	13	0	46	50	42	69	79	63	79.5	82.1	77.1	70.7	76.4	64.7	30.19	30.27	30.10	31.33	31.33	31.33
10/25/2013	0	359	0	3	17	0	9	17	0	48	58	43	74	88	61	78.8	83.6	74.9	71.0	77.8	64.0	30.30	30.34	30.24	31.33	31.33	31.33
10/26/2013	22	359	0	1	13	0	7	13	0	45	50	39	66	100	54	79.3	83.1	75.7	72.3	77.2	65.1	30.27	30.33	30.23	31.33	31.33	31.33
10/27/2013	0	359	0	1	12	0	5	12	0	46	55	41	76	92	59	77.9	82.2	73.3	68.7	76.1	60.4	30.22	30.26	30.18	31.33	31.33	31.33
10/28/2013	22	359	0	2	14	0	7	14	0	50	55	45	76	88	64	79.5	84.1	75.2	73.2	80.8	65.1	30.26	30.31	30.20	31.33	31.33	31.33
10/29/2013	45	359	0	2	16	0	9	16	0	52	58	49	75	100	51	81.1	85.2	77.0	76.2	82.1	68.0	30.30	30.35	30.25	31.33	31.33	31.33
10/30/2013	45	359	0	4	14	0	9	14	0	53	57	50	72	86	62	82.1	85.5	78.9	77.8	82.1	71.0	30.30	30.37	30.25	31.33	31.33	31.33
10/31/2013	112	204	34	4	18	0	12	18	0	54	59	51	71	83	62	83.0	87.0	79.6	79.3	84.5	74.5	30.22	30.28	30.15	31.33	31.33	31.33
11/1/2013	180	299	117	2	17	0	8	17	0	57	63	49	75	91	55	84.2	88.7	80.3	81.0	89.5	73.9	30.09	30.17	30.02	31.33	31.33	31.33
11/2/2013	315	359	0	3	20	0	10	20	0	53	62	46	78	95	57	83.2	86.8	80.1	75.7	86.2	67.6	30.02	30.09	29.96	31.33	31.33	31.33
11/3/2013	315	359	0	4	19	0	13	19	0	42	50	35	63	82	45	79.1	82.7	75.9	71.2	76.6	63.7	30.14	30.22	30.05	31.33	31.33	31.33
11/4/2013	45	358	0	8	28	0	19	28	6	46	58	36	63	87	50	78.5	80.8	76.8	75.2	78.6	70.7	30.23	30.28	30.18	31.33	31.35	31.33
11/5/2013	45	349	0	8	28	0	18	28	4	61	65	57	76	87	66	79.8	83.5	77.4	77.0	81.7	72.3	30.23	30.28	30.20	31.36	31.39	31.35
11/6/2013	68	359	0	3	14	0	9	14	0	56	61	52	73	100	49	81.4	85.5	78.4	77.4	82.6	73.7	30.20	30.24	30.16	31.39	31.39	31.39
11/7/2013	0	359	0	1	12	0	6	12	0	59	65	56	86	100	54	81.1	84.5	78.1	74.2	78.7	70.1	30.13	30.18	30.08	31.39	31.39	31.39
11/8/2013	22	359	0	4	20	0	13	20	0	60	64	56	83	95	67	79.4	83.4	77.0	73.2	78.3	68.1	30.17	30.24	30.10	31.39	31.39	31.39
11/9/2013	45	359	0	6	19	0	15	19	0	61	64	56	77	82	70	79.5	83.1	77.2	75.7	79.2	74.0	30.26	30.32	30.20	31.39	31.39	31.39
11/10/2013	0	359	0	2	15	0	6	15	0	60	65	56	80	90	71	80.5	83.8	78.0	75.0	80.5	71.7	30.25	30.30	30.22	31.39	31.39	31.39
11/11/2013	45	359	0	2	13	0	7	13	0	59	66	57	82	100	70	80.5	83.5	77.6	75.2	80.2	69.9	30.24	30.30	30.21	31.39	31.39	31.39
11/12/2013	0	359	0	2	12	0	6	12	0	60	67	58	84	100	75	79.9	83.2	77.4	73.5	78.4	69.7	30.19	30.24	30.13	31.39	31.39	31.39
11/13/2013	0	359	0	7	29	0	20	29	0	51	59	39	71	84	53	75.1	78.2	72.1	68.7	71.6	66.8	30.29	30.42	30.15	31.39	31.39	31.39
11/14/2013	45	359	0	6	23	0	16	23	2	46	51	43	62	70	52	74.6	78.1	71.4	70.9	75.0	67.1	30.36	30.43	30.30	31.39	31.39	31.39
11/15/2013	112	203	15	4	16	0	11	16	0	54	61	47	72	80	63	77.6	80.5	75.1	74.5	78.3	71.1	30.26	30.33	30.20	31.39	31.39	31.39
11/16/2013	112	359	0	3	17	0	10	17	0	61	68	55	79	100	30	79.0	82.6	76.9	75.4	82.0	70.3	30.21	30.26	30.16	31.41	31.44	31.39
11/17/2013	112	185	47	3	19	0	10	19	0	64	70	58	82	100	67	81.0	84.9	77.8	77.8	83.3	72.5	30.18	30.24	30.14	31.45	31.45	31.44
11/18/2013	112	353	1	1	10	0	4	10	0	61	67	59	83	93	62	82.1	86.9	78.1	77.1	86.1	70.5	30.11	30.17	30.06	31.45	31.45	31.45
11/19/2013	0	359	0	1	15	0	6	15	0	59	66	56	85	95	73	80.7	82.7	78.9	73.5	76.7	70.1	30.05	30.10	30.00	31.45	31.45	31.45
11/20/2013	45	359	0	6	18	0	14	18	0	71	76	66	88	95	77	78.3	79.5	76.6	74.7	77.9	71.1	30.14	30.24	30.06	31.82	32.27	31.45
11/21/2013	90	196	9	6	23	0	15	23	0	75	78	70	86	99	71	77.4	79.2	76.6	75.0	78.0	72.1	30.26	30.32	30.20	34.64	37.74	32.27
11/22/2013	68	174	6	4	19	0	13	19	0	67	76	57	75	85	45	78.6	81.5	76.9	76.3	79.8	74.2	30.27	30.33	30.23	37.74	37.74	37.74
11/23/2013	45	164	0	1	12	0	6	12	0	58	64	54	75	100	64	79.4	83.3	76.5	74.9	79.9	68.2	30.19	30.25	30.13	37.74	37.74	37.74
11/24/2013	0	359	0	5	23	0	14	23	0	59	64	52	82	95	65	75.8	79.7	72.3	69.5	74.8	66.6	30.23	30.35	30.13	37.75	37.78	37.74
11/25/2013	68	153	1	6	22	0	18	22	2	54	66	50	69	90	59	74.1	76.8	72.0	71.0	74.2	68.9	30.31	30.38	30.20	37.78	37.79	37.78
11/26/2013	135	252	36	6	25	0	16	25	0	73	80	66	85	91	75	77.6	80.8	74.6	75.8	81.6	70.6	30.06	30.21	29.91	37.82	37.84	37.79
11/27/2013	292	359	0	6	24	0	16	24	4	61	75	42	78	94	59	76.7	78.8	70.2	69.0	75.3	50.9	30.01	30.28	29.86	37.85	37.85	37.84
11/28/2013	315	359	0	4	17	0	12	17	0	46	56	37	75	85	60	68.4	72.4	63.1	56.4	68.7	42.7	30.36	30.44	30.27	37.85	37.85	37.85
11/29/2013	315	359	0	4	18	0	11	18	0	55	62	50	77	92	59	71.3	74.6	67.8	66.4	73.1	57.1	30.40	30.45	30.37	37.86	37.90	37.85
11/30/2013	45	359	0	5	19	0	14	19	0	62	71	56	79	96	65	74.1	78.0	70.7	71.0	76.7	62.3	30.34	30.39	30.28	37.96	37.98	37.90
12/1/2013	0	359	0	2	13	0	7	13	0	67	69	63	93	100	85	73.9	75.5	72.1	67.5	70.3	64.8	30.20	30.30	30.08	38.26	38.51	37.98
12/2/2013	315	359	0	1	12	0	6	12	0	66	70	60	88	98	75	73.0	76.0	71.3	65.8	70.8	61.0	30.01	30.09	29.94	38.52	38.52	38.51
12/3/2013	180	294	82	1	11	0	4	11	0	61	66	58	79	100	42	74.2	79.0	70.3	69.0	77.5	62.6	30.07	30.15	30.01	38.52	38.52	38.52
12/4/2013	202	346	17	1	12	0	5	12	0	62	72	58	79	100	39	76.4	81.6	71.4	72.4	83.6	63.1	30.17	30.24	30.11	38.52	38.52	38.52
12/5/2013	112	206	0	2	14	0	6	14	0	62	69	59	82	100	69	77.8	81.7	73.5	73.2	80.6	64.9	30.26	30.32	30.22	38.52	38.52	38.52
12/6/2013	112	253	59	1	13	0	6	13	0	67	73	63	86	96	79	77.6	80.1	75.7	73.3	78.6	69.1	30.28	30.34	30.24	38.55	38.56	38.52
12/7/2013	45	344	7	0	8	0	3	8	0	65	72	62	86	95	77	77.6	81.1	73.8	72.2	78.6	65.8	30.32	30.38	30.29	38.56	38.56	38.56
12/8/2013	135	199	23	3	20	0	8	20	0	64	71	60	80	92	67	79.0	82.4	76.0	75.8	81.1	71.3	30.31	30.37	30.26	38.56	38.57	38.56
12/9/2013	135	226	64	3	20	0	8	20	0	63	72	56	81	95	62	78.8	82.7	75.3	74.9	82.7	69.2	30.29	30.34	30.24	38.58	38.58	38.57
12/10/2013	202	359	0	2	13	0	5	13	0	60	70	57	77	94	45	78.9	83.6	73.9	74.8	84.6	64.6	30.26	30.31	30.21	38.58	38.58	38.58
12/11/2013	45	359	0	2	12	0	7	12	0	64	69	60	85	100	53	79.8	83.1	76.3	74.3	79.7	68.0	30.31	30.37	30.28	38.58	38.58	38.58
12/12/2013	0	359	0	3	22	0	13	22	0	58	65	46	80	97	60	75.3	78.7	71.9	67.6	70.8	65.7	30.35	30.41	30.29	38.58	38.58	38.58
12/13/2013	45	147	1	5	16	0	13	16	3	50	56	47	65	75	55	73.8	77.2	71.1	70.4	74.1	67.5	30.32	30.39	30.25	38.58	38.58	38.58
12/14/2013	135	241	81	5	22	0	14	22	3	67	76	56	82	89	74	77.3	80.5	74.5	74.8	79.4	71.9	30.18	30.27	30.10	38.62	38.66	38.58
12/15/2013	202	359	0	2	18	0	10	18	0	69	76	60	88	95	75	76.6	78.0	74.6	70.9	76.3	66.4	30.11	30.23	30.04	38.66	38.66	38.66
12/16/2013	315	359	0	3	16	0	11	16	0	55	60	49	81	88	71	72.5	74.7	68.8	61.3	66.5	54.2	30.27	30.34	30.20	38.66	38.66	38.66
12/17/2013	315	359	0	2	12	0	7	12	0	56	68	49	82	98	68	70.6	75.6	65.6	61.6	71.3	52.8	30.30	30.35	30.26	38.66	38.66	38.66
12/18/2013	0	359	0	2	13	0	7	13	0	49	53	44	72	91	53	69.8	73.8	65.6	60.3	67.5	51.7	30.35	30.40	30.29	38.66	38.66	38.66
12/19/2013	112	359	0	2	13	0	5	13	0	50	58	44	74	94	59	70.5	75.7	64.9	63.8	74.6	52.4	30.35	30.41	30.31	38.66	38.66	38.66
12/20/2013	112	217	68	2	18	0	7	18	0	54	62	49	77	94	57	73.4	78.6	67.8	68.8	79.2	58.1	30.30	30.36	30.26	38.66	38.66	38.66
12/21/2013	135	195	35	3	20	0	9	20	0	68	75	58	86	95	77	77.4	81.2	73.9	74.6	80.9	68.2	30.25	30.30	30.20	38.66	38.66	38.66
12/22/2013	135	231	80	2	26	0	10	26	0	70	78	66	84	94	49	78.6	82.4	75.0	76.3	82.8	70.9	30.26	30.31	30.21	38.66	38.66	38.66
12/23/2013	180	300	90	3	15	0	9	15	0	70	76	64	83	94	67	79.1	83.1	75.7	76.3	83.9	71.5	30.27	30.32	30.23	38.66	38.66	38.66
12/24/2013	0	359	0	4	19	0	11	19	0	60	67	50	82	98	65	74.0	78.3	69.9	67.3	72.6	62.3	30.29	30.35	30.23	38.69	38.71	38.66
12/25/2013	45	359	0	5	18	0	13	18	1	54	60	50	68	74	61	72.9	76.5	69.9	70.1	73.7	66.8	30.30	30.36	30.27	38.71	38.71	38.71
12/26/2013	0	359	0	2	14	0	8	14	0	62	68	54	84	94	71	74.6	78.0	72.3	69.3	74.1	64.6	30.28	30.34	30.22	38.71	38.71	38.71
12/27/2013	0	359	0	2	12	0	8	12	0	72	78	68	91	98	81	75.0	78.3	72.9	70.4	75.5	67.3	30.31	30.36	30.26	38.73	38.74	38.71
12/28/2013	112	220	32	4	20	0	11	20	0	73	82	70	87	95	78	75.8	78.2	74.0	72.9	77.0	68.4	30.26	30.35	30.16	38.95	39.10	38.74
12/29/2013	180	319	55	4	19	0	13	19	0	77	83	71	87	95	76	77.2	80.1	75.1	75.3	80.5	72.2	30.10	30.18	30.02	39.15	39.16	39.10
12/30/2013	0	359	0	2	13	0	7	13	0	66	71	58	87	92	73	74.6	77.7	70.8	66.3	73.4	59.8	30.21	30.32	30.11	39.16	39.16	39.16
12/31/2013	0	359	0	4	14	0	11	14	0	60	62	58	76	85	67	71.8	74.2	70.2	67.2	71.0	62.9	30.34	30.42	30.26	39.16	39.16	39.16
																											
Date		Wind	Hi	Lo	Wind	Hi	Lo	Wind	Hi	Lo	Hum	Hi	Lo	Hum	Hi	Lo	Temp	Hi	Lo	Temp	Hi	Lo	Raw	Hi	Lo	Tot	Hi	Lo
		Dir			Speed	Mph	Mph	Gust	Mph	Mph	In%	%	%	Out%	%	%	Inside	F	F	F	F	F	Barom	in	in	Rain	in	in
					Mph			Mph									F						Inches
1/1/2014	45	359	0	1	12	0	8	12	0	72	79	61	89	97	71	72.9	73.9	72.2	69.6	71.5	67.3	30.28	30.37	30.17	0.21	0.21	0.00
1/2/2014	202	328	135	5	23	0	11	23	0	72	84	64	84	99	64	75.4	80.3	71.0	72.9	82.7	64.3	30.06	30.18	29.96	0.24	0.24	0.21
1/3/2014	315	359	0	5	23	0	16	23	2	50	68	40	74	94	56	68.1	76.0	64.7	56.4	69.7	48.3	30.23	30.36	30.01	0.24	0.24	0.24
1/4/2014	112	351	2	2	13	0	7	13	0	60	65	53	78	94	66	68.7	71.8	65.3	66.3	70.6	62.9	30.28	30.33	30.20	0.69	0.69	0.24
1/5/2014	45	359	0	1	10	0	5	10	0	72	82	65	92	99	77	72.3	76.3	69.0	69.1	75.9	63.4	30.14	30.21	30.09	0.97	1.27	0.69
1/6/2014	315	359	0	4	24	0	12	24	0	66	83	33	79	100	42	72.9	78.3	66.0	66.9	80.0	48.1	30.16	30.38	30.08	1.28	1.28	1.27
1/7/2014	315	359	0	6	20	0	16	20	3	38	46	30	69	87	46	60.5	66.0	57.7	45.8	50.6	39.5	30.45	30.52	30.36	1.29	1.30	1.28
1/8/2014	45	359	4	6	16	0	12	16	0	57	70	44	77	94	65	63.7	68.6	58.1	60.9	68.0	43.9	30.42	30.50	30.38	1.30	1.30	1.30
1/9/2014	45	141	8	5	19	0	13	19	2	81	86	70	94	99	90	69.5	71.1	68.2	67.7	70.6	64.9	30.36	30.42	30.30	1.50	1.68	1.30
1/9/2014	0	90	90	5	12	5	12	12	12	86	86	86	92	92	92	71.4	71.4	71.4	71.0	71.0	71.0	30.34	30.34	30.34	1.68	1.68	1.68
1/9/2014	68	124	30	5	14	0	12	14	3	86	87	86	92	94	92	71.4	71.7	71.4	71.0	71.2	70.7	30.34	30.34	30.32	1.68	1.68	1.30
1/10/2014	112	212	36	2	14	0	7	14	0	84	90	77	91	99	81	74.2	77.9	71.4	72.4	77.8	69.6	30.26	30.34	30.19	1.73	1.74	1.68
1/11/2014	180	289	103	5	23	0	12	23	0	77	87	69	86	96	67	77.0	81.8	73.5	75.2	83.4	69.2	30.15	30.24	30.05	1.76	1.84	1.74
1/12/2014	0	359	0	2	14	0	7	14	0	62	73	52	80	95	52	73.4	76.9	68.8	64.2	72.8	55.7	30.24	30.33	30.10	1.85	1.85	1.84
1/13/2014	135	359	0	2	16	0	6	16	0	63	71	52	84	98	73	71.3	77.0	64.6	65.9	77.5	52.9	30.22	30.30	30.13	1.86	1.86	1.85
1/14/2014	202	357	0	3	16	0	9	16	0	69	77	62	84	94	69	75.9	79.3	73.0	72.1	79.6	68.2	30.09	30.15	30.03	1.86	1.86	1.86
1/15/2014	292	345	39	2	10	0	7	10	0	59	63	53	82	92	71	71.7	74.7	68.0	62.4	68.3	57.0	30.10	30.16	30.00	1.91	1.92	1.86
1/16/2014	315	359	0	4	21	0	10	21	0	44	54	35	63	90	34	65.8	68.7	61.0	52.6	57.8	42.1	30.18	30.28	30.04	1.93	1.93	1.92
1/17/2014	315	359	0	0	9	0	4	9	0	39	44	36	58	100	18	62.2	68.8	56.2	50.1	64.2	38.3	30.28	30.36	30.23	1.93	1.93	1.93
1/18/2014	315	359	0	2	16	0	7	16	0	36	43	30	57	85	30	63.9	69.2	59.4	51.6	61.8	41.7	30.31	30.40	30.23	1.93	1.93	1.93
1/19/2014	292	346	165	2	14	0	6	14	0	36	42	30	62	100	39	63.1	71.2	55.2	52.5	69.4	37.6	30.31	30.39	30.25	1.93	1.93	1.93
1/20/2014	248	337	162	1	15	0	5	15	0	44	53	38	70	94	43	67.2	73.4	61.0	60.2	73.2	48.3	30.23	30.31	30.15	1.93	1.93	1.93
1/21/2014	248	336	148	3	19	0	10	19	0	47	55	41	76	92	52	69.5	74.3	64.8	63.1	74.7	55.1	30.05	30.18	29.93	1.93	1.93	1.93
1/22/2014	292	359	0	3	21	0	9	21	0	37	52	31	57	76	35	65.4	69.3	60.8	52.3	60.6	43.2	30.18	30.32	30.00	1.93	1.93	1.93
1/23/2014	315	359	0	1	14	0	7	14	0	37	43	32	69	82	49	62.0	67.4	55.5	49.9	59.8	38.1	30.39	30.48	30.29	1.93	1.93	1.93
1/24/2014	315	359	0	3	17	0	10	17	0	42	46	38	73	87	61	63.4	67.6	59.8	53.2	60.0	46.1	30.46	30.58	30.39	1.93	1.93	1.93
1/25/2014	315	359	0	1	14	0	5	14	0	46	55	39	78	100	17	65.9	72.6	59.9	58.0	71.2	47.1	30.26	30.40	30.15	1.93	1.93	1.93
1/26/2014	45	357	1	1	10	0	4	10	0	53	61	45	86	100	33	67.7	71.6	63.6	61.3	71.0	52.7	30.16	30.23	30.11	1.95	1.98	1.93
1/27/2014	202	359	1	2	17	0	6	17	0	59	66	56	84	100	47	72.3	78.0	67.0	67.6	79.3	60.5	30.11	30.17	30.05	1.98	1.98	1.98
1/28/2014	180	359	7	2	12	0	4	12	0	59	67	55	82	100	41	73.2	78.7	67.5	68.2	79.5	58.4	30.14	30.22	30.08	1.98	1.98	1.98
1/29/2014	0	359	0	3	19	0	12	19	0	59	65	57	90	97	81	69.7	74.4	65.5	61.2	68.1	54.6	30.19	30.28	30.10	2.06	2.43	1.98
1/30/2014	315	359	0	1	18	0	9	18	0	65	68	62	96	98	93	64.9	65.8	64.1	57.7	62.2	53.9	30.22	30.27	30.17	2.99	3.41	2.43
1/31/2014	315	359	0	1	13	0	6	13	0	73	81	65	96	100	92	67.8	71.9	64.7	64.2	69.8	58.7	30.19	30.24	30.15	3.65	3.77	3.41
2/1/2014	135	340	2	3	16	0	8	16	0	75	86	70	89	100	68	75.0	80.7	70.4	73.0	81.5	66.2	30.22	30.28	30.17	3.77	3.77	3.77
2/2/2014	112	228	43	3	15	0	7	15	0	70	79	63	87	99	66	76.8	81.7	72.2	73.1	81.2	65.2	30.24	30.30	30.19	3.78	3.78	3.77
2/3/2014	135	359	0	2	13	0	7	13	0	71	76	68	87	97	73	77.7	81.7	73.6	74.0	80.8	66.4	30.20	30.25	30.15	3.78	3.78	3.78
2/4/2014	112	183	31	1	18	0	5	18	0	71	78	66	89	100	77	77.6	81.5	75.5	73.8	80.6	70.9	30.22	30.28	30.19	3.78	3.78	3.78
2/5/2014	180	310	94	2	19	0	7	19	0	69	78	64	85	100	69	78.4	82.9	74.6	74.7	84.6	68.4	30.17	30.23	30.10	3.78	3.78	3.78
2/6/2014	0	359	0	3	16	0	9	16	0	65	69	61	89	100	55	75.7	77.7	72.6	68.5	72.0	61.0	30.21	30.28	30.15	3.79	3.82	3.78
2/7/2014	315	359	0	2	14	0	9	14	0	64	71	59	91	100	70	72.7	75.8	69.7	64.4	69.7	56.9	30.24	30.29	30.20	3.83	3.83	3.82
2/8/2014	0	359	0	2	13	0	8	13	0	65	79	62	92	100	78	73.4	77.8	70.6	65.4	77.0	62.1	30.20	30.25	30.16	3.83	3.83	3.83
2/9/2014	0	359	0	3	20	0	9	20	0	61	67	56	84	100	70	72.2	75.8	69.6	64.0	69.3	60.1	30.19	30.25	30.13	3.83	3.83	3.83
2/10/2014	0	359	0	1	14	0	6	14	0	55	64	50	76	93	57	72.3	76.5	67.4	65.3	71.5	57.4	30.19	30.25	30.15	3.83	3.83	3.83
2/11/2014	112	181	11	2	17	0	7	17	0	58	64	50	83	100	45	74.0	78.4	69.1	68.7	77.6	58.2	30.16	30.22	30.10	3.83	3.83	3.83
2/12/2014	180	347	24	3	30	0	10	30	0	62	71	58	84	100	51	75.0	80.1	69.9	69.4	81.1	61.3	30.03	30.15	29.82	3.99	4.83	3.83
2/13/2014	292	350	147	6	26	0	17	26	0	53	66	41	77	100	53	71.3	73.9	66.6	61.7	66.9	49.6	29.93	30.10	29.81	4.84	4.84	4.83
2/14/2014	315	359	0	2	11	0	6	11	0	42	47	40	75	100	18	66.0	70.4	60.7	53.4	62.3	43.2	30.13	30.23	30.08	4.84	4.84	4.84
2/15/2014	292	359	152	5	25	0	11	25	0	44	60	35	65	90	31	68.0	73.7	62.5	60.3	72.4	50.0	30.13	30.26	30.05	4.84	4.84	4.84
2/16/2014	22	359	0	1	12	0	5	12	0	38	46	35	66	100	43	67.4	72.6	61.2	57.0	68.0	46.4	30.28	30.32	30.22	4.84	4.84	4.84
2/17/2014	45	359	0	1	10	0	3	10	0	44	52	37	77	100	41	69.3	75.7	61.9	60.6	71.6	48.7	30.32	30.38	30.29	4.84	4.84	4.84
2/18/2014	112	359	0	2	15	0	6	15	0	49	59	44	76	95	57	72.3	78.8	65.7	66.3	78.0	54.5	30.33	30.39	30.29	4.84	4.84	4.84
2/19/2014	112	210	29	2	18	0	7	18	0	54	63	47	79	100	57	74.4	79.9	68.3	68.9	78.9	57.1	30.27	30.33	30.22	4.84	4.84	4.84
2/20/2014	112	195	46	3	19	0	9	19	0	60	68	54	82	100	69	75.9	80.7	70.7	71.6	79.5	61.2	30.26	30.33	30.21	4.84	4.84	4.84
2/21/2014	158	356	0	3	23	0	11	23	0	67	74	60	83	100	61	78.4	82.7	75.2	75.5	84.3	70.6	30.18	30.23	30.11	4.93	5.24	4.84
2/22/2014	225	359	0	2	16	0	5	16	0	67	74	64	90	100	21	77.4	81.1	74.6	72.3	79.3	68.6	30.19	30.25	30.13	5.25	5.27	5.24
2/23/2014	112	359	0	2	16	0	5	16	0	67	76	63	88	100	46	77.6	82.4	73.0	72.4	82.1	65.2	30.17	30.23	30.11	5.27	5.27	5.27
2/24/2014	0	359	0	2	16	0	7	16	0	64	73	61	90	100	60	77.3	81.8	74.1	70.8	80.5	66.4	30.14	30.20	30.08	5.27	5.27	5.27
2/25/2014	22	359	0	1	12	0	5	12	0	61	67	56	86	100	53	77.0	80.5	73.6	70.3	76.1	65.2	30.12	30.18	30.06	5.27	5.27	5.27
2/26/2014	248	351	0	3	19	0	7	19	0	57	65	53	79	100	27	76.4	81.2	71.6	70.7	82.4	62.4	29.97	30.11	29.86	5.30	5.55	5.27
2/27/2014	315	359	0	2	13	0	8	13	0	55	61	50	87	100	73	74.4	78.5	69.7	63.6	69.1	57.4	29.99	30.10	29.88	5.55	5.62	5.55
2/28/2014	315	359	0	2	15	0	9	15	0	51	54	48	81	100	61	71.2	75.9	66.9	61.1	68.1	53.6	30.13	30.23	30.03	5.70	5.71	5.62
3/1/2014	0	359	0	2	17	0	9	17	0	53	63	49	84	95	59	73.1	79.1	67.0	64.6	73.5	55.6	30.26	30.33	30.18	5.71	5.71	5.71
3/2/2014	45	359	0	1	12	0	6	12	0	56	63	52	80	100	64	75.2	80.6	69.8	69.2	76.2	60.0	30.27	30.34	30.19	5.71	5.71	5.71
3/3/2014	225	306	120	2	16	0	7	16	0	51	59	41	70	90	46	77.8	84.4	71.4	72.6	84.3	61.4	30.16	30.22	30.09	5.71	5.71	5.71
3/4/2014	45	359	0	1	12	0	6	12	0	50	58	43	81	95	67	77.7	81.9	72.8	69.8	76.5	62.3	30.15	30.21	30.11	5.71	5.71	5.71
3/5/2014	0	359	0	2	13	0	8	13	0	59	63	55	91	98	79	76.3	79.7	73.5	67.7	76.8	63.8	30.14	30.19	30.09	5.71	5.71	5.71
3/6/2014	225	359	0	3	13	0	8	13	0	66	72	62	91	97	80	75.6	79.0	73.0	70.4	77.8	66.5	30.00	30.16	29.83	5.75	5.82	5.71
3/7/2014	292	359	0	5	24	0	13	24	0	54	64	41	77	100	55	74.3	78.2	69.5	65.6	73.1	53.4	29.99	30.18	29.89	5.82	5.82	5.82
3/8/2014	315	359	0	3	14	0	9	14	0	48	58	39	81	100	49	70.6	76.1	65.4	58.8	66.8	49.5	30.22	30.29	30.15	5.82	5.82	5.82
3/9/2014	45	359	0	2	13	0	5	13	0	50	58	46	78	94	59	72.5	77.0	67.0	64.7	70.9	56.2	30.26	30.33	30.22	5.82	5.82	5.82
3/10/2014	90	356	0	1	12	0	4	12	0	52	61	47	81	100	52	75.1	81.8	69.0	68.1	81.0	58.6	30.18	30.26	30.10	5.82	5.82	5.82
3/11/2014	135	359	0	2	13	0	6	13	0	50	55	46	78	100	35	75.9	80.3	70.7	68.4	75.8	59.2	30.06	30.15	29.98	5.82	5.82	5.82
3/12/2014	248	332	138	4	24	0	13	24	0	57	66	52	79	92	57	77.5	81.8	73.7	73.0	84.6	67.1	29.94	30.01	29.87	5.82	5.83	5.82
3/13/2014	0	359	0	4	18	0	12	18	0	44	54	33	67	87	46	73.2	76.9	68.8	61.8	68.1	56.0	30.15	30.34	29.96	5.83	5.83	5.83
3/14/2014	112	359	0	5	19	0	13	19	0	39	45	33	60	75	50	71.2	76.2	66.9	65.3	71.4	59.4	30.35	30.42	30.30	5.83	5.83	5.83
3/15/2014	112	358	0	2	14	0	6	14	0	45	54	39	72	100	55	73.4	79.1	67.2	66.4	74.9	55.4	30.25	30.34	30.19	5.83	5.83	5.83
3/16/2014	158	275	86	5	23	0	12	23	0	50	56	44	72	100	28	76.9	83.0	71.3	73.1	85.3	62.1	30.06	30.19	29.93	5.83	5.83	5.83
3/17/2014	180	297	129	6	30	0	16	30	3	60	67	52	79	90	70	78.2	80.9	75.2	75.7	81.2	69.9	29.88	29.95	29.81	5.83	5.83	5.83
3/18/2014	292	359	0	6	35	0	17	35	0	58	70	49	78	100	11	78.4	83.2	75.0	71.1	77.2	64.9	29.97	30.17	29.73	6.07	6.15	5.83
3/19/2014	22	359	0	2	14	0	7	14	0	54	63	50	83	100	18	75.2	80.5	70.7	66.5	73.1	58.8	30.18	30.25	30.13	6.15	6.15	6.15
3/20/2014	22	359	0	2	14	0	7	14	0	57	66	50	84	100	74	76.4	81.2	72.4	69.1	73.9	62.2	30.16	30.22	30.11	6.15	6.15	6.15
3/21/2014	45	359	0	3	17	0	10	17	0	58	65	50	78	100	50	77.8	81.2	75.0	72.9	77.2	69.8	30.19	30.25	30.12	6.15	6.15	6.15
3/22/2014	135	325	85	3	18	0	10	18	0	57	66	46	72	100	43	80.0	85.4	75.7	76.8	86.4	70.5	30.16	30.21	30.08	6.20	6.24	6.15
3/23/2014	270	359	0	2	14	0	7	14	0	49	55	46	74	100	19	79.8	84.8	75.2	74.1	84.5	65.6	30.14	30.20	30.08	6.24	6.24	6.24
3/24/2014	292	359	0	1	11	0	7	11	0	54	58	49	84	94	45	78.3	81.0	75.4	70.5	76.0	66.7	30.11	30.19	30.03	6.26	6.32	6.24
3/25/2014	270	359	0	6	24	0	14	24	0	57	65	37	80	95	54	75.3	79.6	72.6	68.4	76.7	60.2	30.01	30.14	29.95	6.37	6.37	6.32
3/26/2014	315	359	0	5	19	0	12	19	0	35	40	30	61	78	44	69.3	72.9	65.4	55.4	60.2	47.3	30.33	30.42	30.12	6.37	6.37	6.37
3/27/2014	112	344	14	3	17	0	10	17	0	47	55	38	71	84	60	69.1	71.7	65.8	64.4	69.8	51.7	30.39	30.48	30.34	6.38	6.39	6.37
3/28/2014	135	231	63	6	27	0	15	27	0	61	67	55	77	83	69	74.9	79.5	71.3	72.8	78.1	68.5	30.26	30.37	30.17	6.40	6.40	6.39
3/29/2014	180	352	9	5	29	0	13	29	0	66	75	60	85	93	69	77.1	81.4	74.6	73.6	84.1	67.5	30.11	30.22	29.99	6.56	6.98	6.40
3/30/2014	315	359	0	4	17	0	10	17	0	52	62	36	66	100	34	76.1	82.2	71.6	68.1	77.8	60.4	30.12	30.22	30.01	6.98	6.98	6.98
3/31/2014	45	359	0	0	9	0	5	9	0	41	47	36	70	88	52	73.2	76.4	68.3	62.7	72.1	52.8	30.24	30.30	30.19	6.98	6.98	6.98
4/1/2014	45	359	0	1	12	0	5	12	0	45	52	40	74	100	51	73.2	80.0	65.4	64.7	75.6	50.5	30.28	30.33	30.24	6.98	6.98	6.98
4/2/2014	112	214	22	3	16	0	7	16	0	46	54	43	71	94	55	75.5	81.4	68.6	68.5	78.5	55.8	30.30	30.34	30.26	6.98	6.98	6.98
4/3/2014	135	227	43	3	19	0	9	19	0	50	57	45	74	94	62	77.3	83.3	71.0	71.6	80.9	60.0	30.25	30.31	30.20	6.98	6.98	6.98
4/4/2014	135	357	58	3	16	0	8	16	0	53	59	50	75	100	60	78.5	83.6	73.2	73.7	82.0	63.2	30.18	30.24	30.14	6.98	6.98	6.98
4/5/2014	45	358	0	3	14	0	9	14	0	56	63	52	81	100	57	79.5	83.4	75.0	73.3	79.2	66.2	30.15	30.21	30.08	6.98	6.98	6.98
4/6/2014	112	258	42	4	17	0	10	17	0	57	63	51	76	92	56	80.8	85.8	76.1	76.6	86.2	69.7	30.12	30.18	30.08	6.98	6.98	6.98
4/7/2014	180	271	68	4	23	0	11	23	0	59	67	56	78	100	12	81.9	87.7	76.6	78.0	89.6	68.6	30.05	30.12	29.98	7.05	7.37	6.98
4/8/2014	180	313	53	6	30	0	16	30	3	65	70	58	88	100	73	80.1	82.8	75.6	74.4	82.9	66.4	29.94	30.04	29.82	7.41	7.46	7.37
4/9/2014	292	359	0	3	18	0	11	18	0	51	58	41	69	100	46	75.9	81.1	71.6	67.2	75.1	60.2	30.12	30.31	29.98	7.46	7.46	7.46
4/10/2014	45	359	0	2	15	0	8	15	0	44	51	38	68	94	54	75.3	80.8	69.6	67.0	74.5	56.3	30.36	30.43	30.28	7.46	7.46	7.46
4/11/2014	112	198	0	3	20	0	11	20	0	54	60	42	80	100	48	76.7	80.1	74.1	71.6	77.3	68.3	30.34	30.40	30.29	7.55	7.60	7.46
4/12/2014	45	359	0	3	16	0	10	16	0	54	60	46	72	100	60	77.9	82.6	74.0	73.6	77.7	69.3	30.29	30.36	30.25	7.60	7.60	7.60
4/13/2014	90	354	6	5	20	0	13	20	1	56	60	52	77	100	20	79.7	84.2	76.0	75.1	79.8	71.9	30.22	30.28	30.17	7.60	7.60	7.60
4/14/2014	112	215	25	5	20	0	13	20	0	63	68	58	81	94	70	81.2	86.1	77.5	77.7	84.4	72.7	30.10	30.18	30.02	7.60	7.60	7.60
4/15/2014	180	359	0	4	22	0	12	22	0	61	70	53	80	100	51	82.7	88.0	78.0	78.7	90.9	72.0	30.01	30.07	29.93	7.65	7.80	7.60
4/16/2014	45	359	0	5	20	0	15	20	0	55	61	49	80	100	21	77.1	82.3	73.7	69.5	74.3	62.6	30.17	30.26	30.05	7.81	7.81	7.80
4/17/2014	45	358	0	6	24	0	17	24	0	68	72	61	84	100	76	76.6	79.1	75.2	73.6	76.1	71.6	30.27	30.33	30.20	7.81	7.81	7.81
4/18/2014	135	326	12	6	22	0	14	22	0	72	80	64	87	100	19	78.8	82.9	75.7	75.7	82.1	71.4	30.16	30.27	30.06	7.92	7.97	7.81
4/19/2014	248	359	11	4	17	0	13	17	2	64	74	49	80	100	58	79.8	84.4	75.9	74.6	81.3	65.3	30.04	30.12	29.99	8.22	8.31	7.97
4/20/2014	315	359	0	3	16	0	10	16	0	53	58	49	82	100	73	75.4	77.6	73.0	66.0	69.6	63.0	30.13	30.19	30.06	8.31	8.31	8.31
4/21/2014	0	359	0	3	16	0	10	16	0	56	63	52	82	100	46	75.7	81.0	71.1	66.8	73.2	60.9	30.13	30.19	30.08	8.31	8.31	8.31
4/22/2014	45	359	0	1	14	0	6	14	0	54	62	51	82	100	60	76.9	81.4	71.8	69.4	76.2	60.3	30.04	30.11	29.97	8.31	8.31	8.31
4/23/2014	45	359	0	2	12	0	6	12	0	52	61	48	80	100	14	78.9	83.8	73.5	71.6	77.2	63.1	30.04	30.10	29.99	8.31	8.31	8.31
4/24/2014	112	274	24	3	17	0	8	17	0	53	65	50	78	100	58	81.0	86.5	75.3	75.5	83.8	66.0	30.10	30.19	30.05	8.31	8.31	8.31
4/25/2014	45	359	0	2	12	0	6	12	0	54	61	50	78	100	54	82.2	87.5	76.8	75.7	85.1	67.4	30.10	30.17	30.05	8.31	8.31	8.31
4/26/2014	45	359	0	2	16	0	7	16	0	54	59	49	83	100	46	81.9	86.2	76.7	74.3	79.5	66.4	30.12	30.17	30.07	8.31	8.31	8.31
4/27/2014	112	246	15	3	20	0	9	20	0	58	66	55	81	100	46	83.0	87.8	78.1	77.8	83.8	70.6	30.13	30.18	30.08	8.31	8.31	8.31
4/28/2014	112	296	38	4	18	0	11	18	0	58	63	52	79	100	47	83.7	89.2	79.2	79.4	87.9	71.5	30.09	30.14	30.04	8.31	8.31	8.31
4/29/2014	135	232	55	4	24	0	12	24	0	63	70	59	82	100	46	84.1	89.0	80.1	80.1	86.5	74.4	30.09	30.18	30.02	8.31	8.31	8.31
5/1/2014	135	359	73	3	23	0	10	23	0	63	73	53	82	100	54	84.1	90.8	79.5	79.5	92.0	73.4	30.13	30.17	30.05	8.99	9.01	8.98
5/2/2014	180	359	0	3	21	0	10	21	0	59	69	54	83	100	29	83.5	88.6	80.4	77.6	88.2	72.5	30.07	30.14	30.00	9.07	9.33	9.01
5/3/2014	315	359	0	1	18	0	4	18	0	63	67	59	93	100	77	79.7	82.5	77.6	72.5	78.6	69.5	30.08	30.16	30.02	9.76	10.36	9.33
5/4/2014	0	359	0	2	16	0	9	16	0	52	64	40	74	99	39	79.3	84.7	73.6	70.9	78.9	61.6	30.17	30.22	30.11	10.44	10.45	10.36
5/5/2014	45	359	0	1	10	0	4	10	0	47	56	44	75	100	51	80.7	86.8	74.2	72.6	81.2	62.6	30.17	30.22	30.12	10.45	10.45	10.45
5/6/2014	112	359	1	2	13	0	6	13	0	49	56	45	77	100	55	81.7	87.9	75.4	73.9	82.0	63.8	30.16	30.21	30.12	10.45	10.45	10.45
5/7/2014	112	227	16	3	16	0	8	16	0	53	61	49	78	100	50	83.6	89.0	77.7	77.5	84.3	67.9	30.24	30.31	30.16	10.45	10.45	10.45
5/8/2014	112	214	13	5	20	0	13	20	0	55	61	48	76	100	62	85.1	89.7	80.8	79.9	85.7	75.7	30.31	30.37	30.25	10.45	10.45	10.45
5/9/2014	112	214	18	5	21	0	14	21	0	55	59	49	76	100	10	85.1	89.6	81.1	80.1	86.1	75.9	30.30	30.35	30.25	10.45	10.45	10.45
5/10/2014	112	340	9	5	20	0	15	20	0	55	59	50	74	100	45	84.7	89.0	81.1	80.0	86.2	75.9	30.26	30.32	30.21	10.45	10.45	10.45
5/11/2014	112	192	26	3	16	0	10	16	0	55	61	49	75	100	45	84.8	89.2	81.4	79.5	85.1	76.2	30.25	30.31	30.21	10.45	10.45	10.45
5/12/2014	112	162	12	4	18	0	12	18	0	56	61	52	76	100	49	84.4	88.1	80.9	78.8	83.2	75.5	30.26	30.32	30.21	10.45	10.45	10.45
5/13/2014	90	343	14	6	19	0	14	19	0	61	65	58	80	100	27	84.4	88.3	81.0	78.8	83.2	76.1	30.21	30.25	30.17	10.45	10.45	10.45
5/14/2014	112	216	21	6	24	0	16	24	0	63	70	55	81	100	63	85.2	89.5	81.5	80.6	86.3	76.5	30.18	30.23	30.12	10.46	10.49	10.45
5/15/2014	180	247	105	2	24	0	10	24	0	65	70	61	90	95	77	82.5	84.8	80.5	76.2	83.4	72.8	30.10	30.18	30.03	10.68	10.95	10.49
5/16/2014	22	359	0	3	18	0	11	18	0	54	65	40	77	96	44	80.1	83.5	77.7	71.5	74.4	66.8	30.16	30.26	30.07	10.95	10.95	10.95
5/17/2014	0	359	0	4	20	0	11	20	0	45	50	41	68	100	53	79.4	84.6	74.5	71.7	77.7	63.0	30.25	30.29	30.21	10.95	10.95	10.95
5/18/2014	45	359	0	6	17	0	13	17	1	48	53	45	67	100	10	80.8	85.3	76.8	75.4	79.3	71.9	30.27	30.30	30.23	10.95	10.95	10.95
5/19/2014	45	359	0	3	15	0	9	15	0	49	54	45	71	100	63	82.4	87.2	77.9	76.1	80.2	70.6	30.29	30.33	30.24	10.95	10.95	10.95
5/20/2014	45	359	0	2	14	0	8	14	0	50	55	45	76	100	13	83.1	87.6	79.0	75.8	80.1	70.1	30.31	30.36	30.26	10.95	10.95	10.95
5/21/2014	45	359	0	2	13	0	7	13	0	46	50	41	70	100	60	83.4	87.7	79.1	76.5	80.7	70.6	30.30	30.35	30.26	10.95	10.95	10.95
5/22/2014	45	354	1	1	11	0	5	11	0	44	52	40	71	100	45	83.7	89.6	77.2	76.4	85.3	65.6	30.25	30.31	30.18	10.95	10.95	10.95
5/23/2014	112	358	0	2	13	0	7	13	0	46	54	42	70	100	44	85.7	91.7	79.6	80.0	89.9	70.3	30.21	30.25	30.16	10.95	10.95	10.95
5/24/2014	45	359	0	2	11	0	7	11	0	51	59	48	76	100	45	87.1	92.0	82.3	81.1	87.2	74.3	30.19	30.23	30.16	10.95	10.95	10.95
5/25/2014	45	359	0	2	14	0	7	14	0	52	57	50	78	100	24	87.2	91.2	83.1	80.6	85.9	74.9	30.22	30.29	30.16	10.95	10.95	10.95
5/26/2014	112	359	11	3	17	0	10	17	0	55	60	53	80	100	36	86.8	90.2	83.9	80.7	85.5	76.7	30.29	30.35	30.24	10.95	10.95	10.95
5/27/2014	112	358	0	4	16	0	10	16	0	54	58	49	76	100	46	86.0	90.0	82.4	79.7	83.4	75.8	30.27	30.34	30.20	10.95	10.95	10.95
5/28/2014	112	191	27	3	17	0	8	17	0	52	59	49	76	100	18	86.0	91.1	81.3	80.0	86.9	72.6	30.20	30.24	30.15	10.95	10.95	10.95
5/29/2014	112	274	26	3	19	0	6	19	0	56	63	51	82	100	25	85.0	88.4	82.0	78.7	85.1	73.6	30.16	30.21	30.12	11.14	11.29	10.95
5/30/2014	112	347	2	2	15	0	6	15	0	56	62	51	82	95	65	84.4	88.7	80.5	78.0	85.3	71.8	30.16	30.19	30.11	11.29	11.29	11.29
5/31/2014	112	177	4	3	16	0	7	16	0	59	65	56	83	100	12	84.8	88.5	81.2	79.0	84.9	73.4	30.16	30.20	30.12	11.29	11.29	11.29
6/1/2014	112	355	15	4	19	0	11	19	0	60	66	57	82	100	56	84.6	88.5	81.4	79.2	84.8	74.5	30.19	30.24	30.13	11.31	11.39	11.29
6/2/2014	68	159	16	5	20	0	16	20	3	57	65	48	74	100	45	83.0	86.6	80.7	78.4	82.4	76.3	30.22	30.28	30.17	11.39	11.39	11.39
6/3/2014	112	355	0	4	17	0	11	17	0	47	53	42	65	100	44	83.6	87.7	80.0	78.2	81.9	74.9	30.19	30.24	30.14	11.39	11.39	11.39
6/4/2014	45	359	0	2	12	0	6	12	0	44	50	40	69	100	41	84.0	88.5	79.6	76.4	81.4	70.6	30.12	30.18	30.09	11.39	11.39	11.39
6/5/2014	45	358	1	2	14	0	6	14	0	46	53	43	73	100	50	85.3	90.4	80.0	78.5	84.2	70.3	30.09	30.14	30.04	11.39	11.39	11.39
6/6/2014	45	359	0	2	14	0	8	14	0	50	58	45	75	100	47	86.7	91.8	81.2	80.5	87.1	72.5	30.10	30.14	30.03	11.39	11.39	11.39
6/7/2014	112	359	0	2	13	0	8	13	0	52	59	49	77	100	51	87.6	91.8	83.1	82.0	90.8	74.9	30.11	30.17	30.04	11.39	11.39	11.39
6/8/2014	45	359	3	3	16	0	9	16	0	50	59	46	77	100	59	87.3	92.2	82.0	79.9	87.4	72.0	30.11	30.16	30.05	11.39	11.39	11.39
6/9/2014	45	359	0	1	14	0	6	14	0	51	56	46	81	100	15	87.1	91.6	82.8	79.3	84.7	73.3	30.11	30.16	30.03	11.39	11.39	11.39
6/10/2014	202	348	1	3	22	0	7	22	0	52	59	44	76	100	55	87.9	93.5	83.4	81.7	91.0	75.4	30.14	30.18	30.11	11.39	11.39	11.39
6/11/2014	180	359	0	2	24	0	7	24	0	55	65	49	85	100	61	84.3	89.0	79.7	76.6	87.7	71.1	30.14	30.20	30.09	11.75	13.02	11.39
6/12/2014	225	359	0	2	29	0	10	29	0	59	69	50	85	100	56	82.6	90.3	78.4	75.8	91.1	70.2	30.13	30.19	30.06	13.09	13.26	13.02
6/13/2014	202	334	70	2	24	0	10	24	0	59	68	55	86	100	66	82.3	86.9	78.3	75.4	86.6	69.9	30.15	30.21	30.09	13.42	13.98	13.26
6/14/2014	180	359	0	1	23	0	7	23	0	60	69	56	87	100	60	81.7	87.8	78.2	75.3	89.1	70.5	30.19	30.26	30.12	14.01	14.07	13.98
6/15/2014	112	301	39	2	15	0	7	15	0	61	69	56	84	100	70	83.7	89.0	79.3	78.8	87.1	72.5	30.24	30.29	30.17	14.07	14.08	14.07
6/16/2014	112	359	3	2	11	0	7	11	0	58	65	53	80	100	46	84.0	87.2	80.1	77.9	83.4	71.6	30.27	30.32	30.22	14.08	14.08	14.08
6/17/2014	45	359	0	3	16	0	8	16	0	57	65	53	80	100	26	84.9	89.9	79.8	78.6	84.2	71.6	30.26	30.31	30.21	14.08	14.41	14.08
6/18/2014	45	359	0	2	21	0	7	21	0	59	66	54	86	99	70	83.7	88.3	80.4	77.2	84.1	72.6	30.25	30.28	30.20	14.43	14.47	14.41
6/19/2014	45	359	0	0	12	0	3	12	0	61	68	58	88	100	48	82.7	86.0	80.2	76.1	80.3	72.9	30.24	30.29	30.20	14.57	14.70	14.47
6/20/2014	180	359	0	2	12	0	7	12	0	59	69	55	86	100	46	83.9	89.5	80.3	77.4	88.2	73.3	30.18	30.23	30.14	14.71	14.72	14.70
6/21/2014	248	359	0	3	25	0	10	25	0	60	71	53	83	100	62	84.2	90.2	79.5	78.6	90.6	72.2	30.11	30.16	30.05	14.72	14.74	14.72
6/22/2014	248	359	0	2	13	0	8	13	0	58	68	49	79	100	49	86.7	94.5	81.2	81.8	93.5	75.1	30.09	30.14	30.05	14.74	14.74	14.74
6/23/2014	292	359	0	1	13	0	6	13	0	58	67	53	83	100	51	87.1	92.5	83.2	80.2	87.4	75.8	30.17	30.25	30.08	14.81	15.02	14.74
6/24/2014	112	359	0	2	14	0	6	14	0	55	63	46	80	96	58	87.6	92.5	82.3	81.3	88.6	74.9	30.24	30.30	30.19	15.05	15.07	15.02
6/25/2014	45	359	0	2	15	0	8	15	0	56	65	51	80	100	68	88.6	92.9	83.9	82.4	86.7	76.7	30.25	30.34	30.18	15.07	15.07	15.07
6/26/2014	112	359	0	2	18	0	7	18	0	54	63	46	78	100	51	88.8	93.2	84.2	82.2	88.8	76.2	30.21	30.26	30.13	15.07	15.07	15.07
6/27/2014	45	359	0	2	11	0	7	11	0	52	62	45	78	100	45	88.6	93.8	83.8	81.3	87.5	75.7	30.22	30.27	30.16	15.07	15.07	15.07
6/28/2014	45	359	0	0	9	0	5	9	0	50	59	45	76	100	49	88.9	93.4	83.7	82.0	88.7	74.3	30.26	30.31	30.19	15.07	15.07	15.07
6/29/2014	45	359	0	1	22	0	5	22	0	52	58	47	83	100	35	88.9	94.5	85.0	80.9	90.0	75.5	30.23	30.29	30.17	15.31	15.94	15.07
6/30/2014	0	359	0	3	21	0	10	21	0	56	65	50	87	100	62	87.5	92.9	83.8	80.4	87.2	75.7	30.12	30.21	30.06	15.96	15.99	15.94
7/1/2014	315	359	0	3	19	0	13	19	0	60	66	57	89	100	27	86.7	89.3	84.1	79.8	84.0	75.7	30.01	30.07	29.96	16.06	16.22	15.99
7/2/2014	270	359	0	3	24	0	11	24	0	59	68	52	83	100	62	86.2	91.6	82.3	80.6	90.8	74.6	30.03	30.11	29.95	16.23	16.31	16.22
7/3/2014	225	344	154	3	17	0	10	17	0	59	67	51	80	100	58	87.8	92.7	83.6	83.1	92.9	76.5	30.15	30.25	30.08	16.31	16.32	16.31
7/4/2014	225	345	32	2	18	0	7	18	0	56	65	51	84	97	62	86.8	92.1	83.6	79.6	90.9	75.1	30.24	30.30	30.20	16.50	17.02	16.32
7/5/2014	112	317	54	2	24	0	6	24	0	60	69	52	85	100	68	86.0	92.2	81.6	79.7	89.6	74.2	30.25	30.29	30.21	17.02	17.02	17.02
7/6/2014	112	359	0	1	14	0	6	14	0	62	65	56	88	100	33	84.4	87.5	82.3	78.0	86.4	74.8	30.22	30.27	30.17	17.32	17.70	17.02
7/7/2014	180	346	7	0	20	0	3	20	0	62	70	59	91	100	72	83.5	86.1	80.5	77.8	87.4	73.5	30.23	30.29	30.16	17.97	18.29	17.70
7/8/2014	45	355	1	1	16	0	5	16	0	61	67	57	89	100	55	84.6	90.9	81.5	78.3	87.2	73.8	30.25	30.29	30.20	18.41	18.70	18.29
7/9/2014	112	359	12	1	15	0	5	15	0	62	72	55	87	100	46	84.1	91.0	79.4	78.3	87.0	72.8	30.24	30.29	30.21	18.71	18.74	18.70
7/10/2014	112	289	9	2	16	0	6	16	0	61	68	55	84	100	48	85.2	89.9	81.0	79.9	87.7	74.5	30.25	30.30	30.21	18.78	18.82	18.74
7/11/2014	112	359	1	2	15	0	7	15	0	58	66	54	81	100	65	87.3	92.6	82.1	82.0	88.5	74.8	30.26	30.31	30.22	18.83	18.83	18.82
7/12/2014	112	333	8	2	17	0	8	17	0	58	65	55	80	100	56	88.8	93.1	84.9	83.5	89.2	78.5	30.26	30.30	30.22	18.83	18.83	18.83
7/13/2014	112	356	5	2	14	0	7	14	0	60	65	57	83	94	53	87.8	91.6	85.0	82.4	85.9	78.1	30.23	30.28	30.20	18.88	18.94	18.83
7/14/2014	112	359	0	2	16	0	7	16	0	59	65	51	81	100	53	87.7	92.5	83.5	82.0	90.0	74.4	30.21	30.26	30.15	18.95	18.96	18.94
7/15/2014	225	319	32	2	19	0	6	19	0	58	65	55	86	94	68	86.0	91.0	83.5	79.0	88.8	75.6	30.15	30.20	30.10	19.01	19.12	18.96
7/16/2014	202	324	154	2	19	0	9	19	0	61	68	58	88	100	55	84.4	88.3	81.4	77.9	87.5	74.4	30.10	30.17	30.06	19.19	19.28	19.12
7/17/2014	225	355	4	2	22	0	8	22	0	64	73	60	85	100	64	85.4	90.1	81.5	80.6	90.4	75.2	30.12	30.18	30.07	19.32	19.40	19.28
7/18/2014	45	359	0	2	13	0	5	13	0	60	66	58	83	100	72	87.9	92.4	83.2	81.8	86.6	76.3	30.18	30.25	30.13	19.40	19.40	19.40
7/19/2014	112	358	0	2	13	0	6	13	0	60	66	55	81	100	46	88.7	92.5	84.7	83.2	87.2	77.8	30.20	30.24	30.16	19.40	19.40	19.40
7/20/2014	112	359	0	1	13	0	6	13	0	57	62	51	79	100	46	89.6	94.0	85.3	83.8	88.7	78.6	30.19	30.23	30.15	19.40	19.40	19.40
7/21/2014	135	331	2	1	16	0	7	16	0	56	61	52	83	100	57	88.5	92.7	85.6	81.8	90.0	77.3	30.20	30.22	30.12	19.42	19.44	19.40
7/22/2014	180	355	2	1	19	0	6	19	0	61	69	58	87	99	53	86.3	91.0	82.8	80.2	88.9	76.2	30.18	30.24	30.13	19.62	19.69	19.44
7/23/2014	112	332	43	2	13	0	5	13	0	62	67	59	84	100	55	86.5	90.7	82.6	81.7	87.9	75.5	30.20	30.24	30.15	19.69	19.69	19.69
7/24/2014	180	359	0	3	15	0	8	15	0	61	67	56	83	100	64	88.1	91.6	84.1	82.8	89.5	76.9	30.17	30.21	30.11	19.71	19.74	19.69
7/25/2014	112	359	1	2	17	0	6	17	0	59	69	56	82	100	47	88.1	92.7	83.9	82.8	91.8	77.3	30.21	30.25	30.16	19.74	19.74	19.74
7/26/2014	112	359	0	1	24	0	6	24	0	58	68	52	83	100	48	88.3	94.2	84.1	81.7	91.9	74.4	30.22	30.28	30.17	19.82	20.25	19.74
7/27/2014	225	339	75	2	13	0	6	13	0	58	68	51	81	98	60	88.6	94.7	83.3	83.5	94.7	75.7	30.21	30.26	30.17	20.25	20.25	20.25
7/28/2014	248	355	113	3	15	0	8	15	0	53	63	44	74	100	49	91.4	97.2	85.9	86.6	94.8	79.1	30.17	30.22	30.10	20.25	20.25	20.25
7/29/2014	248	336	119	3	26	0	9	26	0	53	62	44	81	100	53	89.9	95.1	86.6	82.2	92.8	77.8	30.11	30.17	30.08	20.48	20.84	20.25
7/30/2014	112	359	8	1	14	0	6	14	0	58	63	53	83	98	60	88.2	92.2	83.9	82.3	90.0	76.6	30.10	30.14	30.06	20.86	20.89	20.84
7/31/2014	180	359	29	2	14	0	7	14	0	58	66	54	80	100	65	88.9	92.7	84.7	83.5	91.7	78.4	30.11	30.16	30.08	20.89	20.89	20.89
8/1/2014	112	286	19	3	17	0	8	17	0	56	63	53	79	100	51	89.7	94.6	84.8	84.1	93.7	77.7	30.12	30.17	30.08	20.89	20.89	20.89
8/2/2014	45	359	0	2	15	0	8	15	0	58	62	55	81	95	65	90.1	93.9	86.3	83.8	87.5	79.0	30.10	30.15	30.07	20.89	20.89	20.89
8/3/2014	112	359	11	1	11	0	6	11	0	61	66	58	86	100	59	88.8	91.3	86.4	82.5	86.4	79.8	30.06	30.10	30.01	21.26	21.69	20.89
8/4/2014	180	304	24	3	14	0	9	14	0	61	67	59	88	100	67	86.3	90.8	83.3	78.9	88.8	75.8	30.07	30.13	30.03	21.73	21.77	21.69
8/5/2014	225	347	168	3	14	0	9	14	0	62	75	56	84	100	69	86.5	91.8	82.4	81.2	90.1	76.1	30.16	30.22	30.08	21.77	21.77	21.77
8/6/2014	45	359	0	1	13	0	5	13	0	60	67	55	83	100	69	88.3	92.5	84.0	82.7	87.7	77.3	30.18	30.22	30.13	21.77	21.77	21.77
8/7/2014	112	351	6	1	14	0	4	14	0	59	66	55	86	100	63	87.7	91.1	85.0	81.1	87.6	76.9	30.14	30.18	30.10	21.79	21.87	21.77
8/8/2014	112	321	2	2	18	0	6	18	0	60	69	50	84	98	56	87.3	93.0	82.6	81.1	93.3	74.9	30.17	30.23	30.12	21.87	21.87	21.87
8/9/2014	202	335	33	1	23	0	5	23	0	58	68	51	82	100	34	88.0	93.5	83.7	82.5	93.0	77.3	30.19	30.24	30.14	21.87	21.87	21.87
8/10/2014	202	357	0	2	21	0	7	21	0	54	63	48	80	100	50	88.4	94.4	83.9	82.3	95.7	76.9	30.19	30.23	30.15	21.87	21.89	21.87
8/11/2014	225	359	0	2	16	0	7	16	0	53	64	46	77	100	51	88.8	94.3	83.9	82.9	94.9	76.1	30.17	30.23	30.14	21.89	21.89	21.89
8/12/2014	225	310	119	2	16	0	8	16	0	49	57	42	71	100	46	90.2	95.8	84.2	85.2	96.0	75.6	30.15	30.20	30.10	21.89	21.89	21.89
8/13/2014	180	356	5	2	21	0	8	21	0	50	56	43	77	100	20	91.1	95.8	86.6	85.1	94.8	78.9	30.16	30.20	30.11	21.89	21.90	21.89
8/14/2014	180	359	0	1	18	0	6	18	0	53	61	50	85	100	53	89.4	95.6	86.3	81.5	92.9	77.5	30.16	30.20	30.12	21.92	21.96	21.90
8/15/2014	202	359	0	1	17	0	6	17	0	58	65	54	89	100	65	86.2	92.1	83.2	78.6	91.5	73.9	30.16	30.24	30.11	22.07	22.24	21.96
8/16/2014	202	333	16	1	28	0	6	28	0	60	68	54	89	100	68	84.7	90.3	81.5	77.8	89.3	73.5	30.21	30.28	30.14	24.40	26.59	26.52
8/17/2014	112	358	0	2	13	0	6	13	0	62	70	56	84	100	46	86.6	92.1	81.4	81.6	88.0	74.7	30.23	30.28	30.18	26.60	26.60	26.59
8/18/2014	112	359	0	1	12	0	5	12	0	59	65	54	82	100	22	88.8	93.4	84.7	83.1	90.6	78.1	30.18	30.24	30.12	26.61	26.62	26.60
8/19/2014	112	359	0	2	13	0	5	13	0	58	64	54	80	100	45	89.5	94.5	84.7	84.3	91.7	78.1	30.15	30.20	30.11	26.62	26.62	26.62
8/20/2014	45	359	0	3	13	0	7	13	0	57	64	52	81	100	47	90.2	94.3	86.2	84.5	88.7	79.5	30.20	30.26	30.13	26.62	26.62	26.62
8/21/2014	112	359	0	1	13	0	5	13	0	55	61	46	79	100	59	90.6	95.1	86.2	84.7	91.4	78.8	30.24	30.29	30.20	26.62	26.62	26.62
8/22/2014	45	333	0	2	12	0	5	12	0	54	60	49	79	100	63	91.0	95.5	86.5	84.8	90.0	79.3	30.20	30.27	30.14	26.62	26.62	26.62
8/23/2014	45	359	0	1	12	0	5	12	0	52	59	47	78	100	62	90.8	95.0	86.3	84.3	89.6	77.7	30.09	30.17	30.02	26.62	26.62	26.62
8/24/2014	45	359	0	1	16	0	6	16	0	53	61	48	82	100	46	90.8	95.5	86.2	83.4	90.2	77.5	29.98	30.05	29.91	26.62	26.71	26.62
8/25/2014	45	359	0	4	22	0	16	22	0	60	68	54	82	100	56	89.3	92.3	87.0	83.6	87.1	79.3	29.95	30.01	29.90	26.72	26.72	26.71
8/26/2014	45	359	0	6	19	0	15	19	0	56	63	46	75	100	35	88.5	92.7	85.2	83.6	87.5	80.7	30.03	30.08	29.95	26.72	26.72	26.72
8/27/2014	45	359	0	3	14	0	9	14	0	52	58	47	78	100	30	88.9	93.8	84.5	81.8	87.0	75.0	30.10	30.16	30.04	26.72	26.72	26.72
8/28/2014	112	358	0	1	15	0	7	15	0	54	57	52	80	100	45	89.4	94.0	84.8	82.5	88.1	76.6	30.14	30.20	30.10	26.73	26.87	26.72
8/29/2014	112	359	0	2	18	0	8	18	0	57	64	49	83	100	60	89.5	94.6	84.6	82.8	91.6	76.5	30.19	30.30	30.14	26.88	26.92	26.87
8/30/2014	112	359	0	1	13	0	6	13	0	56	64	52	82	98	65	88.7	93.4	84.2	82.1	89.8	75.2	30.25	30.29	30.21	26.93	26.94	26.92
8/31/2014	112	315	10	2	15	0	7	15	0	55	64	51	81	100	45	89.6	94.2	84.7	83.3	89.9	77.0	30.26	30.30	30.22	27.01	27.02	26.94
9/1/2014	112	176	4	2	19	0	6	19	0	54	60	50	79	100	50	89.9	94.0	85.7	83.8	88.9	77.7	30.24	30.28	30.18	27.02	27.02	27.02
9/2/2014	112	359	0	1	15	0	7	15	0	52	58	48	78	100	14	90.0	94.0	85.8	83.4	88.0	77.6	30.20	30.25	30.15	27.02	27.02	27.02
9/3/2014	112	359	0	1	19	0	7	19	0	53	57	49	79	100	31	88.8	92.9	85.2	81.6	87.5	76.3	30.17	30.22	30.13	27.02	27.05	27.02
9/5/2014	112	359	0	1	14	0	7	14	0	60	67	55	83	100	12	87.8	90.2	83.6	82.1	87.2	75.5	30.23	30.28	30.17	28.12	28.12	28.12
9/6/2014	112	300	26	1	22	0	4	22	0	59	66	56	88	100	67	84.5	89.9	82.1	77.7	88.9	74.4	30.18	30.23	30.09	28.37	28.79	28.12
9/7/2014	112	299	35	1	18	0	5	18	0	63	71	58	89	100	54	84.0	89.0	80.7	78.4	87.8	73.8	30.15	30.20	30.11	28.84	28.98	28.79
9/8/2014	135	270	38	1	18	0	4	18	0	63	70	59	88	99	73	84.1	88.2	81.0	78.7	86.3	73.9	30.17	30.23	30.13	29.42	29.96	28.98
9/9/2014	112	294	3	2	15	0	6	15	0	60	69	55	81	100	45	86.2	91.2	81.6	81.3	88.3	74.8	30.18	30.24	30.13	29.97	29.98	29.96
9/10/2014	112	357	0	1	14	0	7	14	0	58	64	52	82	100	55	87.6	92.0	83.8	82.1	86.8	76.8	30.15	30.20	30.11	29.98	29.98	29.98
9/11/2014	22	359	0	0	20	0	7	20	0	60	71	53	87	100	49	85.9	89.0	83.5	79.7	85.0	76.4	30.13	30.18	30.06	30.02	30.14	29.98
9/12/2014	112	359	0	3	17	0	12	17	0	65	72	57	81	100	57	86.7	91.2	83.2	82.6	87.5	79.2	30.11	30.17	30.05	30.15	30.15	30.14
9/13/2014	112	246	0	1	15	0	7	15	0	59	63	54	80	100	62	87.0	90.9	83.0	81.2	86.5	75.7	30.18	30.25	30.13	30.15	30.16	30.15
9/14/2014	112	359	1	2	15	0	6	15	0	56	62	50	81	100	49	86.5	91.6	82.3	79.9	87.4	73.6	30.26	30.31	30.20	30.18	30.27	30.16
9/15/2014	45	359	0	1	14	0	4	14	0	56	63	52	81	100	64	86.5	91.2	81.6	80.1	86.4	73.4	30.28	30.32	30.23	30.27	30.27	30.27
9/16/2014	45	358	0	1	17	0	5	17	0	54	61	52	82	100	32	87.0	91.2	83.9	80.2	88.8	74.4	30.20	30.28	30.12	30.47	30.78	30.27
9/17/2014	270	329	14	1	15	0	6	15	0	57	62	53	85	98	67	84.6	87.9	81.6	78.0	82.7	74.1	30.07	30.16	30.00	30.78	30.78	30.78
9/18/2014	45	359	0	2	11	0	6	11	0	59	67	56	86	100	48	85.5	90.1	81.4	78.8	84.8	73.4	30.05	30.09	30.01	30.78	30.78	30.78
9/19/2014	45	359	0	1	13	0	5	13	0	59	64	55	86	100	47	85.4	88.9	81.8	79.3	85.7	72.2	30.08	30.12	30.03	30.85	31.66	30.78
9/20/2014	292	359	0	2	18	0	7	18	0	63	70	59	92	100	62	83.1	86.7	80.1	76.5	83.6	72.3	30.04	30.11	30.00	32.09	32.16	31.66
9/21/2014	45	357	0	0	11	0	2	11	0	62	68	59	89	100	76	83.2	87.3	80.0	76.7	83.5	72.4	30.12	30.18	30.06	32.30	32.61	32.16
9/22/2014	112	359	0	0	20	0	5	20	0	63	70	58	90	100	49	82.5	87.7	79.8	75.8	86.3	72.0	30.15	30.20	30.09	33.06	34.18	32.61
9/23/2014	135	335	74	1	23	0	5	23	0	66	77	61	91	100	51	81.8	86.3	79.0	76.2	86.9	72.2	30.13	30.17	30.08	34.28	34.44	34.18
9/24/2014	0	359	0	0	14	0	3	14	0	68	73	63	92	99	74	81.4	83.5	80.0	76.0	79.6	72.7	30.18	30.24	30.11	34.78	35.11	34.44
9/25/2014	45	359	0	0	12	0	4	12	0	72	78	67	91	100	61	82.8	86.4	80.2	78.7	83.4	75.1	30.17	30.23	30.13	35.38	35.81	35.11
9/26/2014	112	354	11	0	17	0	4	17	0	70	79	65	90	100	48	82.5	85.3	79.4	77.9	84.5	73.1	30.12	30.17	30.08	35.92	36.05	35.81
9/27/2014	112	357	0	1	16	0	6	16	0	68	78	64	87	100	72	83.8	89.0	79.8	79.5	87.6	73.8	30.12	30.16	30.08	36.09	36.11	36.05
9/28/2014	112	358	0	1	15	0	5	15	0	65	71	60	83	100	58	86.2	90.3	83.0	82.1	87.6	78.3	30.11	30.16	30.06	36.11	36.11	36.11
9/29/2014	112	323	35	2	21	0	6	21	0	63	70	60	88	98	71	85.3	89.9	82.3	79.5	88.1	73.6	30.03	30.11	29.96	36.59	38.20	36.11
9/30/2014	248	353	0	1	14	0	4	14	0	66	73	63	91	100	72	83.6	87.4	80.6	77.9	86.6	74.4	29.97	30.01	29.94	38.31	38.49	38.20
10/1/2014	45	359	0	1	16	0	4	16	0	66	75	63	91	100	56	84.3	88.8	80.7	78.9	89.3	74.8	30.04	30.12	29.98	38.60	38.93	38.49
10/2/2014	45	359	0	1	13	0	6	13	0	64	73	61	88	100	50	85.3	90.0	81.4	80.2	85.1	75.8	30.13	30.19	30.07	38.94	38.94	38.93
10/3/2014	112	359	0	1	13	0	5	13	0	62	66	59	84	100	71	86.6	90.5	83.3	81.6	87.1	76.8	30.13	30.19	30.07	39.06	39.56	38.94
10/4/2014	248	354	0	1	13	0	6	13	0	63	67	55	86	100	21	84.6	88.1	82.1	78.6	85.8	75.0	30.02	30.10	29.94	39.57	39.57	39.56
10/5/2014	0	359	0	1	12	0	8	12	0	47	56	40	72	100	45	81.3	85.3	76.8	71.5	77.2	63.1	30.09	30.17	30.03	39.57	39.57	39.57
10/6/2014	45	359	0	1	11	0	4	11	0	47	53	43	73	100	59	81.1	85.5	76.5	74.4	81.6	65.5	30.18	30.23	30.13	39.57	39.57	39.57
10/7/2014	112	220	13	1	11	0	3	11	0	53	60	47	78	94	62	83.0	87.0	78.9	77.9	85.0	70.8	30.21	30.26	30.16	39.57	39.57	39.57
10/8/2014	45	359	0	0	9	0	4	9	0	57	64	53	81	100	46	83.9	87.2	81.2	79.2	84.2	75.1	30.23	30.28	30.18	39.57	39.57	39.57
10/9/2014	45	359	0	2	17	0	8	17	0	55	63	50	75	91	66	84.4	88.5	80.7	79.6	83.9	72.4	30.21	30.25	30.17	39.57	39.57	39.57
10/10/2014	45	357	0	2	15	0	9	15	0	56	62	52	74	100	20	85.5	89.5	82.1	81.2	85.4	77.9	30.18	30.22	30.13	39.57	39.57	39.57
10/11/2014	45	359	0	1	11	0	7	11	0	54	58	49	77	100	52	85.9	89.9	82.2	80.7	84.7	74.2	30.16	30.20	30.11	39.57	39.57	39.57
10/12/2014	112	351	0	2	16	0	8	16	0	53	60	49	76	100	46	85.8	89.8	81.8	80.4	86.1	73.3	30.19	30.23	30.14	39.57	39.57	39.57
10/13/2014	112	241	22	3	17	0	13	17	0	55	61	52	74	100	45	86.0	90.0	82.7	81.8	86.7	77.9	30.21	30.26	30.17	39.58	39.58	39.57
10/14/2014	135	340	20	3	18	0	12	18	0	61	69	56	81	100	68	85.9	89.6	82.8	81.3	87.5	74.1	30.14	30.20	30.06	39.60	39.92	39.58
10/15/2014	248	359	0	1	14	0	6	14	0	62	68	57	88	99	66	84.0	88.7	80.3	78.3	87.6	73.3	30.08	30.16	30.02	40.03	40.09	39.92
10/16/2014	292	359	0	1	15	0	6	15	0	51	58	44	75	100	38	83.0	88.1	77.9	74.2	83.1	65.4	30.06	30.12	30.01	40.09	40.09	40.09
10/17/2014	315	359	0	0	12	0	4	12	0	46	55	43	76	90	62	81.0	85.3	75.7	71.3	79.4	62.1	30.09	30.14	30.04	40.09	40.09	40.09
10/18/2014	315	355	0	0	8	0	3	8	0	47	54	44	77	100	45	81.3	86.7	75.9	72.9	83.0	64.4	30.09	30.14	30.05	40.10	40.10	40.09
10/19/2014	45	359	0	0	8	0	3	8	0	47	54	45	78	100	60	81.0	85.4	75.8	72.5	79.5	63.4	30.14	30.19	30.10	40.11	40.11	40.10
10/20/2014	45	359	0	1	11	0	3	11	0	49	55	46	78	100	20	81.9	86.6	76.9	75.2	81.7	66.5	30.14	30.21	30.09	40.11	40.11	40.11
10/21/2014	180	244	3	1	19	0	4	19	0	52	57	47	84	100	72	81.5	84.0	79.1	74.9	81.5	70.7	30.08	30.12	30.05	40.11	40.11	40.11
10/22/2014	22	359	0	1	12	0	5	12	0	55	66	50	83	100	67	81.0	85.2	77.4	74.4	80.4	69.3	30.09	30.14	30.04	40.12	40.12	40.11
10/23/2014	45	359	0	3	14	0	11	14	0	48	54	40	67	100	15	80.8	84.4	78.1	75.5	79.2	73.4	30.09	30.14	30.06	40.12	40.12	40.12
10/24/2014	45	359	0	3	16	0	12	16	0	45	51	40	67	100	41	80.1	83.8	77.5	75.2	79.3	73.1	30.07	30.12	30.02	40.12	40.12	40.12
10/25/2014	0	359	0	2	16	0	8	16	0	46	54	42	74	100	60	80.2	84.6	76.2	72.3	77.9	64.7	30.07	30.12	30.03	40.12	40.12	40.12
10/26/2014	0	359	0	0	10	0	4	10	0	44	50	40	74	100	51	79.7	84.6	74.5	70.5	77.6	61.6	30.11	30.18	30.05	40.12	40.12	40.12
10/27/2014	45	359	0	0	8	0	3	8	0	45	52	40	78	100	66	79.3	84.7	73.5	70.5	79.6	61.0	30.20	30.26	30.14	40.13	40.13	40.12
10/28/2014	45	359	0	0	10	0	3	10	0	48	55	44	80	100	45	80.4	85.2	75.3	73.0	81.2	64.2	30.27	30.32	30.23	40.13	40.13	40.13
10/29/2014	45	359	0	1	10	0	3	10	0	48	59	43	78	100	63	81.0	85.6	76.2	73.3	81.4	64.6	30.20	30.27	29.90	40.13	40.13	40.13
10/30/2014	45	359	0	1	10	0	3	10	0	47	57	43	78	100	18	80.9	85.4	76.1	74.0	82.1	66.1	30.08	30.16	30.01	40.13	40.13	40.13
10/31/2014	292	357	10	1	15	0	6	15	0	48	59	34	77	100	52	81.0	85.8	77.5	73.0	81.4	63.6	29.97	30.03	29.90	40.13	40.13	40.13
11/1/2014	292	358	0	3	27	0	12	27	0	31	39	21	60	85	31	73.8	78.0	68.9	60.5	65.8	50.5	30.10	30.30	30.00	40.13	40.13	40.13
11/2/2014	315	359	0	3	17	0	9	17	0	31	35	25	65	79	43	69.0	74.0	64.0	55.4	64.2	46.1	30.36	30.44	30.29	40.13	40.13	40.13
11/3/2014	45	359	0	3	16	0	10	16	0	38	45	31	67	86	50	71.0	75.9	65.7	63.7	73.0	51.2	30.43	30.48	30.37	40.13	40.13	40.13
11/4/2014	45	359	0	3	18	0	12	18	0	46	50	42	64	100	43	76.4	80.4	73.0	73.8	78.9	69.9	30.38	30.45	30.32	40.13	40.13	40.13
11/5/2014	45	352	0	2	14	0	9	14	0	51	55	48	70	100	45	79.1	82.8	76.1	75.7	80.1	73.1	30.32	30.38	30.26	40.13	40.13	40.13
11/6/2014	45	359	0	0	10	0	3	10	0	52	57	48	78	100	59	80.0	84.3	76.5	74.1	80.9	68.2	30.20	30.30	30.11	40.13	40.13	40.13
11/7/2014	0	359	0	0	14	0	5	14	0	48	56	44	80	100	45	77.9	81.6	75.0	69.0	73.7	65.1	30.09	30.14	30.05	40.13	40.13	40.13
11/8/2014	112	357	0	1	18	0	5	18	0	51	57	43	83	100	45	76.7	81.0	71.9	69.3	79.1	59.8	30.03	30.11	29.97	40.26	40.67	40.13
11/9/2014	315	359	0	1	11	0	7	11	0	56	60	53	95	100	92	73.1	76.4	71.2	64.1	66.2	60.7	30.01	30.06	29.95	40.84	41.16	40.67
11/10/2014	315	359	0	1	14	0	8	14	0	60	68	52	90	100	76	73.5	78.1	70.4	66.5	75.0	62.7	30.03	30.09	29.98	41.18	41.20	41.16
11/11/2014	292	359	0	2	18	0	9	18	0	55	68	49	81	100	62	75.5	80.7	70.2	68.3	77.3	60.1	30.03	30.09	29.99	41.20	41.20	41.20
11/12/2014	315	359	0	1	14	0	6	14	0	52	60	48	77	89	58	77.0	82.4	71.9	68.3	76.3	60.0	30.12	30.19	30.06	41.20	41.20	41.20
11/13/2014	45	359	0	0	9	0	3	9	0	50	56	48	81	100	66	76.7	81.3	71.4	67.9	77.0	59.1	30.15	30.21	30.10	41.20	41.20	41.20
11/14/2014	315	359	0	0	11	0	5	11	0	53	62	48	87	100	78	75.4	78.4	72.3	66.0	72.0	61.9	30.18	30.27	30.10	41.21	41.21	41.20
11/15/2014	0	359	0	1	11	0	6	11	0	53	58	49	81	92	72	75.0	79.2	70.9	67.0	72.4	57.9	30.29	30.36	30.23	41.21	41.21	41.21
11/16/2014	112	199	3	1	15	0	4	15	0	57	68	51	84	100	62	76.5	81.4	70.9	71.0	79.7	59.9	30.27	30.35	30.19	41.21	41.21	41.21
11/17/2014	202	359	26	4	29	0	11	29	0	62	74	54	84	100	65	79.7	84.6	76.1	75.9	86.2	69.6	30.11	30.19	30.02	41.22	41.25	41.21
11/18/2014	315	359	0	3	15	0	11	15	0	52	62	41	88	98	71	71.9	77.6	65.0	58.9	70.4	49.5	30.25	30.40	30.08	41.27	41.29	41.25
11/19/2014	315	359	0	3	16	0	11	16	0	47	55	40	80	92	70	65.5	69.3	62.2	54.9	63.2	47.3	30.37	30.44	30.33	41.29	41.29	41.29
11/20/2014	0	359	0	2	17	0	8	17	0	54	64	50	83	100	69	67.8	71.9	63.9	60.4	67.4	54.1	30.33	30.39	30.29	41.30	41.30	41.29
11/21/2014	45	359	0	3	15	0	11	15	0	55	61	50	72	100	61	71.4	74.4	67.2	69.6	73.9	56.5	30.35	30.41	30.29	41.30	41.30	41.30
11/22/2014	112	354	0	4	21	0	16	21	0	69	76	59	82	93	71	74.3	75.2	73.2	73.0	74.4	71.0	30.32	30.39	30.22	41.34	41.40	41.30
11/23/2014	135	298	24	4	23	0	15	23	0	78	87	73	87	99	73	78.1	81.9	74.5	76.9	83.1	73.1	30.12	30.23	30.03	41.44	41.45	41.40
11/24/2014	202	293	121	2	17	0	7	17	0	74	81	66	84	100	45	80.5	84.5	77.0	79.1	86.8	73.8	30.10	30.18	30.05	41.46	41.46	41.45
11/25/2014	180	329	54	2	16	0	9	16	0	72	78	68	87	100	76	81.5	84.5	79.1	78.6	84.1	75.0	30.10	30.18	30.02	41.47	41.52	41.46
11/26/2014	315	359	0	3	23	0	10	23	0	61	76	50	88	100	51	74.8	80.1	67.5	63.8	76.4	52.9	30.18	30.34	30.01	42.40	42.62	41.52
11/27/2014	315	359	0	1	15	0	7	15	0	51	59	40	72	92	55	69.0	75.2	63.3	59.0	71.5	48.4	30.34	30.42	30.27	42.63	42.63	42.62
11/28/2014	315	359	0	3	16	0	11	16	0	42	48	37	72	100	64	67.0	71.0	62.8	54.8	62.3	47.2	30.37	30.43	30.34	42.63	42.63	42.63
11/29/2014	315	359	0	2	12	0	7	12	0	48	59	42	77	94	57	68.4	73.7	62.8	61.5	71.1	50.8	30.38	30.43	30.33	42.63	42.63	42.63
11/30/2014	45	150	0	1	13	0	6	13	0	53	61	48	77	97	46	72.2	76.7	67.8	67.7	76.3	58.1	30.40	30.46	30.36	42.63	42.63	42.63
12/1/2014	45	186	0	1	17	0	9	17	0	61	68	56	80	100	22	75.1	78.9	72.1	72.4	78.1	67.5	30.39	30.46	30.35	42.70	42.74	42.63
12/2/2014	112	359	0	2	23	0	11	23	0	68	72	62	88	100	48	75.1	78.2	73.8	71.0	75.7	67.5	30.31	30.38	30.26	43.29	43.83	42.74
12/3/2014	45	359	0	2	14	0	8	14	0	66	73	58	83	100	33	76.3	80.0	73.3	73.1	77.7	68.7	30.28	30.33	30.24	43.84	43.84	43.83
12/4/2014	45	359	0	3	14	0	11	14	0	65	71	59	81	100	28	77.8	81.1	75.2	74.4	78.2	70.5	30.29	30.35	30.24	43.84	43.89	43.84
12/5/2014	45	222	0	1	15	0	9	15	0	68	75	64	88	100	55	77.3	80.7	74.6	72.9	78.6	68.5	30.33	30.38	30.29	44.33	44.51	43.89
12/6/2014	22	359	0	0	9	0	3	9	0	66	72	60	89	100	49	78.1	81.8	74.8	72.0	77.2	67.9	30.30	30.36	30.22	44.51	44.51	44.51
12/7/2014	0	359	0	0	13	0	7	13	0	60	64	56	89	98	77	74.4	76.9	71.4	66.1	69.5	60.1	30.20	30.25	30.16	44.52	44.52	44.51
12/8/2014	315	359	0	0	11	0	5	11	0	66	71	57	95	100	92	72.0	73.4	70.6	65.0	67.5	61.1	30.16	30.23	30.12	44.67	44.80	44.52
12/9/2014	315	359	0	3	15	0	11	15	0	57	67	46	83	100	57	70.9	75.1	67.4	59.7	67.1	52.7	30.13	30.20	30.09	44.90	44.91	44.80
12/10/2014	315	359	0	1	15	0	6	15	0	45	50	41	70	89	43	67.5	72.9	62.8	55.2	65.0	47.7	30.22	30.29	30.18	44.91	44.91	44.91
12/11/2014	292	359	1	1	14	0	4	14	0	44	50	41	75	91	56	65.5	70.7	60.5	54.6	65.9	45.4	30.27	30.34	30.22	44.92	44.92	44.91
12/12/2014	315	359	0	1	8	0	5	8	0	46	50	43	81	99	71	64.1	66.9	61.8	53.8	60.3	48.7	30.32	30.39	30.28	44.92	44.92	44.92
12/13/2014	315	359	0	1	13	0	6	13	0	49	57	44	77	100	46	65.5	70.8	60.7	56.9	65.5	49.8	30.26	30.32	30.20	44.92	44.92	44.92
12/14/2014	315	354	0	0	8	0	2	8	0	45	55	41	74	100	14	65.6	72.2	59.3	56.1	70.4	45.0	30.20	30.25	30.16	44.93	44.93	44.92
12/15/2014	45	358	0	1	8	0	2	8	0	43	52	40	73	91	44	66.5	71.8	60.5	56.8	70.9	45.7	30.23	30.28	30.18	44.93	44.93	44.93
12/16/2014	225	346	0	1	12	0	3	12	0	44	51	40	71	94	43	68.0	74.3	61.1	60.6	75.3	48.5	30.29	30.35	30.25	44.94	44.94	44.93
12/17/2014	292	354	132	1	13	0	4	13	0	49	58	42	80	100	67	70.7	76.1	65.4	64.5	75.4	55.8	30.28	30.35	30.21	44.94	44.94	44.94
12/18/2014	292	359	0	0	10	0	3	10	0	46	53	42	77	100	46	70.1	74.1	65.7	59.7	71.0	51.5	30.26	30.32	30.21	44.94	44.94	44.94
12/19/2014	0	359	0	0	8	0	3	8	0	47	51	42	79	100	39	69.2	73.9	63.7	60.0	68.8	51.9	30.22	30.29	30.18	44.95	44.95	44.94
12/20/2014	112	359	0	0	9	0	2	9	0	53	63	47	83	100	47	71.1	76.1	66.5	65.5	74.7	57.3	30.20	30.26	30.16	44.95	44.95	44.95
12/21/2014	112	289	34	1	14	0	4	14	0	57	66	53	82	100	41	74.0	78.7	69.3	70.2	79.2	61.5	30.19	30.26	30.14	44.95	44.95	44.95
12/22/2014	180	357	55	1	15	0	6	15	0	62	70	58	82	100	61	76.3	80.9	71.9	73.3	82.3	65.7	30.12	30.20	30.05	45.03	45.04	44.95
12/23/2014	135	251	35	2	18	0	9	18	0	67	73	61	87	100	76	77.2	80.8	73.9	74.0	80.3	67.9	30.08	30.13	30.03	45.04	45.04	45.04
12/24/2014	180	286	97	3	27	0	14	27	0	70	77	63	83	100	48	79.0	83.1	75.8	77.4	84.6	72.6	30.04	30.08	29.99	45.04	45.05	45.04
12/25/2014	315	359	0	1	21	0	6	21	0	57	70	49	80	95	35	74.1	79.0	70.5	64.8	75.5	58.7	30.25	30.35	30.05	45.32	45.34	45.05
12/26/2014	315	359	0	0	9	0	5	9	0	59	70	50	86	100	79	71.1	73.7	67.5	65.3	72.7	56.0	30.32	30.36	30.29	45.34	45.34	45.34
12/27/2014	112	139	12	0	9	0	2	9	0	69	78	65	90	100	61	75.5	79.9	71.6	71.6	78.3	65.9	30.32	30.39	30.28	45.34	45.34	45.34
12/28/2014	180	290	81	0	11	0	4	11	0	67	75	63	85	100	48	77.9	83.0	73.8	74.5	83.4	67.8	30.26	30.33	30.22	45.34	45.34	45.34
12/29/2014	225	315	115	1	13	0	4	13	0	64	72	59	83	100	69	78.7	82.8	74.6	75.1	82.7	67.7	30.23	30.29	30.17	45.35	45.35	45.34
12/30/2014	0	359	0	0	12	0	5	12	0	62	69	59	87	100	64	77.9	82.3	74.6	71.3	81.8	66.1	30.28	30.36	30.22	45.35	45.35	45.35
12/31/2014	45	359	0	2	17	0	12	17	0	73	77	64	91	98	87	75.1	76.3	73.8	70.9	73.0	69.0	30.33	30.39	30.27	45.38	45.41	45.35

 


 

 

 

Weather Underground PWS KFLSEBAS1  

Ambient Weather and Weather Underground
 Never base important decisions on this or any weather information obtained from the Internet
Updated Automatically by Ambient Weather's Virtual Weather Station  V15.00 p03

Please note that some of the functionality of this WEB site depends upon outside sources like
the National Weather Service and numerous other providers of weather data being operational.
If any of these WEB sites are down, then portions of this WEB site will be unavailable.
We apologize for any inconvenience this may cause you.


KFLSEBAS1 Home  NWS Radar and Forecast Offices
Forecast Weather-USA-Area-Zone-Coastal-Surf
Hazardous Weather Outlook  Tropical Weather Page  Graphical Weather Links 
Weather WEB Site  Archived Hurricane Radar Images 
Archived Hurricane Satellite Images  Hurricane Wilma Video 
Laura's Sebastian, Florida  Lynda's Sebastian, Florida  Hurricane Hunters Daytona, Florida 2007 
KFLSEBAS1 Graphs and Gauges  KFLSEBAS1 Daily Report  KFLSEBAS1 Weather Details 
Conversion Calculator  Local Vendors Pick List  Disclaimers  Site Map 
*

This page was last updated on

Friday, March 31, 2017 11:16:14 AM

Copyright 2001-2017: KFLSEBAS1 WEB Site designed and maintained by TVOR